<?xml version='1.0' encoding='UTF-8'?><gpx version="1.1" creator="JPX - https://github.com/jenetics/jpx" xmlns="http://www.topografix.com/GPX/1/1"><trk><trkseg><trkpt lat="45.1900507" lon="8.0680014"><ele>156.0</ele><time>2026-05-04T05:28:27.009Z</time></trkpt><trkpt lat="45.1901261" lon="8.0680461"><ele>156.0</ele><time>2026-05-04T05:28:28.02Z</time></trkpt><trkpt lat="45.1902031" lon="8.0680935"><ele>156.0</ele><time>2026-05-04T05:28:29.049Z</time></trkpt><trkpt lat="45.1902821" lon="8.0681321"><ele>156.0</ele><time>2026-05-04T05:28:30.022Z</time></trkpt><trkpt lat="45.1904318" lon="8.0682188"><ele>156.0</ele><time>2026-05-04T05:28:32.026Z</time></trkpt><trkpt lat="45.1905093" lon="8.0682592"><ele>156.0</ele><time>2026-05-04T05:28:33.013Z</time></trkpt><trkpt lat="45.1905825" lon="8.0682989"><ele>156.0</ele><time>2026-05-04T05:28:34.014Z</time></trkpt><trkpt lat="45.1906497" lon="8.0683325"><ele>156.0</ele><time>2026-05-04T05:28:35.009Z</time></trkpt><trkpt lat="45.1907584" lon="8.0683783"><ele>156.0</ele><time>2026-05-04T05:28:37.021Z</time></trkpt><trkpt lat="45.1908716" lon="8.0683284"><ele>156.0</ele><time>2026-05-04T05:28:39.012Z</time></trkpt><trkpt lat="45.1909294" lon="8.0682803"><ele>156.0</ele><time>2026-05-04T05:28:40.016Z</time></trkpt><trkpt lat="45.1909877" lon="8.0682126"><ele>156.0</ele><time>2026-05-04T05:28:41.011Z</time></trkpt><trkpt lat="45.1910533" lon="8.068135"><ele>156.0</ele><time>2026-05-04T05:28:42.014Z</time></trkpt><trkpt lat="45.1911274" lon="8.0680598"><ele>156.0</ele><time>2026-05-04T05:28:43.011Z</time></trkpt><trkpt lat="45.1912" lon="8.0679853"><ele>156.0</ele><time>2026-05-04T05:28:44.026Z</time></trkpt><trkpt lat="45.1912822" lon="8.0679266"><ele>156.0</ele><time>2026-05-04T05:28:45.017Z</time></trkpt><trkpt lat="45.1913702" lon="8.0678676"><ele>156.0</ele><time>2026-05-04T05:28:46.014Z</time></trkpt><trkpt lat="45.1914651" lon="8.0678194"><ele>156.0</ele><time>2026-05-04T05:28:47.014Z</time></trkpt><trkpt lat="45.1915639" lon="8.0677722"><ele>156.0</ele><time>2026-05-04T05:28:48.039Z</time></trkpt><trkpt lat="45.1916651" lon="8.0677241"><ele>156.0</ele><time>2026-05-04T05:28:49.014Z</time></trkpt><trkpt lat="45.1917688" lon="8.0676724"><ele>156.0</ele><time>2026-05-04T05:28:50.011Z</time></trkpt><trkpt lat="45.1918758" lon="8.0676192"><ele>156.0</ele><time>2026-05-04T05:28:51.016Z</time></trkpt><trkpt lat="45.1920968" lon="8.0675168"><ele>156.0</ele><time>2026-05-04T05:28:53.012Z</time></trkpt><trkpt lat="45.1921982" lon="8.0674627"><ele>156.0</ele><time>2026-05-04T05:28:54.01Z</time></trkpt><trkpt lat="45.192288" lon="8.0674043"><ele>156.0</ele><time>2026-05-04T05:28:55.012Z</time></trkpt><trkpt lat="45.1923644" lon="8.0673461"><ele>156.16666666666666</ele><time>2026-05-04T05:28:56.057Z</time></trkpt><trkpt lat="45.1924328" lon="8.0672874"><ele>156.33333333333334</ele><time>2026-05-04T05:28:57.016Z</time></trkpt><trkpt lat="45.1924924" lon="8.0672303"><ele>156.5</ele><time>2026-05-04T05:28:58.018Z</time></trkpt><trkpt lat="45.192545" lon="8.0671775"><ele>156.66666666666669</ele><time>2026-05-04T05:28:59.029Z</time></trkpt><trkpt lat="45.1926376" lon="8.0671285"><ele>156.83333333333334</ele><time>2026-05-04T05:29:01.014Z</time></trkpt><trkpt lat="45.1927388" lon="8.0671456"><ele>157.0</ele><time>2026-05-04T05:29:03.016Z</time></trkpt><trkpt lat="45.1928528" lon="8.0672077"><ele>157.0</ele><time>2026-05-04T05:29:05.023Z</time></trkpt><trkpt lat="45.1929198" lon="8.0672086"><ele>157.0</ele><time>2026-05-04T05:29:06.014Z</time></trkpt><trkpt lat="45.1929904" lon="8.0672054"><ele>157.0</ele><time>2026-05-04T05:29:07.022Z</time></trkpt><trkpt lat="45.1930924" lon="8.0672253"><ele>157.0</ele><time>2026-05-04T05:29:09.019Z</time></trkpt><trkpt lat="45.1931505" lon="8.0673167"><ele>157.0</ele><time>2026-05-04T05:29:11.019Z</time></trkpt><trkpt lat="45.1931681" lon="8.0674887"><ele>157.0</ele><time>2026-05-04T05:29:13.011Z</time></trkpt><trkpt lat="45.1931765" lon="8.0677328"><ele>157.0</ele><time>2026-05-04T05:29:15.012Z</time></trkpt><trkpt lat="45.1931818" lon="8.0678814"><ele>157.0</ele><time>2026-05-04T05:29:16.01Z</time></trkpt><trkpt lat="45.1931895" lon="8.0680383"><ele>157.0</ele><time>2026-05-04T05:29:17.013Z</time></trkpt><trkpt lat="45.1931963" lon="8.0681989"><ele>156.79999999999998</ele><time>2026-05-04T05:29:18.012Z</time></trkpt><trkpt lat="45.1932039" lon="8.0683455"><ele>156.6</ele><time>2026-05-04T05:29:19.013Z</time></trkpt><trkpt lat="45.1932169" lon="8.0684718"><ele>156.39999999999998</ele><time>2026-05-04T05:29:20.016Z</time></trkpt><trkpt lat="45.1932358" lon="8.0685702"><ele>156.2</ele><time>2026-05-04T05:29:21.022Z</time></trkpt><trkpt lat="45.1933042" lon="8.0687061"><ele>156.0</ele><time>2026-05-04T05:29:23.006Z</time></trkpt><trkpt lat="45.1934198" lon="8.0687581"><ele>156.0</ele><time>2026-05-04T05:29:25.03Z</time></trkpt><trkpt lat="45.1935145" lon="8.0687732"><ele>156.0</ele><time>2026-05-04T05:29:27.008Z</time></trkpt><trkpt lat="45.1935564" lon="8.0688592"><ele>156.0</ele><time>2026-05-04T05:29:30.011Z</time></trkpt><trkpt lat="45.1934529" lon="8.0690565"><ele>156.0</ele><time>2026-05-04T05:33:13.011Z</time></trkpt><trkpt lat="45.1933144" lon="8.0692187"><ele>156.33333333333334</ele><time>2026-05-04T05:33:18.034Z</time></trkpt><trkpt lat="45.1932438" lon="8.0693574"><ele>156.66666666666669</ele><time>2026-05-04T05:33:30.121Z</time></trkpt><trkpt lat="45.1932417" lon="8.0697542"><ele>157.0</ele><time>2026-05-04T05:33:32.019Z</time></trkpt><trkpt lat="45.193245" lon="8.0699515"><ele>157.0</ele><time>2026-05-04T05:33:33.028Z</time></trkpt><trkpt lat="45.1932495" lon="8.0701405"><ele>157.0</ele><time>2026-05-04T05:33:34.013Z</time></trkpt><trkpt lat="45.1932603" lon="8.070548"><ele>157.0</ele><time>2026-05-04T05:33:36.017Z</time></trkpt><trkpt lat="45.1932665" lon="8.0707594"><ele>157.33333333333334</ele><time>2026-05-04T05:33:37.013Z</time></trkpt><trkpt lat="45.1932729" lon="8.0709763"><ele>157.66666666666666</ele><time>2026-05-04T05:33:38.03Z</time></trkpt><trkpt lat="45.1932791" lon="8.0711978"><ele>158.0</ele><time>2026-05-04T05:33:39.016Z</time></trkpt><trkpt lat="45.1932853" lon="8.0714277"><ele>158.0</ele><time>2026-05-04T05:33:40.019Z</time></trkpt><trkpt lat="45.1932914" lon="8.0716582"><ele>158.0</ele><time>2026-05-04T05:33:41.009Z</time></trkpt><trkpt lat="45.1932969" lon="8.0718901"><ele>158.0</ele><time>2026-05-04T05:33:42.019Z</time></trkpt><trkpt lat="45.1933022" lon="8.0721252"><ele>158.0</ele><time>2026-05-04T05:33:43.017Z</time></trkpt><trkpt lat="45.1933074" lon="8.0723671"><ele>158.0</ele><time>2026-05-04T05:33:44.018Z</time></trkpt><trkpt lat="45.1933127" lon="8.072613"><ele>158.0</ele><time>2026-05-04T05:33:45.021Z</time></trkpt><trkpt lat="45.1933189" lon="8.0728603"><ele>158.33333333333331</ele><time>2026-05-04T05:33:46.021Z</time></trkpt><trkpt lat="45.193326" lon="8.073108"><ele>158.66666666666666</ele><time>2026-05-04T05:33:47.017Z</time></trkpt><trkpt lat="45.1933332" lon="8.0733574"><ele>159.0</ele><time>2026-05-04T05:33:48.018Z</time></trkpt><trkpt lat="45.1933404" lon="8.0736058"><ele>158.33333333333334</ele><time>2026-05-04T05:33:49.016Z</time></trkpt><trkpt lat="45.1933472" lon="8.073855"><ele>157.66666666666669</ele><time>2026-05-04T05:33:50.018Z</time></trkpt><trkpt lat="45.1933527" lon="8.0741045"><ele>157.0</ele><time>2026-05-04T05:33:51.019Z</time></trkpt><trkpt lat="45.1933568" lon="8.0743542"><ele>156.66666666666669</ele><time>2026-05-04T05:33:52.021Z</time></trkpt><trkpt lat="45.1933613" lon="8.0746034"><ele>156.33333333333334</ele><time>2026-05-04T05:33:53.021Z</time></trkpt><trkpt lat="45.1933669" lon="8.0748534"><ele>156.0</ele><time>2026-05-04T05:33:54.017Z</time></trkpt><trkpt lat="45.1933732" lon="8.0751063"><ele>156.0</ele><time>2026-05-04T05:33:55.015Z</time></trkpt><trkpt lat="45.1933865" lon="8.0756196"><ele>156.0</ele><time>2026-05-04T05:33:57.016Z</time></trkpt><trkpt lat="45.1933949" lon="8.0758776"><ele>156.0</ele><time>2026-05-04T05:33:58.026Z</time></trkpt><trkpt lat="45.1934031" lon="8.0761347"><ele>156.0</ele><time>2026-05-04T05:33:59.014Z</time></trkpt><trkpt lat="45.1934102" lon="8.0763946"><ele>156.0</ele><time>2026-05-04T05:34:00.015Z</time></trkpt><trkpt lat="45.1934165" lon="8.0766538"><ele>155.66666666666666</ele><time>2026-05-04T05:34:01.016Z</time></trkpt><trkpt lat="45.1934238" lon="8.0769118"><ele>155.33333333333331</ele><time>2026-05-04T05:34:02.014Z</time></trkpt><trkpt lat="45.1934317" lon="8.077169"><ele>155.0</ele><time>2026-05-04T05:34:03.019Z</time></trkpt><trkpt lat="45.1934395" lon="8.0774244"><ele>156.0</ele><time>2026-05-04T05:34:04.018Z</time></trkpt><trkpt lat="45.193447" lon="8.077679"><ele>157.0</ele><time>2026-05-04T05:34:05.021Z</time></trkpt><trkpt lat="45.1934541" lon="8.0779324"><ele>158.0</ele><time>2026-05-04T05:34:06.033Z</time></trkpt><trkpt lat="45.1934602" lon="8.0781822"><ele>158.66666666666666</ele><time>2026-05-04T05:34:07.021Z</time></trkpt><trkpt lat="45.193465" lon="8.0784327"><ele>159.33333333333334</ele><time>2026-05-04T05:34:08.016Z</time></trkpt><trkpt lat="45.1934694" lon="8.0786833"><ele>160.0</ele><time>2026-05-04T05:34:09.02Z</time></trkpt><trkpt lat="45.1934725" lon="8.0789328"><ele>160.0</ele><time>2026-05-04T05:34:10.019Z</time></trkpt><trkpt lat="45.193474" lon="8.0791816"><ele>160.0</ele><time>2026-05-04T05:34:11.015Z</time></trkpt><trkpt lat="45.193475" lon="8.0794286"><ele>160.0</ele><time>2026-05-04T05:34:12.014Z</time></trkpt><trkpt lat="45.1934767" lon="8.0796699"><ele>160.0</ele><time>2026-05-04T05:34:13.028Z</time></trkpt><trkpt lat="45.1934772" lon="8.0799027"><ele>160.0</ele><time>2026-05-04T05:34:14.016Z</time></trkpt><trkpt lat="45.1934732" lon="8.0801197"><ele>160.0</ele><time>2026-05-04T05:34:15.021Z</time></trkpt><trkpt lat="45.1934612" lon="8.0803235"><ele>159.33333333333334</ele><time>2026-05-04T05:34:16.016Z</time></trkpt><trkpt lat="45.1934026" lon="8.0806997"><ele>158.66666666666666</ele><time>2026-05-04T05:34:18.026Z</time></trkpt><trkpt lat="45.19335" lon="8.0808712"><ele>158.0</ele><time>2026-05-04T05:34:19.021Z</time></trkpt><trkpt lat="45.1932838" lon="8.0810364"><ele>158.0</ele><time>2026-05-04T05:34:20.016Z</time></trkpt><trkpt lat="45.1932126" lon="8.0812074"><ele>158.0</ele><time>2026-05-04T05:34:21.021Z</time></trkpt><trkpt lat="45.193143" lon="8.0813907"><ele>158.0</ele><time>2026-05-04T05:34:22.025Z</time></trkpt><trkpt lat="45.1930759" lon="8.0815873"><ele>158.0</ele><time>2026-05-04T05:34:23.023Z</time></trkpt><trkpt lat="45.1930097" lon="8.0817951"><ele>157.0</ele><time>2026-05-04T05:34:24.024Z</time></trkpt><trkpt lat="45.1929416" lon="8.0820096"><ele>156.0</ele><time>2026-05-04T05:34:25.02Z</time></trkpt><trkpt lat="45.1928706" lon="8.0822284"><ele>155.0</ele><time>2026-05-04T05:34:26.016Z</time></trkpt><trkpt lat="45.1927952" lon="8.0824501"><ele>155.0</ele><time>2026-05-04T05:34:27.021Z</time></trkpt><trkpt lat="45.1927132" lon="8.0826728"><ele>155.0</ele><time>2026-05-04T05:34:28.024Z</time></trkpt><trkpt lat="45.1926236" lon="8.0828952"><ele>155.0</ele><time>2026-05-04T05:34:29.036Z</time></trkpt><trkpt lat="45.192528" lon="8.0831169"><ele>155.33333333333331</ele><time>2026-05-04T05:34:30.024Z</time></trkpt><trkpt lat="45.1924289" lon="8.0833393"><ele>155.66666666666666</ele><time>2026-05-04T05:34:31.012Z</time></trkpt><trkpt lat="45.1923285" lon="8.0835648"><ele>156.0</ele><time>2026-05-04T05:34:32.012Z</time></trkpt><trkpt lat="45.1922277" lon="8.0837931"><ele>156.0</ele><time>2026-05-04T05:34:33.016Z</time></trkpt><trkpt lat="45.1921264" lon="8.0840239"><ele>156.0</ele><time>2026-05-04T05:34:34.015Z</time></trkpt><trkpt lat="45.1920247" lon="8.0842559"><ele>156.0</ele><time>2026-05-04T05:34:35.011Z</time></trkpt><trkpt lat="45.1919229" lon="8.0844896"><ele>155.5</ele><time>2026-05-04T05:34:36.012Z</time></trkpt><trkpt lat="45.191821" lon="8.0847251"><ele>155.0</ele><time>2026-05-04T05:34:37.016Z</time></trkpt><trkpt lat="45.191616" lon="8.0852004"><ele>155.0</ele><time>2026-05-04T05:34:39.02Z</time></trkpt><trkpt lat="45.191512" lon="8.0854389"><ele>155.0</ele><time>2026-05-04T05:34:40.02Z</time></trkpt><trkpt lat="45.1914074" lon="8.0856776"><ele>155.0</ele><time>2026-05-04T05:34:41.016Z</time></trkpt><trkpt lat="45.1913026" lon="8.0859169"><ele>155.0</ele><time>2026-05-04T05:34:42.025Z</time></trkpt><trkpt lat="45.1911976" lon="8.0861573"><ele>155.0</ele><time>2026-05-04T05:34:43.015Z</time></trkpt><trkpt lat="45.1910929" lon="8.0863987"><ele>155.0</ele><time>2026-05-04T05:34:44.015Z</time></trkpt><trkpt lat="45.1909886" lon="8.0866413"><ele>155.0</ele><time>2026-05-04T05:34:45.016Z</time></trkpt><trkpt lat="45.190885" lon="8.0868847"><ele>155.0</ele><time>2026-05-04T05:34:46.022Z</time></trkpt><trkpt lat="45.1907787" lon="8.0871294"><ele>155.0</ele><time>2026-05-04T05:34:47.015Z</time></trkpt><trkpt lat="45.1906746" lon="8.0873504"><ele>155.0</ele><time>2026-05-04T05:34:48.017Z</time></trkpt><trkpt lat="45.1905706" lon="8.0875835"><ele>155.0</ele><time>2026-05-04T05:34:49.029Z</time></trkpt><trkpt lat="45.1904645" lon="8.0878271"><ele>155.0</ele><time>2026-05-04T05:34:50.017Z</time></trkpt><trkpt lat="45.1903606" lon="8.088063"><ele>154.66666666666666</ele><time>2026-05-04T05:34:51.023Z</time></trkpt><trkpt lat="45.190256" lon="8.0882969"><ele>154.33333333333334</ele><time>2026-05-04T05:34:52.019Z</time></trkpt><trkpt lat="45.1901546" lon="8.0885355"><ele>154.0</ele><time>2026-05-04T05:34:53.017Z</time></trkpt><trkpt lat="45.1900502" lon="8.0887749"><ele>154.0</ele><time>2026-05-04T05:34:54.02Z</time></trkpt><trkpt lat="45.1899469" lon="8.0890167"><ele>154.0</ele><time>2026-05-04T05:34:55.02Z</time></trkpt><trkpt lat="45.1898432" lon="8.0892555"><ele>154.0</ele><time>2026-05-04T05:34:56.019Z</time></trkpt><trkpt lat="45.1897366" lon="8.0894937"><ele>154.0</ele><time>2026-05-04T05:34:57.02Z</time></trkpt><trkpt lat="45.1896314" lon="8.0897339"><ele>154.0</ele><time>2026-05-04T05:34:58.019Z</time></trkpt><trkpt lat="45.1894184" lon="8.0902127"><ele>154.0</ele><time>2026-05-04T05:35:00.024Z</time></trkpt><trkpt lat="45.189313" lon="8.0904536"><ele>154.0</ele><time>2026-05-04T05:35:01.017Z</time></trkpt><trkpt lat="45.1892077" lon="8.0906949"><ele>154.0</ele><time>2026-05-04T05:35:02.017Z</time></trkpt><trkpt lat="45.1891027" lon="8.0909375"><ele>153.33333333333334</ele><time>2026-05-04T05:35:03.019Z</time></trkpt><trkpt lat="45.1889969" lon="8.0911805"><ele>152.66666666666666</ele><time>2026-05-04T05:35:04.018Z</time></trkpt><trkpt lat="45.1888905" lon="8.091425"><ele>152.0</ele><time>2026-05-04T05:35:05.013Z</time></trkpt><trkpt lat="45.1887841" lon="8.0916698"><ele>151.66666666666666</ele><time>2026-05-04T05:35:06.021Z</time></trkpt><trkpt lat="45.1886763" lon="8.0919146"><ele>151.33333333333334</ele><time>2026-05-04T05:35:07.025Z</time></trkpt><trkpt lat="45.1885688" lon="8.0921614"><ele>151.0</ele><time>2026-05-04T05:35:08.021Z</time></trkpt><trkpt lat="45.1884606" lon="8.0924096"><ele>151.33333333333334</ele><time>2026-05-04T05:35:09.019Z</time></trkpt><trkpt lat="45.1883526" lon="8.0926602"><ele>151.66666666666666</ele><time>2026-05-04T05:35:10.02Z</time></trkpt><trkpt lat="45.1882445" lon="8.0929109"><ele>152.0</ele><time>2026-05-04T05:35:11.016Z</time></trkpt><trkpt lat="45.1881339" lon="8.0931613"><ele>151.33333333333331</ele><time>2026-05-04T05:35:12.015Z</time></trkpt><trkpt lat="45.1880225" lon="8.0934111"><ele>150.66666666666666</ele><time>2026-05-04T05:35:13.021Z</time></trkpt><trkpt lat="45.1879123" lon="8.0936635"><ele>150.0</ele><time>2026-05-04T05:35:14.02Z</time></trkpt><trkpt lat="45.1878027" lon="8.0939165"><ele>150.33333333333334</ele><time>2026-05-04T05:35:15.017Z</time></trkpt><trkpt lat="45.1876929" lon="8.0941694"><ele>150.66666666666669</ele><time>2026-05-04T05:35:16.027Z</time></trkpt><trkpt lat="45.1875826" lon="8.0944222"><ele>151.0</ele><time>2026-05-04T05:35:17.02Z</time></trkpt><trkpt lat="45.1874723" lon="8.0946756"><ele>151.0</ele><time>2026-05-04T05:35:18.018Z</time></trkpt><trkpt lat="45.1873609" lon="8.0949293"><ele>151.0</ele><time>2026-05-04T05:35:19.014Z</time></trkpt><trkpt lat="45.1871437" lon="8.0954412"><ele>151.0</ele><time>2026-05-04T05:35:21.014Z</time></trkpt><trkpt lat="45.1870398" lon="8.0957005"><ele>151.0</ele><time>2026-05-04T05:35:22.02Z</time></trkpt><trkpt lat="45.1869399" lon="8.095964"><ele>151.0</ele><time>2026-05-04T05:35:23.019Z</time></trkpt><trkpt lat="45.1868441" lon="8.0962309"><ele>151.0</ele><time>2026-05-04T05:35:24.019Z</time></trkpt><trkpt lat="45.1867515" lon="8.0965002"><ele>151.0</ele><time>2026-05-04T05:35:25.016Z</time></trkpt><trkpt lat="45.1866619" lon="8.0967716"><ele>151.0</ele><time>2026-05-04T05:35:26.018Z</time></trkpt><trkpt lat="45.186575" lon="8.0970422"><ele>151.0</ele><time>2026-05-04T05:35:27.014Z</time></trkpt><trkpt lat="45.1864917" lon="8.0973124"><ele>151.0</ele><time>2026-05-04T05:35:28.017Z</time></trkpt><trkpt lat="45.1864118" lon="8.0975829"><ele>151.0</ele><time>2026-05-04T05:35:29.013Z</time></trkpt><trkpt lat="45.1863375" lon="8.097855"><ele>151.0</ele><time>2026-05-04T05:35:30.018Z</time></trkpt><trkpt lat="45.1862684" lon="8.0981291"><ele>151.0</ele><time>2026-05-04T05:35:31.02Z</time></trkpt><trkpt lat="45.1862042" lon="8.0984045"><ele>151.0</ele><time>2026-05-04T05:35:32.019Z</time></trkpt><trkpt lat="45.1861444" lon="8.0986811"><ele>151.0</ele><time>2026-05-04T05:35:33.017Z</time></trkpt><trkpt lat="45.1860883" lon="8.0989591"><ele>151.0</ele><time>2026-05-04T05:35:34.026Z</time></trkpt><trkpt lat="45.1860364" lon="8.0992369"><ele>151.0</ele><time>2026-05-04T05:35:35.018Z</time></trkpt><trkpt lat="45.1859877" lon="8.0995143"><ele>151.0</ele><time>2026-05-04T05:35:36.018Z</time></trkpt><trkpt lat="45.1859417" lon="8.0997909"><ele>151.0</ele><time>2026-05-04T05:35:37.019Z</time></trkpt><trkpt lat="45.1858986" lon="8.1000679"><ele>151.0</ele><time>2026-05-04T05:35:38.017Z</time></trkpt><trkpt lat="45.1858584" lon="8.100345"><ele>151.0</ele><time>2026-05-04T05:35:39.014Z</time></trkpt><trkpt lat="45.1858223" lon="8.1006232"><ele>151.0</ele><time>2026-05-04T05:35:40.018Z</time></trkpt><trkpt lat="45.1857621" lon="8.1011855"><ele>151.0</ele><time>2026-05-04T05:35:42.013Z</time></trkpt><trkpt lat="45.1857379" lon="8.1014694"><ele>151.0</ele><time>2026-05-04T05:35:43.008Z</time></trkpt><trkpt lat="45.1857185" lon="8.1017566"><ele>151.0</ele><time>2026-05-04T05:35:44.016Z</time></trkpt><trkpt lat="45.185704" lon="8.1020474"><ele>151.0</ele><time>2026-05-04T05:35:45.013Z</time></trkpt><trkpt lat="45.1856941" lon="8.1023418"><ele>151.0</ele><time>2026-05-04T05:35:46.015Z</time></trkpt><trkpt lat="45.1856886" lon="8.1026397"><ele>151.0</ele><time>2026-05-04T05:35:47.014Z</time></trkpt><trkpt lat="45.1856861" lon="8.1029409"><ele>151.0</ele><time>2026-05-04T05:35:48.013Z</time></trkpt><trkpt lat="45.185686" lon="8.1032445"><ele>151.0</ele><time>2026-05-04T05:35:49.013Z</time></trkpt><trkpt lat="45.1856875" lon="8.1035508"><ele>151.0</ele><time>2026-05-04T05:35:50.012Z</time></trkpt><trkpt lat="45.1856915" lon="8.1038597"><ele>150.66666666666669</ele><time>2026-05-04T05:35:51.013Z</time></trkpt><trkpt lat="45.1856988" lon="8.1041704"><ele>150.33333333333334</ele><time>2026-05-04T05:35:52.011Z</time></trkpt><trkpt lat="45.1857118" lon="8.1044824"><ele>150.0</ele><time>2026-05-04T05:35:53.013Z</time></trkpt><trkpt lat="45.1857324" lon="8.1047958"><ele>149.33333333333334</ele><time>2026-05-04T05:35:54.012Z</time></trkpt><trkpt lat="45.1857602" lon="8.1051088"><ele>148.66666666666669</ele><time>2026-05-04T05:35:55.015Z</time></trkpt><trkpt lat="45.185794" lon="8.1054214"><ele>148.0</ele><time>2026-05-04T05:35:56.015Z</time></trkpt><trkpt lat="45.1858312" lon="8.1057328"><ele>148.0</ele><time>2026-05-04T05:35:57.01Z</time></trkpt><trkpt lat="45.1858705" lon="8.106043"><ele>148.0</ele><time>2026-05-04T05:35:58.017Z</time></trkpt><trkpt lat="45.1859131" lon="8.1063514"><ele>148.0</ele><time>2026-05-04T05:35:59.008Z</time></trkpt><trkpt lat="45.1859604" lon="8.1066573"><ele>149.0</ele><time>2026-05-04T05:36:00.016Z</time></trkpt><trkpt lat="45.186012" lon="8.1069609"><ele>150.0</ele><time>2026-05-04T05:36:01.019Z</time></trkpt><trkpt lat="45.186127" lon="8.1075609"><ele>150.0</ele><time>2026-05-04T05:36:03.013Z</time></trkpt><trkpt lat="45.1861905" lon="8.1078583"><ele>150.0</ele><time>2026-05-04T05:36:04.012Z</time></trkpt><trkpt lat="45.1862578" lon="8.1081535"><ele>150.0</ele><time>2026-05-04T05:36:05.026Z</time></trkpt><trkpt lat="45.1863282" lon="8.1084473"><ele>150.0</ele><time>2026-05-04T05:36:06.016Z</time></trkpt><trkpt lat="45.1864033" lon="8.1087388"><ele>150.0</ele><time>2026-05-04T05:36:07.014Z</time></trkpt><trkpt lat="45.1864814" lon="8.1090289"><ele>150.0</ele><time>2026-05-04T05:36:08.014Z</time></trkpt><trkpt lat="45.1865605" lon="8.1093177"><ele>150.0</ele><time>2026-05-04T05:36:09.014Z</time></trkpt><trkpt lat="45.1866396" lon="8.1096064"><ele>150.0</ele><time>2026-05-04T05:36:10.019Z</time></trkpt><trkpt lat="45.1867178" lon="8.1098952"><ele>150.0</ele><time>2026-05-04T05:36:11.009Z</time></trkpt><trkpt lat="45.1867961" lon="8.1101839"><ele>150.33333333333334</ele><time>2026-05-04T05:36:12.017Z</time></trkpt><trkpt lat="45.1868741" lon="8.1104724"><ele>150.66666666666669</ele><time>2026-05-04T05:36:13.013Z</time></trkpt><trkpt lat="45.1869516" lon="8.1107604"><ele>151.0</ele><time>2026-05-04T05:36:14.017Z</time></trkpt><trkpt lat="45.1870288" lon="8.1110487"><ele>150.0</ele><time>2026-05-04T05:36:15.012Z</time></trkpt><trkpt lat="45.1871068" lon="8.111337"><ele>149.0</ele><time>2026-05-04T05:36:16.016Z</time></trkpt><trkpt lat="45.1871852" lon="8.111625"><ele>148.0</ele><time>2026-05-04T05:36:17.01Z</time></trkpt><trkpt lat="45.1872647" lon="8.1119131"><ele>148.66666666666669</ele><time>2026-05-04T05:36:18.025Z</time></trkpt><trkpt lat="45.187344" lon="8.1122014"><ele>149.33333333333334</ele><time>2026-05-04T05:36:19.017Z</time></trkpt><trkpt lat="45.187423" lon="8.11249"><ele>150.0</ele><time>2026-05-04T05:36:20.013Z</time></trkpt><trkpt lat="45.1875017" lon="8.1127784"><ele>150.0</ele><time>2026-05-04T05:36:21.012Z</time></trkpt><trkpt lat="45.1875801" lon="8.1130665"><ele>150.0</ele><time>2026-05-04T05:36:22.021Z</time></trkpt><trkpt lat="45.1877344" lon="8.1136424"><ele>150.0</ele><time>2026-05-04T05:36:24.006Z</time></trkpt><trkpt lat="45.1878113" lon="8.1139294"><ele>150.0</ele><time>2026-05-04T05:36:25.004Z</time></trkpt><trkpt lat="45.1878888" lon="8.1142163"><ele>150.0</ele><time>2026-05-04T05:36:26.004Z</time></trkpt><trkpt lat="45.1879654" lon="8.1145021"><ele>150.0</ele><time>2026-05-04T05:36:27.008Z</time></trkpt><trkpt lat="45.1880439" lon="8.1147885"><ele>150.0</ele><time>2026-05-04T05:36:27.999Z</time></trkpt><trkpt lat="45.1881221" lon="8.1150756"><ele>150.0</ele><time>2026-05-04T05:36:29.006Z</time></trkpt><trkpt lat="45.1882001" lon="8.1153628"><ele>149.66666666666666</ele><time>2026-05-04T05:36:30.007Z</time></trkpt><trkpt lat="45.188278" lon="8.1156504"><ele>149.33333333333331</ele><time>2026-05-04T05:36:31.008Z</time></trkpt><trkpt lat="45.1883561" lon="8.1159378"><ele>149.0</ele><time>2026-05-04T05:36:32.008Z</time></trkpt><trkpt lat="45.1884334" lon="8.1162253"><ele>149.0</ele><time>2026-05-04T05:36:33.005Z</time></trkpt><trkpt lat="45.1885102" lon="8.1165125"><ele>149.0</ele><time>2026-05-04T05:36:34.006Z</time></trkpt><trkpt lat="45.1885864" lon="8.1167955"><ele>149.0</ele><time>2026-05-04T05:36:35.029Z</time></trkpt><trkpt lat="45.1886618" lon="8.117066"><ele>149.0</ele><time>2026-05-04T05:36:36.003Z</time></trkpt><trkpt lat="45.1887324" lon="8.1173272"><ele>149.0</ele><time>2026-05-04T05:36:37.005Z</time></trkpt><trkpt lat="45.1888018" lon="8.1175826"><ele>149.0</ele><time>2026-05-04T05:36:38.009Z</time></trkpt><trkpt lat="45.1888673" lon="8.1178229"><ele>149.0</ele><time>2026-05-04T05:36:39.01Z</time></trkpt><trkpt lat="45.1889286" lon="8.1180468"><ele>149.0</ele><time>2026-05-04T05:36:40.004Z</time></trkpt><trkpt lat="45.1889854" lon="8.1182554"><ele>149.0</ele><time>2026-05-04T05:36:41.005Z</time></trkpt><trkpt lat="45.1890378" lon="8.118449"><ele>149.33333333333331</ele><time>2026-05-04T05:36:42.014Z</time></trkpt><trkpt lat="45.1890849" lon="8.1186259"><ele>149.66666666666666</ele><time>2026-05-04T05:36:43.007Z</time></trkpt><trkpt lat="45.1891566" lon="8.118945"><ele>150.0</ele><time>2026-05-04T05:36:45.004Z</time></trkpt><trkpt lat="45.1891657" lon="8.1190878"><ele>150.0</ele><time>2026-05-04T05:36:46.005Z</time></trkpt><trkpt lat="45.1891521" lon="8.1192166"><ele>150.0</ele><time>2026-05-04T05:36:47.012Z</time></trkpt><trkpt lat="45.1891188" lon="8.1193226"><ele>150.0</ele><time>2026-05-04T05:36:48.007Z</time></trkpt><trkpt lat="45.189071" lon="8.1194065"><ele>150.0</ele><time>2026-05-04T05:36:49.013Z</time></trkpt><trkpt lat="45.1890069" lon="8.1194689"><ele>150.0</ele><time>2026-05-04T05:36:50.01Z</time></trkpt><trkpt lat="45.1889316" lon="8.1195107"><ele>150.0</ele><time>2026-05-04T05:36:51.011Z</time></trkpt><trkpt lat="45.1888497" lon="8.1195359"><ele>149.83333333333334</ele><time>2026-05-04T05:36:52.008Z</time></trkpt><trkpt lat="45.1887628" lon="8.1195448"><ele>149.66666666666666</ele><time>2026-05-04T05:36:53.012Z</time></trkpt><trkpt lat="45.1886827" lon="8.1195381"><ele>149.5</ele><time>2026-05-04T05:36:54.006Z</time></trkpt><trkpt lat="45.1886178" lon="8.1195308"><ele>149.33333333333331</ele><time>2026-05-04T05:36:55.008Z</time></trkpt><trkpt lat="45.1885493" lon="8.1195732"><ele>149.16666666666666</ele><time>2026-05-04T05:36:57.008Z</time></trkpt><trkpt lat="45.1885256" lon="8.1196918"><ele>149.0</ele><time>2026-05-04T05:36:59.009Z</time></trkpt><trkpt lat="45.1884818" lon="8.1198844"><ele>149.25</ele><time>2026-05-04T05:37:01.011Z</time></trkpt><trkpt lat="45.1884427" lon="8.1200151"><ele>149.5</ele><time>2026-05-04T05:37:02.028Z</time></trkpt><trkpt lat="45.1883924" lon="8.1201681"><ele>149.75</ele><time>2026-05-04T05:37:03.007Z</time></trkpt><trkpt lat="45.1883396" lon="8.1203288"><ele>150.0</ele><time>2026-05-04T05:37:04.014Z</time></trkpt><trkpt lat="45.1882315" lon="8.1206918"><ele>149.66666666666666</ele><time>2026-05-04T05:37:06.008Z</time></trkpt><trkpt lat="45.1881698" lon="8.1208939"><ele>149.33333333333331</ele><time>2026-05-04T05:37:07.011Z</time></trkpt><trkpt lat="45.1881039" lon="8.1210695"><ele>149.0</ele><time>2026-05-04T05:37:08.007Z</time></trkpt><trkpt lat="45.1880299" lon="8.1212778"><ele>149.0</ele><time>2026-05-04T05:37:09.011Z</time></trkpt><trkpt lat="45.1879502" lon="8.1214983"><ele>149.0</ele><time>2026-05-04T05:37:10.006Z</time></trkpt><trkpt lat="45.1878685" lon="8.1217147"><ele>149.0</ele><time>2026-05-04T05:37:11.009Z</time></trkpt><trkpt lat="45.1877866" lon="8.121931"><ele>149.0</ele><time>2026-05-04T05:37:12.013Z</time></trkpt><trkpt lat="45.1877065" lon="8.1221377"><ele>149.0</ele><time>2026-05-04T05:37:13.011Z</time></trkpt><trkpt lat="45.1876051" lon="8.1223297"><ele>149.0</ele><time>2026-05-04T05:37:14.007Z</time></trkpt><trkpt lat="45.1875111" lon="8.1225342"><ele>149.0</ele><time>2026-05-04T05:37:15.007Z</time></trkpt><trkpt lat="45.1874127" lon="8.1227283"><ele>149.0</ele><time>2026-05-04T05:37:16.01Z</time></trkpt><trkpt lat="45.1873213" lon="8.1229187"><ele>149.0</ele><time>2026-05-04T05:37:17.012Z</time></trkpt><trkpt lat="45.187231" lon="8.1231017"><ele>149.5</ele><time>2026-05-04T05:37:18.008Z</time></trkpt><trkpt lat="45.1871456" lon="8.1232774"><ele>150.0</ele><time>2026-05-04T05:37:19.011Z</time></trkpt><trkpt lat="45.1870597" lon="8.1234516"><ele>150.5</ele><time>2026-05-04T05:37:20.018Z</time></trkpt><trkpt lat="45.1869803" lon="8.1236208"><ele>151.0</ele><time>2026-05-04T05:37:21.011Z</time></trkpt><trkpt lat="45.1869082" lon="8.1237816"><ele>151.0</ele><time>2026-05-04T05:37:22.006Z</time></trkpt><trkpt lat="45.1868444" lon="8.123942"><ele>151.0</ele><time>2026-05-04T05:37:23.007Z</time></trkpt><trkpt lat="45.1867913" lon="8.1241024"><ele>151.0</ele><time>2026-05-04T05:37:24.008Z</time></trkpt><trkpt lat="45.1867444" lon="8.1242617"><ele>151.0</ele><time>2026-05-04T05:37:25.015Z</time></trkpt><trkpt lat="45.1866798" lon="8.1245972"><ele>150.5</ele><time>2026-05-04T05:37:27.013Z</time></trkpt><trkpt lat="45.1866646" lon="8.1247768"><ele>150.0</ele><time>2026-05-04T05:37:28.013Z</time></trkpt><trkpt lat="45.1866536" lon="8.1249624"><ele>149.5</ele><time>2026-05-04T05:37:29.013Z</time></trkpt><trkpt lat="45.1866484" lon="8.12515"><ele>149.0</ele><time>2026-05-04T05:37:30.016Z</time></trkpt><trkpt lat="45.1866489" lon="8.1253376"><ele>148.75</ele><time>2026-05-04T05:37:31.011Z</time></trkpt><trkpt lat="45.1866619" lon="8.1255287"><ele>148.5</ele><time>2026-05-04T05:37:32.012Z</time></trkpt><trkpt lat="45.1866864" lon="8.1257294"><ele>148.25</ele><time>2026-05-04T05:37:33.008Z</time></trkpt><trkpt lat="45.1867203" lon="8.1259406"><ele>148.0</ele><time>2026-05-04T05:37:34.011Z</time></trkpt><trkpt lat="45.1867655" lon="8.1261592"><ele>147.66666666666669</ele><time>2026-05-04T05:37:35.009Z</time></trkpt><trkpt lat="45.1868071" lon="8.1263595"><ele>147.33333333333334</ele><time>2026-05-04T05:37:36.01Z</time></trkpt><trkpt lat="45.1868599" lon="8.1265603"><ele>147.0</ele><time>2026-05-04T05:37:37.013Z</time></trkpt><trkpt lat="45.186914" lon="8.1267635"><ele>147.0</ele><time>2026-05-04T05:37:38.013Z</time></trkpt><trkpt lat="45.1869584" lon="8.12696"><ele>147.0</ele><time>2026-05-04T05:37:39.008Z</time></trkpt><trkpt lat="45.1869972" lon="8.1271517"><ele>147.0</ele><time>2026-05-04T05:37:40.008Z</time></trkpt><trkpt lat="45.1870235" lon="8.1273557"><ele>147.0</ele><time>2026-05-04T05:37:41.011Z</time></trkpt><trkpt lat="45.1870391" lon="8.1275713"><ele>147.0</ele><time>2026-05-04T05:37:42.006Z</time></trkpt><trkpt lat="45.1870529" lon="8.1277762"><ele>147.0</ele><time>2026-05-04T05:37:43.012Z</time></trkpt><trkpt lat="45.1870555" lon="8.1279896"><ele>147.0</ele><time>2026-05-04T05:37:44.007Z</time></trkpt><trkpt lat="45.1870553" lon="8.1281893"><ele>147.0</ele><time>2026-05-04T05:37:45.015Z</time></trkpt><trkpt lat="45.1870464" lon="8.128368"><ele>147.0</ele><time>2026-05-04T05:37:46.009Z</time></trkpt><trkpt lat="45.1870122" lon="8.1287083"><ele>147.0</ele><time>2026-05-04T05:37:48.022Z</time></trkpt><trkpt lat="45.1869797" lon="8.1288819"><ele>147.0</ele><time>2026-05-04T05:37:49.01Z</time></trkpt><trkpt lat="45.1869393" lon="8.1290598"><ele>146.75</ele><time>2026-05-04T05:37:50.01Z</time></trkpt><trkpt lat="45.1868978" lon="8.1292393"><ele>146.5</ele><time>2026-05-04T05:37:51.012Z</time></trkpt><trkpt lat="45.1868502" lon="8.1294154"><ele>146.25</ele><time>2026-05-04T05:37:52.011Z</time></trkpt><trkpt lat="45.1867976" lon="8.1295863"><ele>146.0</ele><time>2026-05-04T05:37:53.011Z</time></trkpt><trkpt lat="45.1867316" lon="8.1297598"><ele>146.0</ele><time>2026-05-04T05:37:54.013Z</time></trkpt><trkpt lat="45.186653" lon="8.1299397"><ele>146.0</ele><time>2026-05-04T05:37:55.012Z</time></trkpt><trkpt lat="45.1865702" lon="8.1301198"><ele>146.0</ele><time>2026-05-04T05:37:56.013Z</time></trkpt><trkpt lat="45.1864718" lon="8.1302972"><ele>146.0</ele><time>2026-05-04T05:37:57.008Z</time></trkpt><trkpt lat="45.186388" lon="8.1304591"><ele>146.0</ele><time>2026-05-04T05:37:58.012Z</time></trkpt><trkpt lat="45.1863068" lon="8.1306123"><ele>146.0</ele><time>2026-05-04T05:37:59.007Z</time></trkpt><trkpt lat="45.1862233" lon="8.1307621"><ele>146.0</ele><time>2026-05-04T05:38:00.01Z</time></trkpt><trkpt lat="45.1861276" lon="8.1309054"><ele>146.0</ele><time>2026-05-04T05:38:01.009Z</time></trkpt><trkpt lat="45.1860264" lon="8.1310404"><ele>146.0</ele><time>2026-05-04T05:38:02.01Z</time></trkpt><trkpt lat="45.1859284" lon="8.1311587"><ele>146.0</ele><time>2026-05-04T05:38:03.01Z</time></trkpt><trkpt lat="45.1858362" lon="8.1312595"><ele>146.0</ele><time>2026-05-04T05:38:04.011Z</time></trkpt><trkpt lat="45.1857552" lon="8.1313516"><ele>146.0</ele><time>2026-05-04T05:38:05.007Z</time></trkpt><trkpt lat="45.1856854" lon="8.1314331"><ele>146.0</ele><time>2026-05-04T05:38:06.015Z</time></trkpt><trkpt lat="45.1856281" lon="8.1314986"><ele>146.0</ele><time>2026-05-04T05:38:07.012Z</time></trkpt><trkpt lat="45.1855317" lon="8.1317167"><ele>146.0</ele><time>2026-05-04T05:38:10.015Z</time></trkpt><trkpt lat="45.1855093" lon="8.131812"><ele>146.0</ele><time>2026-05-04T05:38:11.012Z</time></trkpt><trkpt lat="45.1855001" lon="8.1319417"><ele>146.25</ele><time>2026-05-04T05:38:12.011Z</time></trkpt><trkpt lat="45.1854855" lon="8.13209"><ele>146.5</ele><time>2026-05-04T05:38:13.015Z</time></trkpt><trkpt lat="45.185467" lon="8.1322674"><ele>146.75</ele><time>2026-05-04T05:38:14.013Z</time></trkpt><trkpt lat="45.1854393" lon="8.1324651"><ele>147.0</ele><time>2026-05-04T05:38:15.004Z</time></trkpt><trkpt lat="45.1854105" lon="8.1326762"><ele>147.0</ele><time>2026-05-04T05:38:16.013Z</time></trkpt><trkpt lat="45.1853759" lon="8.132905"><ele>147.0</ele><time>2026-05-04T05:38:17.007Z</time></trkpt><trkpt lat="45.1853497" lon="8.133131"><ele>147.0</ele><time>2026-05-04T05:38:18.022Z</time></trkpt><trkpt lat="45.1853268" lon="8.1333556"><ele>147.33333333333334</ele><time>2026-05-04T05:38:19.011Z</time></trkpt><trkpt lat="45.1853157" lon="8.1335789"><ele>147.66666666666669</ele><time>2026-05-04T05:38:20.016Z</time></trkpt><trkpt lat="45.1853132" lon="8.1338072"><ele>148.0</ele><time>2026-05-04T05:38:21.008Z</time></trkpt><trkpt lat="45.1853227" lon="8.1340397"><ele>148.0</ele><time>2026-05-04T05:38:22.007Z</time></trkpt><trkpt lat="45.185342" lon="8.1342805"><ele>148.0</ele><time>2026-05-04T05:38:23.008Z</time></trkpt><trkpt lat="45.1853632" lon="8.1345326"><ele>148.0</ele><time>2026-05-04T05:38:24.014Z</time></trkpt><trkpt lat="45.1853873" lon="8.1347828"><ele>148.0</ele><time>2026-05-04T05:38:25.011Z</time></trkpt><trkpt lat="45.1854132" lon="8.1350365"><ele>148.0</ele><time>2026-05-04T05:38:26.01Z</time></trkpt><trkpt lat="45.1854405" lon="8.1352931"><ele>148.0</ele><time>2026-05-04T05:38:27.009Z</time></trkpt><trkpt lat="45.1854671" lon="8.1355512"><ele>147.5</ele><time>2026-05-04T05:38:28.01Z</time></trkpt><trkpt lat="45.1855235" lon="8.1360757"><ele>147.0</ele><time>2026-05-04T05:38:30.008Z</time></trkpt><trkpt lat="45.1855519" lon="8.1363426"><ele>146.66666666666666</ele><time>2026-05-04T05:38:31.012Z</time></trkpt><trkpt lat="45.185579" lon="8.1366086"><ele>146.33333333333331</ele><time>2026-05-04T05:38:32.008Z</time></trkpt><trkpt lat="45.1856046" lon="8.136873"><ele>146.0</ele><time>2026-05-04T05:38:33.009Z</time></trkpt><trkpt lat="45.1856314" lon="8.1371366"><ele>145.66666666666666</ele><time>2026-05-04T05:38:34.01Z</time></trkpt><trkpt lat="45.1856565" lon="8.137395"><ele>145.33333333333334</ele><time>2026-05-04T05:38:35.008Z</time></trkpt><trkpt lat="45.1856787" lon="8.1376463"><ele>145.0</ele><time>2026-05-04T05:38:36.011Z</time></trkpt><trkpt lat="45.1856956" lon="8.1378932"><ele>145.0</ele><time>2026-05-04T05:38:37.009Z</time></trkpt><trkpt lat="45.1857036" lon="8.1381341"><ele>145.0</ele><time>2026-05-04T05:38:38.016Z</time></trkpt><trkpt lat="45.185701" lon="8.1383703"><ele>145.0</ele><time>2026-05-04T05:38:39.009Z</time></trkpt><trkpt lat="45.1856858" lon="8.1386027"><ele>145.0</ele><time>2026-05-04T05:38:40.01Z</time></trkpt><trkpt lat="45.1856593" lon="8.1388357"><ele>145.0</ele><time>2026-05-04T05:38:41.007Z</time></trkpt><trkpt lat="45.1856225" lon="8.1390734"><ele>145.0</ele><time>2026-05-04T05:38:42.008Z</time></trkpt><trkpt lat="45.1855772" lon="8.1393191"><ele>145.0</ele><time>2026-05-04T05:38:43.01Z</time></trkpt><trkpt lat="45.1855234" lon="8.1395716"><ele>145.0</ele><time>2026-05-04T05:38:44.009Z</time></trkpt><trkpt lat="45.1854648" lon="8.1398342"><ele>145.0</ele><time>2026-05-04T05:38:45.008Z</time></trkpt><trkpt lat="45.1854027" lon="8.14011"><ele>145.33333333333334</ele><time>2026-05-04T05:38:46.008Z</time></trkpt><trkpt lat="45.1853361" lon="8.1403954"><ele>145.66666666666666</ele><time>2026-05-04T05:38:47.009Z</time></trkpt><trkpt lat="45.1852723" lon="8.1406627"><ele>146.0</ele><time>2026-05-04T05:38:48.007Z</time></trkpt><trkpt lat="45.1852124" lon="8.1409087"><ele>146.5</ele><time>2026-05-04T05:38:49.013Z</time></trkpt><trkpt lat="45.1851063" lon="8.1413406"><ele>147.0</ele><time>2026-05-04T05:38:51.009Z</time></trkpt><trkpt lat="45.1850599" lon="8.1415392"><ele>147.0</ele><time>2026-05-04T05:38:52.007Z</time></trkpt><trkpt lat="45.1850153" lon="8.1417324"><ele>147.0</ele><time>2026-05-04T05:38:53.005Z</time></trkpt><trkpt lat="45.184973" lon="8.141913"><ele>147.0</ele><time>2026-05-04T05:38:54.007Z</time></trkpt><trkpt lat="45.1849337" lon="8.1420812"><ele>147.0</ele><time>2026-05-04T05:38:55.01Z</time></trkpt><trkpt lat="45.1848974" lon="8.1422436"><ele>147.0</ele><time>2026-05-04T05:38:56.013Z</time></trkpt><trkpt lat="45.1848628" lon="8.1424006"><ele>147.0</ele><time>2026-05-04T05:38:57.022Z</time></trkpt><trkpt lat="45.1848268" lon="8.142559"><ele>147.0</ele><time>2026-05-04T05:38:58.011Z</time></trkpt><trkpt lat="45.1847868" lon="8.1427255"><ele>147.0</ele><time>2026-05-04T05:38:59.012Z</time></trkpt><trkpt lat="45.1847445" lon="8.1429032"><ele>147.0</ele><time>2026-05-04T05:39:00.006Z</time></trkpt><trkpt lat="45.1847001" lon="8.1430906"><ele>147.0</ele><time>2026-05-04T05:39:01.007Z</time></trkpt><trkpt lat="45.1846545" lon="8.1432855"><ele>147.0</ele><time>2026-05-04T05:39:02.012Z</time></trkpt><trkpt lat="45.1846089" lon="8.1434866"><ele>147.0</ele><time>2026-05-04T05:39:03.01Z</time></trkpt><trkpt lat="45.1845656" lon="8.143691"><ele>147.0</ele><time>2026-05-04T05:39:04.011Z</time></trkpt><trkpt lat="45.184523" lon="8.143896"><ele>147.0</ele><time>2026-05-04T05:39:05.027Z</time></trkpt><trkpt lat="45.1844813" lon="8.1440909"><ele>147.0</ele><time>2026-05-04T05:39:06.008Z</time></trkpt><trkpt lat="45.1844419" lon="8.1442708"><ele>147.0</ele><time>2026-05-04T05:39:07.015Z</time></trkpt><trkpt lat="45.1844045" lon="8.1444394"><ele>147.0</ele><time>2026-05-04T05:39:08.012Z</time></trkpt><trkpt lat="45.1843678" lon="8.1445976"><ele>147.0</ele><time>2026-05-04T05:39:09.008Z</time></trkpt><trkpt lat="45.1843301" lon="8.1447568"><ele>147.0</ele><time>2026-05-04T05:39:10.014Z</time></trkpt><trkpt lat="45.1842504" lon="8.145096"><ele>147.0</ele><time>2026-05-04T05:39:12.014Z</time></trkpt><trkpt lat="45.1842063" lon="8.1452857"><ele>147.0</ele><time>2026-05-04T05:39:13.01Z</time></trkpt><trkpt lat="45.1841579" lon="8.1454957"><ele>147.0</ele><time>2026-05-04T05:39:14.009Z</time></trkpt><trkpt lat="45.1841059" lon="8.1457204"><ele>146.66666666666666</ele><time>2026-05-04T05:39:15.007Z</time></trkpt><trkpt lat="45.1840517" lon="8.1459525"><ele>146.33333333333331</ele><time>2026-05-04T05:39:16.013Z</time></trkpt><trkpt lat="45.1839918" lon="8.1462005"><ele>146.0</ele><time>2026-05-04T05:39:17.008Z</time></trkpt><trkpt lat="45.1839286" lon="8.1464668"><ele>146.0</ele><time>2026-05-04T05:39:18.016Z</time></trkpt><trkpt lat="45.1838685" lon="8.1467375"><ele>146.0</ele><time>2026-05-04T05:39:19.012Z</time></trkpt><trkpt lat="45.1838118" lon="8.1470142"><ele>146.0</ele><time>2026-05-04T05:39:20.02Z</time></trkpt><trkpt lat="45.1837533" lon="8.1473022"><ele>146.0</ele><time>2026-05-04T05:39:21.012Z</time></trkpt><trkpt lat="45.1836888" lon="8.1475997"><ele>146.0</ele><time>2026-05-04T05:39:22.008Z</time></trkpt><trkpt lat="45.1836195" lon="8.1479049"><ele>146.0</ele><time>2026-05-04T05:39:23.011Z</time></trkpt><trkpt lat="45.1835479" lon="8.1482175"><ele>146.0</ele><time>2026-05-04T05:39:24.01Z</time></trkpt><trkpt lat="45.1834759" lon="8.1485383"><ele>146.0</ele><time>2026-05-04T05:39:25.015Z</time></trkpt><trkpt lat="45.1834052" lon="8.1488639"><ele>146.0</ele><time>2026-05-04T05:39:26.01Z</time></trkpt><trkpt lat="45.1833358" lon="8.1491892"><ele>146.0</ele><time>2026-05-04T05:39:27.008Z</time></trkpt><trkpt lat="45.1832685" lon="8.1495113"><ele>146.0</ele><time>2026-05-04T05:39:28.006Z</time></trkpt><trkpt lat="45.1832043" lon="8.1498289"><ele>146.0</ele><time>2026-05-04T05:39:29.007Z</time></trkpt><trkpt lat="45.1831425" lon="8.1501414"><ele>146.0</ele><time>2026-05-04T05:39:30.015Z</time></trkpt><trkpt lat="45.1830829" lon="8.1504495"><ele>146.0</ele><time>2026-05-04T05:39:31.009Z</time></trkpt><trkpt lat="45.1829695" lon="8.151051"><ele>145.66666666666666</ele><time>2026-05-04T05:39:33.009Z</time></trkpt><trkpt lat="45.1829138" lon="8.15134"><ele>145.33333333333334</ele><time>2026-05-04T05:39:34.01Z</time></trkpt><trkpt lat="45.1828583" lon="8.1516249"><ele>145.0</ele><time>2026-05-04T05:39:35.007Z</time></trkpt><trkpt lat="45.1828004" lon="8.1519098"><ele>145.0</ele><time>2026-05-04T05:39:36.011Z</time></trkpt><trkpt lat="45.1827366" lon="8.1521927"><ele>145.0</ele><time>2026-05-04T05:39:37.006Z</time></trkpt><trkpt lat="45.1826655" lon="8.1524717"><ele>145.0</ele><time>2026-05-04T05:39:38.012Z</time></trkpt><trkpt lat="45.1825893" lon="8.1527486"><ele>145.0</ele><time>2026-05-04T05:39:39.007Z</time></trkpt><trkpt lat="45.1825107" lon="8.153025"><ele>145.0</ele><time>2026-05-04T05:39:40.008Z</time></trkpt><trkpt lat="45.182432" lon="8.1533028"><ele>145.0</ele><time>2026-05-04T05:39:41.014Z</time></trkpt><trkpt lat="45.1823528" lon="8.1535824"><ele>145.0</ele><time>2026-05-04T05:39:42.007Z</time></trkpt><trkpt lat="45.1822715" lon="8.153862"><ele>145.0</ele><time>2026-05-04T05:39:43.005Z</time></trkpt><trkpt lat="45.1821872" lon="8.1541423"><ele>145.0</ele><time>2026-05-04T05:39:44.006Z</time></trkpt><trkpt lat="45.1821036" lon="8.1544129"><ele>145.0</ele><time>2026-05-04T05:39:45.008Z</time></trkpt><trkpt lat="45.1820266" lon="8.1546662"><ele>145.0</ele><time>2026-05-04T05:39:46.009Z</time></trkpt><trkpt lat="45.1819547" lon="8.1549028"><ele>145.0</ele><time>2026-05-04T05:39:47.01Z</time></trkpt><trkpt lat="45.1818882" lon="8.1551243"><ele>145.25</ele><time>2026-05-04T05:39:48.009Z</time></trkpt><trkpt lat="45.181828" lon="8.1553321"><ele>145.5</ele><time>2026-05-04T05:39:49.007Z</time></trkpt><trkpt lat="45.1817747" lon="8.155526"><ele>145.75</ele><time>2026-05-04T05:39:50.006Z</time></trkpt><trkpt lat="45.1817296" lon="8.1557048"><ele>146.0</ele><time>2026-05-04T05:39:51.008Z</time></trkpt><trkpt lat="45.1816925" lon="8.1558711"><ele>145.75</ele><time>2026-05-04T05:39:52.021Z</time></trkpt><trkpt lat="45.1816422" lon="8.1561732"><ele>145.5</ele><time>2026-05-04T05:39:54.006Z</time></trkpt><trkpt lat="45.1816297" lon="8.1563176"><ele>145.25</ele><time>2026-05-04T05:39:55.011Z</time></trkpt><trkpt lat="45.1816257" lon="8.1564713"><ele>145.0</ele><time>2026-05-04T05:39:56.006Z</time></trkpt><trkpt lat="45.181632" lon="8.1566361"><ele>145.0</ele><time>2026-05-04T05:39:57.013Z</time></trkpt><trkpt lat="45.1816467" lon="8.1568206"><ele>145.0</ele><time>2026-05-04T05:39:58.013Z</time></trkpt><trkpt lat="45.1816636" lon="8.1570176"><ele>145.0</ele><time>2026-05-04T05:39:59.012Z</time></trkpt><trkpt lat="45.1816822" lon="8.1572237"><ele>145.0</ele><time>2026-05-04T05:40:00.009Z</time></trkpt><trkpt lat="45.1817034" lon="8.1574379"><ele>144.5</ele><time>2026-05-04T05:40:01.012Z</time></trkpt><trkpt lat="45.1817267" lon="8.157647"><ele>144.0</ele><time>2026-05-04T05:40:02.008Z</time></trkpt><trkpt lat="45.1817479" lon="8.1578415"><ele>143.5</ele><time>2026-05-04T05:40:03.011Z</time></trkpt><trkpt lat="45.1817655" lon="8.1580289"><ele>143.0</ele><time>2026-05-04T05:40:04.02Z</time></trkpt><trkpt lat="45.1817779" lon="8.1582098"><ele>143.0</ele><time>2026-05-04T05:40:05.01Z</time></trkpt><trkpt lat="45.1817834" lon="8.1583864"><ele>143.0</ele><time>2026-05-04T05:40:06.011Z</time></trkpt><trkpt lat="45.1817818" lon="8.1585495"><ele>143.0</ele><time>2026-05-04T05:40:07.012Z</time></trkpt><trkpt lat="45.1817799" lon="8.158708"><ele>143.0</ele><time>2026-05-04T05:40:08.009Z</time></trkpt><trkpt lat="45.181783" lon="8.1588722"><ele>143.25</ele><time>2026-05-04T05:40:09.01Z</time></trkpt><trkpt lat="45.1817959" lon="8.1590437"><ele>143.5</ele><time>2026-05-04T05:40:10.007Z</time></trkpt><trkpt lat="45.1818184" lon="8.1592214"><ele>143.75</ele><time>2026-05-04T05:40:11.007Z</time></trkpt><trkpt lat="45.1818446" lon="8.1594042"><ele>144.0</ele><time>2026-05-04T05:40:12.007Z</time></trkpt><trkpt lat="45.1818662" lon="8.1595925"><ele>143.66666666666666</ele><time>2026-05-04T05:40:13.011Z</time></trkpt><trkpt lat="45.1818948" lon="8.1599768"><ele>143.33333333333331</ele><time>2026-05-04T05:40:15.022Z</time></trkpt><trkpt lat="45.1819087" lon="8.1601583"><ele>143.0</ele><time>2026-05-04T05:40:16.011Z</time></trkpt><trkpt lat="45.1819229" lon="8.1603344"><ele>143.0</ele><time>2026-05-04T05:40:17.007Z</time></trkpt><trkpt lat="45.1819384" lon="8.1605101"><ele>143.0</ele><time>2026-05-04T05:40:18.007Z</time></trkpt><trkpt lat="45.1819517" lon="8.1606867"><ele>143.0</ele><time>2026-05-04T05:40:19.013Z</time></trkpt><trkpt lat="45.181963" lon="8.16084"><ele>143.0</ele><time>2026-05-04T05:40:20.016Z</time></trkpt><trkpt lat="45.181973" lon="8.1610161"><ele>143.0</ele><time>2026-05-04T05:40:21.014Z</time></trkpt><trkpt lat="45.181988" lon="8.1611885"><ele>143.0</ele><time>2026-05-04T05:40:22.012Z</time></trkpt><trkpt lat="45.182014" lon="8.1613655"><ele>143.0</ele><time>2026-05-04T05:40:23.011Z</time></trkpt><trkpt lat="45.1820492" lon="8.1615398"><ele>143.0</ele><time>2026-05-04T05:40:24.01Z</time></trkpt><trkpt lat="45.1821006" lon="8.1617043"><ele>143.25</ele><time>2026-05-04T05:40:25.011Z</time></trkpt><trkpt lat="45.1821496" lon="8.1618731"><ele>143.5</ele><time>2026-05-04T05:40:26.009Z</time></trkpt><trkpt lat="45.1821989" lon="8.1620529"><ele>143.75</ele><time>2026-05-04T05:40:27.021Z</time></trkpt><trkpt lat="45.1822437" lon="8.162231"><ele>144.0</ele><time>2026-05-04T05:40:28.008Z</time></trkpt><trkpt lat="45.1822875" lon="8.1624183"><ele>144.0</ele><time>2026-05-04T05:40:29.017Z</time></trkpt><trkpt lat="45.1823303" lon="8.1626077"><ele>144.0</ele><time>2026-05-04T05:40:30.014Z</time></trkpt><trkpt lat="45.1823723" lon="8.1628005"><ele>144.0</ele><time>2026-05-04T05:40:31.011Z</time></trkpt><trkpt lat="45.1824135" lon="8.1629824"><ele>144.0</ele><time>2026-05-04T05:40:32.012Z</time></trkpt><trkpt lat="45.1824467" lon="8.1631787"><ele>144.0</ele><time>2026-05-04T05:40:33.011Z</time></trkpt><trkpt lat="45.1824815" lon="8.1633746"><ele>144.0</ele><time>2026-05-04T05:40:34.013Z</time></trkpt><trkpt lat="45.1825494" lon="8.163764"><ele>144.0</ele><time>2026-05-04T05:40:36.013Z</time></trkpt><trkpt lat="45.1825858" lon="8.1639531"><ele>144.0</ele><time>2026-05-04T05:40:37.01Z</time></trkpt><trkpt lat="45.1826172" lon="8.1641281"><ele>144.0</ele><time>2026-05-04T05:40:38.004Z</time></trkpt><trkpt lat="45.1826529" lon="8.1643024"><ele>144.0</ele><time>2026-05-04T05:40:39.016Z</time></trkpt><trkpt lat="45.1827004" lon="8.1644794"><ele>144.0</ele><time>2026-05-04T05:40:40.016Z</time></trkpt><trkpt lat="45.1827558" lon="8.1646645"><ele>144.0</ele><time>2026-05-04T05:40:41.006Z</time></trkpt><trkpt lat="45.1828148" lon="8.1648605"><ele>144.0</ele><time>2026-05-04T05:40:42.018Z</time></trkpt><trkpt lat="45.1828752" lon="8.1650636"><ele>144.0</ele><time>2026-05-04T05:40:43.011Z</time></trkpt><trkpt lat="45.1829314" lon="8.1652653"><ele>144.0</ele><time>2026-05-04T05:40:44.01Z</time></trkpt><trkpt lat="45.1829857" lon="8.1654502"><ele>144.0</ele><time>2026-05-04T05:40:45.007Z</time></trkpt><trkpt lat="45.1830346" lon="8.1656379"><ele>144.0</ele><time>2026-05-04T05:40:46.007Z</time></trkpt><trkpt lat="45.1830808" lon="8.1658124"><ele>144.0</ele><time>2026-05-04T05:40:47.011Z</time></trkpt><trkpt lat="45.1831165" lon="8.1659772"><ele>143.75</ele><time>2026-05-04T05:40:48.009Z</time></trkpt><trkpt lat="45.1831489" lon="8.1661435"><ele>143.5</ele><time>2026-05-04T05:40:49.016Z</time></trkpt><trkpt lat="45.1831641" lon="8.1663199"><ele>143.25</ele><time>2026-05-04T05:40:50.009Z</time></trkpt><trkpt lat="45.1831707" lon="8.1665086"><ele>143.0</ele><time>2026-05-04T05:40:51.005Z</time></trkpt><trkpt lat="45.1831805" lon="8.1667078"><ele>143.0</ele><time>2026-05-04T05:40:52.01Z</time></trkpt><trkpt lat="45.1831748" lon="8.1669155"><ele>143.0</ele><time>2026-05-04T05:40:53.012Z</time></trkpt><trkpt lat="45.1831692" lon="8.1671287"><ele>143.0</ele><time>2026-05-04T05:40:54.008Z</time></trkpt><trkpt lat="45.1831652" lon="8.167335"><ele>143.0</ele><time>2026-05-04T05:40:55.016Z</time></trkpt><trkpt lat="45.1831702" lon="8.1677372"><ele>143.25</ele><time>2026-05-04T05:40:57.009Z</time></trkpt><trkpt lat="45.1831881" lon="8.1679448"><ele>143.5</ele><time>2026-05-04T05:40:58.01Z</time></trkpt><trkpt lat="45.1832049" lon="8.1681515"><ele>143.75</ele><time>2026-05-04T05:40:59.005Z</time></trkpt><trkpt lat="45.1832151" lon="8.1683573"><ele>144.0</ele><time>2026-05-04T05:41:00.006Z</time></trkpt><trkpt lat="45.1832299" lon="8.1685522"><ele>144.0</ele><time>2026-05-04T05:41:01.011Z</time></trkpt><trkpt lat="45.1832436" lon="8.1687361"><ele>144.0</ele><time>2026-05-04T05:41:02.012Z</time></trkpt><trkpt lat="45.1832522" lon="8.1689109"><ele>144.0</ele><time>2026-05-04T05:41:03.006Z</time></trkpt><trkpt lat="45.1832539" lon="8.1690845"><ele>144.0</ele><time>2026-05-04T05:41:04.008Z</time></trkpt><trkpt lat="45.1832456" lon="8.1692575"><ele>143.75</ele><time>2026-05-04T05:41:05.006Z</time></trkpt><trkpt lat="45.1832254" lon="8.1694268"><ele>143.5</ele><time>2026-05-04T05:41:06.007Z</time></trkpt><trkpt lat="45.1831955" lon="8.1695961"><ele>143.25</ele><time>2026-05-04T05:41:07.016Z</time></trkpt><trkpt lat="45.183153" lon="8.1697666"><ele>143.0</ele><time>2026-05-04T05:41:08.007Z</time></trkpt><trkpt lat="45.1831068" lon="8.1699326"><ele>143.0</ele><time>2026-05-04T05:41:09.006Z</time></trkpt><trkpt lat="45.1830628" lon="8.1700838"><ele>143.0</ele><time>2026-05-04T05:41:10.008Z</time></trkpt><trkpt lat="45.1830171" lon="8.1702191"><ele>143.0</ele><time>2026-05-04T05:41:11.004Z</time></trkpt><trkpt lat="45.1829649" lon="8.1703359"><ele>143.0</ele><time>2026-05-04T05:41:12.017Z</time></trkpt><trkpt lat="45.1829101" lon="8.1704389"><ele>143.0</ele><time>2026-05-04T05:41:13.004Z</time></trkpt><trkpt lat="45.1828551" lon="8.1705346"><ele>143.0</ele><time>2026-05-04T05:41:14.006Z</time></trkpt><trkpt lat="45.1828123" lon="8.1706216"><ele>143.0</ele><time>2026-05-04T05:41:15.004Z</time></trkpt><trkpt lat="45.1827983" lon="8.1707273"><ele>143.0</ele><time>2026-05-04T05:41:16.01Z</time></trkpt><trkpt lat="45.1828179" lon="8.1710223"><ele>143.0</ele><time>2026-05-04T05:41:18.009Z</time></trkpt><trkpt lat="45.1828352" lon="8.1711852"><ele>143.20000000000002</ele><time>2026-05-04T05:41:19.012Z</time></trkpt><trkpt lat="45.1828595" lon="8.1713323"><ele>143.4</ele><time>2026-05-04T05:41:20.006Z</time></trkpt><trkpt lat="45.1828938" lon="8.1714609"><ele>143.60000000000002</ele><time>2026-05-04T05:41:21.016Z</time></trkpt><trkpt lat="45.1829418" lon="8.1715753"><ele>143.8</ele><time>2026-05-04T05:41:22.005Z</time></trkpt><trkpt lat="45.1830106" lon="8.1716837"><ele>144.0</ele><time>2026-05-04T05:41:23.01Z</time></trkpt><trkpt lat="45.1830942" lon="8.1717988"><ele>143.75</ele><time>2026-05-04T05:41:24.004Z</time></trkpt><trkpt lat="45.1831828" lon="8.1719202"><ele>143.5</ele><time>2026-05-04T05:41:25.007Z</time></trkpt><trkpt lat="45.1832705" lon="8.1720494"><ele>143.25</ele><time>2026-05-04T05:41:26.004Z</time></trkpt><trkpt lat="45.1833474" lon="8.1721964"><ele>143.0</ele><time>2026-05-04T05:41:27.01Z</time></trkpt><trkpt lat="45.1834159" lon="8.1723617"><ele>143.0</ele><time>2026-05-04T05:41:28.007Z</time></trkpt><trkpt lat="45.1834842" lon="8.1725488"><ele>143.0</ele><time>2026-05-04T05:41:29.01Z</time></trkpt><trkpt lat="45.1835559" lon="8.1727569"><ele>143.0</ele><time>2026-05-04T05:41:30.007Z</time></trkpt><trkpt lat="45.1836265" lon="8.1729624"><ele>143.0</ele><time>2026-05-04T05:41:31.008Z</time></trkpt><trkpt lat="45.1836921" lon="8.1731552"><ele>143.0</ele><time>2026-05-04T05:41:32.008Z</time></trkpt><trkpt lat="45.1837567" lon="8.1733446"><ele>143.0</ele><time>2026-05-04T05:41:33.009Z</time></trkpt><trkpt lat="45.183828" lon="8.1735322"><ele>143.0</ele><time>2026-05-04T05:41:34.01Z</time></trkpt><trkpt lat="45.1839061" lon="8.1737197"><ele>143.0</ele><time>2026-05-04T05:41:35.008Z</time></trkpt><trkpt lat="45.1839926" lon="8.173914"><ele>143.0</ele><time>2026-05-04T05:41:36.011Z</time></trkpt><trkpt lat="45.1840817" lon="8.1741163"><ele>143.0</ele><time>2026-05-04T05:41:37.003Z</time></trkpt><trkpt lat="45.1842555" lon="8.1745179"><ele>142.66666666666666</ele><time>2026-05-04T05:41:39.007Z</time></trkpt><trkpt lat="45.1843421" lon="8.1747216"><ele>142.33333333333334</ele><time>2026-05-04T05:41:40.004Z</time></trkpt><trkpt lat="45.184425" lon="8.174925"><ele>142.0</ele><time>2026-05-04T05:41:41.004Z</time></trkpt><trkpt lat="45.1845058" lon="8.1751266"><ele>142.0</ele><time>2026-05-04T05:41:42.006Z</time></trkpt><trkpt lat="45.1845867" lon="8.1753218"><ele>142.0</ele><time>2026-05-04T05:41:43.014Z</time></trkpt><trkpt lat="45.1846696" lon="8.175515"><ele>142.0</ele><time>2026-05-04T05:41:44.007Z</time></trkpt><trkpt lat="45.1847537" lon="8.1757097"><ele>142.0</ele><time>2026-05-04T05:41:45.008Z</time></trkpt><trkpt lat="45.184843" lon="8.1759021"><ele>142.0</ele><time>2026-05-04T05:41:46.016Z</time></trkpt><trkpt lat="45.1849371" lon="8.1760898"><ele>142.0</ele><time>2026-05-04T05:41:47.011Z</time></trkpt><trkpt lat="45.1850312" lon="8.1762782"><ele>142.0</ele><time>2026-05-04T05:41:48.013Z</time></trkpt><trkpt lat="45.1851252" lon="8.1764712"><ele>142.0</ele><time>2026-05-04T05:41:49.011Z</time></trkpt><trkpt lat="45.1852121" lon="8.176673"><ele>142.0</ele><time>2026-05-04T05:41:50.012Z</time></trkpt><trkpt lat="45.1852939" lon="8.1768812"><ele>142.0</ele><time>2026-05-04T05:41:51.014Z</time></trkpt><trkpt lat="45.1853756" lon="8.1770918"><ele>142.0</ele><time>2026-05-04T05:41:52.004Z</time></trkpt><trkpt lat="45.1854585" lon="8.1773035"><ele>142.0</ele><time>2026-05-04T05:41:53.016Z</time></trkpt><trkpt lat="45.1855445" lon="8.1775122"><ele>142.0</ele><time>2026-05-04T05:41:54.011Z</time></trkpt><trkpt lat="45.1856357" lon="8.1777148"><ele>142.0</ele><time>2026-05-04T05:41:55.007Z</time></trkpt><trkpt lat="45.1857297" lon="8.1779139"><ele>142.0</ele><time>2026-05-04T05:41:56.009Z</time></trkpt><trkpt lat="45.1858243" lon="8.1781114"><ele>141.5</ele><time>2026-05-04T05:41:57.005Z</time></trkpt><trkpt lat="45.1859168" lon="8.1783067"><ele>141.0</ele><time>2026-05-04T05:41:58.011Z</time></trkpt><trkpt lat="45.1860901" lon="8.1787037"><ele>141.0</ele><time>2026-05-04T05:42:00.004Z</time></trkpt><trkpt lat="45.186175" lon="8.1789069"><ele>141.0</ele><time>2026-05-04T05:42:01.014Z</time></trkpt><trkpt lat="45.1862596" lon="8.1791104"><ele>141.0</ele><time>2026-05-04T05:42:02.003Z</time></trkpt><trkpt lat="45.1863432" lon="8.1793171"><ele>141.33333333333334</ele><time>2026-05-04T05:42:03.007Z</time></trkpt><trkpt lat="45.1864245" lon="8.1795256"><ele>141.66666666666669</ele><time>2026-05-04T05:42:04.003Z</time></trkpt><trkpt lat="45.1865002" lon="8.1797386"><ele>142.0</ele><time>2026-05-04T05:42:05.007Z</time></trkpt><trkpt lat="45.1865696" lon="8.1799561"><ele>142.0</ele><time>2026-05-04T05:42:06.009Z</time></trkpt><trkpt lat="45.186634" lon="8.1801742"><ele>142.0</ele><time>2026-05-04T05:42:07.003Z</time></trkpt><trkpt lat="45.186696" lon="8.1803856"><ele>142.0</ele><time>2026-05-04T05:42:08.02Z</time></trkpt><trkpt lat="45.1867611" lon="8.1805925"><ele>141.66666666666669</ele><time>2026-05-04T05:42:09.017Z</time></trkpt><trkpt lat="45.1868286" lon="8.1807989"><ele>141.33333333333334</ele><time>2026-05-04T05:42:10.006Z</time></trkpt><trkpt lat="45.1868977" lon="8.181007"><ele>141.0</ele><time>2026-05-04T05:42:11.003Z</time></trkpt><trkpt lat="45.1869695" lon="8.1812144"><ele>141.0</ele><time>2026-05-04T05:42:12.003Z</time></trkpt><trkpt lat="45.1870424" lon="8.1814197"><ele>141.0</ele><time>2026-05-04T05:42:13.006Z</time></trkpt><trkpt lat="45.1871153" lon="8.1816258"><ele>141.0</ele><time>2026-05-04T05:42:14.006Z</time></trkpt><trkpt lat="45.1871887" lon="8.1818325"><ele>141.0</ele><time>2026-05-04T05:42:15.007Z</time></trkpt><trkpt lat="45.1872626" lon="8.1820378"><ele>141.0</ele><time>2026-05-04T05:42:16.009Z</time></trkpt><trkpt lat="45.187339" lon="8.182239"><ele>141.0</ele><time>2026-05-04T05:42:17.015Z</time></trkpt><trkpt lat="45.1874171" lon="8.1824248"><ele>141.0</ele><time>2026-05-04T05:42:18.006Z</time></trkpt><trkpt lat="45.1874996" lon="8.1825971"><ele>141.0</ele><time>2026-05-04T05:42:19.009Z</time></trkpt><trkpt lat="45.1876358" lon="8.1829127"><ele>141.0</ele><time>2026-05-04T05:42:21.002Z</time></trkpt><trkpt lat="45.187676" lon="8.1830624"><ele>141.0</ele><time>2026-05-04T05:42:22.011Z</time></trkpt><trkpt lat="45.1877042" lon="8.1832215"><ele>141.0</ele><time>2026-05-04T05:42:23.006Z</time></trkpt><trkpt lat="45.1877184" lon="8.1834013"><ele>141.0</ele><time>2026-05-04T05:42:24.006Z</time></trkpt><trkpt lat="45.18772" lon="8.1836087"><ele>141.0</ele><time>2026-05-04T05:42:25.007Z</time></trkpt><trkpt lat="45.1877174" lon="8.1838256"><ele>141.5</ele><time>2026-05-04T05:42:26.012Z</time></trkpt><trkpt lat="45.1877145" lon="8.184023"><ele>142.0</ele><time>2026-05-04T05:42:27.007Z</time></trkpt><trkpt lat="45.1877145" lon="8.1842047"><ele>142.5</ele><time>2026-05-04T05:42:28.007Z</time></trkpt><trkpt lat="45.1877191" lon="8.184372"><ele>143.0</ele><time>2026-05-04T05:42:29.011Z</time></trkpt><trkpt lat="45.1877405" lon="8.1845428"><ele>143.0</ele><time>2026-05-04T05:42:30.005Z</time></trkpt><trkpt lat="45.1877814" lon="8.1847224"><ele>143.0</ele><time>2026-05-04T05:42:31.011Z</time></trkpt><trkpt lat="45.1878424" lon="8.1849154"><ele>143.0</ele><time>2026-05-04T05:42:32.01Z</time></trkpt><trkpt lat="45.1879106" lon="8.1851168"><ele>143.0</ele><time>2026-05-04T05:42:33.012Z</time></trkpt><trkpt lat="45.1879715" lon="8.185306"><ele>142.75</ele><time>2026-05-04T05:42:34.004Z</time></trkpt><trkpt lat="45.1880255" lon="8.1854887"><ele>142.5</ele><time>2026-05-04T05:42:35.015Z</time></trkpt><trkpt lat="45.1880751" lon="8.1856708"><ele>142.25</ele><time>2026-05-04T05:42:36.008Z</time></trkpt><trkpt lat="45.1881152" lon="8.185841"><ele>142.0</ele><time>2026-05-04T05:42:37.002Z</time></trkpt><trkpt lat="45.1881432" lon="8.1860025"><ele>142.0</ele><time>2026-05-04T05:42:38.012Z</time></trkpt><trkpt lat="45.1881618" lon="8.1861655"><ele>142.0</ele><time>2026-05-04T05:42:39.005Z</time></trkpt><trkpt lat="45.1881748" lon="8.1863287"><ele>142.0</ele><time>2026-05-04T05:42:40.014Z</time></trkpt><trkpt lat="45.1881865" lon="8.1866643"><ele>142.25</ele><time>2026-05-04T05:42:42.005Z</time></trkpt><trkpt lat="45.1881902" lon="8.1868333"><ele>142.5</ele><time>2026-05-04T05:42:43.015Z</time></trkpt><trkpt lat="45.1882065" lon="8.1870094"><ele>142.75</ele><time>2026-05-04T05:42:44.01Z</time></trkpt><trkpt lat="45.188227" lon="8.1872041"><ele>143.0</ele><time>2026-05-04T05:42:45.015Z</time></trkpt><trkpt lat="45.1882491" lon="8.1874078"><ele>143.33333333333331</ele><time>2026-05-04T05:42:46.007Z</time></trkpt><trkpt lat="45.1882802" lon="8.1876201"><ele>143.66666666666666</ele><time>2026-05-04T05:42:47.013Z</time></trkpt><trkpt lat="45.1883086" lon="8.1878376"><ele>144.0</ele><time>2026-05-04T05:42:48.006Z</time></trkpt><trkpt lat="45.18834" lon="8.1880511"><ele>143.5</ele><time>2026-05-04T05:42:49.01Z</time></trkpt><trkpt lat="45.1883681" lon="8.1882519"><ele>143.0</ele><time>2026-05-04T05:42:50.007Z</time></trkpt><trkpt lat="45.188396" lon="8.1884419"><ele>142.5</ele><time>2026-05-04T05:42:51.008Z</time></trkpt><trkpt lat="45.1884241" lon="8.188637"><ele>142.0</ele><time>2026-05-04T05:42:52.005Z</time></trkpt><trkpt lat="45.1884473" lon="8.1888489"><ele>142.0</ele><time>2026-05-04T05:42:53.013Z</time></trkpt><trkpt lat="45.1884645" lon="8.1890838"><ele>142.0</ele><time>2026-05-04T05:42:54.006Z</time></trkpt><trkpt lat="45.1884798" lon="8.1893254"><ele>142.0</ele><time>2026-05-04T05:42:55.007Z</time></trkpt><trkpt lat="45.1884935" lon="8.1895764"><ele>142.0</ele><time>2026-05-04T05:42:56.003Z</time></trkpt><trkpt lat="45.1885042" lon="8.1898262"><ele>142.0</ele><time>2026-05-04T05:42:57.007Z</time></trkpt><trkpt lat="45.1885087" lon="8.1900869"><ele>142.0</ele><time>2026-05-04T05:42:58.009Z</time></trkpt><trkpt lat="45.1885195" lon="8.1903547"><ele>141.66666666666669</ele><time>2026-05-04T05:42:59.008Z</time></trkpt><trkpt lat="45.1885323" lon="8.1906159"><ele>141.33333333333334</ele><time>2026-05-04T05:43:00.014Z</time></trkpt><trkpt lat="45.1885453" lon="8.1908758"><ele>141.0</ele><time>2026-05-04T05:43:01.01Z</time></trkpt><trkpt lat="45.1885662" lon="8.1913881"><ele>141.0</ele><time>2026-05-04T05:43:03.011Z</time></trkpt><trkpt lat="45.1885789" lon="8.1916408"><ele>141.0</ele><time>2026-05-04T05:43:04.002Z</time></trkpt><trkpt lat="45.1885902" lon="8.1918898"><ele>141.0</ele><time>2026-05-04T05:43:05.013Z</time></trkpt><trkpt lat="45.1885996" lon="8.1921396"><ele>141.66666666666666</ele><time>2026-05-04T05:43:06.011Z</time></trkpt><trkpt lat="45.1886123" lon="8.1923784"><ele>142.33333333333331</ele><time>2026-05-04T05:43:07.016Z</time></trkpt><trkpt lat="45.1886278" lon="8.1926171"><ele>143.0</ele><time>2026-05-04T05:43:08.016Z</time></trkpt><trkpt lat="45.1886398" lon="8.1928554"><ele>143.0</ele><time>2026-05-04T05:43:09.011Z</time></trkpt><trkpt lat="45.1886477" lon="8.1930999"><ele>143.0</ele><time>2026-05-04T05:43:10.011Z</time></trkpt><trkpt lat="45.1886531" lon="8.193343"><ele>143.0</ele><time>2026-05-04T05:43:11.01Z</time></trkpt><trkpt lat="45.1886574" lon="8.1935739"><ele>142.5</ele><time>2026-05-04T05:43:12.016Z</time></trkpt><trkpt lat="45.1886629" lon="8.1937864"><ele>142.0</ele><time>2026-05-04T05:43:13.011Z</time></trkpt><trkpt lat="45.188668" lon="8.1939793"><ele>141.5</ele><time>2026-05-04T05:43:14.008Z</time></trkpt><trkpt lat="45.1886757" lon="8.1941637"><ele>141.0</ele><time>2026-05-04T05:43:15.014Z</time></trkpt><trkpt lat="45.1886858" lon="8.1943553"><ele>140.75</ele><time>2026-05-04T05:43:16.007Z</time></trkpt><trkpt lat="45.1886938" lon="8.1945556"><ele>140.5</ele><time>2026-05-04T05:43:17.014Z</time></trkpt><trkpt lat="45.1886998" lon="8.1947625"><ele>140.25</ele><time>2026-05-04T05:43:18.012Z</time></trkpt><trkpt lat="45.1887" lon="8.1949904"><ele>140.0</ele><time>2026-05-04T05:43:19.006Z</time></trkpt><trkpt lat="45.188695" lon="8.1952245"><ele>140.0</ele><time>2026-05-04T05:43:20.007Z</time></trkpt><trkpt lat="45.1886901" lon="8.1954424"><ele>140.0</ele><time>2026-05-04T05:43:21.01Z</time></trkpt><trkpt lat="45.1886829" lon="8.1956566"><ele>140.0</ele><time>2026-05-04T05:43:22.01Z</time></trkpt><trkpt lat="45.1886759" lon="8.1960397"><ele>140.0</ele><time>2026-05-04T05:43:24.008Z</time></trkpt><trkpt lat="45.1886772" lon="8.1962063"><ele>140.0</ele><time>2026-05-04T05:43:25.006Z</time></trkpt><trkpt lat="45.1886859" lon="8.1963598"><ele>140.0</ele><time>2026-05-04T05:43:26.009Z</time></trkpt><trkpt lat="45.1887052" lon="8.196503"><ele>140.0</ele><time>2026-05-04T05:43:27.012Z</time></trkpt><trkpt lat="45.1887414" lon="8.1966454"><ele>140.0</ele><time>2026-05-04T05:43:28.013Z</time></trkpt><trkpt lat="45.188792" lon="8.1967975"><ele>140.0</ele><time>2026-05-04T05:43:29.008Z</time></trkpt><trkpt lat="45.188844" lon="8.1969607"><ele>140.0</ele><time>2026-05-04T05:43:29.999Z</time></trkpt><trkpt lat="45.1888933" lon="8.1971337"><ele>140.0</ele><time>2026-05-04T05:43:31.003Z</time></trkpt><trkpt lat="45.1889333" lon="8.1973004"><ele>140.0</ele><time>2026-05-04T05:43:32.008Z</time></trkpt><trkpt lat="45.1889638" lon="8.1974602"><ele>140.0</ele><time>2026-05-04T05:43:33.014Z</time></trkpt><trkpt lat="45.1889814" lon="8.1976202"><ele>140.0</ele><time>2026-05-04T05:43:34.012Z</time></trkpt><trkpt lat="45.1889847" lon="8.1977827"><ele>140.0</ele><time>2026-05-04T05:43:35.007Z</time></trkpt><trkpt lat="45.1889753" lon="8.197959"><ele>140.0</ele><time>2026-05-04T05:43:36.01Z</time></trkpt><trkpt lat="45.1889638" lon="8.1981494"><ele>139.75</ele><time>2026-05-04T05:43:37.008Z</time></trkpt><trkpt lat="45.1889555" lon="8.1983536"><ele>139.5</ele><time>2026-05-04T05:43:38.017Z</time></trkpt><trkpt lat="45.1889506" lon="8.1985447"><ele>139.25</ele><time>2026-05-04T05:43:39.008Z</time></trkpt><trkpt lat="45.1889437" lon="8.1987186"><ele>139.0</ele><time>2026-05-04T05:43:40.022Z</time></trkpt><trkpt lat="45.1889344" lon="8.1988682"><ele>139.0</ele><time>2026-05-04T05:43:41.008Z</time></trkpt><trkpt lat="45.1889253" lon="8.198991"><ele>139.0</ele><time>2026-05-04T05:43:42.01Z</time></trkpt><trkpt lat="45.188916" lon="8.1990842"><ele>139.0</ele><time>2026-05-04T05:43:43.012Z</time></trkpt><trkpt lat="45.1888349" lon="8.1992423"><ele>139.0</ele><time>2026-05-04T05:43:47.007Z</time></trkpt><trkpt lat="45.1887781" lon="8.1993402"><ele>139.0</ele><time>2026-05-04T05:43:49.012Z</time></trkpt><trkpt lat="45.1887623" lon="8.1994982"><ele>139.2</ele><time>2026-05-04T05:43:51.015Z</time></trkpt><trkpt lat="45.1887655" lon="8.1996179"><ele>139.4</ele><time>2026-05-04T05:43:52.006Z</time></trkpt><trkpt lat="45.1887728" lon="8.1997665"><ele>139.6</ele><time>2026-05-04T05:43:53.006Z</time></trkpt><trkpt lat="45.1887665" lon="8.1999394"><ele>139.8</ele><time>2026-05-04T05:43:54.008Z</time></trkpt><trkpt lat="45.1887608" lon="8.2001264"><ele>140.0</ele><time>2026-05-04T05:43:55.01Z</time></trkpt><trkpt lat="45.1887361" lon="8.2003285"><ele>140.25</ele><time>2026-05-04T05:43:56.007Z</time></trkpt><trkpt lat="45.188714" lon="8.2005284"><ele>140.5</ele><time>2026-05-04T05:43:57.009Z</time></trkpt><trkpt lat="45.1886823" lon="8.200731"><ele>140.75</ele><time>2026-05-04T05:43:58.016Z</time></trkpt><trkpt lat="45.188642" lon="8.2009277"><ele>141.0</ele><time>2026-05-04T05:43:59.007Z</time></trkpt><trkpt lat="45.1885946" lon="8.2011179"><ele>141.0</ele><time>2026-05-04T05:44:00.008Z</time></trkpt><trkpt lat="45.1885414" lon="8.2013037"><ele>141.0</ele><time>2026-05-04T05:44:01.006Z</time></trkpt><trkpt lat="45.1884913" lon="8.2014787"><ele>141.0</ele><time>2026-05-04T05:44:02.015Z</time></trkpt><trkpt lat="45.1884481" lon="8.2016426"><ele>141.0</ele><time>2026-05-04T05:44:03.015Z</time></trkpt><trkpt lat="45.1884137" lon="8.2018019"><ele>140.66666666666666</ele><time>2026-05-04T05:44:04.011Z</time></trkpt><trkpt lat="45.1883732" lon="8.2021279"><ele>140.33333333333331</ele><time>2026-05-04T05:44:06.008Z</time></trkpt><trkpt lat="45.1883717" lon="8.2023017"><ele>140.0</ele><time>2026-05-04T05:44:07.01Z</time></trkpt><trkpt lat="45.1883787" lon="8.2024804"><ele>139.75</ele><time>2026-05-04T05:44:08.007Z</time></trkpt><trkpt lat="45.1883847" lon="8.2026583"><ele>139.5</ele><time>2026-05-04T05:44:09.01Z</time></trkpt><trkpt lat="45.1883857" lon="8.2028284"><ele>139.25</ele><time>2026-05-04T05:44:10.005Z</time></trkpt><trkpt lat="45.188377" lon="8.2029914"><ele>139.0</ele><time>2026-05-04T05:44:11.014Z</time></trkpt><trkpt lat="45.188354" lon="8.2031549"><ele>139.25</ele><time>2026-05-04T05:44:12.011Z</time></trkpt><trkpt lat="45.1883141" lon="8.2033185"><ele>139.5</ele><time>2026-05-04T05:44:13.01Z</time></trkpt><trkpt lat="45.1882598" lon="8.2034794"><ele>139.75</ele><time>2026-05-04T05:44:14.016Z</time></trkpt><trkpt lat="45.1882004" lon="8.2036297"><ele>140.0</ele><time>2026-05-04T05:44:15.01Z</time></trkpt><trkpt lat="45.1881274" lon="8.2037754"><ele>140.0</ele><time>2026-05-04T05:44:16.006Z</time></trkpt><trkpt lat="45.1880634" lon="8.203929"><ele>140.0</ele><time>2026-05-04T05:44:17.015Z</time></trkpt><trkpt lat="45.1880055" lon="8.2040929"><ele>140.0</ele><time>2026-05-04T05:44:18.008Z</time></trkpt><trkpt lat="45.1879562" lon="8.204263"><ele>140.0</ele><time>2026-05-04T05:44:19.009Z</time></trkpt><trkpt lat="45.1879141" lon="8.2044397"><ele>139.75</ele><time>2026-05-04T05:44:20.015Z</time></trkpt><trkpt lat="45.1878755" lon="8.2046249"><ele>139.5</ele><time>2026-05-04T05:44:21.016Z</time></trkpt><trkpt lat="45.1878325" lon="8.2048112"><ele>139.25</ele><time>2026-05-04T05:44:22.012Z</time></trkpt><trkpt lat="45.1877889" lon="8.2049757"><ele>139.0</ele><time>2026-05-04T05:44:23.014Z</time></trkpt><trkpt lat="45.1877498" lon="8.2051182"><ele>138.75</ele><time>2026-05-04T05:44:24.007Z</time></trkpt><trkpt lat="45.1876997" lon="8.205243"><ele>138.5</ele><time>2026-05-04T05:44:25.015Z</time></trkpt><trkpt lat="45.1875536" lon="8.2054532"><ele>138.25</ele><time>2026-05-04T05:44:27.004Z</time></trkpt><trkpt lat="45.1874856" lon="8.2055378"><ele>138.0</ele><time>2026-05-04T05:44:28.006Z</time></trkpt><trkpt lat="45.187423" lon="8.2056238"><ele>138.25</ele><time>2026-05-04T05:44:29.007Z</time></trkpt><trkpt lat="45.1873793" lon="8.2057434"><ele>138.5</ele><time>2026-05-04T05:44:30.008Z</time></trkpt><trkpt lat="45.1873358" lon="8.2058927"><ele>138.75</ele><time>2026-05-04T05:44:31.01Z</time></trkpt><trkpt lat="45.1872998" lon="8.2060531"><ele>139.0</ele><time>2026-05-04T05:44:32.007Z</time></trkpt><trkpt lat="45.1872689" lon="8.2062254"><ele>139.0</ele><time>2026-05-04T05:44:33.008Z</time></trkpt><trkpt lat="45.1872349" lon="8.2064025"><ele>139.0</ele><time>2026-05-04T05:44:34.012Z</time></trkpt><trkpt lat="45.1872002" lon="8.2065766"><ele>139.0</ele><time>2026-05-04T05:44:35.009Z</time></trkpt><trkpt lat="45.1871669" lon="8.2067417"><ele>139.0</ele><time>2026-05-04T05:44:36.015Z</time></trkpt><trkpt lat="45.1871324" lon="8.2069038"><ele>139.25</ele><time>2026-05-04T05:44:37.006Z</time></trkpt><trkpt lat="45.1870863" lon="8.2070633"><ele>139.5</ele><time>2026-05-04T05:44:38.016Z</time></trkpt><trkpt lat="45.1870237" lon="8.2072127"><ele>139.75</ele><time>2026-05-04T05:44:39.011Z</time></trkpt><trkpt lat="45.1869495" lon="8.207356"><ele>140.0</ele><time>2026-05-04T05:44:40.006Z</time></trkpt><trkpt lat="45.1868735" lon="8.2075084"><ele>140.0</ele><time>2026-05-04T05:44:41.011Z</time></trkpt><trkpt lat="45.1868071" lon="8.207674"><ele>140.0</ele><time>2026-05-04T05:44:42.014Z</time></trkpt><trkpt lat="45.1867445" lon="8.2078474"><ele>140.0</ele><time>2026-05-04T05:44:43.022Z</time></trkpt><trkpt lat="45.1866778" lon="8.2080164"><ele>140.0</ele><time>2026-05-04T05:44:44.011Z</time></trkpt><trkpt lat="45.1865975" lon="8.2081749"><ele>139.33333333333331</ele><time>2026-05-04T05:44:45.012Z</time></trkpt><trkpt lat="45.1865047" lon="8.208325"><ele>138.66666666666666</ele><time>2026-05-04T05:44:46.007Z</time></trkpt><trkpt lat="45.1863025" lon="8.2086271"><ele>138.0</ele><time>2026-05-04T05:44:48.008Z</time></trkpt><trkpt lat="45.186203" lon="8.208778"><ele>138.0</ele><time>2026-05-04T05:44:49.009Z</time></trkpt><trkpt lat="45.1861072" lon="8.2089263"><ele>138.0</ele><time>2026-05-04T05:44:50.022Z</time></trkpt><trkpt lat="45.1860141" lon="8.2090788"><ele>138.0</ele><time>2026-05-04T05:44:51.007Z</time></trkpt><trkpt lat="45.1859253" lon="8.209234"><ele>138.0</ele><time>2026-05-04T05:44:52.005Z</time></trkpt><trkpt lat="45.1858411" lon="8.2093939"><ele>138.0</ele><time>2026-05-04T05:44:53.007Z</time></trkpt><trkpt lat="45.1857656" lon="8.2095541"><ele>138.0</ele><time>2026-05-04T05:44:54.006Z</time></trkpt><trkpt lat="45.185697" lon="8.2097052"><ele>138.0</ele><time>2026-05-04T05:44:55.012Z</time></trkpt><trkpt lat="45.1856352" lon="8.2098461"><ele>138.0</ele><time>2026-05-04T05:44:56.011Z</time></trkpt><trkpt lat="45.1855815" lon="8.209976"><ele>138.20000000000002</ele><time>2026-05-04T05:44:57.006Z</time></trkpt><trkpt lat="45.1855432" lon="8.2101005"><ele>138.4</ele><time>2026-05-04T05:44:58.012Z</time></trkpt><trkpt lat="45.1855208" lon="8.2102379"><ele>138.60000000000002</ele><time>2026-05-04T05:44:59.01Z</time></trkpt><trkpt lat="45.1855118" lon="8.2103912"><ele>138.8</ele><time>2026-05-04T05:45:00.011Z</time></trkpt><trkpt lat="45.1855069" lon="8.2105565"><ele>139.0</ele><time>2026-05-04T05:45:01.016Z</time></trkpt><trkpt lat="45.1854967" lon="8.2107255"><ele>139.0</ele><time>2026-05-04T05:45:02.012Z</time></trkpt><trkpt lat="45.1854716" lon="8.2108995"><ele>139.0</ele><time>2026-05-04T05:45:03.01Z</time></trkpt><trkpt lat="45.185425" lon="8.2110881"><ele>139.0</ele><time>2026-05-04T05:45:04.012Z</time></trkpt><trkpt lat="45.1853621" lon="8.2112995"><ele>139.0</ele><time>2026-05-04T05:45:05.007Z</time></trkpt><trkpt lat="45.1853013" lon="8.2115009"><ele>139.0</ele><time>2026-05-04T05:45:06.007Z</time></trkpt><trkpt lat="45.1852428" lon="8.2116848"><ele>139.0</ele><time>2026-05-04T05:45:07.003Z</time></trkpt><trkpt lat="45.18513" lon="8.2119971"><ele>139.0</ele><time>2026-05-04T05:45:09.016Z</time></trkpt><trkpt lat="45.1850816" lon="8.2121385"><ele>139.0</ele><time>2026-05-04T05:45:10.015Z</time></trkpt><trkpt lat="45.1850376" lon="8.2122715"><ele>139.0</ele><time>2026-05-04T05:45:11.008Z</time></trkpt><trkpt lat="45.1850172" lon="8.2124008"><ele>139.0</ele><time>2026-05-04T05:45:12.014Z</time></trkpt><trkpt lat="45.1849916" lon="8.2125395"><ele>139.0</ele><time>2026-05-04T05:45:13.008Z</time></trkpt><trkpt lat="45.1849608" lon="8.2126905"><ele>139.0</ele><time>2026-05-04T05:45:14.009Z</time></trkpt><trkpt lat="45.1849199" lon="8.2128414"><ele>139.0</ele><time>2026-05-04T05:45:15.007Z</time></trkpt><trkpt lat="45.1848657" lon="8.213013"><ele>139.0</ele><time>2026-05-04T05:45:16.017Z</time></trkpt><trkpt lat="45.1848029" lon="8.2131947"><ele>139.0</ele><time>2026-05-04T05:45:17.006Z</time></trkpt><trkpt lat="45.1847407" lon="8.2133764"><ele>139.0</ele><time>2026-05-04T05:45:18.008Z</time></trkpt><trkpt lat="45.1846841" lon="8.2135663"><ele>138.5</ele><time>2026-05-04T05:45:19.007Z</time></trkpt><trkpt lat="45.184639" lon="8.2137578"><ele>138.0</ele><time>2026-05-04T05:45:20.014Z</time></trkpt><trkpt lat="45.1846034" lon="8.2139562"><ele>137.5</ele><time>2026-05-04T05:45:21.007Z</time></trkpt><trkpt lat="45.1845759" lon="8.2141615"><ele>137.0</ele><time>2026-05-04T05:45:22.011Z</time></trkpt><trkpt lat="45.1845519" lon="8.2143712"><ele>137.0</ele><time>2026-05-04T05:45:23.013Z</time></trkpt><trkpt lat="45.1845248" lon="8.2145855"><ele>137.0</ele><time>2026-05-04T05:45:24.008Z</time></trkpt><trkpt lat="45.1844862" lon="8.2148019"><ele>137.0</ele><time>2026-05-04T05:45:25.005Z</time></trkpt><trkpt lat="45.1844408" lon="8.2150155"><ele>137.0</ele><time>2026-05-04T05:45:26.007Z</time></trkpt><trkpt lat="45.1843961" lon="8.2152105"><ele>137.0</ele><time>2026-05-04T05:45:27.009Z</time></trkpt><trkpt lat="45.1843546" lon="8.2153781"><ele>137.0</ele><time>2026-05-04T05:45:28.008Z</time></trkpt><trkpt lat="45.1842892" lon="8.2157334"><ele>137.25</ele><time>2026-05-04T05:45:30.005Z</time></trkpt><trkpt lat="45.1842689" lon="8.2159043"><ele>137.5</ele><time>2026-05-04T05:45:31.006Z</time></trkpt><trkpt lat="45.1842603" lon="8.2160778"><ele>137.75</ele><time>2026-05-04T05:45:32.007Z</time></trkpt><trkpt lat="45.1842636" lon="8.2162568"><ele>138.0</ele><time>2026-05-04T05:45:33.005Z</time></trkpt><trkpt lat="45.184277" lon="8.2164419"><ele>137.75</ele><time>2026-05-04T05:45:34.008Z</time></trkpt><trkpt lat="45.1842985" lon="8.2166327"><ele>137.5</ele><time>2026-05-04T05:45:35.006Z</time></trkpt><trkpt lat="45.1843264" lon="8.216828"><ele>137.25</ele><time>2026-05-04T05:45:36.005Z</time></trkpt><trkpt lat="45.1843568" lon="8.217032"><ele>137.0</ele><time>2026-05-04T05:45:37.013Z</time></trkpt><trkpt lat="45.1843879" lon="8.2172407"><ele>137.0</ele><time>2026-05-04T05:45:38.013Z</time></trkpt><trkpt lat="45.1844147" lon="8.2174536"><ele>137.0</ele><time>2026-05-04T05:45:39.01Z</time></trkpt><trkpt lat="45.1844399" lon="8.2176624"><ele>137.0</ele><time>2026-05-04T05:45:40.005Z</time></trkpt><trkpt lat="45.1844637" lon="8.2178709"><ele>137.0</ele><time>2026-05-04T05:45:41.014Z</time></trkpt><trkpt lat="45.1844785" lon="8.2180789"><ele>137.0</ele><time>2026-05-04T05:45:42.008Z</time></trkpt><trkpt lat="45.184493" lon="8.2182831"><ele>137.0</ele><time>2026-05-04T05:45:43.019Z</time></trkpt><trkpt lat="45.1844949" lon="8.2184818"><ele>137.0</ele><time>2026-05-04T05:45:44.003Z</time></trkpt><trkpt lat="45.1844999" lon="8.2186798"><ele>137.0</ele><time>2026-05-04T05:45:45.005Z</time></trkpt><trkpt lat="45.1845025" lon="8.2188846"><ele>137.0</ele><time>2026-05-04T05:45:46.007Z</time></trkpt><trkpt lat="45.1845126" lon="8.2190828"><ele>137.0</ele><time>2026-05-04T05:45:47.003Z</time></trkpt><trkpt lat="45.1845267" lon="8.2192766"><ele>137.0</ele><time>2026-05-04T05:45:48.01Z</time></trkpt><trkpt lat="45.1845469" lon="8.2194516"><ele>137.25</ele><time>2026-05-04T05:45:49.01Z</time></trkpt><trkpt lat="45.1845817" lon="8.219747"><ele>137.5</ele><time>2026-05-04T05:45:51.007Z</time></trkpt><trkpt lat="45.1845891" lon="8.2198885"><ele>137.75</ele><time>2026-05-04T05:45:52.009Z</time></trkpt><trkpt lat="45.1845896" lon="8.2200315"><ele>138.0</ele><time>2026-05-04T05:45:53.01Z</time></trkpt><trkpt lat="45.184574" lon="8.2201668"><ele>138.0</ele><time>2026-05-04T05:45:54.01Z</time></trkpt><trkpt lat="45.1845408" lon="8.2202982"><ele>138.0</ele><time>2026-05-04T05:45:55.013Z</time></trkpt><trkpt lat="45.1844935" lon="8.2204249"><ele>138.0</ele><time>2026-05-04T05:45:56.014Z</time></trkpt><trkpt lat="45.1844235" lon="8.2205496"><ele>138.0</ele><time>2026-05-04T05:45:57.013Z</time></trkpt><trkpt lat="45.1843286" lon="8.2206846"><ele>138.0</ele><time>2026-05-04T05:45:58.011Z</time></trkpt><trkpt lat="45.1842134" lon="8.220835"><ele>138.0</ele><time>2026-05-04T05:45:59.008Z</time></trkpt><trkpt lat="45.184077" lon="8.2210035"><ele>138.0</ele><time>2026-05-04T05:46:00.011Z</time></trkpt><trkpt lat="45.183929" lon="8.2211791"><ele>138.0</ele><time>2026-05-04T05:46:01.013Z</time></trkpt><trkpt lat="45.18378" lon="8.2213558"><ele>138.0</ele><time>2026-05-04T05:46:02.007Z</time></trkpt><trkpt lat="45.1836303" lon="8.2215287"><ele>138.0</ele><time>2026-05-04T05:46:03.007Z</time></trkpt><trkpt lat="45.1834797" lon="8.2217045"><ele>138.0</ele><time>2026-05-04T05:46:04.006Z</time></trkpt><trkpt lat="45.1833333" lon="8.2218787"><ele>138.0</ele><time>2026-05-04T05:46:05.007Z</time></trkpt><trkpt lat="45.1831914" lon="8.2220475"><ele>138.0</ele><time>2026-05-04T05:46:06.006Z</time></trkpt><trkpt lat="45.1830486" lon="8.2222183"><ele>138.0</ele><time>2026-05-04T05:46:07.015Z</time></trkpt><trkpt lat="45.1829096" lon="8.2223828"><ele>138.0</ele><time>2026-05-04T05:46:08.004Z</time></trkpt><trkpt lat="45.1827748" lon="8.2225393"><ele>138.0</ele><time>2026-05-04T05:46:09.009Z</time></trkpt><trkpt lat="45.1826424" lon="8.2226927"><ele>138.0</ele><time>2026-05-04T05:46:10.011Z</time></trkpt><trkpt lat="45.1823907" lon="8.222985"><ele>137.8</ele><time>2026-05-04T05:46:12.01Z</time></trkpt><trkpt lat="45.1822829" lon="8.2231011"><ele>137.60000000000002</ele><time>2026-05-04T05:46:13.012Z</time></trkpt><trkpt lat="45.1821926" lon="8.2232087"><ele>137.39999999999998</ele><time>2026-05-04T05:46:14.005Z</time></trkpt><trkpt lat="45.1821164" lon="8.2233023"><ele>137.2</ele><time>2026-05-04T05:46:15.007Z</time></trkpt><trkpt lat="45.182055" lon="8.223374"><ele>137.0</ele><time>2026-05-04T05:46:16.008Z</time></trkpt><trkpt lat="45.1820057" lon="8.2234387"><ele>137.0</ele><time>2026-05-04T05:46:17.006Z</time></trkpt><trkpt lat="45.1819421" lon="8.2235503"><ele>137.0</ele><time>2026-05-04T05:46:19.01Z</time></trkpt><trkpt lat="45.1819053" lon="8.2236408"><ele>137.0</ele><time>2026-05-04T05:46:21.009Z</time></trkpt><trkpt lat="45.1818808" lon="8.2237292"><ele>137.0</ele><time>2026-05-04T05:46:23.008Z</time></trkpt><trkpt lat="45.181853" lon="8.2238184"><ele>137.0</ele><time>2026-05-04T05:46:25.01Z</time></trkpt><trkpt lat="45.181769" lon="8.2239209"><ele>137.0</ele><time>2026-05-04T05:46:27.022Z</time></trkpt><trkpt lat="45.181712" lon="8.2239846"><ele>137.0</ele><time>2026-05-04T05:46:28.009Z</time></trkpt><trkpt lat="45.1816453" lon="8.2240642"><ele>137.0</ele><time>2026-05-04T05:46:29.007Z</time></trkpt><trkpt lat="45.1815654" lon="8.2241613"><ele>137.0</ele><time>2026-05-04T05:46:30.007Z</time></trkpt><trkpt lat="45.1814733" lon="8.2242718"><ele>137.0</ele><time>2026-05-04T05:46:31.011Z</time></trkpt><trkpt lat="45.1812678" lon="8.2245144"><ele>137.0</ele><time>2026-05-04T05:46:33.007Z</time></trkpt><trkpt lat="45.1811522" lon="8.2246535"><ele>137.0</ele><time>2026-05-04T05:46:34.012Z</time></trkpt><trkpt lat="45.1810279" lon="8.2248059"><ele>137.0</ele><time>2026-05-04T05:46:35.007Z</time></trkpt><trkpt lat="45.1808983" lon="8.2249658"><ele>137.33333333333331</ele><time>2026-05-04T05:46:36.008Z</time></trkpt><trkpt lat="45.1807672" lon="8.2251312"><ele>137.66666666666666</ele><time>2026-05-04T05:46:37.002Z</time></trkpt><trkpt lat="45.1806336" lon="8.2253087"><ele>138.0</ele><time>2026-05-04T05:46:38.013Z</time></trkpt><trkpt lat="45.1804999" lon="8.225501"><ele>137.0</ele><time>2026-05-04T05:46:39.004Z</time></trkpt><trkpt lat="45.1803689" lon="8.2257067"><ele>136.0</ele><time>2026-05-04T05:46:40.007Z</time></trkpt><trkpt lat="45.1802435" lon="8.2259215"><ele>135.0</ele><time>2026-05-04T05:46:41.014Z</time></trkpt><trkpt lat="45.1801229" lon="8.2261397"><ele>135.0</ele><time>2026-05-04T05:46:42.01Z</time></trkpt><trkpt lat="45.1800055" lon="8.2263634"><ele>135.0</ele><time>2026-05-04T05:46:43.012Z</time></trkpt><trkpt lat="45.1798961" lon="8.2265935"><ele>135.0</ele><time>2026-05-04T05:46:44.01Z</time></trkpt><trkpt lat="45.1797927" lon="8.2268298"><ele>135.0</ele><time>2026-05-04T05:46:45.006Z</time></trkpt><trkpt lat="45.1796932" lon="8.2270716"><ele>135.0</ele><time>2026-05-04T05:46:46.011Z</time></trkpt><trkpt lat="45.179597" lon="8.2273162"><ele>135.0</ele><time>2026-05-04T05:46:47.006Z</time></trkpt><trkpt lat="45.1795066" lon="8.2275657"><ele>135.0</ele><time>2026-05-04T05:46:48.008Z</time></trkpt><trkpt lat="45.1794235" lon="8.2278216"><ele>135.0</ele><time>2026-05-04T05:46:49.01Z</time></trkpt><trkpt lat="45.1793474" lon="8.2280829"><ele>135.0</ele><time>2026-05-04T05:46:50.007Z</time></trkpt><trkpt lat="45.1792773" lon="8.2283499"><ele>135.5</ele><time>2026-05-04T05:46:51.009Z</time></trkpt><trkpt lat="45.1792141" lon="8.2286215"><ele>136.0</ele><time>2026-05-04T05:46:52.006Z</time></trkpt><trkpt lat="45.1791049" lon="8.2291744"><ele>136.0</ele><time>2026-05-04T05:46:54.012Z</time></trkpt><trkpt lat="45.1790594" lon="8.2294563"><ele>136.0</ele><time>2026-05-04T05:46:55.013Z</time></trkpt><trkpt lat="45.1790207" lon="8.2297417"><ele>136.0</ele><time>2026-05-04T05:46:56.006Z</time></trkpt><trkpt lat="45.1789896" lon="8.2300306"><ele>135.66666666666669</ele><time>2026-05-04T05:46:57.007Z</time></trkpt><trkpt lat="45.1789667" lon="8.2303223"><ele>135.33333333333334</ele><time>2026-05-04T05:46:58.006Z</time></trkpt><trkpt lat="45.1789515" lon="8.2306167"><ele>135.0</ele><time>2026-05-04T05:46:59.002Z</time></trkpt><trkpt lat="45.1789455" lon="8.2309133"><ele>135.0</ele><time>2026-05-04T05:47:00.01Z</time></trkpt><trkpt lat="45.1789469" lon="8.2312109"><ele>135.0</ele><time>2026-05-04T05:47:01.005Z</time></trkpt><trkpt lat="45.1789554" lon="8.2315101"><ele>135.0</ele><time>2026-05-04T05:47:02.032Z</time></trkpt><trkpt lat="45.1789711" lon="8.231809"><ele>134.66666666666666</ele><time>2026-05-04T05:47:03.008Z</time></trkpt><trkpt lat="45.1789945" lon="8.2321078"><ele>134.33333333333331</ele><time>2026-05-04T05:47:04.006Z</time></trkpt><trkpt lat="45.179025" lon="8.2324059"><ele>134.0</ele><time>2026-05-04T05:47:05.007Z</time></trkpt><trkpt lat="45.1790629" lon="8.2327026"><ele>134.0</ele><time>2026-05-04T05:47:06.008Z</time></trkpt><trkpt lat="45.1791079" lon="8.2329973"><ele>134.0</ele><time>2026-05-04T05:47:07.009Z</time></trkpt><trkpt lat="45.1791618" lon="8.2332879"><ele>134.0</ele><time>2026-05-04T05:47:08.009Z</time></trkpt><trkpt lat="45.1792245" lon="8.2335736"><ele>134.0</ele><time>2026-05-04T05:47:09.008Z</time></trkpt><trkpt lat="45.1792943" lon="8.2338559"><ele>134.0</ele><time>2026-05-04T05:47:10.008Z</time></trkpt><trkpt lat="45.1793708" lon="8.2341335"><ele>134.0</ele><time>2026-05-04T05:47:11.008Z</time></trkpt><trkpt lat="45.1794529" lon="8.2344063"><ele>134.0</ele><time>2026-05-04T05:47:12.008Z</time></trkpt><trkpt lat="45.1795393" lon="8.2346729"><ele>134.0</ele><time>2026-05-04T05:47:13.011Z</time></trkpt><trkpt lat="45.1797323" lon="8.2351856"><ele>134.0</ele><time>2026-05-04T05:47:15.008Z</time></trkpt><trkpt lat="45.179842" lon="8.2354303"><ele>134.0</ele><time>2026-05-04T05:47:16.01Z</time></trkpt><trkpt lat="45.179959" lon="8.2356683"><ele>134.0</ele><time>2026-05-04T05:47:17.004Z</time></trkpt><trkpt lat="45.1800809" lon="8.2358982"><ele>134.33333333333331</ele><time>2026-05-04T05:47:18.009Z</time></trkpt><trkpt lat="45.1802064" lon="8.2361205"><ele>134.66666666666666</ele><time>2026-05-04T05:47:19.007Z</time></trkpt><trkpt lat="45.1803286" lon="8.236332"><ele>135.0</ele><time>2026-05-04T05:47:20.011Z</time></trkpt><trkpt lat="45.1804596" lon="8.2365329"><ele>135.0</ele><time>2026-05-04T05:47:21.005Z</time></trkpt><trkpt lat="45.1805913" lon="8.2367351"><ele>135.0</ele><time>2026-05-04T05:47:22.011Z</time></trkpt><trkpt lat="45.1807292" lon="8.2369296"><ele>135.0</ele><time>2026-05-04T05:47:23.008Z</time></trkpt><trkpt lat="45.1808733" lon="8.2371191"><ele>135.33333333333334</ele><time>2026-05-04T05:47:24.003Z</time></trkpt><trkpt lat="45.1810172" lon="8.2373117"><ele>135.66666666666669</ele><time>2026-05-04T05:47:25.008Z</time></trkpt><trkpt lat="45.1811639" lon="8.2375016"><ele>136.0</ele><time>2026-05-04T05:47:26.006Z</time></trkpt><trkpt lat="45.1813068" lon="8.2376888"><ele>136.0</ele><time>2026-05-04T05:47:27.013Z</time></trkpt><trkpt lat="45.1814482" lon="8.237879"><ele>136.0</ele><time>2026-05-04T05:47:28.005Z</time></trkpt><trkpt lat="45.1815928" lon="8.2380657"><ele>136.0</ele><time>2026-05-04T05:47:29.011Z</time></trkpt><trkpt lat="45.1817382" lon="8.2382534"><ele>135.66666666666669</ele><time>2026-05-04T05:47:30.014Z</time></trkpt><trkpt lat="45.1818817" lon="8.2384409"><ele>135.33333333333334</ele><time>2026-05-04T05:47:31.012Z</time></trkpt><trkpt lat="45.1820262" lon="8.2386295"><ele>135.0</ele><time>2026-05-04T05:47:32.007Z</time></trkpt><trkpt lat="45.1821704" lon="8.2388163"><ele>134.5</ele><time>2026-05-04T05:47:33.01Z</time></trkpt><trkpt lat="45.1823152" lon="8.2390015"><ele>134.0</ele><time>2026-05-04T05:47:34.014Z</time></trkpt><trkpt lat="45.1826011" lon="8.2393755"><ele>134.0</ele><time>2026-05-04T05:47:36.009Z</time></trkpt><trkpt lat="45.1827436" lon="8.2395621"><ele>134.0</ele><time>2026-05-04T05:47:37.005Z</time></trkpt><trkpt lat="45.1828869" lon="8.2397479"><ele>134.0</ele><time>2026-05-04T05:47:38.01Z</time></trkpt><trkpt lat="45.1830309" lon="8.2399341"><ele>134.0</ele><time>2026-05-04T05:47:39.007Z</time></trkpt><trkpt lat="45.1831741" lon="8.2401201"><ele>134.0</ele><time>2026-05-04T05:47:40.006Z</time></trkpt><trkpt lat="45.1833167" lon="8.2402988"><ele>134.0</ele><time>2026-05-04T05:47:41.007Z</time></trkpt><trkpt lat="45.1834603" lon="8.2404885"><ele>133.33333333333331</ele><time>2026-05-04T05:47:42.006Z</time></trkpt><trkpt lat="45.1835981" lon="8.240672"><ele>132.66666666666666</ele><time>2026-05-04T05:47:43Z</time></trkpt><trkpt lat="45.1837385" lon="8.2408551"><ele>132.0</ele><time>2026-05-04T05:47:44.033Z</time></trkpt><trkpt lat="45.1838822" lon="8.2410369"><ele>132.33333333333334</ele><time>2026-05-04T05:47:45.008Z</time></trkpt><trkpt lat="45.1840253" lon="8.2412263"><ele>132.66666666666669</ele><time>2026-05-04T05:47:46.004Z</time></trkpt><trkpt lat="45.1841694" lon="8.2414165"><ele>133.0</ele><time>2026-05-04T05:47:47.005Z</time></trkpt><trkpt lat="45.1843141" lon="8.2416058"><ele>133.33333333333334</ele><time>2026-05-04T05:47:48.004Z</time></trkpt><trkpt lat="45.18446" lon="8.2417951"><ele>133.66666666666666</ele><time>2026-05-04T05:47:49.005Z</time></trkpt><trkpt lat="45.1846048" lon="8.2419853"><ele>134.0</ele><time>2026-05-04T05:47:50.01Z</time></trkpt><trkpt lat="45.1847502" lon="8.2421782"><ele>134.33333333333331</ele><time>2026-05-04T05:47:51.004Z</time></trkpt><trkpt lat="45.1848967" lon="8.2423698"><ele>134.66666666666666</ele><time>2026-05-04T05:47:52.032Z</time></trkpt><trkpt lat="45.1850435" lon="8.2425637"><ele>135.0</ele><time>2026-05-04T05:47:53.005Z</time></trkpt><trkpt lat="45.1851924" lon="8.2427578"><ele>135.0</ele><time>2026-05-04T05:47:54.008Z</time></trkpt><trkpt lat="45.1853412" lon="8.2429515"><ele>135.0</ele><time>2026-05-04T05:47:55.007Z</time></trkpt><trkpt lat="45.1856412" lon="8.243344"><ele>134.66666666666666</ele><time>2026-05-04T05:47:57.006Z</time></trkpt><trkpt lat="45.185792" lon="8.2435413"><ele>134.33333333333331</ele><time>2026-05-04T05:47:58.011Z</time></trkpt><trkpt lat="45.1859434" lon="8.24374"><ele>134.0</ele><time>2026-05-04T05:47:59.004Z</time></trkpt><trkpt lat="45.1860941" lon="8.2439379"><ele>134.0</ele><time>2026-05-04T05:48:00.011Z</time></trkpt><trkpt lat="45.1862461" lon="8.2441354"><ele>134.0</ele><time>2026-05-04T05:48:01.004Z</time></trkpt><trkpt lat="45.1863969" lon="8.2443318"><ele>134.0</ele><time>2026-05-04T05:48:02.011Z</time></trkpt><trkpt lat="45.1865481" lon="8.2445285"><ele>134.0</ele><time>2026-05-04T05:48:03.003Z</time></trkpt><trkpt lat="45.1866991" lon="8.244725"><ele>134.0</ele><time>2026-05-04T05:48:04.01Z</time></trkpt><trkpt lat="45.1868493" lon="8.2449206"><ele>134.0</ele><time>2026-05-04T05:48:05.002Z</time></trkpt><trkpt lat="45.1869984" lon="8.245115"><ele>133.66666666666666</ele><time>2026-05-04T05:48:06.009Z</time></trkpt><trkpt lat="45.1871463" lon="8.2453107"><ele>133.33333333333334</ele><time>2026-05-04T05:48:07.007Z</time></trkpt><trkpt lat="45.1872928" lon="8.2455062"><ele>133.0</ele><time>2026-05-04T05:48:08.011Z</time></trkpt><trkpt lat="45.1874399" lon="8.2457008"><ele>133.66666666666669</ele><time>2026-05-04T05:48:09.005Z</time></trkpt><trkpt lat="45.187587" lon="8.2458941"><ele>134.33333333333334</ele><time>2026-05-04T05:48:10.012Z</time></trkpt><trkpt lat="45.1877336" lon="8.246089"><ele>135.0</ele><time>2026-05-04T05:48:11.004Z</time></trkpt><trkpt lat="45.1878789" lon="8.2462857"><ele>135.0</ele><time>2026-05-04T05:48:12.012Z</time></trkpt><trkpt lat="45.1880209" lon="8.2464865"><ele>135.0</ele><time>2026-05-04T05:48:13.012Z</time></trkpt><trkpt lat="45.1881593" lon="8.2466914"><ele>135.0</ele><time>2026-05-04T05:48:14.009Z</time></trkpt><trkpt lat="45.188294" lon="8.2469019"><ele>135.0</ele><time>2026-05-04T05:48:15.006Z</time></trkpt><trkpt lat="45.1884236" lon="8.247118"><ele>135.0</ele><time>2026-05-04T05:48:16.008Z</time></trkpt><trkpt lat="45.1886642" lon="8.2475736"><ele>134.66666666666666</ele><time>2026-05-04T05:48:18.008Z</time></trkpt><trkpt lat="45.1887756" lon="8.2478099"><ele>134.33333333333331</ele><time>2026-05-04T05:48:19.01Z</time></trkpt><trkpt lat="45.1888828" lon="8.2480498"><ele>134.0</ele><time>2026-05-04T05:48:20.004Z</time></trkpt><trkpt lat="45.1889865" lon="8.2482939"><ele>134.33333333333331</ele><time>2026-05-04T05:48:21.026Z</time></trkpt><trkpt lat="45.1890859" lon="8.2485423"><ele>134.66666666666666</ele><time>2026-05-04T05:48:22.005Z</time></trkpt><trkpt lat="45.1891813" lon="8.2487946"><ele>135.0</ele><time>2026-05-04T05:48:23.003Z</time></trkpt><trkpt lat="45.1892719" lon="8.2490514"><ele>134.33333333333334</ele><time>2026-05-04T05:48:24.011Z</time></trkpt><trkpt lat="45.1893549" lon="8.2493134"><ele>133.66666666666669</ele><time>2026-05-04T05:48:25.005Z</time></trkpt><trkpt lat="45.1894296" lon="8.2495809"><ele>133.0</ele><time>2026-05-04T05:48:26.008Z</time></trkpt><trkpt lat="45.1894953" lon="8.2498519"><ele>133.0</ele><time>2026-05-04T05:48:27.006Z</time></trkpt><trkpt lat="45.1895541" lon="8.2501271"><ele>133.0</ele><time>2026-05-04T05:48:28.007Z</time></trkpt><trkpt lat="45.1896088" lon="8.2504033"><ele>133.0</ele><time>2026-05-04T05:48:29.007Z</time></trkpt><trkpt lat="45.1896614" lon="8.2506819"><ele>133.0</ele><time>2026-05-04T05:48:30.006Z</time></trkpt><trkpt lat="45.1897112" lon="8.2509619"><ele>133.0</ele><time>2026-05-04T05:48:31.022Z</time></trkpt><trkpt lat="45.1897567" lon="8.2512436"><ele>133.0</ele><time>2026-05-04T05:48:32.01Z</time></trkpt><trkpt lat="45.1897958" lon="8.2515287"><ele>132.66666666666669</ele><time>2026-05-04T05:48:33.005Z</time></trkpt><trkpt lat="45.1898284" lon="8.2518141"><ele>132.33333333333334</ele><time>2026-05-04T05:48:34.006Z</time></trkpt><trkpt lat="45.1898529" lon="8.2521016"><ele>132.0</ele><time>2026-05-04T05:48:35.006Z</time></trkpt><trkpt lat="45.1898707" lon="8.2523894"><ele>133.0</ele><time>2026-05-04T05:48:36.01Z</time></trkpt><trkpt lat="45.1898823" lon="8.252676"><ele>134.0</ele><time>2026-05-04T05:48:37.003Z</time></trkpt><trkpt lat="45.1898896" lon="8.2532451"><ele>134.0</ele><time>2026-05-04T05:48:39.006Z</time></trkpt><trkpt lat="45.1898898" lon="8.2535268"><ele>134.0</ele><time>2026-05-04T05:48:40.004Z</time></trkpt><trkpt lat="45.1898882" lon="8.2538073"><ele>134.0</ele><time>2026-05-04T05:48:41Z</time></trkpt><trkpt lat="45.1898805" lon="8.2540854"><ele>134.0</ele><time>2026-05-04T05:48:42.01Z</time></trkpt><trkpt lat="45.189865" lon="8.2543632"><ele>134.0</ele><time>2026-05-04T05:48:43.01Z</time></trkpt><trkpt lat="45.1898424" lon="8.2546396"><ele>134.0</ele><time>2026-05-04T05:48:44.01Z</time></trkpt><trkpt lat="45.1898109" lon="8.2549141"><ele>134.0</ele><time>2026-05-04T05:48:45.008Z</time></trkpt><trkpt lat="45.1897704" lon="8.2551879"><ele>134.0</ele><time>2026-05-04T05:48:46.003Z</time></trkpt><trkpt lat="45.1897247" lon="8.2554618"><ele>134.0</ele><time>2026-05-04T05:48:47.002Z</time></trkpt><trkpt lat="45.1896778" lon="8.2557367"><ele>133.33333333333331</ele><time>2026-05-04T05:48:48.006Z</time></trkpt><trkpt lat="45.1896324" lon="8.2559966"><ele>132.66666666666666</ele><time>2026-05-04T05:48:49.003Z</time></trkpt><trkpt lat="45.1895905" lon="8.2562739"><ele>132.0</ele><time>2026-05-04T05:48:50.003Z</time></trkpt><trkpt lat="45.189546" lon="8.2565508"><ele>132.0</ele><time>2026-05-04T05:48:51.002Z</time></trkpt><trkpt lat="45.1894989" lon="8.2568318"><ele>132.0</ele><time>2026-05-04T05:48:52.007Z</time></trkpt><trkpt lat="45.1894554" lon="8.257113"><ele>132.0</ele><time>2026-05-04T05:48:53.005Z</time></trkpt><trkpt lat="45.1894106" lon="8.257395"><ele>131.66666666666666</ele><time>2026-05-04T05:48:54.005Z</time></trkpt><trkpt lat="45.189366" lon="8.2576776"><ele>131.33333333333331</ele><time>2026-05-04T05:48:54.999Z</time></trkpt><trkpt lat="45.1893242" lon="8.2579606"><ele>131.0</ele><time>2026-05-04T05:48:55.998Z</time></trkpt><trkpt lat="45.1892859" lon="8.258247"><ele>130.5</ele><time>2026-05-04T05:48:57.002Z</time></trkpt><trkpt lat="45.189252" lon="8.2585344"><ele>130.0</ele><time>2026-05-04T05:48:58.003Z</time></trkpt><trkpt lat="45.1891937" lon="8.2591143"><ele>129.66666666666669</ele><time>2026-05-04T05:48:59.998Z</time></trkpt><trkpt lat="45.1891686" lon="8.2594073"><ele>129.33333333333334</ele><time>2026-05-04T05:49:01.003Z</time></trkpt><trkpt lat="45.189146" lon="8.2597024"><ele>129.0</ele><time>2026-05-04T05:49:02.004Z</time></trkpt><trkpt lat="45.1891272" lon="8.2599992"><ele>129.0</ele><time>2026-05-04T05:49:03.004Z</time></trkpt><trkpt lat="45.1891111" lon="8.2602955"><ele>129.0</ele><time>2026-05-04T05:49:04.005Z</time></trkpt><trkpt lat="45.1890972" lon="8.260593"><ele>129.0</ele><time>2026-05-04T05:49:05.003Z</time></trkpt><trkpt lat="45.1890857" lon="8.2608906"><ele>129.33333333333334</ele><time>2026-05-04T05:49:06.032Z</time></trkpt><trkpt lat="45.1890721" lon="8.2611876"><ele>129.66666666666669</ele><time>2026-05-04T05:49:07.006Z</time></trkpt><trkpt lat="45.1890562" lon="8.2614821"><ele>130.0</ele><time>2026-05-04T05:49:08.005Z</time></trkpt><trkpt lat="45.1890401" lon="8.2617773"><ele>130.0</ele><time>2026-05-04T05:49:09.004Z</time></trkpt><trkpt lat="45.1890237" lon="8.2620698"><ele>130.0</ele><time>2026-05-04T05:49:10.003Z</time></trkpt><trkpt lat="45.1890087" lon="8.2623604"><ele>130.0</ele><time>2026-05-04T05:49:11.005Z</time></trkpt><trkpt lat="45.1889949" lon="8.2626488"><ele>131.0</ele><time>2026-05-04T05:49:12.003Z</time></trkpt><trkpt lat="45.1889814" lon="8.2629345"><ele>132.0</ele><time>2026-05-04T05:49:13.003Z</time></trkpt><trkpt lat="45.1889675" lon="8.2632183"><ele>133.0</ele><time>2026-05-04T05:49:14.002Z</time></trkpt><trkpt lat="45.1889542" lon="8.2635001"><ele>133.33333333333334</ele><time>2026-05-04T05:49:15.004Z</time></trkpt><trkpt lat="45.1889414" lon="8.2637804"><ele>133.66666666666666</ele><time>2026-05-04T05:49:16.003Z</time></trkpt><trkpt lat="45.1889282" lon="8.2640584"><ele>134.0</ele><time>2026-05-04T05:49:17.025Z</time></trkpt><trkpt lat="45.1889145" lon="8.2643356"><ele>134.0</ele><time>2026-05-04T05:49:18Z</time></trkpt><trkpt lat="45.1889017" lon="8.2646114"><ele>134.0</ele><time>2026-05-04T05:49:19.005Z</time></trkpt><trkpt lat="45.1888742" lon="8.2651564"><ele>133.33333333333331</ele><time>2026-05-04T05:49:21.002Z</time></trkpt><trkpt lat="45.1888612" lon="8.2654273"><ele>132.66666666666666</ele><time>2026-05-04T05:49:22.002Z</time></trkpt><trkpt lat="45.1888485" lon="8.2656959"><ele>132.0</ele><time>2026-05-04T05:49:23.003Z</time></trkpt><trkpt lat="45.1888356" lon="8.2659637"><ele>131.66666666666666</ele><time>2026-05-04T05:49:24.004Z</time></trkpt><trkpt lat="45.1888231" lon="8.2662304"><ele>131.33333333333331</ele><time>2026-05-04T05:49:25.002Z</time></trkpt><trkpt lat="45.1888101" lon="8.2664974"><ele>131.0</ele><time>2026-05-04T05:49:26.007Z</time></trkpt><trkpt lat="45.1887963" lon="8.2667666"><ele>130.66666666666666</ele><time>2026-05-04T05:49:27.005Z</time></trkpt><trkpt lat="45.1887827" lon="8.2670381"><ele>130.33333333333334</ele><time>2026-05-04T05:49:28.007Z</time></trkpt><trkpt lat="45.1887694" lon="8.2673125"><ele>130.0</ele><time>2026-05-04T05:49:29.003Z</time></trkpt><trkpt lat="45.1887569" lon="8.2675886"><ele>130.0</ele><time>2026-05-04T05:49:30.012Z</time></trkpt><trkpt lat="45.1887445" lon="8.2678664"><ele>130.0</ele><time>2026-05-04T05:49:31.001Z</time></trkpt><trkpt lat="45.1887316" lon="8.2681448"><ele>130.0</ele><time>2026-05-04T05:49:32.003Z</time></trkpt><trkpt lat="45.1887185" lon="8.2684248"><ele>130.0</ele><time>2026-05-04T05:49:33Z</time></trkpt><trkpt lat="45.1887054" lon="8.2687053"><ele>130.0</ele><time>2026-05-04T05:49:34.004Z</time></trkpt><trkpt lat="45.1886916" lon="8.2689867"><ele>130.0</ele><time>2026-05-04T05:49:35.003Z</time></trkpt><trkpt lat="45.1886769" lon="8.2692682"><ele>130.0</ele><time>2026-05-04T05:49:35.999Z</time></trkpt><trkpt lat="45.1886624" lon="8.2695494"><ele>130.0</ele><time>2026-05-04T05:49:36.999Z</time></trkpt><trkpt lat="45.188649" lon="8.2698311"><ele>130.0</ele><time>2026-05-04T05:49:37.998Z</time></trkpt><trkpt lat="45.1886368" lon="8.2701132"><ele>129.5</ele><time>2026-05-04T05:49:39.012Z</time></trkpt><trkpt lat="45.1886239" lon="8.2703965"><ele>129.0</ele><time>2026-05-04T05:49:40.001Z</time></trkpt><trkpt lat="45.1885969" lon="8.2709663"><ele>128.66666666666666</ele><time>2026-05-04T05:49:42.006Z</time></trkpt><trkpt lat="45.1885825" lon="8.2712522"><ele>128.33333333333331</ele><time>2026-05-04T05:49:43.005Z</time></trkpt><trkpt lat="45.1885674" lon="8.271539"><ele>128.0</ele><time>2026-05-04T05:49:44.027Z</time></trkpt><trkpt lat="45.1885523" lon="8.271826"><ele>129.33333333333331</ele><time>2026-05-04T05:49:45Z</time></trkpt><trkpt lat="45.1885379" lon="8.2721136"><ele>130.66666666666666</ele><time>2026-05-04T05:49:46.005Z</time></trkpt><trkpt lat="45.1885245" lon="8.2724014"><ele>132.0</ele><time>2026-05-04T05:49:46.999Z</time></trkpt><trkpt lat="45.188512" lon="8.2726898"><ele>132.0</ele><time>2026-05-04T05:49:48.006Z</time></trkpt><trkpt lat="45.1884982" lon="8.2729775"><ele>132.0</ele><time>2026-05-04T05:49:48.998Z</time></trkpt><trkpt lat="45.1884838" lon="8.2732648"><ele>132.0</ele><time>2026-05-04T05:49:50.011Z</time></trkpt><trkpt lat="45.1884698" lon="8.2735518"><ele>131.66666666666666</ele><time>2026-05-04T05:49:50.997Z</time></trkpt><trkpt lat="45.1884568" lon="8.273838"><ele>131.33333333333331</ele><time>2026-05-04T05:49:52.005Z</time></trkpt><trkpt lat="45.1884436" lon="8.2741235"><ele>131.0</ele><time>2026-05-04T05:49:53Z</time></trkpt><trkpt lat="45.18843" lon="8.2744081"><ele>130.33333333333331</ele><time>2026-05-04T05:49:54Z</time></trkpt><trkpt lat="45.1884163" lon="8.274691"><ele>129.66666666666666</ele><time>2026-05-04T05:49:55Z</time></trkpt><trkpt lat="45.1884028" lon="8.2749735"><ele>129.0</ele><time>2026-05-04T05:49:56.001Z</time></trkpt><trkpt lat="45.1883893" lon="8.2752558"><ele>129.0</ele><time>2026-05-04T05:49:56.999Z</time></trkpt><trkpt lat="45.1883745" lon="8.2755374"><ele>129.0</ele><time>2026-05-04T05:49:58.011Z</time></trkpt><trkpt lat="45.1883594" lon="8.2758188"><ele>129.0</ele><time>2026-05-04T05:49:58.996Z</time></trkpt><trkpt lat="45.1883454" lon="8.2761001"><ele>129.0</ele><time>2026-05-04T05:50:00.019Z</time></trkpt><trkpt lat="45.1883328" lon="8.2763808"><ele>129.0</ele><time>2026-05-04T05:50:00.998Z</time></trkpt><trkpt lat="45.1883074" lon="8.2769409"><ele>129.0</ele><time>2026-05-04T05:50:02.998Z</time></trkpt><trkpt lat="45.1882942" lon="8.2772188"><ele>129.0</ele><time>2026-05-04T05:50:04.004Z</time></trkpt><trkpt lat="45.188281" lon="8.2774943"><ele>129.0</ele><time>2026-05-04T05:50:05.005Z</time></trkpt><trkpt lat="45.1882685" lon="8.2777689"><ele>129.0</ele><time>2026-05-04T05:50:06.008Z</time></trkpt><trkpt lat="45.1882563" lon="8.2780426"><ele>129.0</ele><time>2026-05-04T05:50:07.006Z</time></trkpt><trkpt lat="45.1882432" lon="8.2783162"><ele>129.0</ele><time>2026-05-04T05:50:08.005Z</time></trkpt><trkpt lat="45.1882292" lon="8.2785895"><ele>129.66666666666666</ele><time>2026-05-04T05:50:08.998Z</time></trkpt><trkpt lat="45.1882153" lon="8.2788616"><ele>130.33333333333331</ele><time>2026-05-04T05:50:10.01Z</time></trkpt><trkpt lat="45.1882017" lon="8.2791335"><ele>131.0</ele><time>2026-05-04T05:50:11.001Z</time></trkpt><trkpt lat="45.1881888" lon="8.2794046"><ele>131.0</ele><time>2026-05-04T05:50:12.032Z</time></trkpt><trkpt lat="45.1881758" lon="8.2796742"><ele>131.0</ele><time>2026-05-04T05:50:12.999Z</time></trkpt><trkpt lat="45.1881624" lon="8.2799434"><ele>131.0</ele><time>2026-05-04T05:50:13.998Z</time></trkpt><trkpt lat="45.1881478" lon="8.2802118"><ele>130.66666666666666</ele><time>2026-05-04T05:50:14.997Z</time></trkpt><trkpt lat="45.1881335" lon="8.2804802"><ele>130.33333333333334</ele><time>2026-05-04T05:50:16.003Z</time></trkpt><trkpt lat="45.1881205" lon="8.2807485"><ele>130.0</ele><time>2026-05-04T05:50:17.001Z</time></trkpt><trkpt lat="45.1881085" lon="8.281017"><ele>130.0</ele><time>2026-05-04T05:50:18.006Z</time></trkpt><trkpt lat="45.1880962" lon="8.2812854"><ele>130.0</ele><time>2026-05-04T05:50:19Z</time></trkpt><trkpt lat="45.1880829" lon="8.2815537"><ele>130.0</ele><time>2026-05-04T05:50:20.008Z</time></trkpt><trkpt lat="45.1880692" lon="8.2818222"><ele>130.0</ele><time>2026-05-04T05:50:21.003Z</time></trkpt><trkpt lat="45.1880557" lon="8.2820908"><ele>130.0</ele><time>2026-05-04T05:50:22.034Z</time></trkpt><trkpt lat="45.1880286" lon="8.2826281"><ele>130.0</ele><time>2026-05-04T05:50:24.002Z</time></trkpt><trkpt lat="45.1880161" lon="8.2828966"><ele>130.0</ele><time>2026-05-04T05:50:25Z</time></trkpt><trkpt lat="45.1880036" lon="8.2831654"><ele>130.0</ele><time>2026-05-04T05:50:26.002Z</time></trkpt><trkpt lat="45.1879907" lon="8.2834349"><ele>130.0</ele><time>2026-05-04T05:50:26.999Z</time></trkpt><trkpt lat="45.1879778" lon="8.2837055"><ele>130.0</ele><time>2026-05-04T05:50:28.008Z</time></trkpt><trkpt lat="45.1879649" lon="8.2839785"><ele>130.0</ele><time>2026-05-04T05:50:29.003Z</time></trkpt><trkpt lat="45.1879521" lon="8.2842558"><ele>129.66666666666669</ele><time>2026-05-04T05:50:30.008Z</time></trkpt><trkpt lat="45.1879389" lon="8.2845398"><ele>129.33333333333334</ele><time>2026-05-04T05:50:31Z</time></trkpt><trkpt lat="45.1879244" lon="8.2848302"><ele>129.0</ele><time>2026-05-04T05:50:32.004Z</time></trkpt><trkpt lat="45.1879096" lon="8.2851263"><ele>129.0</ele><time>2026-05-04T05:50:32.999Z</time></trkpt><trkpt lat="45.1878945" lon="8.2854258"><ele>129.0</ele><time>2026-05-04T05:50:34.004Z</time></trkpt><trkpt lat="45.1878793" lon="8.2857287"><ele>129.0</ele><time>2026-05-04T05:50:35.003Z</time></trkpt><trkpt lat="45.1878642" lon="8.2860349"><ele>129.0</ele><time>2026-05-04T05:50:35.999Z</time></trkpt><trkpt lat="45.1878503" lon="8.2863428"><ele>129.0</ele><time>2026-05-04T05:50:37.002Z</time></trkpt><trkpt lat="45.1878361" lon="8.2866523"><ele>129.0</ele><time>2026-05-04T05:50:38.007Z</time></trkpt><trkpt lat="45.1878206" lon="8.2869622"><ele>128.66666666666666</ele><time>2026-05-04T05:50:39.002Z</time></trkpt><trkpt lat="45.1878046" lon="8.2872721"><ele>128.33333333333331</ele><time>2026-05-04T05:50:40.009Z</time></trkpt><trkpt lat="45.1877898" lon="8.2875806"><ele>128.0</ele><time>2026-05-04T05:50:41Z</time></trkpt><trkpt lat="45.187776" lon="8.2878884"><ele>128.0</ele><time>2026-05-04T05:50:42.002Z</time></trkpt><trkpt lat="45.1877625" lon="8.288197"><ele>128.0</ele><time>2026-05-04T05:50:43.004Z</time></trkpt><trkpt lat="45.1877337" lon="8.288813"><ele>128.66666666666666</ele><time>2026-05-04T05:50:45.004Z</time></trkpt><trkpt lat="45.1877191" lon="8.2891199"><ele>129.33333333333334</ele><time>2026-05-04T05:50:46.019Z</time></trkpt><trkpt lat="45.1877045" lon="8.2894264"><ele>130.0</ele><time>2026-05-04T05:50:47.003Z</time></trkpt><trkpt lat="45.18769" lon="8.2897311"><ele>131.0</ele><time>2026-05-04T05:50:47.999Z</time></trkpt><trkpt lat="45.1876756" lon="8.2900328"><ele>132.0</ele><time>2026-05-04T05:50:49.001Z</time></trkpt><trkpt lat="45.1876613" lon="8.2903297"><ele>133.0</ele><time>2026-05-04T05:50:49.999Z</time></trkpt><trkpt lat="45.1876463" lon="8.2906218"><ele>133.33333333333334</ele><time>2026-05-04T05:50:51.004Z</time></trkpt><trkpt lat="45.1876303" lon="8.2909103"><ele>133.66666666666666</ele><time>2026-05-04T05:50:52.008Z</time></trkpt><trkpt lat="45.1876141" lon="8.291197"><ele>134.0</ele><time>2026-05-04T05:50:53.006Z</time></trkpt><trkpt lat="45.1875988" lon="8.291483"><ele>133.0</ele><time>2026-05-04T05:50:54.022Z</time></trkpt><trkpt lat="45.187584" lon="8.2917691"><ele>132.0</ele><time>2026-05-04T05:50:55.003Z</time></trkpt><trkpt lat="45.1875681" lon="8.2920539"><ele>131.0</ele><time>2026-05-04T05:50:55.998Z</time></trkpt><trkpt lat="45.187552" lon="8.2923367"><ele>130.66666666666666</ele><time>2026-05-04T05:50:56.998Z</time></trkpt><trkpt lat="45.1875373" lon="8.2926171"><ele>130.33333333333334</ele><time>2026-05-04T05:50:57.999Z</time></trkpt><trkpt lat="45.1875231" lon="8.2928951"><ele>130.0</ele><time>2026-05-04T05:50:59.005Z</time></trkpt><trkpt lat="45.1875073" lon="8.29317"><ele>131.0</ele><time>2026-05-04T05:50:59.995Z</time></trkpt><trkpt lat="45.1874916" lon="8.2934391"><ele>132.0</ele><time>2026-05-04T05:51:01.008Z</time></trkpt><trkpt lat="45.1874761" lon="8.2937012"><ele>133.0</ele><time>2026-05-04T05:51:01.998Z</time></trkpt><trkpt lat="45.1874608" lon="8.2939618"><ele>133.0</ele><time>2026-05-04T05:51:03.002Z</time></trkpt><trkpt lat="45.1874474" lon="8.2942112"><ele>133.0</ele><time>2026-05-04T05:51:03.997Z</time></trkpt><trkpt lat="45.1874243" lon="8.2946626"><ele>132.5</ele><time>2026-05-04T05:51:06.004Z</time></trkpt><trkpt lat="45.1874136" lon="8.2948661"><ele>132.0</ele><time>2026-05-04T05:51:07.007Z</time></trkpt><trkpt lat="45.1874033" lon="8.2950557"><ele>131.5</ele><time>2026-05-04T05:51:08.002Z</time></trkpt><trkpt lat="45.1873944" lon="8.2952327"><ele>131.0</ele><time>2026-05-04T05:51:09.003Z</time></trkpt><trkpt lat="45.1873863" lon="8.2954003"><ele>131.0</ele><time>2026-05-04T05:51:10.001Z</time></trkpt><trkpt lat="45.1873781" lon="8.2955572"><ele>131.0</ele><time>2026-05-04T05:51:11.003Z</time></trkpt><trkpt lat="45.1873685" lon="8.2957066"><ele>131.0</ele><time>2026-05-04T05:51:12.005Z</time></trkpt><trkpt lat="45.1873542" lon="8.2958462"><ele>131.0</ele><time>2026-05-04T05:51:13.012Z</time></trkpt><trkpt lat="45.1873349" lon="8.2959769"><ele>131.0</ele><time>2026-05-04T05:51:14.005Z</time></trkpt><trkpt lat="45.1873229" lon="8.2961103"><ele>131.0</ele><time>2026-05-04T05:51:15.012Z</time></trkpt><trkpt lat="45.1873225" lon="8.2962583"><ele>131.0</ele><time>2026-05-04T05:51:16.004Z</time></trkpt><trkpt lat="45.1873214" lon="8.2964188"><ele>131.0</ele><time>2026-05-04T05:51:17.007Z</time></trkpt><trkpt lat="45.1873151" lon="8.2965901"><ele>131.0</ele><time>2026-05-04T05:51:18.006Z</time></trkpt><trkpt lat="45.1873054" lon="8.2967776"><ele>130.66666666666666</ele><time>2026-05-04T05:51:18.999Z</time></trkpt><trkpt lat="45.1872939" lon="8.2969824"><ele>130.33333333333334</ele><time>2026-05-04T05:51:20.023Z</time></trkpt><trkpt lat="45.1872807" lon="8.2972026"><ele>130.0</ele><time>2026-05-04T05:51:21.008Z</time></trkpt><trkpt lat="45.1872656" lon="8.2974414"><ele>130.0</ele><time>2026-05-04T05:51:22.008Z</time></trkpt><trkpt lat="45.1872501" lon="8.2976961"><ele>130.0</ele><time>2026-05-04T05:51:23.003Z</time></trkpt><trkpt lat="45.1872356" lon="8.2979488"><ele>130.0</ele><time>2026-05-04T05:51:24.004Z</time></trkpt><trkpt lat="45.1872218" lon="8.2982103"><ele>130.0</ele><time>2026-05-04T05:51:25.009Z</time></trkpt><trkpt lat="45.1871898" lon="8.2987774"><ele>130.0</ele><time>2026-05-04T05:51:27.013Z</time></trkpt><trkpt lat="45.1871728" lon="8.2990624"><ele>129.33333333333334</ele><time>2026-05-04T05:51:28.005Z</time></trkpt><trkpt lat="45.1871565" lon="8.2993281"><ele>128.66666666666666</ele><time>2026-05-04T05:51:28.999Z</time></trkpt><trkpt lat="45.1871418" lon="8.2995747"><ele>128.0</ele><time>2026-05-04T05:51:30.007Z</time></trkpt><trkpt lat="45.187129" lon="8.2998045"><ele>128.0</ele><time>2026-05-04T05:51:31Z</time></trkpt><trkpt lat="45.1871182" lon="8.3000179"><ele>128.0</ele><time>2026-05-04T05:51:32.007Z</time></trkpt><trkpt lat="45.1871085" lon="8.3002162"><ele>128.0</ele><time>2026-05-04T05:51:33.001Z</time></trkpt><trkpt lat="45.1870989" lon="8.3003997"><ele>128.0</ele><time>2026-05-04T05:51:34.007Z</time></trkpt><trkpt lat="45.1870887" lon="8.3005692"><ele>128.20000000000002</ele><time>2026-05-04T05:51:35.009Z</time></trkpt><trkpt lat="45.1870795" lon="8.3007263"><ele>128.4</ele><time>2026-05-04T05:51:36.005Z</time></trkpt><trkpt lat="45.1870724" lon="8.3008724"><ele>128.60000000000002</ele><time>2026-05-04T05:51:37.008Z</time></trkpt><trkpt lat="45.1870662" lon="8.3010091"><ele>128.8</ele><time>2026-05-04T05:51:38.003Z</time></trkpt><trkpt lat="45.1870592" lon="8.3011378"><ele>129.0</ele><time>2026-05-04T05:51:39.004Z</time></trkpt><trkpt lat="45.1870511" lon="8.3012566"><ele>129.0</ele><time>2026-05-04T05:51:40.003Z</time></trkpt><trkpt lat="45.1870432" lon="8.3013634"><ele>129.0</ele><time>2026-05-04T05:51:41.008Z</time></trkpt><trkpt lat="45.1870325" lon="8.3014542"><ele>129.0</ele><time>2026-05-04T05:51:42.01Z</time></trkpt><trkpt lat="45.1869786" lon="8.301574"><ele>129.0</ele><time>2026-05-04T05:51:44.002Z</time></trkpt><trkpt lat="45.18691" lon="8.3016144"><ele>129.0</ele><time>2026-05-04T05:51:46.006Z</time></trkpt></trkseg><trkseg><trkpt lat="45.1867529" lon="8.3016287"><ele>129.0</ele><time>2026-05-04T16:09:18.277Z</time></trkpt><trkpt lat="45.1868275" lon="8.3015994"><ele>129.0</ele><time>2026-05-04T16:09:21.28Z</time></trkpt><trkpt lat="45.1869068" lon="8.3015849"><ele>129.0</ele><time>2026-05-04T16:09:23.287Z</time></trkpt><trkpt lat="45.1869758" lon="8.3015623"><ele>129.0</ele><time>2026-05-04T16:09:25.291Z</time></trkpt><trkpt lat="45.187037" lon="8.3015243"><ele>129.0</ele><time>2026-05-04T16:09:28.274Z</time></trkpt><trkpt lat="45.1870762" lon="8.3014279"><ele>129.0</ele><time>2026-05-04T16:09:30.276Z</time></trkpt><trkpt lat="45.1870959" lon="8.3012601"><ele>129.0</ele><time>2026-05-04T16:09:32.28Z</time></trkpt><trkpt lat="45.1870991" lon="8.301168"><ele>129.0</ele><time>2026-05-04T16:09:33.278Z</time></trkpt><trkpt lat="45.1871032" lon="8.3010466"><ele>129.0</ele><time>2026-05-04T16:09:34.283Z</time></trkpt><trkpt lat="45.1871081" lon="8.3009219"><ele>129.0</ele><time>2026-05-04T16:09:35.279Z</time></trkpt><trkpt lat="45.1871161" lon="8.3007865"><ele>129.0</ele><time>2026-05-04T16:09:36.283Z</time></trkpt><trkpt lat="45.1871235" lon="8.3006437"><ele>129.0</ele><time>2026-05-04T16:09:37.282Z</time></trkpt><trkpt lat="45.1871317" lon="8.3004977"><ele>128.75</ele><time>2026-05-04T16:09:38.276Z</time></trkpt><trkpt lat="45.1871397" lon="8.3003482"><ele>128.5</ele><time>2026-05-04T16:09:39.284Z</time></trkpt><trkpt lat="45.1871491" lon="8.3001886"><ele>128.25</ele><time>2026-05-04T16:09:40.275Z</time></trkpt><trkpt lat="45.18716" lon="8.3000207"><ele>128.0</ele><time>2026-05-04T16:09:41.281Z</time></trkpt><trkpt lat="45.187171" lon="8.2998454"><ele>128.0</ele><time>2026-05-04T16:09:42.279Z</time></trkpt><trkpt lat="45.187181" lon="8.2996671"><ele>128.0</ele><time>2026-05-04T16:09:43.279Z</time></trkpt><trkpt lat="45.1871909" lon="8.2994887"><ele>128.0</ele><time>2026-05-04T16:09:44.281Z</time></trkpt><trkpt lat="45.1871996" lon="8.2993045"><ele>128.0</ele><time>2026-05-04T16:09:45.277Z</time></trkpt><trkpt lat="45.1872089" lon="8.2991136"><ele>128.0</ele><time>2026-05-04T16:09:46.279Z</time></trkpt><trkpt lat="45.1872179" lon="8.2989191"><ele>128.0</ele><time>2026-05-04T16:09:47.283Z</time></trkpt><trkpt lat="45.1872283" lon="8.298723"><ele>128.0</ele><time>2026-05-04T16:09:48.296Z</time></trkpt><trkpt lat="45.1872399" lon="8.2985263"><ele>128.0</ele><time>2026-05-04T16:09:49.28Z</time></trkpt><trkpt lat="45.1872516" lon="8.2983295"><ele>128.5</ele><time>2026-05-04T16:09:50.289Z</time></trkpt><trkpt lat="45.1872634" lon="8.2981318"><ele>129.0</ele><time>2026-05-04T16:09:51.281Z</time></trkpt><trkpt lat="45.1872736" lon="8.297934"><ele>129.5</ele><time>2026-05-04T16:09:52.275Z</time></trkpt><trkpt lat="45.1872845" lon="8.2977368"><ele>130.0</ele><time>2026-05-04T16:09:53.283Z</time></trkpt><trkpt lat="45.1872951" lon="8.2975396"><ele>130.0</ele><time>2026-05-04T16:09:54.284Z</time></trkpt><trkpt lat="45.1873049" lon="8.2973438"><ele>130.0</ele><time>2026-05-04T16:09:55.286Z</time></trkpt><trkpt lat="45.1873141" lon="8.2971489"><ele>130.0</ele><time>2026-05-04T16:09:56.285Z</time></trkpt><trkpt lat="45.1873245" lon="8.2969552"><ele>130.0</ele><time>2026-05-04T16:09:57.278Z</time></trkpt><trkpt lat="45.1873345" lon="8.2967733"><ele>130.0</ele><time>2026-05-04T16:09:58.28Z</time></trkpt><trkpt lat="45.1873449" lon="8.2966085"><ele>130.0</ele><time>2026-05-04T16:09:59.278Z</time></trkpt><trkpt lat="45.1873565" lon="8.2964592"><ele>130.0</ele><time>2026-05-04T16:10:00.282Z</time></trkpt><trkpt lat="45.1873705" lon="8.2963297"><ele>130.0</ele><time>2026-05-04T16:10:01.288Z</time></trkpt><trkpt lat="45.187388" lon="8.2962285"><ele>130.0</ele><time>2026-05-04T16:10:02.279Z</time></trkpt><trkpt lat="45.1874105" lon="8.2961447"><ele>130.16666666666669</ele><time>2026-05-04T16:10:03.275Z</time></trkpt><trkpt lat="45.1874474" lon="8.2960145"><ele>130.33333333333334</ele><time>2026-05-04T16:10:05.275Z</time></trkpt><trkpt lat="45.187443" lon="8.2959087"><ele>130.5</ele><time>2026-05-04T16:10:07.276Z</time></trkpt><trkpt lat="45.1873544" lon="8.2958608"><ele>130.66666666666666</ele><time>2026-05-04T16:10:09.277Z</time></trkpt><trkpt lat="45.1872878" lon="8.2958853"><ele>130.83333333333331</ele><time>2026-05-04T16:10:10.273Z</time></trkpt><trkpt lat="45.1872095" lon="8.2959082"><ele>131.0</ele><time>2026-05-04T16:10:11.277Z</time></trkpt><trkpt lat="45.1871258" lon="8.2959279"><ele>131.0</ele><time>2026-05-04T16:10:12.28Z</time></trkpt><trkpt lat="45.1870327" lon="8.2959205"><ele>131.0</ele><time>2026-05-04T16:10:13.273Z</time></trkpt><trkpt lat="45.1869332" lon="8.2959162"><ele>131.0</ele><time>2026-05-04T16:10:14.278Z</time></trkpt><trkpt lat="45.186825" lon="8.2959042"><ele>131.0</ele><time>2026-05-04T16:10:15.281Z</time></trkpt><trkpt lat="45.1867066" lon="8.2958924"><ele>131.0</ele><time>2026-05-04T16:10:16.28Z</time></trkpt><trkpt lat="45.186586" lon="8.2958819"><ele>130.75</ele><time>2026-05-04T16:10:17.276Z</time></trkpt><trkpt lat="45.1864594" lon="8.2958723"><ele>130.5</ele><time>2026-05-04T16:10:18.276Z</time></trkpt><trkpt lat="45.1863268" lon="8.2958605"><ele>130.25</ele><time>2026-05-04T16:10:19.279Z</time></trkpt><trkpt lat="45.1861862" lon="8.2958519"><ele>130.0</ele><time>2026-05-04T16:10:20.282Z</time></trkpt><trkpt lat="45.1860491" lon="8.2958401"><ele>130.0</ele><time>2026-05-04T16:10:21.281Z</time></trkpt><trkpt lat="45.1859047" lon="8.295834"><ele>130.0</ele><time>2026-05-04T16:10:22.283Z</time></trkpt><trkpt lat="45.1857575" lon="8.2958235"><ele>130.0</ele><time>2026-05-04T16:10:23.276Z</time></trkpt><trkpt lat="45.1856034" lon="8.2958112"><ele>130.0</ele><time>2026-05-04T16:10:24.282Z</time></trkpt><trkpt lat="45.1854464" lon="8.295805"><ele>130.33333333333334</ele><time>2026-05-04T16:10:25.288Z</time></trkpt><trkpt lat="45.1852966" lon="8.2957973"><ele>130.66666666666666</ele><time>2026-05-04T16:10:26.277Z</time></trkpt><trkpt lat="45.185136" lon="8.2958123"><ele>131.0</ele><time>2026-05-04T16:10:27.28Z</time></trkpt><trkpt lat="45.184992" lon="8.2958145"><ele>131.0</ele><time>2026-05-04T16:10:28.28Z</time></trkpt><trkpt lat="45.1848567" lon="8.2958178"><ele>131.0</ele><time>2026-05-04T16:10:29.316Z</time></trkpt><trkpt lat="45.1847391" lon="8.2958055"><ele>131.0</ele><time>2026-05-04T16:10:30.28Z</time></trkpt><trkpt lat="45.18465" lon="8.2957891"><ele>131.0</ele><time>2026-05-04T16:10:31.283Z</time></trkpt><trkpt lat="45.1845733" lon="8.2957815"><ele>131.0</ele><time>2026-05-04T16:10:32.279Z</time></trkpt><trkpt lat="45.1845089" lon="8.2957739"><ele>131.0</ele><time>2026-05-04T16:10:33.281Z</time></trkpt><trkpt lat="45.1844122" lon="8.2957576"><ele>131.0</ele><time>2026-05-04T16:10:35.275Z</time></trkpt><trkpt lat="45.1843427" lon="8.2957412"><ele>131.0</ele><time>2026-05-04T16:10:37.275Z</time></trkpt><trkpt lat="45.1842068" lon="8.2957325"><ele>131.0</ele><time>2026-05-04T16:11:40.25Z</time></trkpt><trkpt lat="45.184124" lon="8.2957328"><ele>131.0</ele><time>2026-05-04T16:11:41.276Z</time></trkpt><trkpt lat="45.1840144" lon="8.2957521"><ele>129.66666666666666</ele><time>2026-05-04T16:11:42.273Z</time></trkpt><trkpt lat="45.183871" lon="8.2957678"><ele>128.33333333333334</ele><time>2026-05-04T16:11:43.279Z</time></trkpt><trkpt lat="45.1836649" lon="8.2957563"><ele>127.0</ele><time>2026-05-04T16:11:44.276Z</time></trkpt><trkpt lat="45.183478" lon="8.2957435"><ele>127.0</ele><time>2026-05-04T16:11:45.271Z</time></trkpt><trkpt lat="45.1832776" lon="8.2957299"><ele>127.0</ele><time>2026-05-04T16:11:46.273Z</time></trkpt><trkpt lat="45.1830738" lon="8.2957149"><ele>127.0</ele><time>2026-05-04T16:11:47.272Z</time></trkpt><trkpt lat="45.1828661" lon="8.2957014"><ele>127.0</ele><time>2026-05-04T16:11:48.273Z</time></trkpt><trkpt lat="45.1826556" lon="8.295689"><ele>127.0</ele><time>2026-05-04T16:11:49.281Z</time></trkpt><trkpt lat="45.1824403" lon="8.2956735"><ele>127.0</ele><time>2026-05-04T16:11:50.275Z</time></trkpt><trkpt lat="45.1822337" lon="8.2956589"><ele>127.0</ele><time>2026-05-04T16:11:51.276Z</time></trkpt><trkpt lat="45.1820264" lon="8.2956461"><ele>127.0</ele><time>2026-05-04T16:11:52.283Z</time></trkpt><trkpt lat="45.1818197" lon="8.2956373"><ele>127.0</ele><time>2026-05-04T16:11:53.277Z</time></trkpt><trkpt lat="45.1816118" lon="8.2956285"><ele>127.66666666666667</ele><time>2026-05-04T16:11:54.277Z</time></trkpt><trkpt lat="45.1814005" lon="8.2956162"><ele>128.33333333333334</ele><time>2026-05-04T16:11:55.281Z</time></trkpt><trkpt lat="45.1811725" lon="8.2955847"><ele>129.0</ele><time>2026-05-04T16:11:56.281Z</time></trkpt><trkpt lat="45.1809477" lon="8.2955627"><ele>129.0</ele><time>2026-05-04T16:11:57.28Z</time></trkpt><trkpt lat="45.1807335" lon="8.2955509"><ele>129.0</ele><time>2026-05-04T16:11:58.275Z</time></trkpt><trkpt lat="45.1805201" lon="8.2955467"><ele>129.0</ele><time>2026-05-04T16:11:59.279Z</time></trkpt><trkpt lat="45.180306" lon="8.2955348"><ele>128.33333333333334</ele><time>2026-05-04T16:12:00.281Z</time></trkpt><trkpt lat="45.1800931" lon="8.2955206"><ele>127.66666666666667</ele><time>2026-05-04T16:12:01.274Z</time></trkpt><trkpt lat="45.1798793" lon="8.2954965"><ele>127.0</ele><time>2026-05-04T16:12:02.279Z</time></trkpt><trkpt lat="45.1796651" lon="8.2954545"><ele>127.0</ele><time>2026-05-04T16:12:03.284Z</time></trkpt><trkpt lat="45.1794477" lon="8.2953956"><ele>127.0</ele><time>2026-05-04T16:12:04.28Z</time></trkpt><trkpt lat="45.1792314" lon="8.2953167"><ele>127.0</ele><time>2026-05-04T16:12:05.28Z</time></trkpt><trkpt lat="45.1790209" lon="8.2952181"><ele>127.0</ele><time>2026-05-04T16:12:06.277Z</time></trkpt><trkpt lat="45.1788109" lon="8.2951091"><ele>127.0</ele><time>2026-05-04T16:12:07.284Z</time></trkpt><trkpt lat="45.1786008" lon="8.2949982"><ele>127.0</ele><time>2026-05-04T16:12:08.272Z</time></trkpt><trkpt lat="45.1783898" lon="8.2948944"><ele>127.33333333333334</ele><time>2026-05-04T16:12:09.276Z</time></trkpt><trkpt lat="45.1781783" lon="8.2947944"><ele>127.66666666666666</ele><time>2026-05-04T16:12:10.277Z</time></trkpt><trkpt lat="45.1779679" lon="8.2946918"><ele>128.0</ele><time>2026-05-04T16:12:11.274Z</time></trkpt><trkpt lat="45.1777588" lon="8.2945916"><ele>128.0</ele><time>2026-05-04T16:12:12.278Z</time></trkpt><trkpt lat="45.1775499" lon="8.2944915"><ele>128.0</ele><time>2026-05-04T16:12:13.283Z</time></trkpt><trkpt lat="45.1773409" lon="8.2943904"><ele>128.0</ele><time>2026-05-04T16:12:14.271Z</time></trkpt><trkpt lat="45.1771325" lon="8.2942855"><ele>128.33333333333331</ele><time>2026-05-04T16:12:15.274Z</time></trkpt><trkpt lat="45.1769275" lon="8.2941814"><ele>128.66666666666666</ele><time>2026-05-04T16:12:16.278Z</time></trkpt><trkpt lat="45.1767333" lon="8.2940837"><ele>129.0</ele><time>2026-05-04T16:12:17.281Z</time></trkpt><trkpt lat="45.1765525" lon="8.293994"><ele>128.66666666666666</ele><time>2026-05-04T16:12:18.28Z</time></trkpt><trkpt lat="45.1763787" lon="8.2939075"><ele>128.33333333333331</ele><time>2026-05-04T16:12:19.276Z</time></trkpt><trkpt lat="45.1762115" lon="8.2938085"><ele>128.0</ele><time>2026-05-04T16:12:20.274Z</time></trkpt><trkpt lat="45.1760531" lon="8.2936836"><ele>128.0</ele><time>2026-05-04T16:12:21.279Z</time></trkpt><trkpt lat="45.1759101" lon="8.293526"><ele>128.0</ele><time>2026-05-04T16:12:22.276Z</time></trkpt><trkpt lat="45.1757746" lon="8.2933563"><ele>128.0</ele><time>2026-05-04T16:12:23.275Z</time></trkpt><trkpt lat="45.1756617" lon="8.2931515"><ele>126.66666666666666</ele><time>2026-05-04T16:12:24.281Z</time></trkpt><trkpt lat="45.1755496" lon="8.2929316"><ele>125.33333333333334</ele><time>2026-05-04T16:12:25.275Z</time></trkpt><trkpt lat="45.175428" lon="8.2927146"><ele>124.0</ele><time>2026-05-04T16:12:26.277Z</time></trkpt><trkpt lat="45.1753037" lon="8.2924956"><ele>124.0</ele><time>2026-05-04T16:12:27.274Z</time></trkpt><trkpt lat="45.1751811" lon="8.2922667"><ele>124.0</ele><time>2026-05-04T16:12:28.275Z</time></trkpt><trkpt lat="45.1750502" lon="8.2920373"><ele>124.0</ele><time>2026-05-04T16:12:29.282Z</time></trkpt><trkpt lat="45.17492" lon="8.2918045"><ele>124.33333333333334</ele><time>2026-05-04T16:12:30.279Z</time></trkpt><trkpt lat="45.1747859" lon="8.291567"><ele>124.66666666666666</ele><time>2026-05-04T16:12:31.277Z</time></trkpt><trkpt lat="45.1746527" lon="8.2913275"><ele>125.0</ele><time>2026-05-04T16:12:32.277Z</time></trkpt><trkpt lat="45.1745188" lon="8.2910875"><ele>127.0</ele><time>2026-05-04T16:12:33.279Z</time></trkpt><trkpt lat="45.1743822" lon="8.2908455"><ele>129.0</ele><time>2026-05-04T16:12:34.276Z</time></trkpt><trkpt lat="45.1742446" lon="8.2906025"><ele>131.0</ele><time>2026-05-04T16:12:35.281Z</time></trkpt><trkpt lat="45.1741097" lon="8.2903651"><ele>131.66666666666666</ele><time>2026-05-04T16:12:36.272Z</time></trkpt><trkpt lat="45.173972" lon="8.2901432"><ele>132.33333333333334</ele><time>2026-05-04T16:12:37.275Z</time></trkpt><trkpt lat="45.1738261" lon="8.2899443"><ele>133.0</ele><time>2026-05-04T16:12:38.271Z</time></trkpt><trkpt lat="45.1736692" lon="8.2897723"><ele>133.0</ele><time>2026-05-04T16:12:39.276Z</time></trkpt><trkpt lat="45.173501" lon="8.2896197"><ele>133.0</ele><time>2026-05-04T16:12:40.274Z</time></trkpt><trkpt lat="45.1733243" lon="8.2894807"><ele>133.0</ele><time>2026-05-04T16:12:41.276Z</time></trkpt><trkpt lat="45.173145" lon="8.2893424"><ele>132.33333333333334</ele><time>2026-05-04T16:12:42.283Z</time></trkpt><trkpt lat="45.1729652" lon="8.2892023"><ele>131.66666666666666</ele><time>2026-05-04T16:12:43.275Z</time></trkpt><trkpt lat="45.1727872" lon="8.289065"><ele>131.0</ele><time>2026-05-04T16:12:44.275Z</time></trkpt><trkpt lat="45.17262" lon="8.2889408"><ele>131.33333333333331</ele><time>2026-05-04T16:12:45.275Z</time></trkpt><trkpt lat="45.1724639" lon="8.2888192"><ele>131.66666666666666</ele><time>2026-05-04T16:12:46.281Z</time></trkpt><trkpt lat="45.1723191" lon="8.2887058"><ele>132.0</ele><time>2026-05-04T16:12:47.275Z</time></trkpt><trkpt lat="45.1721844" lon="8.2885946"><ele>135.0</ele><time>2026-05-04T16:12:48.276Z</time></trkpt><trkpt lat="45.1720602" lon="8.2884681"><ele>138.0</ele><time>2026-05-04T16:12:49.273Z</time></trkpt><trkpt lat="45.1719432" lon="8.288321"><ele>141.0</ele><time>2026-05-04T16:12:50.279Z</time></trkpt><trkpt lat="45.1718375" lon="8.2881498"><ele>141.66666666666666</ele><time>2026-05-04T16:12:51.283Z</time></trkpt><trkpt lat="45.1717464" lon="8.2879586"><ele>142.33333333333331</ele><time>2026-05-04T16:12:52.277Z</time></trkpt><trkpt lat="45.1716731" lon="8.2877479"><ele>143.0</ele><time>2026-05-04T16:12:53.274Z</time></trkpt><trkpt lat="45.1716211" lon="8.2875213"><ele>143.0</ele><time>2026-05-04T16:12:54.28Z</time></trkpt><trkpt lat="45.171593" lon="8.2872787"><ele>143.0</ele><time>2026-05-04T16:12:55.28Z</time></trkpt><trkpt lat="45.1715844" lon="8.2870254"><ele>143.0</ele><time>2026-05-04T16:12:56.28Z</time></trkpt><trkpt lat="45.1715994" lon="8.2867615"><ele>144.66666666666666</ele><time>2026-05-04T16:12:57.277Z</time></trkpt><trkpt lat="45.1716209" lon="8.2865002"><ele>146.33333333333334</ele><time>2026-05-04T16:12:58.273Z</time></trkpt><trkpt lat="45.1716609" lon="8.286229"><ele>148.0</ele><time>2026-05-04T16:12:59.272Z</time></trkpt><trkpt lat="45.1717068" lon="8.2859529"><ele>148.33333333333334</ele><time>2026-05-04T16:13:00.279Z</time></trkpt><trkpt lat="45.171757" lon="8.2856827"><ele>148.66666666666666</ele><time>2026-05-04T16:13:01.269Z</time></trkpt><trkpt lat="45.1718105" lon="8.2854031"><ele>149.0</ele><time>2026-05-04T16:13:02.276Z</time></trkpt><trkpt lat="45.1718505" lon="8.2851128"><ele>149.66666666666666</ele><time>2026-05-04T16:13:03.274Z</time></trkpt><trkpt lat="45.1718758" lon="8.2848138"><ele>150.33333333333334</ele><time>2026-05-04T16:13:04.274Z</time></trkpt><trkpt lat="45.1718881" lon="8.2845163"><ele>151.0</ele><time>2026-05-04T16:13:05.281Z</time></trkpt><trkpt lat="45.1719101" lon="8.284225"><ele>151.33333333333334</ele><time>2026-05-04T16:13:06.275Z</time></trkpt><trkpt lat="45.1719523" lon="8.2839456"><ele>151.66666666666666</ele><time>2026-05-04T16:13:07.276Z</time></trkpt><trkpt lat="45.1720146" lon="8.2836922"><ele>152.0</ele><time>2026-05-04T16:13:08.274Z</time></trkpt><trkpt lat="45.1720953" lon="8.2834651"><ele>153.0</ele><time>2026-05-04T16:13:09.273Z</time></trkpt><trkpt lat="45.1721892" lon="8.2832476"><ele>154.0</ele><time>2026-05-04T16:13:10.279Z</time></trkpt><trkpt lat="45.1722905" lon="8.2830356"><ele>155.0</ele><time>2026-05-04T16:13:11.278Z</time></trkpt><trkpt lat="45.1723949" lon="8.2828229"><ele>155.0</ele><time>2026-05-04T16:13:12.274Z</time></trkpt><trkpt lat="45.1725016" lon="8.2826152"><ele>155.0</ele><time>2026-05-04T16:13:13.273Z</time></trkpt><trkpt lat="45.1726022" lon="8.2823992"><ele>155.0</ele><time>2026-05-04T16:13:14.277Z</time></trkpt><trkpt lat="45.1727074" lon="8.282179"><ele>157.33333333333331</ele><time>2026-05-04T16:13:15.275Z</time></trkpt><trkpt lat="45.1728141" lon="8.2819563"><ele>159.66666666666666</ele><time>2026-05-04T16:13:16.273Z</time></trkpt><trkpt lat="45.1729213" lon="8.2817348"><ele>162.0</ele><time>2026-05-04T16:13:17.277Z</time></trkpt><trkpt lat="45.1730229" lon="8.2815199"><ele>161.0</ele><time>2026-05-04T16:13:18.286Z</time></trkpt><trkpt lat="45.17312" lon="8.2813184"><ele>160.0</ele><time>2026-05-04T16:13:19.275Z</time></trkpt><trkpt lat="45.1732078" lon="8.2811214"><ele>159.0</ele><time>2026-05-04T16:13:20.278Z</time></trkpt><trkpt lat="45.1732802" lon="8.2809266"><ele>159.0</ele><time>2026-05-04T16:13:21.273Z</time></trkpt><trkpt lat="45.1733278" lon="8.2807389"><ele>159.0</ele><time>2026-05-04T16:13:22.279Z</time></trkpt><trkpt lat="45.1733456" lon="8.2805626"><ele>159.0</ele><time>2026-05-04T16:13:23.288Z</time></trkpt><trkpt lat="45.1733363" lon="8.2803909"><ele>159.0</ele><time>2026-05-04T16:13:24.274Z</time></trkpt><trkpt lat="45.1732995" lon="8.2802312"><ele>158.6</ele><time>2026-05-04T16:13:25.283Z</time></trkpt><trkpt lat="45.173237" lon="8.2800916"><ele>158.2</ele><time>2026-05-04T16:13:26.271Z</time></trkpt><trkpt lat="45.1731572" lon="8.279984"><ele>157.79999999999998</ele><time>2026-05-04T16:13:27.27Z</time></trkpt><trkpt lat="45.173062" lon="8.2799175"><ele>157.4</ele><time>2026-05-04T16:13:28.273Z</time></trkpt><trkpt lat="45.1729581" lon="8.2798904"><ele>157.0</ele><time>2026-05-04T16:13:29.272Z</time></trkpt><trkpt lat="45.1728616" lon="8.2798891"><ele>159.5</ele><time>2026-05-04T16:13:30.273Z</time></trkpt><trkpt lat="45.1727789" lon="8.2799047"><ele>162.0</ele><time>2026-05-04T16:13:31.27Z</time></trkpt><trkpt lat="45.1727031" lon="8.2799439"><ele>164.5</ele><time>2026-05-04T16:13:33.275Z</time></trkpt><trkpt lat="45.172632" lon="8.2799966"><ele>167.0</ele><time>2026-05-04T16:13:36.273Z</time></trkpt><trkpt lat="45.1725498" lon="8.2800456"><ele>169.5</ele><time>2026-05-04T16:13:38.27Z</time></trkpt><trkpt lat="45.1724967" lon="8.2800937"><ele>172.0</ele><time>2026-05-04T16:13:39.279Z</time></trkpt><trkpt lat="45.1724403" lon="8.2801699"><ele>172.0</ele><time>2026-05-04T16:13:40.28Z</time></trkpt><trkpt lat="45.172382" lon="8.280265"><ele>172.0</ele><time>2026-05-04T16:13:41.27Z</time></trkpt><trkpt lat="45.172327" lon="8.2803887"><ele>172.0</ele><time>2026-05-04T16:13:42.272Z</time></trkpt><trkpt lat="45.1722713" lon="8.2805358"><ele>172.0</ele><time>2026-05-04T16:13:43.272Z</time></trkpt><trkpt lat="45.172214" lon="8.2806915"><ele>172.0</ele><time>2026-05-04T16:13:44.274Z</time></trkpt><trkpt lat="45.1721529" lon="8.2808581"><ele>172.0</ele><time>2026-05-04T16:13:45.275Z</time></trkpt><trkpt lat="45.1720946" lon="8.2810345"><ele>172.0</ele><time>2026-05-04T16:13:46.277Z</time></trkpt><trkpt lat="45.1720208" lon="8.2812213"><ele>172.0</ele><time>2026-05-04T16:13:47.271Z</time></trkpt><trkpt lat="45.1719486" lon="8.2814181"><ele>172.0</ele><time>2026-05-04T16:13:48.274Z</time></trkpt><trkpt lat="45.1718736" lon="8.2816202"><ele>172.0</ele><time>2026-05-04T16:13:49.27Z</time></trkpt><trkpt lat="45.1717969" lon="8.2818327"><ele>172.0</ele><time>2026-05-04T16:13:50.269Z</time></trkpt><trkpt lat="45.171715" lon="8.2820527"><ele>172.0</ele><time>2026-05-04T16:13:51.272Z</time></trkpt><trkpt lat="45.171631" lon="8.2822786"><ele>173.0</ele><time>2026-05-04T16:13:52.278Z</time></trkpt><trkpt lat="45.1715465" lon="8.2825048"><ele>174.0</ele><time>2026-05-04T16:13:53.274Z</time></trkpt><trkpt lat="45.1714594" lon="8.2827197"><ele>175.0</ele><time>2026-05-04T16:13:54.274Z</time></trkpt><trkpt lat="45.1713702" lon="8.2829159"><ele>175.0</ele><time>2026-05-04T16:13:55.274Z</time></trkpt><trkpt lat="45.1712781" lon="8.2830845"><ele>175.0</ele><time>2026-05-04T16:13:56.275Z</time></trkpt><trkpt lat="45.171186" lon="8.2832193"><ele>175.0</ele><time>2026-05-04T16:13:57.274Z</time></trkpt><trkpt lat="45.1710826" lon="8.2833244"><ele>175.0</ele><time>2026-05-04T16:13:58.283Z</time></trkpt><trkpt lat="45.1709671" lon="8.2834043"><ele>175.25</ele><time>2026-05-04T16:13:59.274Z</time></trkpt><trkpt lat="45.1708386" lon="8.2834598"><ele>175.5</ele><time>2026-05-04T16:14:00.283Z</time></trkpt><trkpt lat="45.1706983" lon="8.2834943"><ele>175.75</ele><time>2026-05-04T16:14:01.278Z</time></trkpt><trkpt lat="45.1705524" lon="8.2835178"><ele>176.0</ele><time>2026-05-04T16:14:02.277Z</time></trkpt><trkpt lat="45.1703947" lon="8.2835208"><ele>176.0</ele><time>2026-05-04T16:14:03.273Z</time></trkpt><trkpt lat="45.1702383" lon="8.2835381"><ele>176.0</ele><time>2026-05-04T16:14:04.273Z</time></trkpt><trkpt lat="45.1700917" lon="8.283558"><ele>176.0</ele><time>2026-05-04T16:14:05.277Z</time></trkpt><trkpt lat="45.1699512" lon="8.283601"><ele>176.0</ele><time>2026-05-04T16:14:06.274Z</time></trkpt><trkpt lat="45.1698147" lon="8.2836583"><ele>177.75</ele><time>2026-05-04T16:14:07.273Z</time></trkpt><trkpt lat="45.1696848" lon="8.2837675"><ele>179.5</ele><time>2026-05-04T16:14:08.278Z</time></trkpt><trkpt lat="45.1695606" lon="8.2838849"><ele>181.25</ele><time>2026-05-04T16:14:09.282Z</time></trkpt><trkpt lat="45.1694441" lon="8.2840109"><ele>183.0</ele><time>2026-05-04T16:14:10.281Z</time></trkpt><trkpt lat="45.169345" lon="8.2841531"><ele>183.0</ele><time>2026-05-04T16:14:11.278Z</time></trkpt><trkpt lat="45.1692465" lon="8.2843009"><ele>183.0</ele><time>2026-05-04T16:14:12.266Z</time></trkpt><trkpt lat="45.1691892" lon="8.2844917"><ele>183.0</ele><time>2026-05-04T16:14:13.276Z</time></trkpt><trkpt lat="45.1691427" lon="8.2846985"><ele>183.0</ele><time>2026-05-04T16:14:14.277Z</time></trkpt><trkpt lat="45.169108" lon="8.2849032"><ele>182.5</ele><time>2026-05-04T16:14:15.27Z</time></trkpt><trkpt lat="45.1690991" lon="8.2851058"><ele>182.0</ele><time>2026-05-04T16:14:16.281Z</time></trkpt><trkpt lat="45.1691166" lon="8.285293"><ele>181.5</ele><time>2026-05-04T16:14:17.274Z</time></trkpt><trkpt lat="45.1691581" lon="8.2854666"><ele>181.0</ele><time>2026-05-04T16:14:18.274Z</time></trkpt><trkpt lat="45.1692248" lon="8.2856337"><ele>183.25</ele><time>2026-05-04T16:14:19.281Z</time></trkpt><trkpt lat="45.1693073" lon="8.2857949"><ele>185.5</ele><time>2026-05-04T16:14:20.273Z</time></trkpt><trkpt lat="45.1693896" lon="8.2859581"><ele>187.75</ele><time>2026-05-04T16:14:21.276Z</time></trkpt><trkpt lat="45.1694616" lon="8.2861115"><ele>190.0</ele><time>2026-05-04T16:14:22.279Z</time></trkpt><trkpt lat="45.1695165" lon="8.2862647"><ele>190.0</ele><time>2026-05-04T16:14:23.271Z</time></trkpt><trkpt lat="45.1695525" lon="8.2864235"><ele>190.0</ele><time>2026-05-04T16:14:24.282Z</time></trkpt><trkpt lat="45.1695828" lon="8.2865835"><ele>190.0</ele><time>2026-05-04T16:14:25.274Z</time></trkpt><trkpt lat="45.1695793" lon="8.2867557"><ele>190.0</ele><time>2026-05-04T16:14:26.272Z</time></trkpt><trkpt lat="45.1695358" lon="8.2869139"><ele>189.75</ele><time>2026-05-04T16:14:27.279Z</time></trkpt><trkpt lat="45.1694694" lon="8.2870769"><ele>189.5</ele><time>2026-05-04T16:14:28.271Z</time></trkpt><trkpt lat="45.1693864" lon="8.2872111"><ele>189.25</ele><time>2026-05-04T16:14:29.274Z</time></trkpt><trkpt lat="45.1692796" lon="8.2873276"><ele>189.0</ele><time>2026-05-04T16:14:30.277Z</time></trkpt><trkpt lat="45.1691655" lon="8.287423"><ele>189.0</ele><time>2026-05-04T16:14:31.273Z</time></trkpt><trkpt lat="45.1690531" lon="8.2874885"><ele>189.0</ele><time>2026-05-04T16:14:32.292Z</time></trkpt><trkpt lat="45.1689348" lon="8.2875243"><ele>189.0</ele><time>2026-05-04T16:14:33.277Z</time></trkpt><trkpt lat="45.1688055" lon="8.2875224"><ele>189.0</ele><time>2026-05-04T16:14:34.277Z</time></trkpt><trkpt lat="45.1686714" lon="8.2874859"><ele>190.0</ele><time>2026-05-04T16:14:35.279Z</time></trkpt><trkpt lat="45.168532" lon="8.2874234"><ele>191.0</ele><time>2026-05-04T16:14:36.277Z</time></trkpt><trkpt lat="45.1683855" lon="8.2873615"><ele>192.0</ele><time>2026-05-04T16:14:37.278Z</time></trkpt><trkpt lat="45.1682403" lon="8.2872927"><ele>190.39999999999998</ele><time>2026-05-04T16:14:38.276Z</time></trkpt><trkpt lat="45.1681148" lon="8.2872316"><ele>188.79999999999998</ele><time>2026-05-04T16:14:39.272Z</time></trkpt><trkpt lat="45.1680047" lon="8.2871814"><ele>187.2</ele><time>2026-05-04T16:14:40.274Z</time></trkpt><trkpt lat="45.1679236" lon="8.2871411"><ele>185.6</ele><time>2026-05-04T16:14:41.279Z</time></trkpt><trkpt lat="45.1679191" lon="8.287051"><ele>184.0</ele><time>2026-05-04T16:14:45.277Z</time></trkpt><trkpt lat="45.1679883" lon="8.2870364"><ele>184.0</ele><time>2026-05-04T16:14:47.273Z</time></trkpt><trkpt lat="45.1680817" lon="8.287088"><ele>184.0</ele><time>2026-05-04T16:14:49.274Z</time></trkpt><trkpt lat="45.1681838" lon="8.2871307"><ele>184.0</ele><time>2026-05-04T16:14:51.267Z</time></trkpt><trkpt lat="45.1683284" lon="8.2871789"><ele>184.0</ele><time>2026-05-04T16:14:53.272Z</time></trkpt><trkpt lat="45.1684185" lon="8.2872127"><ele>184.0</ele><time>2026-05-04T16:14:54.271Z</time></trkpt><trkpt lat="45.168532" lon="8.2872596"><ele>185.6</ele><time>2026-05-04T16:14:55.271Z</time></trkpt><trkpt lat="45.1686299" lon="8.2872701"><ele>187.2</ele><time>2026-05-04T16:14:56.272Z</time></trkpt><trkpt lat="45.1687051" lon="8.2872584"><ele>188.79999999999998</ele><time>2026-05-04T16:14:57.275Z</time></trkpt><trkpt lat="45.1688213" lon="8.2871834"><ele>190.39999999999998</ele><time>2026-05-04T16:14:59.273Z</time></trkpt><trkpt lat="45.168867" lon="8.2870228"><ele>192.0</ele><time>2026-05-04T16:15:01.292Z</time></trkpt><trkpt lat="45.1688717" lon="8.2869125"><ele>193.0</ele><time>2026-05-04T16:15:02.274Z</time></trkpt><trkpt lat="45.1688745" lon="8.2867986"><ele>194.0</ele><time>2026-05-04T16:15:03.275Z</time></trkpt><trkpt lat="45.1688795" lon="8.2866886"><ele>195.0</ele><time>2026-05-04T16:15:04.276Z</time></trkpt><trkpt lat="45.1688834" lon="8.2865839"><ele>196.0</ele><time>2026-05-04T16:15:05.28Z</time></trkpt><trkpt lat="45.1688681" lon="8.2864391"><ele>197.0</ele><time>2026-05-04T16:15:07.278Z</time></trkpt><trkpt lat="45.168789" lon="8.286305"><ele>198.00000000000003</ele><time>2026-05-04T16:15:09.272Z</time></trkpt><trkpt lat="45.1687357" lon="8.28623"><ele>199.0</ele><time>2026-05-04T16:15:10.282Z</time></trkpt><trkpt lat="45.1686804" lon="8.2861704"><ele>200.0</ele><time>2026-05-04T16:15:11.277Z</time></trkpt><trkpt lat="45.1685933" lon="8.286064"><ele>201.0</ele><time>2026-05-04T16:15:13.273Z</time></trkpt><trkpt lat="45.1685679" lon="8.2859705"><ele>202.00000000000003</ele><time>2026-05-04T16:15:14.277Z</time></trkpt><trkpt lat="45.1685538" lon="8.2858588"><ele>203.0</ele><time>2026-05-04T16:15:15.275Z</time></trkpt><trkpt lat="45.1685435" lon="8.2857552"><ele>203.0</ele><time>2026-05-04T16:15:16.273Z</time></trkpt><trkpt lat="45.1685289" lon="8.2856616"><ele>203.0</ele><time>2026-05-04T16:15:17.275Z</time></trkpt><trkpt lat="45.1685225" lon="8.2855679"><ele>203.0</ele><time>2026-05-04T16:15:18.278Z</time></trkpt><trkpt lat="45.1685179" lon="8.2854755"><ele>203.0</ele><time>2026-05-04T16:15:19.272Z</time></trkpt><trkpt lat="45.1685087" lon="8.2853786"><ele>203.0</ele><time>2026-05-04T16:15:20.282Z</time></trkpt><trkpt lat="45.1685026" lon="8.2852806"><ele>203.0</ele><time>2026-05-04T16:15:21.273Z</time></trkpt><trkpt lat="45.1684884" lon="8.2851811"><ele>203.0</ele><time>2026-05-04T16:15:22.284Z</time></trkpt><trkpt lat="45.1684728" lon="8.2850135"><ele>202.83333333333334</ele><time>2026-05-04T16:15:24.275Z</time></trkpt><trkpt lat="45.1684651" lon="8.2849211"><ele>202.66666666666669</ele><time>2026-05-04T16:15:25.279Z</time></trkpt><trkpt lat="45.1684557" lon="8.2848316"><ele>202.5</ele><time>2026-05-04T16:15:26.275Z</time></trkpt><trkpt lat="45.1684118" lon="8.2846866"><ele>202.33333333333331</ele><time>2026-05-04T16:15:28.281Z</time></trkpt><trkpt lat="45.1683291" lon="8.2845686"><ele>202.16666666666666</ele><time>2026-05-04T16:15:30.273Z</time></trkpt><trkpt lat="45.1683031" lon="8.2844466"><ele>202.0</ele><time>2026-05-04T16:15:32.283Z</time></trkpt><trkpt lat="45.1683349" lon="8.2843602"><ele>201.83333333333331</ele><time>2026-05-04T16:15:33.276Z</time></trkpt><trkpt lat="45.1683672" lon="8.2842676"><ele>201.66666666666666</ele><time>2026-05-04T16:15:34.274Z</time></trkpt><trkpt lat="45.1683956" lon="8.2841773"><ele>201.5</ele><time>2026-05-04T16:15:35.279Z</time></trkpt><trkpt lat="45.1684203" lon="8.2840807"><ele>201.33333333333331</ele><time>2026-05-04T16:15:36.279Z</time></trkpt><trkpt lat="45.1684621" lon="8.2839053"><ele>201.16666666666666</ele><time>2026-05-04T16:15:38.275Z</time></trkpt><trkpt lat="45.1684718" lon="8.283806"><ele>201.0</ele><time>2026-05-04T16:15:39.273Z</time></trkpt><trkpt lat="45.1684607" lon="8.2836975"><ele>201.66666666666666</ele><time>2026-05-04T16:15:40.279Z</time></trkpt><trkpt lat="45.168447" lon="8.2835956"><ele>202.33333333333331</ele><time>2026-05-04T16:15:41.273Z</time></trkpt><trkpt lat="45.1684311" lon="8.2834877"><ele>203.0</ele><time>2026-05-04T16:15:42.277Z</time></trkpt><trkpt lat="45.1683961" lon="8.2834"><ele>203.66666666666666</ele><time>2026-05-04T16:15:43.274Z</time></trkpt><trkpt lat="45.1683638" lon="8.2833074"><ele>204.33333333333331</ele><time>2026-05-04T16:15:44.286Z</time></trkpt><trkpt lat="45.1683307" lon="8.2832128"><ele>205.0</ele><time>2026-05-04T16:15:45.275Z</time></trkpt><trkpt lat="45.1682764" lon="8.2830503"><ele>205.42857142857144</ele><time>2026-05-04T16:15:47.276Z</time></trkpt><trkpt lat="45.168255" lon="8.2829567"><ele>205.85714285714283</ele><time>2026-05-04T16:15:48.279Z</time></trkpt><trkpt lat="45.1682376" lon="8.2828447"><ele>206.28571428571428</ele><time>2026-05-04T16:15:49.276Z</time></trkpt><trkpt lat="45.1682373" lon="8.2827473"><ele>206.71428571428572</ele><time>2026-05-04T16:15:50.275Z</time></trkpt><trkpt lat="45.1682231" lon="8.2826507"><ele>207.14285714285717</ele><time>2026-05-04T16:15:51.272Z</time></trkpt><trkpt lat="45.1682257" lon="8.2825567"><ele>207.57142857142856</ele><time>2026-05-04T16:15:52.281Z</time></trkpt><trkpt lat="45.1682558" lon="8.282457"><ele>208.0</ele><time>2026-05-04T16:15:53.272Z</time></trkpt><trkpt lat="45.1682656" lon="8.2823582"><ele>208.60000000000002</ele><time>2026-05-04T16:15:54.274Z</time></trkpt><trkpt lat="45.168272" lon="8.2822453"><ele>209.20000000000002</ele><time>2026-05-04T16:15:55.287Z</time></trkpt><trkpt lat="45.1682529" lon="8.2821279"><ele>209.8</ele><time>2026-05-04T16:15:56.278Z</time></trkpt><trkpt lat="45.1682368" lon="8.2820001"><ele>210.4</ele><time>2026-05-04T16:15:57.278Z</time></trkpt><trkpt lat="45.1682524" lon="8.2818871"><ele>211.0</ele><time>2026-05-04T16:15:58.284Z</time></trkpt><trkpt lat="45.1682744" lon="8.2816886"><ele>211.0</ele><time>2026-05-04T16:16:00.279Z</time></trkpt><trkpt lat="45.1682995" lon="8.2815832"><ele>211.0</ele><time>2026-05-04T16:16:01.28Z</time></trkpt><trkpt lat="45.168353" lon="8.2814458"><ele>211.0</ele><time>2026-05-04T16:16:03.276Z</time></trkpt><trkpt lat="45.1684644" lon="8.2813687"><ele>211.0</ele><time>2026-05-04T16:16:05.279Z</time></trkpt><trkpt lat="45.1685419" lon="8.2812525"><ele>211.0</ele><time>2026-05-04T16:16:07.277Z</time></trkpt><trkpt lat="45.168593" lon="8.2810968"><ele>211.49999999999997</ele><time>2026-05-04T16:16:09.282Z</time></trkpt><trkpt lat="45.1685987" lon="8.2810018"><ele>212.0</ele><time>2026-05-04T16:16:10.281Z</time></trkpt><trkpt lat="45.1686031" lon="8.2808942"><ele>212.5</ele><time>2026-05-04T16:16:11.277Z</time></trkpt><trkpt lat="45.1686024" lon="8.2807784"><ele>213.0</ele><time>2026-05-04T16:16:12.281Z</time></trkpt><trkpt lat="45.1686006" lon="8.2806592"><ele>213.49999999999997</ele><time>2026-05-04T16:16:13.281Z</time></trkpt><trkpt lat="45.1685908" lon="8.2805279"><ele>214.0</ele><time>2026-05-04T16:16:14.279Z</time></trkpt><trkpt lat="45.1685804" lon="8.2803912"><ele>215.33333333333331</ele><time>2026-05-04T16:16:15.283Z</time></trkpt><trkpt lat="45.1685748" lon="8.2802555"><ele>216.66666666666666</ele><time>2026-05-04T16:16:16.279Z</time></trkpt><trkpt lat="45.1685661" lon="8.2801269"><ele>218.0</ele><time>2026-05-04T16:16:17.277Z</time></trkpt><trkpt lat="45.1685634" lon="8.2800155"><ele>219.33333333333331</ele><time>2026-05-04T16:16:18.274Z</time></trkpt><trkpt lat="45.1685708" lon="8.2799115"><ele>220.66666666666666</ele><time>2026-05-04T16:16:19.284Z</time></trkpt><trkpt lat="45.1685866" lon="8.2798137"><ele>222.0</ele><time>2026-05-04T16:16:20.279Z</time></trkpt><trkpt lat="45.1686083" lon="8.2797122"><ele>223.5</ele><time>2026-05-04T16:16:21.279Z</time></trkpt><trkpt lat="45.1686319" lon="8.2795983"><ele>225.0</ele><time>2026-05-04T16:16:22.271Z</time></trkpt><trkpt lat="45.1686562" lon="8.2794866"><ele>226.5</ele><time>2026-05-04T16:16:23.274Z</time></trkpt><trkpt lat="45.1686805" lon="8.2793785"><ele>228.0</ele><time>2026-05-04T16:16:24.278Z</time></trkpt><trkpt lat="45.1687083" lon="8.2792734"><ele>229.5</ele><time>2026-05-04T16:16:25.28Z</time></trkpt><trkpt lat="45.1687369" lon="8.2791775"><ele>231.0</ele><time>2026-05-04T16:16:26.274Z</time></trkpt><trkpt lat="45.1687682" lon="8.2790724"><ele>231.0</ele><time>2026-05-04T16:16:27.276Z</time></trkpt><trkpt lat="45.1688045" lon="8.2789566"><ele>231.00000000000003</ele><time>2026-05-04T16:16:28.28Z</time></trkpt><trkpt lat="45.1688484" lon="8.2788345"><ele>231.00000000000003</ele><time>2026-05-04T16:16:29.282Z</time></trkpt><trkpt lat="45.1689101" lon="8.2787072"><ele>231.0</ele><time>2026-05-04T16:16:30.279Z</time></trkpt><trkpt lat="45.1689806" lon="8.2785809"><ele>231.0</ele><time>2026-05-04T16:16:31.277Z</time></trkpt><trkpt lat="45.1690502" lon="8.2784713"><ele>232.33333333333334</ele><time>2026-05-04T16:16:32.271Z</time></trkpt><trkpt lat="45.1691142" lon="8.2783714"><ele>233.66666666666669</ele><time>2026-05-04T16:16:33.271Z</time></trkpt><trkpt lat="45.1691855" lon="8.2782999"><ele>235.0</ele><time>2026-05-04T16:16:34.279Z</time></trkpt><trkpt lat="45.1692519" lon="8.2782252"><ele>236.33333333333334</ele><time>2026-05-04T16:16:35.283Z</time></trkpt><trkpt lat="45.1693087" lon="8.2781624"><ele>237.66666666666669</ele><time>2026-05-04T16:16:36.275Z</time></trkpt><trkpt lat="45.1693748" lon="8.278074"><ele>239.0</ele><time>2026-05-04T16:16:38.279Z</time></trkpt><trkpt lat="45.1693664" lon="8.2779722"><ele>239.6</ele><time>2026-05-04T16:16:42.275Z</time></trkpt><trkpt lat="45.1692547" lon="8.2779044"><ele>240.2</ele><time>2026-05-04T16:16:44.278Z</time></trkpt><trkpt lat="45.1691724" lon="8.2778665"><ele>240.79999999999998</ele><time>2026-05-04T16:16:45.274Z</time></trkpt><trkpt lat="45.1690771" lon="8.2778269"><ele>241.39999999999998</ele><time>2026-05-04T16:16:46.283Z</time></trkpt><trkpt lat="45.1689837" lon="8.2777898"><ele>242.0</ele><time>2026-05-04T16:16:47.282Z</time></trkpt><trkpt lat="45.168898" lon="8.2777564"><ele>242.0</ele><time>2026-05-04T16:16:48.277Z</time></trkpt><trkpt lat="45.1688192" lon="8.2777232"><ele>242.0</ele><time>2026-05-04T16:16:49.278Z</time></trkpt><trkpt lat="45.1687563" lon="8.2776959"><ele>242.0</ele><time>2026-05-04T16:16:50.277Z</time></trkpt><trkpt lat="45.168676" lon="8.277604"><ele>242.0</ele><time>2026-05-04T16:16:52.285Z</time></trkpt><trkpt lat="45.1686316" lon="8.2774316"><ele>242.0</ele><time>2026-05-04T16:16:54.281Z</time></trkpt><trkpt lat="45.1686116" lon="8.2773109"><ele>242.33333333333334</ele><time>2026-05-04T16:16:55.28Z</time></trkpt><trkpt lat="45.1685877" lon="8.2771787"><ele>242.66666666666669</ele><time>2026-05-04T16:16:56.283Z</time></trkpt><trkpt lat="45.1685634" lon="8.2770407"><ele>243.0</ele><time>2026-05-04T16:16:57.276Z</time></trkpt><trkpt lat="45.1685404" lon="8.2769152"><ele>243.33333333333331</ele><time>2026-05-04T16:16:58.277Z</time></trkpt><trkpt lat="45.1685183" lon="8.2768061"><ele>243.66666666666666</ele><time>2026-05-04T16:16:59.274Z</time></trkpt><trkpt lat="45.1684967" lon="8.2767079"><ele>244.0</ele><time>2026-05-04T16:17:00.275Z</time></trkpt><trkpt lat="45.1684739" lon="8.276615"><ele>243.99999999999997</ele><time>2026-05-04T16:17:01.279Z</time></trkpt><trkpt lat="45.1684495" lon="8.2765203"><ele>244.0</ele><time>2026-05-04T16:17:02.275Z</time></trkpt><trkpt lat="45.1684222" lon="8.2764253"><ele>243.99999999999997</ele><time>2026-05-04T16:17:03.279Z</time></trkpt><trkpt lat="45.1683901" lon="8.2763334"><ele>243.99999999999997</ele><time>2026-05-04T16:17:04.282Z</time></trkpt><trkpt lat="45.1683493" lon="8.276249"><ele>244.0</ele><time>2026-05-04T16:17:05.284Z</time></trkpt><trkpt lat="45.1682992" lon="8.2761722"><ele>243.99999999999997</ele><time>2026-05-04T16:17:06.275Z</time></trkpt><trkpt lat="45.1682411" lon="8.2761021"><ele>243.99999999999997</ele><time>2026-05-04T16:17:07.275Z</time></trkpt><trkpt lat="45.1681769" lon="8.2760382"><ele>244.99999999999997</ele><time>2026-05-04T16:17:08.279Z</time></trkpt><trkpt lat="45.1681064" lon="8.2759785"><ele>246.0</ele><time>2026-05-04T16:17:09.278Z</time></trkpt><trkpt lat="45.1680336" lon="8.2759251"><ele>247.0</ele><time>2026-05-04T16:17:10.275Z</time></trkpt><trkpt lat="45.1679588" lon="8.2758754"><ele>248.0</ele><time>2026-05-04T16:17:11.277Z</time></trkpt><trkpt lat="45.1678837" lon="8.2758247"><ele>248.99999999999997</ele><time>2026-05-04T16:17:12.278Z</time></trkpt><trkpt lat="45.1678094" lon="8.2757703"><ele>250.0</ele><time>2026-05-04T16:17:13.281Z</time></trkpt><trkpt lat="45.1677378" lon="8.2757138"><ele>249.99999999999997</ele><time>2026-05-04T16:17:14.278Z</time></trkpt><trkpt lat="45.1676652" lon="8.2756576"><ele>250.0</ele><time>2026-05-04T16:17:15.282Z</time></trkpt><trkpt lat="45.1675897" lon="8.2756043"><ele>250.0</ele><time>2026-05-04T16:17:16.278Z</time></trkpt><trkpt lat="45.16751" lon="8.2755482"><ele>250.0</ele><time>2026-05-04T16:17:17.279Z</time></trkpt><trkpt lat="45.1674343" lon="8.2754918"><ele>249.99999999999997</ele><time>2026-05-04T16:17:18.278Z</time></trkpt><trkpt lat="45.1673723" lon="8.2754408"><ele>250.0</ele><time>2026-05-04T16:17:19.278Z</time></trkpt><trkpt lat="45.1672857" lon="8.2753786"><ele>251.83333333333331</ele><time>2026-05-04T16:17:21.282Z</time></trkpt><trkpt lat="45.1672047" lon="8.275387"><ele>253.66666666666666</ele><time>2026-05-04T16:17:23.28Z</time></trkpt><trkpt lat="45.1671033" lon="8.2754899"><ele>255.5</ele><time>2026-05-04T16:17:25.277Z</time></trkpt><trkpt lat="45.1670563" lon="8.2755558"><ele>257.3333333333333</ele><time>2026-05-04T16:17:26.278Z</time></trkpt><trkpt lat="45.1669996" lon="8.2756112"><ele>259.1666666666667</ele><time>2026-05-04T16:17:27.278Z</time></trkpt><trkpt lat="45.1669372" lon="8.275654"><ele>261.0</ele><time>2026-05-04T16:17:28.278Z</time></trkpt><trkpt lat="45.1668662" lon="8.2757016"><ele>261.0</ele><time>2026-05-04T16:17:29.273Z</time></trkpt><trkpt lat="45.1667925" lon="8.2757443"><ele>261.0</ele><time>2026-05-04T16:17:30.273Z</time></trkpt><trkpt lat="45.1667042" lon="8.2757867"><ele>261.0</ele><time>2026-05-04T16:17:31.269Z</time></trkpt><trkpt lat="45.1666267" lon="8.2758181"><ele>261.0</ele><time>2026-05-04T16:17:32.273Z</time></trkpt><trkpt lat="45.1665543" lon="8.2758514"><ele>261.0</ele><time>2026-05-04T16:17:33.273Z</time></trkpt><trkpt lat="45.1664821" lon="8.2758856"><ele>261.0</ele><time>2026-05-04T16:17:34.274Z</time></trkpt><trkpt lat="45.1664137" lon="8.2759343"><ele>262.0</ele><time>2026-05-04T16:17:35.277Z</time></trkpt><trkpt lat="45.1663507" lon="8.2759975"><ele>263.0</ele><time>2026-05-04T16:17:36.278Z</time></trkpt><trkpt lat="45.1662958" lon="8.2760532"><ele>264.0</ele><time>2026-05-04T16:17:37.282Z</time></trkpt><trkpt lat="45.166234" lon="8.27615"><ele>265.0</ele><time>2026-05-04T16:17:39.274Z</time></trkpt><trkpt lat="45.1661919" lon="8.2762195"><ele>266.0</ele><time>2026-05-04T16:17:41.271Z</time></trkpt><trkpt lat="45.1661331" lon="8.276293"><ele>267.0</ele><time>2026-05-04T16:17:48.275Z</time></trkpt><trkpt lat="45.1660941" lon="8.2763696"><ele>268.0</ele><time>2026-05-04T16:17:55.279Z</time></trkpt><trkpt lat="45.1660396" lon="8.2764539"><ele>268.0</ele><time>2026-05-04T16:17:57.281Z</time></trkpt><trkpt lat="45.165953" lon="8.2765714"><ele>268.0</ele><time>2026-05-04T16:17:59.281Z</time></trkpt><trkpt lat="45.1658547" lon="8.2766658"><ele>268.0</ele><time>2026-05-04T16:18:01.275Z</time></trkpt><trkpt lat="45.1657878" lon="8.2766908"><ele>268.0</ele><time>2026-05-04T16:18:02.279Z</time></trkpt><trkpt lat="45.1657202" lon="8.2767117"><ele>268.0</ele><time>2026-05-04T16:18:03.275Z</time></trkpt><trkpt lat="45.1656498" lon="8.2767643"><ele>273.16666666666663</ele><time>2026-05-04T16:18:04.277Z</time></trkpt><trkpt lat="45.1655821" lon="8.2768167"><ele>278.3333333333333</ele><time>2026-05-04T16:18:05.283Z</time></trkpt><trkpt lat="45.1655215" lon="8.2768681"><ele>283.5</ele><time>2026-05-04T16:18:06.278Z</time></trkpt><trkpt lat="45.1654244" lon="8.2769654"><ele>288.6666666666667</ele><time>2026-05-04T16:18:08.273Z</time></trkpt><trkpt lat="45.1653702" lon="8.2770118"><ele>293.83333333333337</ele><time>2026-05-04T16:18:09.278Z</time></trkpt><trkpt lat="45.1653095" lon="8.2770533"><ele>299.0</ele><time>2026-05-04T16:18:10.269Z</time></trkpt><trkpt lat="45.1652516" lon="8.2770922"><ele>299.0</ele><time>2026-05-04T16:18:11.277Z</time></trkpt><trkpt lat="45.1651479" lon="8.2771401"><ele>299.0</ele><time>2026-05-04T16:18:13.276Z</time></trkpt><trkpt lat="45.165042" lon="8.2771777"><ele>299.0</ele><time>2026-05-04T16:18:15.282Z</time></trkpt><trkpt lat="45.1649412" lon="8.277206"><ele>299.0</ele><time>2026-05-04T16:18:17.279Z</time></trkpt><trkpt lat="45.1648205" lon="8.2772127"><ele>299.0</ele><time>2026-05-04T16:18:19.28Z</time></trkpt><trkpt lat="45.1647558" lon="8.2772187"><ele>303.6</ele><time>2026-05-04T16:18:20.279Z</time></trkpt><trkpt lat="45.1646887" lon="8.2772255"><ele>308.2</ele><time>2026-05-04T16:18:21.282Z</time></trkpt><trkpt lat="45.1645885" lon="8.2772421"><ele>312.8</ele><time>2026-05-04T16:18:23.294Z</time></trkpt><trkpt lat="45.1645341" lon="8.2773194"><ele>317.40000000000003</ele><time>2026-05-04T16:18:25.28Z</time></trkpt><trkpt lat="45.1645013" lon="8.2774471"><ele>322.0</ele><time>2026-05-04T16:18:27.278Z</time></trkpt><trkpt lat="45.1645024" lon="8.2776324"><ele>322.0</ele><time>2026-05-04T16:18:29.276Z</time></trkpt><trkpt lat="45.1645177" lon="8.277747"><ele>322.0</ele><time>2026-05-04T16:18:30.276Z</time></trkpt><trkpt lat="45.1645288" lon="8.2778613"><ele>322.0</ele><time>2026-05-04T16:18:31.274Z</time></trkpt><trkpt lat="45.1645302" lon="8.2779669"><ele>322.0</ele><time>2026-05-04T16:18:32.272Z</time></trkpt><trkpt lat="45.1645273" lon="8.2780668"><ele>322.0</ele><time>2026-05-04T16:18:33.271Z</time></trkpt><trkpt lat="45.1645266" lon="8.278172"><ele>322.0</ele><time>2026-05-04T16:18:34.278Z</time></trkpt><trkpt lat="45.1645202" lon="8.2782755"><ele>321.8333333333333</ele><time>2026-05-04T16:18:35.279Z</time></trkpt><trkpt lat="45.1645161" lon="8.2783867"><ele>321.66666666666663</ele><time>2026-05-04T16:18:36.27Z</time></trkpt><trkpt lat="45.1644982" lon="8.278488"><ele>321.5</ele><time>2026-05-04T16:18:37.273Z</time></trkpt><trkpt lat="45.164475" lon="8.2785773"><ele>321.3333333333333</ele><time>2026-05-04T16:18:38.28Z</time></trkpt><trkpt lat="45.1644442" lon="8.2786606"><ele>321.1666666666667</ele><time>2026-05-04T16:18:39.298Z</time></trkpt><trkpt lat="45.1643881" lon="8.2787814"><ele>321.0</ele><time>2026-05-04T16:18:41.271Z</time></trkpt><trkpt lat="45.164337" lon="8.2788367"><ele>319.0</ele><time>2026-05-04T16:18:42.274Z</time></trkpt><trkpt lat="45.1642539" lon="8.2789442"><ele>317.0</ele><time>2026-05-04T16:18:44.271Z</time></trkpt><trkpt lat="45.1641889" lon="8.2790799"><ele>315.0</ele><time>2026-05-04T16:18:46.278Z</time></trkpt><trkpt lat="45.1641483" lon="8.2792295"><ele>313.0</ele><time>2026-05-04T16:18:48.282Z</time></trkpt><trkpt lat="45.1641238" lon="8.2793713"><ele>311.0</ele><time>2026-05-04T16:18:50.275Z</time></trkpt><trkpt lat="45.1640966" lon="8.2795108"><ele>311.0</ele><time>2026-05-04T16:18:52.272Z</time></trkpt><trkpt lat="45.1640623" lon="8.2796202"><ele>311.0</ele><time>2026-05-04T16:18:54.282Z</time></trkpt><trkpt lat="45.1640161" lon="8.2797246"><ele>311.0</ele><time>2026-05-04T16:18:57.28Z</time></trkpt><trkpt lat="45.1639442" lon="8.2798196"><ele>311.0</ele><time>2026-05-04T16:18:59.276Z</time></trkpt><trkpt lat="45.1638617" lon="8.279885"><ele>311.0</ele><time>2026-05-04T16:19:01.284Z</time></trkpt><trkpt lat="45.1637559" lon="8.2799177"><ele>314.6</ele><time>2026-05-04T16:19:03.277Z</time></trkpt><trkpt lat="45.1636245" lon="8.2799232"><ele>318.20000000000005</ele><time>2026-05-04T16:19:05.268Z</time></trkpt><trkpt lat="45.1635486" lon="8.2799344"><ele>321.79999999999995</ele><time>2026-05-04T16:19:06.271Z</time></trkpt><trkpt lat="45.1634754" lon="8.2799411"><ele>325.4</ele><time>2026-05-04T16:19:07.275Z</time></trkpt><trkpt lat="45.1634089" lon="8.2799479"><ele>329.0</ele><time>2026-05-04T16:19:08.27Z</time></trkpt><trkpt lat="45.163293" lon="8.2799639"><ele>328.4</ele><time>2026-05-04T16:19:10.272Z</time></trkpt><trkpt lat="45.1631849" lon="8.2799694"><ele>327.79999999999995</ele><time>2026-05-04T16:19:12.273Z</time></trkpt><trkpt lat="45.1630977" lon="8.280006"><ele>327.20000000000005</ele><time>2026-05-04T16:19:14.278Z</time></trkpt><trkpt lat="45.1629957" lon="8.2800764"><ele>326.6</ele><time>2026-05-04T16:19:16.28Z</time></trkpt><trkpt lat="45.1628871" lon="8.2801584"><ele>326.0</ele><time>2026-05-04T16:19:18.27Z</time></trkpt><trkpt lat="45.162824" lon="8.2801987"><ele>326.0</ele><time>2026-05-04T16:19:19.272Z</time></trkpt><trkpt lat="45.162762" lon="8.2802481"><ele>326.0</ele><time>2026-05-04T16:19:20.274Z</time></trkpt><trkpt lat="45.1626673" lon="8.2803181"><ele>326.0</ele><time>2026-05-04T16:19:22.274Z</time></trkpt><trkpt lat="45.1625608" lon="8.2803605"><ele>326.0</ele><time>2026-05-04T16:19:24.275Z</time></trkpt><trkpt lat="45.1624896" lon="8.2803573"><ele>326.0</ele><time>2026-05-04T16:19:25.289Z</time></trkpt><trkpt lat="45.162387" lon="8.2803114"><ele>321.6</ele><time>2026-05-04T16:19:27.28Z</time></trkpt><trkpt lat="45.1623543" lon="8.2801762"><ele>317.20000000000005</ele><time>2026-05-04T16:19:29.288Z</time></trkpt><trkpt lat="45.1622641" lon="8.2802077"><ele>312.79999999999995</ele><time>2026-05-04T16:19:33.273Z</time></trkpt><trkpt lat="45.1621919" lon="8.2803293"><ele>308.4</ele><time>2026-05-04T16:19:35.271Z</time></trkpt><trkpt lat="45.1621175" lon="8.2804579"><ele>304.0</ele><time>2026-05-04T16:19:37.273Z</time></trkpt><trkpt lat="45.1620838" lon="8.2805574"><ele>306.5</ele><time>2026-05-04T16:19:39.27Z</time></trkpt><trkpt lat="45.1620555" lon="8.2806626"><ele>309.0</ele><time>2026-05-04T16:19:41.278Z</time></trkpt><trkpt lat="45.1619887" lon="8.2807957"><ele>311.5</ele><time>2026-05-04T16:19:43.282Z</time></trkpt><trkpt lat="45.161935" lon="8.280874"><ele>314.0</ele><time>2026-05-04T16:19:44.275Z</time></trkpt><trkpt lat="45.1618787" lon="8.2809598"><ele>316.5</ele><time>2026-05-04T16:19:45.275Z</time></trkpt><trkpt lat="45.1618286" lon="8.2810371"><ele>319.0</ele><time>2026-05-04T16:19:46.272Z</time></trkpt><trkpt lat="45.161782" lon="8.281106"><ele>319.0</ele><time>2026-05-04T16:19:47.275Z</time></trkpt><trkpt lat="45.1617343" lon="8.2811763"><ele>319.0</ele><time>2026-05-04T16:19:48.286Z</time></trkpt><trkpt lat="45.1616789" lon="8.2812429"><ele>319.0</ele><time>2026-05-04T16:19:49.28Z</time></trkpt><trkpt lat="45.1616178" lon="8.2813095"><ele>319.0</ele><time>2026-05-04T16:19:50.278Z</time></trkpt><trkpt lat="45.1615628" lon="8.281367"><ele>319.0</ele><time>2026-05-04T16:19:51.279Z</time></trkpt><trkpt lat="45.1615061" lon="8.2814089"><ele>319.0</ele><time>2026-05-04T16:19:52.28Z</time></trkpt><trkpt lat="45.1613763" lon="8.2814266"><ele>315.66666666666663</ele><time>2026-05-04T16:19:54.277Z</time></trkpt><trkpt lat="45.1612955" lon="8.2814111"><ele>312.3333333333333</ele><time>2026-05-04T16:19:55.277Z</time></trkpt><trkpt lat="45.1612159" lon="8.2813976"><ele>309.0</ele><time>2026-05-04T16:19:56.283Z</time></trkpt><trkpt lat="45.1611359" lon="8.2813985"><ele>305.6666666666667</ele><time>2026-05-04T16:19:57.279Z</time></trkpt><trkpt lat="45.1610615" lon="8.2814008"><ele>302.33333333333337</ele><time>2026-05-04T16:19:58.279Z</time></trkpt><trkpt lat="45.1609534" lon="8.2814275"><ele>299.0</ele><time>2026-05-04T16:20:00.278Z</time></trkpt><trkpt lat="45.1608935" lon="8.2813953"><ele>299.0</ele><time>2026-05-04T16:20:02.278Z</time></trkpt><trkpt lat="45.1608855" lon="8.2812914"><ele>299.0</ele><time>2026-05-04T16:20:04.274Z</time></trkpt><trkpt lat="45.1609114" lon="8.2811895"><ele>299.0</ele><time>2026-05-04T16:20:06.275Z</time></trkpt><trkpt lat="45.160966" lon="8.2811135"><ele>299.0</ele><time>2026-05-04T16:20:08.276Z</time></trkpt><trkpt lat="45.1610826" lon="8.2810228"><ele>299.0</ele><time>2026-05-04T16:20:10.274Z</time></trkpt><trkpt lat="45.1611789" lon="8.2809641"><ele>299.0</ele><time>2026-05-04T16:20:11.281Z</time></trkpt><trkpt lat="45.161286" lon="8.2808991"><ele>299.0</ele><time>2026-05-04T16:20:12.272Z</time></trkpt><trkpt lat="45.1613984" lon="8.2808315"><ele>299.0</ele><time>2026-05-04T16:20:13.275Z</time></trkpt><trkpt lat="45.1615034" lon="8.2807431"><ele>299.0</ele><time>2026-05-04T16:20:14.282Z</time></trkpt><trkpt lat="45.1615977" lon="8.280628"><ele>300.25</ele><time>2026-05-04T16:20:15.275Z</time></trkpt><trkpt lat="45.1616783" lon="8.2804836"><ele>301.5</ele><time>2026-05-04T16:20:16.278Z</time></trkpt><trkpt lat="45.1617443" lon="8.2803122"><ele>302.75</ele><time>2026-05-04T16:20:17.278Z</time></trkpt><trkpt lat="45.1618046" lon="8.2801209"><ele>304.0</ele><time>2026-05-04T16:20:18.274Z</time></trkpt><trkpt lat="45.1618724" lon="8.2799184"><ele>300.0</ele><time>2026-05-04T16:20:19.27Z</time></trkpt><trkpt lat="45.1619478" lon="8.2797109"><ele>296.0</ele><time>2026-05-04T16:20:20.282Z</time></trkpt><trkpt lat="45.1620226" lon="8.2795087"><ele>292.0</ele><time>2026-05-04T16:20:21.278Z</time></trkpt><trkpt lat="45.1620895" lon="8.2793288"><ele>292.0</ele><time>2026-05-04T16:20:22.28Z</time></trkpt><trkpt lat="45.162153" lon="8.2791697"><ele>292.0</ele><time>2026-05-04T16:20:23.274Z</time></trkpt><trkpt lat="45.162218" lon="8.2790334"><ele>292.0</ele><time>2026-05-04T16:20:24.274Z</time></trkpt><trkpt lat="45.1622971" lon="8.2789202"><ele>292.0</ele><time>2026-05-04T16:20:25.278Z</time></trkpt><trkpt lat="45.1623931" lon="8.2788295"><ele>295.0</ele><time>2026-05-04T16:20:26.278Z</time></trkpt><trkpt lat="45.1624907" lon="8.2787449"><ele>298.0</ele><time>2026-05-04T16:20:27.278Z</time></trkpt><trkpt lat="45.1625793" lon="8.278641"><ele>301.0</ele><time>2026-05-04T16:20:28.279Z</time></trkpt><trkpt lat="45.1626418" lon="8.2785113"><ele>304.0</ele><time>2026-05-04T16:20:29.271Z</time></trkpt><trkpt lat="45.162681" lon="8.2783559"><ele>304.0</ele><time>2026-05-04T16:20:30.275Z</time></trkpt><trkpt lat="45.1626982" lon="8.2781806"><ele>304.0</ele><time>2026-05-04T16:20:31.274Z</time></trkpt><trkpt lat="45.1627025" lon="8.2779911"><ele>304.0</ele><time>2026-05-04T16:20:32.275Z</time></trkpt><trkpt lat="45.1627024" lon="8.2777954"><ele>304.0</ele><time>2026-05-04T16:20:33.282Z</time></trkpt><trkpt lat="45.1626953" lon="8.277595"><ele>303.25</ele><time>2026-05-04T16:20:34.277Z</time></trkpt><trkpt lat="45.1626726" lon="8.2774198"><ele>302.5</ele><time>2026-05-04T16:20:35.28Z</time></trkpt><trkpt lat="45.1626201" lon="8.2772473"><ele>301.75</ele><time>2026-05-04T16:20:36.274Z</time></trkpt><trkpt lat="45.1625508" lon="8.2770916"><ele>301.0</ele><time>2026-05-04T16:20:37.281Z</time></trkpt><trkpt lat="45.1624742" lon="8.2769533"><ele>301.0</ele><time>2026-05-04T16:20:38.286Z</time></trkpt><trkpt lat="45.1624148" lon="8.2768052"><ele>301.0</ele><time>2026-05-04T16:20:39.279Z</time></trkpt><trkpt lat="45.1623737" lon="8.2766422"><ele>301.0</ele><time>2026-05-04T16:20:40.273Z</time></trkpt><trkpt lat="45.162352" lon="8.2764625"><ele>301.0</ele><time>2026-05-04T16:20:41.282Z</time></trkpt><trkpt lat="45.1623417" lon="8.2762724"><ele>302.0</ele><time>2026-05-04T16:20:42.276Z</time></trkpt><trkpt lat="45.1623442" lon="8.2760667"><ele>303.0</ele><time>2026-05-04T16:20:43.293Z</time></trkpt><trkpt lat="45.1623583" lon="8.275846"><ele>304.0</ele><time>2026-05-04T16:20:44.28Z</time></trkpt><trkpt lat="45.1623769" lon="8.2756228"><ele>304.75</ele><time>2026-05-04T16:20:45.278Z</time></trkpt><trkpt lat="45.1623965" lon="8.275419"><ele>305.5</ele><time>2026-05-04T16:20:46.279Z</time></trkpt><trkpt lat="45.1624107" lon="8.2752376"><ele>306.25</ele><time>2026-05-04T16:20:47.276Z</time></trkpt><trkpt lat="45.1624079" lon="8.2750816"><ele>307.0</ele><time>2026-05-04T16:20:48.279Z</time></trkpt><trkpt lat="45.1623769" lon="8.2749457"><ele>304.75</ele><time>2026-05-04T16:20:49.273Z</time></trkpt><trkpt lat="45.1623158" lon="8.2748283"><ele>302.5</ele><time>2026-05-04T16:20:50.28Z</time></trkpt><trkpt lat="45.1622301" lon="8.2747352"><ele>300.25</ele><time>2026-05-04T16:20:51.275Z</time></trkpt><trkpt lat="45.1621286" lon="8.2746456"><ele>298.0</ele><time>2026-05-04T16:20:52.281Z</time></trkpt><trkpt lat="45.1620223" lon="8.2745516"><ele>298.0</ele><time>2026-05-04T16:20:53.283Z</time></trkpt><trkpt lat="45.1619141" lon="8.2744465"><ele>298.0</ele><time>2026-05-04T16:20:54.271Z</time></trkpt><trkpt lat="45.1618009" lon="8.274339"><ele>298.0</ele><time>2026-05-04T16:20:55.278Z</time></trkpt><trkpt lat="45.1616839" lon="8.2742301"><ele>298.0</ele><time>2026-05-04T16:20:56.285Z</time></trkpt><trkpt lat="45.1615758" lon="8.2741298"><ele>296.8</ele><time>2026-05-04T16:20:57.279Z</time></trkpt><trkpt lat="45.1614721" lon="8.2740547"><ele>295.6</ele><time>2026-05-04T16:20:58.272Z</time></trkpt><trkpt lat="45.1613634" lon="8.2740077"><ele>294.4</ele><time>2026-05-04T16:20:59.278Z</time></trkpt><trkpt lat="45.1612541" lon="8.2739848"><ele>293.2</ele><time>2026-05-04T16:21:00.272Z</time></trkpt><trkpt lat="45.1611548" lon="8.2739725"><ele>292.0</ele><time>2026-05-04T16:21:01.281Z</time></trkpt><trkpt lat="45.1610747" lon="8.2739507"><ele>292.8333333333333</ele><time>2026-05-04T16:21:02.271Z</time></trkpt><trkpt lat="45.1610111" lon="8.2739135"><ele>293.66666666666663</ele><time>2026-05-04T16:21:03.276Z</time></trkpt><trkpt lat="45.1609216" lon="8.2738209"><ele>294.5</ele><time>2026-05-04T16:21:05.283Z</time></trkpt><trkpt lat="45.1608567" lon="8.2736963"><ele>295.3333333333333</ele><time>2026-05-04T16:21:07.279Z</time></trkpt><trkpt lat="45.1608416" lon="8.2736013"><ele>296.1666666666667</ele><time>2026-05-04T16:21:08.277Z</time></trkpt><trkpt lat="45.1608177" lon="8.2734987"><ele>297.0</ele><time>2026-05-04T16:21:09.275Z</time></trkpt><trkpt lat="45.1608218" lon="8.2733698"><ele>297.0</ele><time>2026-05-04T16:21:10.278Z</time></trkpt><trkpt lat="45.1608293" lon="8.2732503"><ele>297.0</ele><time>2026-05-04T16:21:11.273Z</time></trkpt><trkpt lat="45.1608415" lon="8.273136"><ele>297.0</ele><time>2026-05-04T16:21:12.277Z</time></trkpt><trkpt lat="45.1608564" lon="8.2730197"><ele>297.0</ele><time>2026-05-04T16:21:13.276Z</time></trkpt><trkpt lat="45.1608699" lon="8.2729018"><ele>297.0</ele><time>2026-05-04T16:21:14.279Z</time></trkpt><trkpt lat="45.1608804" lon="8.2727931"><ele>297.0</ele><time>2026-05-04T16:21:15.275Z</time></trkpt><trkpt lat="45.160891" lon="8.2726832"><ele>296.8333333333333</ele><time>2026-05-04T16:21:16.273Z</time></trkpt><trkpt lat="45.1609357" lon="8.2725813"><ele>296.6666666666667</ele><time>2026-05-04T16:21:17.277Z</time></trkpt><trkpt lat="45.1609846" lon="8.2724768"><ele>296.5</ele><time>2026-05-04T16:21:18.277Z</time></trkpt><trkpt lat="45.1610195" lon="8.2723767"><ele>296.33333333333337</ele><time>2026-05-04T16:21:19.277Z</time></trkpt><trkpt lat="45.1610652" lon="8.2722819"><ele>296.1666666666667</ele><time>2026-05-04T16:21:20.279Z</time></trkpt><trkpt lat="45.1610991" lon="8.2721728"><ele>296.0</ele><time>2026-05-04T16:21:21.275Z</time></trkpt><trkpt lat="45.1611319" lon="8.272054"><ele>296.1666666666667</ele><time>2026-05-04T16:21:22.278Z</time></trkpt><trkpt lat="45.1611627" lon="8.2719446"><ele>296.33333333333337</ele><time>2026-05-04T16:21:23.277Z</time></trkpt><trkpt lat="45.161192" lon="8.2718295"><ele>296.5</ele><time>2026-05-04T16:21:24.277Z</time></trkpt><trkpt lat="45.1612102" lon="8.2717196"><ele>296.6666666666667</ele><time>2026-05-04T16:21:25.28Z</time></trkpt><trkpt lat="45.1612137" lon="8.2716084"><ele>296.8333333333333</ele><time>2026-05-04T16:21:26.273Z</time></trkpt><trkpt lat="45.1612039" lon="8.2714847"><ele>297.0</ele><time>2026-05-04T16:21:27.277Z</time></trkpt><trkpt lat="45.1611958" lon="8.2713538"><ele>297.0</ele><time>2026-05-04T16:21:28.282Z</time></trkpt><trkpt lat="45.161193" lon="8.2712218"><ele>297.0</ele><time>2026-05-04T16:21:29.275Z</time></trkpt><trkpt lat="45.1611917" lon="8.2710897"><ele>297.0</ele><time>2026-05-04T16:21:30.277Z</time></trkpt><trkpt lat="45.1611921" lon="8.270956"><ele>297.0</ele><time>2026-05-04T16:21:31.285Z</time></trkpt><trkpt lat="45.1611858" lon="8.2708204"><ele>297.0</ele><time>2026-05-04T16:21:32.285Z</time></trkpt><trkpt lat="45.1611815" lon="8.270687"><ele>296.5</ele><time>2026-05-04T16:21:33.277Z</time></trkpt><trkpt lat="45.1611828" lon="8.2705593"><ele>296.0</ele><time>2026-05-04T16:21:34.285Z</time></trkpt><trkpt lat="45.1611938" lon="8.2704417"><ele>295.5</ele><time>2026-05-04T16:21:35.271Z</time></trkpt><trkpt lat="45.1612123" lon="8.2703358"><ele>295.0</ele><time>2026-05-04T16:21:36.277Z</time></trkpt><trkpt lat="45.1612382" lon="8.2702397"><ele>294.5</ele><time>2026-05-04T16:21:37.274Z</time></trkpt><trkpt lat="45.1613153" lon="8.2701063"><ele>294.0</ele><time>2026-05-04T16:21:39.274Z</time></trkpt><trkpt lat="45.1614233" lon="8.2700106"><ele>294.0</ele><time>2026-05-04T16:21:41.272Z</time></trkpt><trkpt lat="45.1615044" lon="8.2699841"><ele>294.0</ele><time>2026-05-04T16:21:42.277Z</time></trkpt><trkpt lat="45.1615893" lon="8.2699742"><ele>294.0</ele><time>2026-05-04T16:21:43.27Z</time></trkpt><trkpt lat="45.1616749" lon="8.2699571"><ele>294.0</ele><time>2026-05-04T16:21:44.278Z</time></trkpt><trkpt lat="45.1617479" lon="8.2699517"><ele>294.0</ele><time>2026-05-04T16:21:45.281Z</time></trkpt><trkpt lat="45.1618221" lon="8.2699615"><ele>294.0</ele><time>2026-05-04T16:21:46.279Z</time></trkpt><trkpt lat="45.1618986" lon="8.2699888"><ele>298.0</ele><time>2026-05-04T16:21:47.275Z</time></trkpt><trkpt lat="45.1619779" lon="8.2700159"><ele>302.0</ele><time>2026-05-04T16:21:48.294Z</time></trkpt><trkpt lat="45.1620529" lon="8.2700352"><ele>306.0</ele><time>2026-05-04T16:21:49.271Z</time></trkpt><trkpt lat="45.1621292" lon="8.2700529"><ele>310.0</ele><time>2026-05-04T16:21:50.274Z</time></trkpt><trkpt lat="45.1622528" lon="8.2699905"><ele>314.0</ele><time>2026-05-04T16:21:52.269Z</time></trkpt><trkpt lat="45.1623284" lon="8.2698463"><ele>315.4</ele><time>2026-05-04T16:21:54.279Z</time></trkpt><trkpt lat="45.1623664" lon="8.2697441"><ele>316.79999999999995</ele><time>2026-05-04T16:21:55.275Z</time></trkpt><trkpt lat="45.162418" lon="8.2696403"><ele>318.20000000000005</ele><time>2026-05-04T16:21:56.274Z</time></trkpt><trkpt lat="45.16247" lon="8.2695315"><ele>319.6</ele><time>2026-05-04T16:21:57.278Z</time></trkpt><trkpt lat="45.1625288" lon="8.2694199"><ele>321.0</ele><time>2026-05-04T16:21:58.28Z</time></trkpt><trkpt lat="45.1625776" lon="8.2693112"><ele>321.0</ele><time>2026-05-04T16:21:59.271Z</time></trkpt><trkpt lat="45.1626248" lon="8.2692173"><ele>321.0</ele><time>2026-05-04T16:22:00.271Z</time></trkpt><trkpt lat="45.162662" lon="8.2691255"><ele>321.0</ele><time>2026-05-04T16:22:01.276Z</time></trkpt><trkpt lat="45.1626951" lon="8.2690359"><ele>321.0</ele><time>2026-05-04T16:22:02.273Z</time></trkpt><trkpt lat="45.1627725" lon="8.2689155"><ele>321.0</ele><time>2026-05-04T16:22:04.273Z</time></trkpt><trkpt lat="45.1628293" lon="8.2688676"><ele>321.0</ele><time>2026-05-04T16:22:05.275Z</time></trkpt><trkpt lat="45.1629312" lon="8.2687503"><ele>320.0</ele><time>2026-05-04T16:22:07.274Z</time></trkpt><trkpt lat="45.1629783" lon="8.2686892"><ele>319.0</ele><time>2026-05-04T16:22:08.28Z</time></trkpt><trkpt lat="45.1630116" lon="8.2686028"><ele>318.0</ele><time>2026-05-04T16:22:09.279Z</time></trkpt><trkpt lat="45.1630888" lon="8.2684846"><ele>317.0</ele><time>2026-05-04T16:22:11.275Z</time></trkpt><trkpt lat="45.1631958" lon="8.2683733"><ele>316.0</ele><time>2026-05-04T16:22:13.271Z</time></trkpt><trkpt lat="45.1632644" lon="8.2683349"><ele>319.5</ele><time>2026-05-04T16:22:14.279Z</time></trkpt><trkpt lat="45.1633298" lon="8.2683075"><ele>323.0</ele><time>2026-05-04T16:22:15.277Z</time></trkpt><trkpt lat="45.1633937" lon="8.268251"><ele>326.5</ele><time>2026-05-04T16:22:16.277Z</time></trkpt><trkpt lat="45.1634991" lon="8.268185"><ele>330.0</ele><time>2026-05-04T16:22:18.275Z</time></trkpt><trkpt lat="45.1635286" lon="8.2681023"><ele>333.5</ele><time>2026-05-04T16:22:19.28Z</time></trkpt><trkpt lat="45.1635675" lon="8.2680101"><ele>337.0</ele><time>2026-05-04T16:22:20.283Z</time></trkpt><trkpt lat="45.1636027" lon="8.2679241"><ele>338.16666666666663</ele><time>2026-05-04T16:22:21.287Z</time></trkpt><trkpt lat="45.1636344" lon="8.2678349"><ele>339.3333333333333</ele><time>2026-05-04T16:22:22.276Z</time></trkpt><trkpt lat="45.1636672" lon="8.2677518"><ele>340.5</ele><time>2026-05-04T16:22:23.271Z</time></trkpt><trkpt lat="45.163712" lon="8.2676521"><ele>341.6666666666667</ele><time>2026-05-04T16:22:24.282Z</time></trkpt><trkpt lat="45.163744" lon="8.2675542"><ele>342.83333333333337</ele><time>2026-05-04T16:22:25.281Z</time></trkpt><trkpt lat="45.163778" lon="8.267469"><ele>344.0</ele><time>2026-05-04T16:22:26.28Z</time></trkpt><trkpt lat="45.1637937" lon="8.2673094"><ele>348.0</ele><time>2026-05-04T16:22:28.275Z</time></trkpt><trkpt lat="45.1637828" lon="8.2671308"><ele>352.0</ele><time>2026-05-04T16:22:30.273Z</time></trkpt><trkpt lat="45.1637982" lon="8.2669503"><ele>356.0</ele><time>2026-05-04T16:22:32.272Z</time></trkpt><trkpt lat="45.163863" lon="8.2668533"><ele>360.0</ele><time>2026-05-04T16:22:33.276Z</time></trkpt><trkpt lat="45.1639225" lon="8.2667225"><ele>360.0</ele><time>2026-05-04T16:22:34.276Z</time></trkpt><trkpt lat="45.1639637" lon="8.2666052"><ele>360.0</ele><time>2026-05-04T16:22:35.274Z</time></trkpt><trkpt lat="45.1640047" lon="8.2665176"><ele>360.0</ele><time>2026-05-04T16:22:36.278Z</time></trkpt><trkpt lat="45.1640639" lon="8.2663536"><ele>360.0</ele><time>2026-05-04T16:22:38.276Z</time></trkpt><trkpt lat="45.1640711" lon="8.2662598"><ele>360.0</ele><time>2026-05-04T16:22:39.275Z</time></trkpt><trkpt lat="45.1640706" lon="8.2661617"><ele>360.0</ele><time>2026-05-04T16:22:40.276Z</time></trkpt><trkpt lat="45.1640451" lon="8.2660731"><ele>359.3333333333333</ele><time>2026-05-04T16:22:41.277Z</time></trkpt><trkpt lat="45.1640061" lon="8.2659958"><ele>358.6666666666667</ele><time>2026-05-04T16:22:42.279Z</time></trkpt><trkpt lat="45.163961" lon="8.2659295"><ele>358.0</ele><time>2026-05-04T16:22:43.275Z</time></trkpt><trkpt lat="45.1639065" lon="8.2658701"><ele>357.33333333333337</ele><time>2026-05-04T16:22:44.28Z</time></trkpt><trkpt lat="45.1638105" lon="8.265793"><ele>356.6666666666667</ele><time>2026-05-04T16:22:46.274Z</time></trkpt><trkpt lat="45.163702" lon="8.2657539"><ele>356.0</ele><time>2026-05-04T16:22:48.281Z</time></trkpt><trkpt lat="45.1636261" lon="8.2657474"><ele>356.0</ele><time>2026-05-04T16:22:49.281Z</time></trkpt><trkpt lat="45.1635584" lon="8.265728"><ele>356.0</ele><time>2026-05-04T16:22:50.277Z</time></trkpt><trkpt lat="45.1634922" lon="8.2656967"><ele>356.0</ele><time>2026-05-04T16:22:51.28Z</time></trkpt><trkpt lat="45.163403" lon="8.2656161"><ele>356.0</ele><time>2026-05-04T16:22:53.27Z</time></trkpt><trkpt lat="45.1633122" lon="8.2654864"><ele>356.0</ele><time>2026-05-04T16:22:55.281Z</time></trkpt><trkpt lat="45.1632704" lon="8.2654028"><ele>356.0</ele><time>2026-05-04T16:22:56.283Z</time></trkpt><trkpt lat="45.1632393" lon="8.2652993"><ele>354.6</ele><time>2026-05-04T16:22:57.276Z</time></trkpt><trkpt lat="45.1632101" lon="8.2652003"><ele>353.20000000000005</ele><time>2026-05-04T16:22:58.28Z</time></trkpt><trkpt lat="45.1631905" lon="8.2651089"><ele>351.79999999999995</ele><time>2026-05-04T16:22:59.27Z</time></trkpt><trkpt lat="45.1631804" lon="8.264985"><ele>350.4</ele><time>2026-05-04T16:23:01.274Z</time></trkpt><trkpt lat="45.1632402" lon="8.2648338"><ele>349.0</ele><time>2026-05-04T16:23:03.271Z</time></trkpt><trkpt lat="45.1633022" lon="8.2647192"><ele>348.79999999999995</ele><time>2026-05-04T16:23:05.281Z</time></trkpt><trkpt lat="45.163299" lon="8.2646163"><ele>348.59999999999997</ele><time>2026-05-04T16:23:07.275Z</time></trkpt><trkpt lat="45.1632216" lon="8.2645231"><ele>348.4</ele><time>2026-05-04T16:23:09.275Z</time></trkpt><trkpt lat="45.163168" lon="8.2644689"><ele>348.2</ele><time>2026-05-04T16:23:10.278Z</time></trkpt><trkpt lat="45.1631182" lon="8.2643734"><ele>348.0</ele><time>2026-05-04T16:23:13.281Z</time></trkpt><trkpt lat="45.1631368" lon="8.2641935"><ele>348.5</ele><time>2026-05-04T16:23:15.28Z</time></trkpt><trkpt lat="45.1631742" lon="8.2640496"><ele>349.0</ele><time>2026-05-04T16:23:16.275Z</time></trkpt><trkpt lat="45.1632085" lon="8.2639279"><ele>349.5</ele><time>2026-05-04T16:23:17.278Z</time></trkpt><trkpt lat="45.1632397" lon="8.2638131"><ele>350.0</ele><time>2026-05-04T16:23:18.279Z</time></trkpt><trkpt lat="45.1632717" lon="8.263699"><ele>350.5</ele><time>2026-05-04T16:23:19.286Z</time></trkpt><trkpt lat="45.1632999" lon="8.2636008"><ele>351.0</ele><time>2026-05-04T16:23:20.273Z</time></trkpt><trkpt lat="45.1633308" lon="8.263513"><ele>351.00000000000006</ele><time>2026-05-04T16:23:21.273Z</time></trkpt><trkpt lat="45.1633763" lon="8.2634237"><ele>351.0</ele><time>2026-05-04T16:23:22.275Z</time></trkpt><trkpt lat="45.1634193" lon="8.2633435"><ele>351.0</ele><time>2026-05-04T16:23:23.277Z</time></trkpt><trkpt lat="45.1634567" lon="8.2632693"><ele>351.0</ele><time>2026-05-04T16:23:24.274Z</time></trkpt><trkpt lat="45.1634918" lon="8.2631898"><ele>351.0</ele><time>2026-05-04T16:23:25.272Z</time></trkpt><trkpt lat="45.1635168" lon="8.2631025"><ele>351.00000000000006</ele><time>2026-05-04T16:23:26.276Z</time></trkpt><trkpt lat="45.1635207" lon="8.2630017"><ele>351.0</ele><time>2026-05-04T16:23:27.276Z</time></trkpt><trkpt lat="45.1635258" lon="8.262905"><ele>350.6666666666667</ele><time>2026-05-04T16:23:28.277Z</time></trkpt><trkpt lat="45.1635269" lon="8.2628076"><ele>350.3333333333333</ele><time>2026-05-04T16:23:29.279Z</time></trkpt><trkpt lat="45.1635134" lon="8.2627145"><ele>350.0</ele><time>2026-05-04T16:23:30.275Z</time></trkpt><trkpt lat="45.163481" lon="8.2626152"><ele>349.66666666666663</ele><time>2026-05-04T16:23:31.276Z</time></trkpt><trkpt lat="45.1634364" lon="8.2624977"><ele>349.3333333333333</ele><time>2026-05-04T16:23:32.273Z</time></trkpt><trkpt lat="45.1633823" lon="8.2623831"><ele>349.0</ele><time>2026-05-04T16:23:33.299Z</time></trkpt><trkpt lat="45.1633293" lon="8.2622678"><ele>350.79999999999995</ele><time>2026-05-04T16:23:34.282Z</time></trkpt><trkpt lat="45.1632834" lon="8.2621547"><ele>352.59999999999997</ele><time>2026-05-04T16:23:35.273Z</time></trkpt><trkpt lat="45.1632394" lon="8.262039"><ele>354.4</ele><time>2026-05-04T16:23:36.277Z</time></trkpt><trkpt lat="45.1631989" lon="8.2619126"><ele>356.2</ele><time>2026-05-04T16:23:37.284Z</time></trkpt><trkpt lat="45.1631629" lon="8.2617901"><ele>358.0</ele><time>2026-05-04T16:23:38.279Z</time></trkpt><trkpt lat="45.1631353" lon="8.261677"><ele>358.0</ele><time>2026-05-04T16:23:39.274Z</time></trkpt><trkpt lat="45.1631071" lon="8.2615733"><ele>358.0</ele><time>2026-05-04T16:23:40.271Z</time></trkpt><trkpt lat="45.1630789" lon="8.2614099"><ele>358.0</ele><time>2026-05-04T16:23:42.274Z</time></trkpt><trkpt lat="45.1630728" lon="8.2612758"><ele>358.0</ele><time>2026-05-04T16:23:44.275Z</time></trkpt><trkpt lat="45.1631142" lon="8.2611107"><ele>358.0</ele><time>2026-05-04T16:23:46.276Z</time></trkpt><trkpt lat="45.1631529" lon="8.2610115"><ele>355.2</ele><time>2026-05-04T16:23:47.282Z</time></trkpt><trkpt lat="45.1631909" lon="8.2609056"><ele>352.4</ele><time>2026-05-04T16:23:48.28Z</time></trkpt><trkpt lat="45.1632201" lon="8.260792"><ele>349.59999999999997</ele><time>2026-05-04T16:23:49.276Z</time></trkpt><trkpt lat="45.1632417" lon="8.2606648"><ele>346.79999999999995</ele><time>2026-05-04T16:23:50.277Z</time></trkpt><trkpt lat="45.1632653" lon="8.2605311"><ele>344.0</ele><time>2026-05-04T16:23:51.275Z</time></trkpt><trkpt lat="45.1632822" lon="8.2603825"><ele>341.33333333333337</ele><time>2026-05-04T16:23:52.276Z</time></trkpt><trkpt lat="45.1632965" lon="8.2602358"><ele>338.6666666666667</ele><time>2026-05-04T16:23:53.282Z</time></trkpt><trkpt lat="45.163311" lon="8.2600971"><ele>336.0</ele><time>2026-05-04T16:23:54.272Z</time></trkpt><trkpt lat="45.1633166" lon="8.2599754"><ele>333.3333333333333</ele><time>2026-05-04T16:23:55.285Z</time></trkpt><trkpt lat="45.1633189" lon="8.2598796"><ele>330.66666666666663</ele><time>2026-05-04T16:23:56.279Z</time></trkpt><trkpt lat="45.1633154" lon="8.2597884"><ele>328.0</ele><time>2026-05-04T16:23:57.28Z</time></trkpt><trkpt lat="45.163289" lon="8.2596341"><ele>327.2</ele><time>2026-05-04T16:23:59.278Z</time></trkpt><trkpt lat="45.1632297" lon="8.2595126"><ele>326.4</ele><time>2026-05-04T16:24:01.283Z</time></trkpt><trkpt lat="45.1631337" lon="8.2594333"><ele>325.59999999999997</ele><time>2026-05-04T16:24:03.278Z</time></trkpt><trkpt lat="45.1630732" lon="8.2593967"><ele>324.79999999999995</ele><time>2026-05-04T16:24:04.276Z</time></trkpt><trkpt lat="45.1629713" lon="8.2593383"><ele>324.0</ele><time>2026-05-04T16:24:06.279Z</time></trkpt><trkpt lat="45.1628956" lon="8.259278"><ele>324.0</ele><time>2026-05-04T16:24:08.28Z</time></trkpt><trkpt lat="45.1628498" lon="8.2592104"><ele>324.0</ele><time>2026-05-04T16:24:11.288Z</time></trkpt><trkpt lat="45.1629315" lon="8.2592052"><ele>324.0</ele><time>2026-05-04T16:24:14.274Z</time></trkpt><trkpt lat="45.1629943" lon="8.2592431"><ele>324.0</ele><time>2026-05-04T16:24:15.28Z</time></trkpt><trkpt lat="45.1630665" lon="8.2592873"><ele>324.0</ele><time>2026-05-04T16:24:16.274Z</time></trkpt><trkpt lat="45.1631582" lon="8.2593376"><ele>324.0</ele><time>2026-05-04T16:24:17.274Z</time></trkpt><trkpt lat="45.163253" lon="8.2593978"><ele>324.0</ele><time>2026-05-04T16:24:18.275Z</time></trkpt><trkpt lat="45.1633575" lon="8.2594827"><ele>324.0</ele><time>2026-05-04T16:24:19.273Z</time></trkpt><trkpt lat="45.1634666" lon="8.2595735"><ele>324.0</ele><time>2026-05-04T16:24:20.278Z</time></trkpt><trkpt lat="45.1635311" lon="8.2596973"><ele>324.0</ele><time>2026-05-04T16:24:21.272Z</time></trkpt><trkpt lat="45.1635753" lon="8.2598387"><ele>325.0</ele><time>2026-05-04T16:24:22.274Z</time></trkpt><trkpt lat="45.163626" lon="8.2600005"><ele>326.0</ele><time>2026-05-04T16:24:23.283Z</time></trkpt><trkpt lat="45.1636553" lon="8.2601916"><ele>327.0</ele><time>2026-05-04T16:24:24.277Z</time></trkpt><trkpt lat="45.1636852" lon="8.2603949"><ele>328.0</ele><time>2026-05-04T16:24:25.273Z</time></trkpt><trkpt lat="45.1637232" lon="8.2605877"><ele>328.5</ele><time>2026-05-04T16:24:26.279Z</time></trkpt><trkpt lat="45.1637608" lon="8.2607814"><ele>329.0</ele><time>2026-05-04T16:24:27.273Z</time></trkpt><trkpt lat="45.1637979" lon="8.2609678"><ele>329.5</ele><time>2026-05-04T16:24:28.277Z</time></trkpt><trkpt lat="45.163835" lon="8.261132"><ele>330.0</ele><time>2026-05-04T16:24:29.276Z</time></trkpt><trkpt lat="45.1638633" lon="8.2612709"><ele>330.0</ele><time>2026-05-04T16:24:30.276Z</time></trkpt><trkpt lat="45.1638877" lon="8.2613844"><ele>330.0</ele><time>2026-05-04T16:24:31.279Z</time></trkpt><trkpt lat="45.1639169" lon="8.2614657"><ele>330.0</ele><time>2026-05-04T16:24:32.273Z</time></trkpt><trkpt lat="45.16398" lon="8.261535"><ele>330.0</ele><time>2026-05-04T16:24:34.279Z</time></trkpt><trkpt lat="45.1640514" lon="8.2614326"><ele>330.0</ele><time>2026-05-04T16:24:36.29Z</time></trkpt><trkpt lat="45.164069" lon="8.2613335"><ele>330.0</ele><time>2026-05-04T16:24:37.284Z</time></trkpt><trkpt lat="45.1640726" lon="8.261209"><ele>324.2</ele><time>2026-05-04T16:24:38.276Z</time></trkpt><trkpt lat="45.1640663" lon="8.2610691"><ele>318.4</ele><time>2026-05-04T16:24:39.279Z</time></trkpt><trkpt lat="45.1640625" lon="8.2609249"><ele>312.6</ele><time>2026-05-04T16:24:40.277Z</time></trkpt><trkpt lat="45.1640818" lon="8.2607834"><ele>306.8</ele><time>2026-05-04T16:24:41.283Z</time></trkpt><trkpt lat="45.1641087" lon="8.2606574"><ele>301.0</ele><time>2026-05-04T16:24:42.279Z</time></trkpt><trkpt lat="45.164125" lon="8.2605433"><ele>299.40000000000003</ele><time>2026-05-04T16:24:43.271Z</time></trkpt><trkpt lat="45.1641203" lon="8.2604322"><ele>297.8</ele><time>2026-05-04T16:24:44.281Z</time></trkpt><trkpt lat="45.1640913" lon="8.260317"><ele>296.20000000000005</ele><time>2026-05-04T16:24:45.274Z</time></trkpt><trkpt lat="45.164046" lon="8.2601949"><ele>294.6</ele><time>2026-05-04T16:24:46.293Z</time></trkpt><trkpt lat="45.164" lon="8.2600647"><ele>293.0</ele><time>2026-05-04T16:24:47.27Z</time></trkpt><trkpt lat="45.163967" lon="8.2599172"><ele>300.75</ele><time>2026-05-04T16:24:48.274Z</time></trkpt><trkpt lat="45.1639334" lon="8.2597627"><ele>308.5</ele><time>2026-05-04T16:24:49.273Z</time></trkpt><trkpt lat="45.1639457" lon="8.2595931"><ele>316.25</ele><time>2026-05-04T16:24:50.273Z</time></trkpt><trkpt lat="45.1639611" lon="8.2594195"><ele>324.0</ele><time>2026-05-04T16:24:51.28Z</time></trkpt><trkpt lat="45.1640196" lon="8.259249"><ele>316.25</ele><time>2026-05-04T16:24:52.275Z</time></trkpt><trkpt lat="45.1640935" lon="8.2590849"><ele>308.5</ele><time>2026-05-04T16:24:53.282Z</time></trkpt><trkpt lat="45.1641741" lon="8.2589413"><ele>300.75</ele><time>2026-05-04T16:24:54.284Z</time></trkpt><trkpt lat="45.164257" lon="8.2588073"><ele>293.0</ele><time>2026-05-04T16:24:55.274Z</time></trkpt><trkpt lat="45.1643263" lon="8.2586818"><ele>293.0</ele><time>2026-05-04T16:24:56.278Z</time></trkpt><trkpt lat="45.1643783" lon="8.2585596"><ele>293.0</ele><time>2026-05-04T16:24:57.271Z</time></trkpt><trkpt lat="45.1644094" lon="8.2584277"><ele>293.0</ele><time>2026-05-04T16:24:58.272Z</time></trkpt><trkpt lat="45.1644251" lon="8.2582975"><ele>293.0</ele><time>2026-05-04T16:24:59.278Z</time></trkpt><trkpt lat="45.1644501" lon="8.2581795"><ele>293.0</ele><time>2026-05-04T16:25:00.277Z</time></trkpt><trkpt lat="45.1644967" lon="8.2580708"><ele>289.75</ele><time>2026-05-04T16:25:01.305Z</time></trkpt><trkpt lat="45.1645704" lon="8.2579837"><ele>286.5</ele><time>2026-05-04T16:25:02.28Z</time></trkpt><trkpt lat="45.164667" lon="8.2579157"><ele>283.25</ele><time>2026-05-04T16:25:03.283Z</time></trkpt><trkpt lat="45.1647841" lon="8.2578658"><ele>280.0</ele><time>2026-05-04T16:25:04.285Z</time></trkpt><trkpt lat="45.1649182" lon="8.257823"><ele>274.0</ele><time>2026-05-04T16:25:05.278Z</time></trkpt><trkpt lat="45.1650664" lon="8.2577912"><ele>268.0</ele><time>2026-05-04T16:25:06.279Z</time></trkpt><trkpt lat="45.1652196" lon="8.2577625"><ele>262.0</ele><time>2026-05-04T16:25:07.283Z</time></trkpt><trkpt lat="45.1653677" lon="8.2577227"><ele>262.0</ele><time>2026-05-04T16:25:08.284Z</time></trkpt><trkpt lat="45.1654988" lon="8.2576719"><ele>262.0</ele><time>2026-05-04T16:25:09.282Z</time></trkpt><trkpt lat="45.1656221" lon="8.2576032"><ele>262.0</ele><time>2026-05-04T16:25:10.28Z</time></trkpt><trkpt lat="45.1657346" lon="8.2575059"><ele>262.0</ele><time>2026-05-04T16:25:11.278Z</time></trkpt><trkpt lat="45.1658547" lon="8.2574021"><ele>258.0</ele><time>2026-05-04T16:25:12.273Z</time></trkpt><trkpt lat="45.1659672" lon="8.2572654"><ele>254.0</ele><time>2026-05-04T16:25:13.274Z</time></trkpt><trkpt lat="45.1660884" lon="8.2571228"><ele>250.0</ele><time>2026-05-04T16:25:14.274Z</time></trkpt><trkpt lat="45.1662142" lon="8.2569757"><ele>250.0</ele><time>2026-05-04T16:25:15.269Z</time></trkpt><trkpt lat="45.1663464" lon="8.256834"><ele>250.0</ele><time>2026-05-04T16:25:16.278Z</time></trkpt><trkpt lat="45.1664669" lon="8.2567005"><ele>250.0</ele><time>2026-05-04T16:25:17.283Z</time></trkpt><trkpt lat="45.1665835" lon="8.2565787"><ele>249.75</ele><time>2026-05-04T16:25:18.275Z</time></trkpt><trkpt lat="45.166695" lon="8.2564568"><ele>249.5</ele><time>2026-05-04T16:25:19.281Z</time></trkpt><trkpt lat="45.1668068" lon="8.2563293"><ele>249.25</ele><time>2026-05-04T16:25:20.277Z</time></trkpt><trkpt lat="45.1669121" lon="8.256199"><ele>249.0</ele><time>2026-05-04T16:25:21.278Z</time></trkpt><trkpt lat="45.167016" lon="8.2560573"><ele>249.0</ele><time>2026-05-04T16:25:22.276Z</time></trkpt><trkpt lat="45.1671207" lon="8.2559022"><ele>249.0</ele><time>2026-05-04T16:25:23.274Z</time></trkpt><trkpt lat="45.1672305" lon="8.2557374"><ele>249.0</ele><time>2026-05-04T16:25:24.282Z</time></trkpt><trkpt lat="45.1673471" lon="8.2555661"><ele>249.33333333333331</ele><time>2026-05-04T16:25:25.275Z</time></trkpt><trkpt lat="45.1674613" lon="8.2553907"><ele>249.66666666666666</ele><time>2026-05-04T16:25:26.277Z</time></trkpt><trkpt lat="45.16756" lon="8.2552219"><ele>250.0</ele><time>2026-05-04T16:25:27.277Z</time></trkpt><trkpt lat="45.1676364" lon="8.2550649"><ele>250.0</ele><time>2026-05-04T16:25:28.278Z</time></trkpt><trkpt lat="45.1676935" lon="8.2549064"><ele>250.0</ele><time>2026-05-04T16:25:29.278Z</time></trkpt><trkpt lat="45.1677356" lon="8.2547349"><ele>250.0</ele><time>2026-05-04T16:25:30.277Z</time></trkpt><trkpt lat="45.1677784" lon="8.2545609"><ele>250.0</ele><time>2026-05-04T16:25:31.274Z</time></trkpt><trkpt lat="45.1678057" lon="8.2543931"><ele>250.4</ele><time>2026-05-04T16:25:32.288Z</time></trkpt><trkpt lat="45.1678406" lon="8.2542431"><ele>250.8</ele><time>2026-05-04T16:25:33.281Z</time></trkpt><trkpt lat="45.1678866" lon="8.254125"><ele>251.2</ele><time>2026-05-04T16:25:34.284Z</time></trkpt><trkpt lat="45.1679503" lon="8.2540253"><ele>251.6</ele><time>2026-05-04T16:25:35.272Z</time></trkpt><trkpt lat="45.1680291" lon="8.2539225"><ele>252.0</ele><time>2026-05-04T16:25:36.282Z</time></trkpt><trkpt lat="45.1680964" lon="8.253812"><ele>252.2</ele><time>2026-05-04T16:25:37.282Z</time></trkpt><trkpt lat="45.1681459" lon="8.2537086"><ele>252.39999999999998</ele><time>2026-05-04T16:25:38.284Z</time></trkpt><trkpt lat="45.1681854" lon="8.2536053"><ele>252.60000000000002</ele><time>2026-05-04T16:25:39.28Z</time></trkpt><trkpt lat="45.1682087" lon="8.2534908"><ele>252.8</ele><time>2026-05-04T16:25:40.278Z</time></trkpt><trkpt lat="45.1682192" lon="8.2533538"><ele>253.0</ele><time>2026-05-04T16:25:41.28Z</time></trkpt><trkpt lat="45.1682292" lon="8.2531942"><ele>252.60000000000002</ele><time>2026-05-04T16:25:42.279Z</time></trkpt><trkpt lat="45.168235" lon="8.2530376"><ele>252.20000000000002</ele><time>2026-05-04T16:25:43.274Z</time></trkpt><trkpt lat="45.1682483" lon="8.2528927"><ele>251.8</ele><time>2026-05-04T16:25:44.284Z</time></trkpt><trkpt lat="45.1682701" lon="8.2527627"><ele>251.4</ele><time>2026-05-04T16:25:45.277Z</time></trkpt><trkpt lat="45.1682839" lon="8.252635"><ele>251.0</ele><time>2026-05-04T16:25:46.274Z</time></trkpt><trkpt lat="45.1682764" lon="8.252505"><ele>251.0</ele><time>2026-05-04T16:25:47.277Z</time></trkpt><trkpt lat="45.1682568" lon="8.2523702"><ele>251.00000000000003</ele><time>2026-05-04T16:25:48.279Z</time></trkpt><trkpt lat="45.1682473" lon="8.2522398"><ele>251.00000000000003</ele><time>2026-05-04T16:25:49.275Z</time></trkpt><trkpt lat="45.1682608" lon="8.2521204"><ele>251.0</ele><time>2026-05-04T16:25:50.28Z</time></trkpt><trkpt lat="45.1682873" lon="8.2519955"><ele>251.0</ele><time>2026-05-04T16:25:51.285Z</time></trkpt><trkpt lat="45.1683641" lon="8.2518814"><ele>251.20000000000002</ele><time>2026-05-04T16:25:52.276Z</time></trkpt><trkpt lat="45.1684358" lon="8.2517684"><ele>251.40000000000003</ele><time>2026-05-04T16:25:53.275Z</time></trkpt><trkpt lat="45.1684829" lon="8.2516584"><ele>251.6</ele><time>2026-05-04T16:25:54.28Z</time></trkpt><trkpt lat="45.1685212" lon="8.2515472"><ele>251.8</ele><time>2026-05-04T16:25:55.272Z</time></trkpt><trkpt lat="45.168552" lon="8.2514156"><ele>252.0</ele><time>2026-05-04T16:25:56.302Z</time></trkpt><trkpt lat="45.1685868" lon="8.2512733"><ele>252.0</ele><time>2026-05-04T16:25:57.279Z</time></trkpt><trkpt lat="45.1686197" lon="8.2511244"><ele>252.0</ele><time>2026-05-04T16:25:58.276Z</time></trkpt><trkpt lat="45.1686468" lon="8.2509677"><ele>252.0</ele><time>2026-05-04T16:25:59.279Z</time></trkpt><trkpt lat="45.1686681" lon="8.2508133"><ele>252.0</ele><time>2026-05-04T16:26:00.283Z</time></trkpt><trkpt lat="45.1686971" lon="8.2506647"><ele>252.0</ele><time>2026-05-04T16:26:01.273Z</time></trkpt><trkpt lat="45.1687403" lon="8.2505254"><ele>251.25</ele><time>2026-05-04T16:26:02.286Z</time></trkpt><trkpt lat="45.1688001" lon="8.2503898"><ele>250.5</ele><time>2026-05-04T16:26:03.284Z</time></trkpt><trkpt lat="45.1688611" lon="8.2502499"><ele>249.75</ele><time>2026-05-04T16:26:04.281Z</time></trkpt><trkpt lat="45.1689133" lon="8.2500975"><ele>249.0</ele><time>2026-05-04T16:26:05.273Z</time></trkpt><trkpt lat="45.1689564" lon="8.249933"><ele>248.5</ele><time>2026-05-04T16:26:06.273Z</time></trkpt><trkpt lat="45.1690043" lon="8.2497585"><ele>248.0</ele><time>2026-05-04T16:26:07.279Z</time></trkpt><trkpt lat="45.1690493" lon="8.2495844"><ele>247.5</ele><time>2026-05-04T16:26:08.277Z</time></trkpt><trkpt lat="45.1690874" lon="8.2494213"><ele>247.0</ele><time>2026-05-04T16:26:09.273Z</time></trkpt><trkpt lat="45.1691202" lon="8.2492663"><ele>250.0</ele><time>2026-05-04T16:26:10.277Z</time></trkpt><trkpt lat="45.1691486" lon="8.2491054"><ele>253.0</ele><time>2026-05-04T16:26:11.286Z</time></trkpt><trkpt lat="45.1691777" lon="8.2489476"><ele>256.0</ele><time>2026-05-04T16:26:12.273Z</time></trkpt><trkpt lat="45.169209" lon="8.248802"><ele>259.0</ele><time>2026-05-04T16:26:13.279Z</time></trkpt><trkpt lat="45.1692346" lon="8.2486728"><ele>262.0</ele><time>2026-05-04T16:26:14.275Z</time></trkpt><trkpt lat="45.1692536" lon="8.2485481"><ele>262.0</ele><time>2026-05-04T16:26:15.277Z</time></trkpt><trkpt lat="45.1692649" lon="8.2484321"><ele>262.0</ele><time>2026-05-04T16:26:16.282Z</time></trkpt><trkpt lat="45.1692707" lon="8.24833"><ele>262.0</ele><time>2026-05-04T16:26:17.274Z</time></trkpt><trkpt lat="45.1692605" lon="8.2482409"><ele>262.0</ele><time>2026-05-04T16:26:18.287Z</time></trkpt><trkpt lat="45.1691764" lon="8.2481033"><ele>262.0</ele><time>2026-05-04T16:26:20.277Z</time></trkpt><trkpt lat="45.1691166" lon="8.2480471"><ele>262.0</ele><time>2026-05-04T16:26:21.28Z</time></trkpt><trkpt lat="45.1690568" lon="8.2480044"><ele>259.8333333333333</ele><time>2026-05-04T16:26:22.284Z</time></trkpt><trkpt lat="45.1689908" lon="8.2479828"><ele>257.66666666666663</ele><time>2026-05-04T16:26:23.271Z</time></trkpt><trkpt lat="45.1689274" lon="8.247998"><ele>255.5</ele><time>2026-05-04T16:26:24.276Z</time></trkpt><trkpt lat="45.1688635" lon="8.2480502"><ele>253.33333333333331</ele><time>2026-05-04T16:26:25.278Z</time></trkpt><trkpt lat="45.1688" lon="8.2481352"><ele>251.16666666666666</ele><time>2026-05-04T16:26:26.273Z</time></trkpt><trkpt lat="45.1687331" lon="8.2482315"><ele>249.0</ele><time>2026-05-04T16:26:27.28Z</time></trkpt><trkpt lat="45.1686736" lon="8.2483297"><ele>249.0</ele><time>2026-05-04T16:26:28.276Z</time></trkpt><trkpt lat="45.1686303" lon="8.2484257"><ele>248.99999999999997</ele><time>2026-05-04T16:26:29.27Z</time></trkpt><trkpt lat="45.1686054" lon="8.2485299"><ele>248.99999999999997</ele><time>2026-05-04T16:26:30.276Z</time></trkpt><trkpt lat="45.1685965" lon="8.2486519"><ele>249.0</ele><time>2026-05-04T16:26:31.272Z</time></trkpt><trkpt lat="45.1686009" lon="8.2487957"><ele>249.0</ele><time>2026-05-04T16:26:32.277Z</time></trkpt><trkpt lat="45.1686086" lon="8.2489532"><ele>248.6</ele><time>2026-05-04T16:26:33.275Z</time></trkpt><trkpt lat="45.1686126" lon="8.2491157"><ele>248.2</ele><time>2026-05-04T16:26:34.278Z</time></trkpt><trkpt lat="45.1686075" lon="8.2492651"><ele>247.79999999999998</ele><time>2026-05-04T16:26:35.278Z</time></trkpt><trkpt lat="45.1685875" lon="8.2494007"><ele>247.39999999999998</ele><time>2026-05-04T16:26:36.277Z</time></trkpt><trkpt lat="45.1685492" lon="8.2495284"><ele>247.0</ele><time>2026-05-04T16:26:37.278Z</time></trkpt><trkpt lat="45.1684956" lon="8.2496556"><ele>247.0</ele><time>2026-05-04T16:26:38.279Z</time></trkpt><trkpt lat="45.1684282" lon="8.2497778"><ele>247.0</ele><time>2026-05-04T16:26:39.273Z</time></trkpt><trkpt lat="45.16836" lon="8.2498931"><ele>247.0</ele><time>2026-05-04T16:26:40.274Z</time></trkpt><trkpt lat="45.168302" lon="8.2500031"><ele>247.0</ele><time>2026-05-04T16:26:41.272Z</time></trkpt><trkpt lat="45.1682581" lon="8.2501087"><ele>247.0</ele><time>2026-05-04T16:26:42.275Z</time></trkpt><trkpt lat="45.1682324" lon="8.2502239"><ele>247.39999999999998</ele><time>2026-05-04T16:26:43.275Z</time></trkpt><trkpt lat="45.1682286" lon="8.2503512"><ele>247.79999999999998</ele><time>2026-05-04T16:26:44.283Z</time></trkpt><trkpt lat="45.1682423" lon="8.250487"><ele>248.2</ele><time>2026-05-04T16:26:45.274Z</time></trkpt><trkpt lat="45.1682564" lon="8.2506304"><ele>248.6</ele><time>2026-05-04T16:26:46.276Z</time></trkpt><trkpt lat="45.1682563" lon="8.2507781"><ele>249.0</ele><time>2026-05-04T16:26:47.271Z</time></trkpt><trkpt lat="45.1682305" lon="8.2509222"><ele>243.25</ele><time>2026-05-04T16:26:48.275Z</time></trkpt><trkpt lat="45.1681758" lon="8.2510588"><ele>237.5</ele><time>2026-05-04T16:26:49.278Z</time></trkpt><trkpt lat="45.1680944" lon="8.2511891"><ele>231.75</ele><time>2026-05-04T16:26:50.28Z</time></trkpt><trkpt lat="45.1680042" lon="8.2513156"><ele>226.0</ele><time>2026-05-04T16:26:51.277Z</time></trkpt><trkpt lat="45.1679222" lon="8.2514381"><ele>227.60000000000002</ele><time>2026-05-04T16:26:52.281Z</time></trkpt><trkpt lat="45.1678516" lon="8.25155"><ele>229.20000000000002</ele><time>2026-05-04T16:26:53.271Z</time></trkpt><trkpt lat="45.1677959" lon="8.2516533"><ele>230.79999999999998</ele><time>2026-05-04T16:26:54.276Z</time></trkpt><trkpt lat="45.167759" lon="8.2517629"><ele>232.39999999999998</ele><time>2026-05-04T16:26:55.275Z</time></trkpt><trkpt lat="45.1677412" lon="8.2518827"><ele>234.0</ele><time>2026-05-04T16:26:56.275Z</time></trkpt><trkpt lat="45.1677423" lon="8.2520102"><ele>234.0</ele><time>2026-05-04T16:26:57.271Z</time></trkpt><trkpt lat="45.1677469" lon="8.2521438"><ele>233.99999999999997</ele><time>2026-05-04T16:26:58.292Z</time></trkpt><trkpt lat="45.1677398" lon="8.2522816"><ele>233.99999999999997</ele><time>2026-05-04T16:26:59.272Z</time></trkpt><trkpt lat="45.1677199" lon="8.2524156"><ele>234.0</ele><time>2026-05-04T16:27:00.271Z</time></trkpt><trkpt lat="45.167687" lon="8.2525486"><ele>234.0</ele><time>2026-05-04T16:27:01.273Z</time></trkpt><trkpt lat="45.1676446" lon="8.2526737"><ele>234.79999999999998</ele><time>2026-05-04T16:27:02.277Z</time></trkpt><trkpt lat="45.167607" lon="8.25278"><ele>235.59999999999997</ele><time>2026-05-04T16:27:03.271Z</time></trkpt><trkpt lat="45.1675588" lon="8.2528673"><ele>236.4</ele><time>2026-05-04T16:27:04.279Z</time></trkpt><trkpt lat="45.1674847" lon="8.2529292"><ele>237.2</ele><time>2026-05-04T16:27:06.278Z</time></trkpt><trkpt lat="45.1674593" lon="8.2527852"><ele>238.0</ele><time>2026-05-04T16:27:09.278Z</time></trkpt><trkpt lat="45.1675213" lon="8.2526289"><ele>238.0</ele><time>2026-05-04T16:27:11.277Z</time></trkpt><trkpt lat="45.1675559" lon="8.2525369"><ele>238.0</ele><time>2026-05-04T16:27:12.283Z</time></trkpt><trkpt lat="45.1675723" lon="8.2524411"><ele>238.0</ele><time>2026-05-04T16:27:13.274Z</time></trkpt><trkpt lat="45.1675681" lon="8.252323"><ele>238.0</ele><time>2026-05-04T16:27:14.274Z</time></trkpt><trkpt lat="45.1675256" lon="8.2521602"><ele>238.0</ele><time>2026-05-04T16:27:15.273Z</time></trkpt><trkpt lat="45.1674985" lon="8.2520167"><ele>237.33333333333331</ele><time>2026-05-04T16:27:16.28Z</time></trkpt><trkpt lat="45.1674664" lon="8.2518865"><ele>236.66666666666666</ele><time>2026-05-04T16:27:17.282Z</time></trkpt><trkpt lat="45.1674499" lon="8.2517739"><ele>236.0</ele><time>2026-05-04T16:27:18.282Z</time></trkpt><trkpt lat="45.1674402" lon="8.2516593"><ele>235.33333333333331</ele><time>2026-05-04T16:27:19.27Z</time></trkpt><trkpt lat="45.1674346" lon="8.2515551"><ele>234.66666666666666</ele><time>2026-05-04T16:27:20.27Z</time></trkpt><trkpt lat="45.1674563" lon="8.2514484"><ele>234.0</ele><time>2026-05-04T16:27:21.271Z</time></trkpt><trkpt lat="45.1674927" lon="8.2513409"><ele>232.66666666666666</ele><time>2026-05-04T16:27:22.276Z</time></trkpt><trkpt lat="45.1675362" lon="8.2512216"><ele>231.33333333333331</ele><time>2026-05-04T16:27:23.275Z</time></trkpt><trkpt lat="45.1675749" lon="8.251109"><ele>230.0</ele><time>2026-05-04T16:27:24.275Z</time></trkpt><trkpt lat="45.1676108" lon="8.2510039"><ele>228.66666666666666</ele><time>2026-05-04T16:27:25.28Z</time></trkpt><trkpt lat="45.1676272" lon="8.2509042"><ele>227.33333333333331</ele><time>2026-05-04T16:27:26.275Z</time></trkpt><trkpt lat="45.1676355" lon="8.2507986"><ele>226.0</ele><time>2026-05-04T16:27:27.271Z</time></trkpt><trkpt lat="45.1676301" lon="8.2506929"><ele>225.4</ele><time>2026-05-04T16:27:28.274Z</time></trkpt><trkpt lat="45.1676107" lon="8.250583"><ele>224.8</ele><time>2026-05-04T16:27:29.276Z</time></trkpt><trkpt lat="45.167577" lon="8.2504706"><ele>224.20000000000002</ele><time>2026-05-04T16:27:30.277Z</time></trkpt><trkpt lat="45.1675302" lon="8.2503492"><ele>223.60000000000002</ele><time>2026-05-04T16:27:31.274Z</time></trkpt><trkpt lat="45.1674764" lon="8.2502284"><ele>223.0</ele><time>2026-05-04T16:27:32.277Z</time></trkpt><trkpt lat="45.167427" lon="8.2501153"><ele>222.99999999999997</ele><time>2026-05-04T16:27:33.276Z</time></trkpt><trkpt lat="45.1673904" lon="8.2500127"><ele>223.0</ele><time>2026-05-04T16:27:34.278Z</time></trkpt><trkpt lat="45.1673657" lon="8.2499088"><ele>223.0</ele><time>2026-05-04T16:27:35.274Z</time></trkpt><trkpt lat="45.1673425" lon="8.2498069"><ele>223.0</ele><time>2026-05-04T16:27:36.287Z</time></trkpt><trkpt lat="45.1673505" lon="8.2496907"><ele>222.99999999999997</ele><time>2026-05-04T16:27:37.272Z</time></trkpt><trkpt lat="45.1673591" lon="8.2495687"><ele>223.0</ele><time>2026-05-04T16:27:38.281Z</time></trkpt><trkpt lat="45.167386" lon="8.2494412"><ele>222.66666666666666</ele><time>2026-05-04T16:27:39.281Z</time></trkpt><trkpt lat="45.1674091" lon="8.2493149"><ele>222.33333333333331</ele><time>2026-05-04T16:27:40.28Z</time></trkpt><trkpt lat="45.167424" lon="8.2491972"><ele>222.0</ele><time>2026-05-04T16:27:41.281Z</time></trkpt><trkpt lat="45.1674246" lon="8.2490921"><ele>221.66666666666669</ele><time>2026-05-04T16:27:42.279Z</time></trkpt><trkpt lat="45.1674065" lon="8.2489953"><ele>221.33333333333334</ele><time>2026-05-04T16:27:43.279Z</time></trkpt><trkpt lat="45.1673702" lon="8.2489073"><ele>221.0</ele><time>2026-05-04T16:27:44.278Z</time></trkpt><trkpt lat="45.1673186" lon="8.2488217"><ele>217.16666666666669</ele><time>2026-05-04T16:27:45.279Z</time></trkpt><trkpt lat="45.1672591" lon="8.2487331"><ele>213.33333333333334</ele><time>2026-05-04T16:27:46.28Z</time></trkpt><trkpt lat="45.1672009" lon="8.2486484"><ele>209.5</ele><time>2026-05-04T16:27:47.276Z</time></trkpt><trkpt lat="45.1671515" lon="8.2485607"><ele>205.66666666666669</ele><time>2026-05-04T16:27:48.28Z</time></trkpt><trkpt lat="45.167117" lon="8.2484727"><ele>201.83333333333334</ele><time>2026-05-04T16:27:49.275Z</time></trkpt><trkpt lat="45.1670945" lon="8.2483712"><ele>198.0</ele><time>2026-05-04T16:27:50.279Z</time></trkpt><trkpt lat="45.1670718" lon="8.2482593"><ele>197.4</ele><time>2026-05-04T16:27:51.271Z</time></trkpt><trkpt lat="45.1670742" lon="8.248115"><ele>196.8</ele><time>2026-05-04T16:27:52.28Z</time></trkpt><trkpt lat="45.1670807" lon="8.2479792"><ele>196.2</ele><time>2026-05-04T16:27:53.28Z</time></trkpt><trkpt lat="45.1670861" lon="8.2478568"><ele>195.6</ele><time>2026-05-04T16:27:54.276Z</time></trkpt><trkpt lat="45.1670901" lon="8.2477342"><ele>195.0</ele><time>2026-05-04T16:27:55.277Z</time></trkpt><trkpt lat="45.1670703" lon="8.2476077"><ele>195.0</ele><time>2026-05-04T16:27:56.273Z</time></trkpt><trkpt lat="45.1670355" lon="8.2474751"><ele>195.0</ele><time>2026-05-04T16:27:57.281Z</time></trkpt><trkpt lat="45.1669962" lon="8.2473353"><ele>195.0</ele><time>2026-05-04T16:27:58.286Z</time></trkpt><trkpt lat="45.1669586" lon="8.2472058"><ele>195.0</ele><time>2026-05-04T16:27:59.275Z</time></trkpt><trkpt lat="45.1669288" lon="8.2470881"><ele>195.0</ele><time>2026-05-04T16:28:00.282Z</time></trkpt><trkpt lat="45.1669078" lon="8.2469819"><ele>194.5</ele><time>2026-05-04T16:28:01.274Z</time></trkpt><trkpt lat="45.1668879" lon="8.2468812"><ele>194.0</ele><time>2026-05-04T16:28:02.276Z</time></trkpt><trkpt lat="45.1668745" lon="8.2467829"><ele>193.5</ele><time>2026-05-04T16:28:03.272Z</time></trkpt><trkpt lat="45.1668742" lon="8.2466765"><ele>193.0</ele><time>2026-05-04T16:28:04.273Z</time></trkpt><trkpt lat="45.1668949" lon="8.2465485"><ele>192.5</ele><time>2026-05-04T16:28:05.274Z</time></trkpt><trkpt lat="45.1669258" lon="8.2464081"><ele>192.0</ele><time>2026-05-04T16:28:06.271Z</time></trkpt><trkpt lat="45.1669572" lon="8.2462694"><ele>189.6</ele><time>2026-05-04T16:28:07.278Z</time></trkpt><trkpt lat="45.1669871" lon="8.2461378"><ele>187.2</ele><time>2026-05-04T16:28:08.269Z</time></trkpt><trkpt lat="45.1670196" lon="8.2460087"><ele>184.8</ele><time>2026-05-04T16:28:09.284Z</time></trkpt><trkpt lat="45.1670587" lon="8.2458702"><ele>182.4</ele><time>2026-05-04T16:28:10.277Z</time></trkpt><trkpt lat="45.1670989" lon="8.2457406"><ele>180.0</ele><time>2026-05-04T16:28:11.279Z</time></trkpt><trkpt lat="45.1671406" lon="8.2456184"><ele>178.2</ele><time>2026-05-04T16:28:12.275Z</time></trkpt><trkpt lat="45.167197" lon="8.2454985"><ele>176.4</ele><time>2026-05-04T16:28:13.279Z</time></trkpt><trkpt lat="45.1672573" lon="8.2453845"><ele>174.60000000000002</ele><time>2026-05-04T16:28:14.285Z</time></trkpt><trkpt lat="45.1673181" lon="8.2452613"><ele>172.8</ele><time>2026-05-04T16:28:15.274Z</time></trkpt><trkpt lat="45.1673776" lon="8.2451359"><ele>171.0</ele><time>2026-05-04T16:28:16.277Z</time></trkpt><trkpt lat="45.1674244" lon="8.2449953"><ele>173.0</ele><time>2026-05-04T16:28:17.273Z</time></trkpt><trkpt lat="45.167468" lon="8.2448621"><ele>175.0</ele><time>2026-05-04T16:28:18.284Z</time></trkpt><trkpt lat="45.1675057" lon="8.2447462"><ele>177.0</ele><time>2026-05-04T16:28:19.274Z</time></trkpt><trkpt lat="45.1675283" lon="8.2446333"><ele>179.0</ele><time>2026-05-04T16:28:20.278Z</time></trkpt><trkpt lat="45.1675496" lon="8.2445247"><ele>181.0</ele><time>2026-05-04T16:28:21.273Z</time></trkpt><trkpt lat="45.1675434" lon="8.2444033"><ele>183.0</ele><time>2026-05-04T16:28:22.274Z</time></trkpt><trkpt lat="45.1675294" lon="8.2442727"><ele>183.0</ele><time>2026-05-04T16:28:23.275Z</time></trkpt><trkpt lat="45.1675154" lon="8.2441268"><ele>183.0</ele><time>2026-05-04T16:28:24.276Z</time></trkpt><trkpt lat="45.1675056" lon="8.243984"><ele>183.0</ele><time>2026-05-04T16:28:25.279Z</time></trkpt><trkpt lat="45.1674938" lon="8.2438401"><ele>183.0</ele><time>2026-05-04T16:28:26.278Z</time></trkpt><trkpt lat="45.167484" lon="8.2436916"><ele>183.0</ele><time>2026-05-04T16:28:27.27Z</time></trkpt><trkpt lat="45.1674751" lon="8.2435493"><ele>182.8</ele><time>2026-05-04T16:28:28.271Z</time></trkpt><trkpt lat="45.1674666" lon="8.2434068"><ele>182.60000000000002</ele><time>2026-05-04T16:28:29.273Z</time></trkpt><trkpt lat="45.1674618" lon="8.2432647"><ele>182.39999999999998</ele><time>2026-05-04T16:28:30.271Z</time></trkpt><trkpt lat="45.1674554" lon="8.2431221"><ele>182.2</ele><time>2026-05-04T16:28:31.274Z</time></trkpt><trkpt lat="45.1674517" lon="8.2429806"><ele>182.0</ele><time>2026-05-04T16:28:32.277Z</time></trkpt><trkpt lat="45.1674414" lon="8.2428434"><ele>182.0</ele><time>2026-05-04T16:28:33.272Z</time></trkpt><trkpt lat="45.1674236" lon="8.24272"><ele>182.0</ele><time>2026-05-04T16:28:34.28Z</time></trkpt><trkpt lat="45.1674057" lon="8.2426002"><ele>182.0</ele><time>2026-05-04T16:28:35.282Z</time></trkpt><trkpt lat="45.1673893" lon="8.2424819"><ele>182.0</ele><time>2026-05-04T16:28:36.27Z</time></trkpt><trkpt lat="45.167361" lon="8.2423648"><ele>182.0</ele><time>2026-05-04T16:28:37.271Z</time></trkpt><trkpt lat="45.1673373" lon="8.2422528"><ele>182.0</ele><time>2026-05-04T16:28:38.276Z</time></trkpt><trkpt lat="45.1673159" lon="8.2421458"><ele>177.5</ele><time>2026-05-04T16:28:39.273Z</time></trkpt><trkpt lat="45.167299" lon="8.2420361"><ele>173.0</ele><time>2026-05-04T16:28:40.274Z</time></trkpt><trkpt lat="45.1672823" lon="8.2419213"><ele>168.5</ele><time>2026-05-04T16:28:41.283Z</time></trkpt><trkpt lat="45.1672795" lon="8.2418131"><ele>164.0</ele><time>2026-05-04T16:28:42.278Z</time></trkpt><trkpt lat="45.1672777" lon="8.2417207"><ele>159.5</ele><time>2026-05-04T16:28:43.274Z</time></trkpt><trkpt lat="45.1672731" lon="8.2415566"><ele>155.0</ele><time>2026-05-04T16:28:45.277Z</time></trkpt><trkpt lat="45.1672278" lon="8.2414382"><ele>155.0</ele><time>2026-05-04T16:28:47.277Z</time></trkpt><trkpt lat="45.1671551" lon="8.2414106"><ele>155.0</ele><time>2026-05-04T16:28:49.275Z</time></trkpt><trkpt lat="45.167074" lon="8.2414426"><ele>155.0</ele><time>2026-05-04T16:28:51.278Z</time></trkpt><trkpt lat="45.1670442" lon="8.2415686"><ele>155.0</ele><time>2026-05-04T16:28:53.274Z</time></trkpt><trkpt lat="45.1670452" lon="8.2416609"><ele>155.0</ele><time>2026-05-04T16:28:54.274Z</time></trkpt><trkpt lat="45.1670457" lon="8.2417685"><ele>155.0</ele><time>2026-05-04T16:28:55.282Z</time></trkpt><trkpt lat="45.1670477" lon="8.241883"><ele>155.0</ele><time>2026-05-04T16:28:56.283Z</time></trkpt><trkpt lat="45.1670454" lon="8.2419973"><ele>155.0</ele><time>2026-05-04T16:28:57.273Z</time></trkpt><trkpt lat="45.1670366" lon="8.2421136"><ele>155.0</ele><time>2026-05-04T16:28:58.276Z</time></trkpt><trkpt lat="45.1670283" lon="8.2422311"><ele>155.0</ele><time>2026-05-04T16:28:59.27Z</time></trkpt><trkpt lat="45.1670155" lon="8.2423399"><ele>155.0</ele><time>2026-05-04T16:29:00.275Z</time></trkpt><trkpt lat="45.1669999" lon="8.2424489"><ele>155.0</ele><time>2026-05-04T16:29:01.281Z</time></trkpt><trkpt lat="45.1669782" lon="8.2425545"><ele>155.8</ele><time>2026-05-04T16:29:02.277Z</time></trkpt><trkpt lat="45.1669518" lon="8.242655"><ele>156.6</ele><time>2026-05-04T16:29:03.276Z</time></trkpt><trkpt lat="45.1669205" lon="8.2427494"><ele>157.4</ele><time>2026-05-04T16:29:04.277Z</time></trkpt><trkpt lat="45.1668844" lon="8.2428354"><ele>158.2</ele><time>2026-05-04T16:29:05.276Z</time></trkpt><trkpt lat="45.1668134" lon="8.2429689"><ele>159.0</ele><time>2026-05-04T16:29:07.274Z</time></trkpt><trkpt lat="45.1667065" lon="8.2430388"><ele>159.0</ele><time>2026-05-04T16:29:09.274Z</time></trkpt><trkpt lat="45.1665786" lon="8.2430292"><ele>159.0</ele><time>2026-05-04T16:29:11.276Z</time></trkpt><trkpt lat="45.1664715" lon="8.2429579"><ele>159.0</ele><time>2026-05-04T16:29:13.271Z</time></trkpt><trkpt lat="45.1664168" lon="8.2428113"><ele>159.0</ele><time>2026-05-04T16:29:15.278Z</time></trkpt><trkpt lat="45.1664172" lon="8.2427161"><ele>159.0</ele><time>2026-05-04T16:29:16.28Z</time></trkpt><trkpt lat="45.1664335" lon="8.2426075"><ele>159.5</ele><time>2026-05-04T16:29:17.279Z</time></trkpt><trkpt lat="45.1664556" lon="8.2424918"><ele>160.0</ele><time>2026-05-04T16:29:18.271Z</time></trkpt><trkpt lat="45.166476" lon="8.2423816"><ele>160.5</ele><time>2026-05-04T16:29:19.28Z</time></trkpt><trkpt lat="45.1664924" lon="8.242276"><ele>161.0</ele><time>2026-05-04T16:29:20.275Z</time></trkpt><trkpt lat="45.1665064" lon="8.242176"><ele>161.5</ele><time>2026-05-04T16:29:21.278Z</time></trkpt><trkpt lat="45.1665268" lon="8.2420598"><ele>162.0</ele><time>2026-05-04T16:29:22.273Z</time></trkpt><trkpt lat="45.1665478" lon="8.2419355"><ele>160.6</ele><time>2026-05-04T16:29:23.277Z</time></trkpt><trkpt lat="45.1665706" lon="8.2418025"><ele>159.2</ele><time>2026-05-04T16:29:24.282Z</time></trkpt><trkpt lat="45.1665994" lon="8.2416678"><ele>157.8</ele><time>2026-05-04T16:29:25.282Z</time></trkpt><trkpt lat="45.1666262" lon="8.2415401"><ele>156.4</ele><time>2026-05-04T16:29:26.276Z</time></trkpt><trkpt lat="45.1666531" lon="8.2414133"><ele>155.0</ele><time>2026-05-04T16:29:27.281Z</time></trkpt><trkpt lat="45.1666759" lon="8.2412908"><ele>154.2</ele><time>2026-05-04T16:29:28.277Z</time></trkpt><trkpt lat="45.166702" lon="8.2411668"><ele>153.4</ele><time>2026-05-04T16:29:29.276Z</time></trkpt><trkpt lat="45.1667294" lon="8.2410398"><ele>152.6</ele><time>2026-05-04T16:29:30.282Z</time></trkpt><trkpt lat="45.1667571" lon="8.2409047"><ele>151.8</ele><time>2026-05-04T16:29:31.277Z</time></trkpt><trkpt lat="45.1667868" lon="8.2407699"><ele>151.0</ele><time>2026-05-04T16:29:32.278Z</time></trkpt><trkpt lat="45.1668126" lon="8.2406377"><ele>150.16666666666669</ele><time>2026-05-04T16:29:33.283Z</time></trkpt><trkpt lat="45.1668344" lon="8.2405133"><ele>149.33333333333334</ele><time>2026-05-04T16:29:34.276Z</time></trkpt><trkpt lat="45.1668523" lon="8.2403927"><ele>148.5</ele><time>2026-05-04T16:29:35.277Z</time></trkpt><trkpt lat="45.1668651" lon="8.240278"><ele>147.66666666666666</ele><time>2026-05-04T16:29:36.274Z</time></trkpt><trkpt lat="45.1668686" lon="8.2401576"><ele>146.83333333333331</ele><time>2026-05-04T16:29:37.275Z</time></trkpt><trkpt lat="45.1668664" lon="8.2400412"><ele>146.0</ele><time>2026-05-04T16:29:38.275Z</time></trkpt><trkpt lat="45.1668577" lon="8.2399231"><ele>146.33333333333331</ele><time>2026-05-04T16:29:39.28Z</time></trkpt><trkpt lat="45.1668473" lon="8.2397927"><ele>146.66666666666666</ele><time>2026-05-04T16:29:40.282Z</time></trkpt><trkpt lat="45.166838" lon="8.2396675"><ele>147.0</ele><time>2026-05-04T16:29:41.275Z</time></trkpt><trkpt lat="45.1668327" lon="8.2395502"><ele>147.33333333333334</ele><time>2026-05-04T16:29:42.278Z</time></trkpt><trkpt lat="45.1668209" lon="8.2394512"><ele>147.66666666666669</ele><time>2026-05-04T16:29:43.278Z</time></trkpt><trkpt lat="45.1667884" lon="8.2393202"><ele>148.0</ele><time>2026-05-04T16:29:45.274Z</time></trkpt><trkpt lat="45.1667163" lon="8.2392875"><ele>148.0</ele><time>2026-05-04T16:29:47.276Z</time></trkpt><trkpt lat="45.1665886" lon="8.2393665"><ele>148.0</ele><time>2026-05-04T16:29:49.279Z</time></trkpt><trkpt lat="45.1665011" lon="8.2394432"><ele>148.0</ele><time>2026-05-04T16:29:50.278Z</time></trkpt><trkpt lat="45.166413" lon="8.2395406"><ele>148.0</ele><time>2026-05-04T16:29:51.274Z</time></trkpt><trkpt lat="45.1663398" lon="8.2396512"><ele>148.33333333333334</ele><time>2026-05-04T16:29:52.269Z</time></trkpt><trkpt lat="45.1662845" lon="8.2397525"><ele>148.66666666666669</ele><time>2026-05-04T16:29:53.276Z</time></trkpt><trkpt lat="45.1662348" lon="8.2398276"><ele>149.0</ele><time>2026-05-04T16:29:54.275Z</time></trkpt><trkpt lat="45.1661608" lon="8.2398623"><ele>149.33333333333334</ele><time>2026-05-04T16:29:55.273Z</time></trkpt><trkpt lat="45.1660761" lon="8.2398493"><ele>149.66666666666666</ele><time>2026-05-04T16:29:56.282Z</time></trkpt><trkpt lat="45.1659871" lon="8.2398219"><ele>150.0</ele><time>2026-05-04T16:29:57.276Z</time></trkpt><trkpt lat="45.1658857" lon="8.2397979"><ele>152.4</ele><time>2026-05-04T16:29:58.278Z</time></trkpt><trkpt lat="45.1657789" lon="8.2397865"><ele>154.8</ele><time>2026-05-04T16:29:59.272Z</time></trkpt><trkpt lat="45.1656612" lon="8.2397891"><ele>157.2</ele><time>2026-05-04T16:30:00.282Z</time></trkpt><trkpt lat="45.1655521" lon="8.2398041"><ele>159.6</ele><time>2026-05-04T16:30:01.274Z</time></trkpt><trkpt lat="45.1654583" lon="8.2398156"><ele>162.0</ele><time>2026-05-04T16:30:02.28Z</time></trkpt><trkpt lat="45.1653699" lon="8.2398286"><ele>162.0</ele><time>2026-05-04T16:30:03.276Z</time></trkpt><trkpt lat="45.1652907" lon="8.2398481"><ele>162.0</ele><time>2026-05-04T16:30:04.278Z</time></trkpt><trkpt lat="45.165222" lon="8.2399153"><ele>162.0</ele><time>2026-05-04T16:30:05.277Z</time></trkpt><trkpt lat="45.1651588" lon="8.2399786"><ele>162.0</ele><time>2026-05-04T16:30:06.275Z</time></trkpt><trkpt lat="45.1650996" lon="8.2400351"><ele>162.0</ele><time>2026-05-04T16:30:07.279Z</time></trkpt><trkpt lat="45.1650239" lon="8.240079"><ele>162.0</ele><time>2026-05-04T16:30:08.279Z</time></trkpt><trkpt lat="45.1649377" lon="8.2400999"><ele>161.33333333333334</ele><time>2026-05-04T16:30:09.274Z</time></trkpt><trkpt lat="45.1648545" lon="8.2401206"><ele>160.66666666666666</ele><time>2026-05-04T16:30:10.279Z</time></trkpt><trkpt lat="45.1647778" lon="8.240131"><ele>160.0</ele><time>2026-05-04T16:30:11.274Z</time></trkpt><trkpt lat="45.1647008" lon="8.2401402"><ele>159.33333333333331</ele><time>2026-05-04T16:30:12.275Z</time></trkpt><trkpt lat="45.1646252" lon="8.2400872"><ele>158.66666666666666</ele><time>2026-05-04T16:30:13.283Z</time></trkpt><trkpt lat="45.1645423" lon="8.2400187"><ele>158.0</ele><time>2026-05-04T16:30:14.269Z</time></trkpt><trkpt lat="45.1644545" lon="8.2399514"><ele>158.0</ele><time>2026-05-04T16:30:15.28Z</time></trkpt><trkpt lat="45.1643672" lon="8.2398869"><ele>158.0</ele><time>2026-05-04T16:30:16.277Z</time></trkpt><trkpt lat="45.1642885" lon="8.2398346"><ele>158.0</ele><time>2026-05-04T16:30:17.275Z</time></trkpt><trkpt lat="45.1642057" lon="8.239802"><ele>158.0</ele><time>2026-05-04T16:30:18.273Z</time></trkpt><trkpt lat="45.1641248" lon="8.2397944"><ele>158.0</ele><time>2026-05-04T16:30:19.275Z</time></trkpt><trkpt lat="45.1640456" lon="8.239786"><ele>158.0</ele><time>2026-05-04T16:30:20.278Z</time></trkpt><trkpt lat="45.1639723" lon="8.2397462"><ele>160.0</ele><time>2026-05-04T16:30:21.28Z</time></trkpt><trkpt lat="45.1639074" lon="8.2396817"><ele>162.0</ele><time>2026-05-04T16:30:22.273Z</time></trkpt><trkpt lat="45.1638519" lon="8.2395986"><ele>164.0</ele><time>2026-05-04T16:30:23.274Z</time></trkpt><trkpt lat="45.1637941" lon="8.2395049"><ele>166.0</ele><time>2026-05-04T16:30:24.278Z</time></trkpt><trkpt lat="45.1637362" lon="8.2394026"><ele>168.0</ele><time>2026-05-04T16:30:25.274Z</time></trkpt><trkpt lat="45.1636686" lon="8.2393058"><ele>170.0</ele><time>2026-05-04T16:30:26.277Z</time></trkpt><trkpt lat="45.1636086" lon="8.2392249"><ele>170.0</ele><time>2026-05-04T16:30:27.274Z</time></trkpt><trkpt lat="45.1635521" lon="8.2391676"><ele>170.0</ele><time>2026-05-04T16:30:28.271Z</time></trkpt><trkpt lat="45.1634392" lon="8.239164"><ele>170.0</ele><time>2026-05-04T16:30:30.273Z</time></trkpt><trkpt lat="45.1633878" lon="8.2392183"><ele>170.0</ele><time>2026-05-04T16:30:31.276Z</time></trkpt><trkpt lat="45.1632931" lon="8.239314"><ele>170.0</ele><time>2026-05-04T16:30:33.278Z</time></trkpt><trkpt lat="45.163172" lon="8.2392649"><ele>170.5</ele><time>2026-05-04T16:30:35.274Z</time></trkpt><trkpt lat="45.1631143" lon="8.2391974"><ele>171.0</ele><time>2026-05-04T16:30:36.278Z</time></trkpt><trkpt lat="45.1630485" lon="8.2391188"><ele>171.5</ele><time>2026-05-04T16:30:37.27Z</time></trkpt><trkpt lat="45.1629646" lon="8.2390439"><ele>172.0</ele><time>2026-05-04T16:30:38.281Z</time></trkpt><trkpt lat="45.1628859" lon="8.2389711"><ele>172.5</ele><time>2026-05-04T16:30:39.271Z</time></trkpt><trkpt lat="45.1628037" lon="8.238916"><ele>173.0</ele><time>2026-05-04T16:30:40.272Z</time></trkpt><trkpt lat="45.1627136" lon="8.238883"><ele>175.66666666666666</ele><time>2026-05-04T16:30:41.29Z</time></trkpt><trkpt lat="45.1626213" lon="8.2388711"><ele>178.33333333333331</ele><time>2026-05-04T16:30:42.274Z</time></trkpt><trkpt lat="45.1625383" lon="8.2388531"><ele>181.0</ele><time>2026-05-04T16:30:43.282Z</time></trkpt><trkpt lat="45.1624634" lon="8.2388189"><ele>183.66666666666666</ele><time>2026-05-04T16:30:44.275Z</time></trkpt><trkpt lat="45.1624011" lon="8.2387673"><ele>186.33333333333334</ele><time>2026-05-04T16:30:45.274Z</time></trkpt><trkpt lat="45.1623445" lon="8.2386786"><ele>189.0</ele><time>2026-05-04T16:30:46.281Z</time></trkpt><trkpt lat="45.1622933" lon="8.2385867"><ele>189.0</ele><time>2026-05-04T16:30:47.269Z</time></trkpt><trkpt lat="45.1622327" lon="8.2385082"><ele>189.0</ele><time>2026-05-04T16:30:48.275Z</time></trkpt><trkpt lat="45.1621695" lon="8.2384613"><ele>189.0</ele><time>2026-05-04T16:30:49.272Z</time></trkpt><trkpt lat="45.1621023" lon="8.2384214"><ele>189.0</ele><time>2026-05-04T16:30:50.268Z</time></trkpt><trkpt lat="45.1620186" lon="8.2384028"><ele>189.0</ele><time>2026-05-04T16:30:51.288Z</time></trkpt><trkpt lat="45.1619235" lon="8.2383904"><ele>189.0</ele><time>2026-05-04T16:30:52.277Z</time></trkpt><trkpt lat="45.1618261" lon="8.2383762"><ele>189.0</ele><time>2026-05-04T16:30:53.286Z</time></trkpt><trkpt lat="45.1617218" lon="8.2383688"><ele>189.0</ele><time>2026-05-04T16:30:54.278Z</time></trkpt><trkpt lat="45.1616203" lon="8.2383788"><ele>189.0</ele><time>2026-05-04T16:30:55.278Z</time></trkpt><trkpt lat="45.1615223" lon="8.2383959"><ele>189.0</ele><time>2026-05-04T16:30:56.284Z</time></trkpt><trkpt lat="45.1614343" lon="8.2384093"><ele>189.0</ele><time>2026-05-04T16:30:57.275Z</time></trkpt><trkpt lat="45.1613562" lon="8.2384255"><ele>189.2</ele><time>2026-05-04T16:30:58.28Z</time></trkpt><trkpt lat="45.1612482" lon="8.2384069"><ele>189.39999999999998</ele><time>2026-05-04T16:31:00.274Z</time></trkpt><trkpt lat="45.1612326" lon="8.2382624"><ele>189.6</ele><time>2026-05-04T16:31:02.279Z</time></trkpt><trkpt lat="45.1612879" lon="8.238134"><ele>189.8</ele><time>2026-05-04T16:31:04.28Z</time></trkpt><trkpt lat="45.161416" lon="8.2381009"><ele>190.0</ele><time>2026-05-04T16:31:06.28Z</time></trkpt><trkpt lat="45.1615064" lon="8.2380692"><ele>191.8</ele><time>2026-05-04T16:31:07.275Z</time></trkpt><trkpt lat="45.1615992" lon="8.2380096"><ele>193.6</ele><time>2026-05-04T16:31:08.276Z</time></trkpt><trkpt lat="45.1616867" lon="8.2379378"><ele>195.39999999999998</ele><time>2026-05-04T16:31:09.28Z</time></trkpt><trkpt lat="45.1617685" lon="8.2378619"><ele>197.2</ele><time>2026-05-04T16:31:10.274Z</time></trkpt><trkpt lat="45.1618407" lon="8.237803"><ele>199.0</ele><time>2026-05-04T16:31:11.28Z</time></trkpt><trkpt lat="45.1619053" lon="8.237782"><ele>198.99999999999997</ele><time>2026-05-04T16:31:12.282Z</time></trkpt><trkpt lat="45.1619731" lon="8.2377894"><ele>199.0</ele><time>2026-05-04T16:31:13.272Z</time></trkpt><trkpt lat="45.1620337" lon="8.2378155"><ele>199.0</ele><time>2026-05-04T16:31:14.274Z</time></trkpt><trkpt lat="45.1620921" lon="8.2378498"><ele>199.0</ele><time>2026-05-04T16:31:15.28Z</time></trkpt><trkpt lat="45.1622148" lon="8.2379071"><ele>198.99999999999997</ele><time>2026-05-04T16:31:17.272Z</time></trkpt><trkpt lat="45.1622897" lon="8.2378907"><ele>199.0</ele><time>2026-05-04T16:31:18.271Z</time></trkpt><trkpt lat="45.1623863" lon="8.2378488"><ele>200.0</ele><time>2026-05-04T16:31:19.276Z</time></trkpt><trkpt lat="45.1624794" lon="8.2377892"><ele>201.0</ele><time>2026-05-04T16:31:20.274Z</time></trkpt><trkpt lat="45.1625643" lon="8.2377305"><ele>202.0</ele><time>2026-05-04T16:31:21.274Z</time></trkpt><trkpt lat="45.1626376" lon="8.2376685"><ele>203.0</ele><time>2026-05-04T16:31:22.282Z</time></trkpt><trkpt lat="45.1627012" lon="8.2375724"><ele>204.0</ele><time>2026-05-04T16:31:23.28Z</time></trkpt><trkpt lat="45.1627507" lon="8.2374639"><ele>204.0</ele><time>2026-05-04T16:31:24.274Z</time></trkpt><trkpt lat="45.162798" lon="8.2373639"><ele>204.0</ele><time>2026-05-04T16:31:25.28Z</time></trkpt><trkpt lat="45.162852" lon="8.2372773"><ele>204.0</ele><time>2026-05-04T16:31:26.275Z</time></trkpt><trkpt lat="45.1629207" lon="8.2372414"><ele>204.0</ele><time>2026-05-04T16:31:27.276Z</time></trkpt><trkpt lat="45.1629899" lon="8.2372077"><ele>204.0</ele><time>2026-05-04T16:31:28.278Z</time></trkpt><trkpt lat="45.1630498" lon="8.2372496"><ele>204.0</ele><time>2026-05-04T16:31:29.273Z</time></trkpt><trkpt lat="45.1631051" lon="8.2373236"><ele>204.0</ele><time>2026-05-04T16:31:30.273Z</time></trkpt><trkpt lat="45.1631606" lon="8.237404"><ele>204.0</ele><time>2026-05-04T16:31:31.272Z</time></trkpt><trkpt lat="45.1632052" lon="8.2374856"><ele>204.0</ele><time>2026-05-04T16:31:32.276Z</time></trkpt><trkpt lat="45.1632618" lon="8.2375499"><ele>204.0</ele><time>2026-05-04T16:31:33.286Z</time></trkpt><trkpt lat="45.1633241" lon="8.2375931"><ele>204.0</ele><time>2026-05-04T16:31:34.277Z</time></trkpt><trkpt lat="45.1634373" lon="8.2375922"><ele>204.0</ele><time>2026-05-04T16:31:36.276Z</time></trkpt><trkpt lat="45.163505" lon="8.2375045"><ele>204.79999999999998</ele><time>2026-05-04T16:31:38.295Z</time></trkpt><trkpt lat="45.1635143" lon="8.2373806"><ele>205.6</ele><time>2026-05-04T16:31:40.278Z</time></trkpt><trkpt lat="45.1634263" lon="8.2372621"><ele>206.4</ele><time>2026-05-04T16:31:42.276Z</time></trkpt><trkpt lat="45.1633442" lon="8.2372241"><ele>207.2</ele><time>2026-05-04T16:31:43.276Z</time></trkpt><trkpt lat="45.1632388" lon="8.23716"><ele>208.0</ele><time>2026-05-04T16:31:44.274Z</time></trkpt><trkpt lat="45.1631478" lon="8.2370697"><ele>209.60000000000002</ele><time>2026-05-04T16:31:45.279Z</time></trkpt><trkpt lat="45.1630584" lon="8.2369863"><ele>211.20000000000002</ele><time>2026-05-04T16:31:46.284Z</time></trkpt><trkpt lat="45.1629729" lon="8.2369065"><ele>212.8</ele><time>2026-05-04T16:31:47.276Z</time></trkpt><trkpt lat="45.1628741" lon="8.2368778"><ele>214.4</ele><time>2026-05-04T16:31:48.284Z</time></trkpt><trkpt lat="45.162778" lon="8.2368641"><ele>216.0</ele><time>2026-05-04T16:31:49.268Z</time></trkpt><trkpt lat="45.1626734" lon="8.2368751"><ele>216.0</ele><time>2026-05-04T16:31:50.275Z</time></trkpt><trkpt lat="45.1625679" lon="8.2368952"><ele>216.0</ele><time>2026-05-04T16:31:51.273Z</time></trkpt><trkpt lat="45.1624699" lon="8.2369093"><ele>216.0</ele><time>2026-05-04T16:31:52.28Z</time></trkpt><trkpt lat="45.1623849" lon="8.2369206"><ele>216.0</ele><time>2026-05-04T16:31:53.274Z</time></trkpt><trkpt lat="45.162311" lon="8.2369145"><ele>216.0</ele><time>2026-05-04T16:31:54.277Z</time></trkpt><trkpt lat="45.1622466" lon="8.2368756"><ele>216.0</ele><time>2026-05-04T16:31:55.276Z</time></trkpt><trkpt lat="45.1621744" lon="8.23681"><ele>216.8</ele><time>2026-05-04T16:31:56.28Z</time></trkpt><trkpt lat="45.1620979" lon="8.2367092"><ele>217.60000000000002</ele><time>2026-05-04T16:31:57.274Z</time></trkpt><trkpt lat="45.1620178" lon="8.2366102"><ele>218.4</ele><time>2026-05-04T16:31:58.274Z</time></trkpt><trkpt lat="45.16194" lon="8.2365079"><ele>219.2</ele><time>2026-05-04T16:31:59.287Z</time></trkpt><trkpt lat="45.1618748" lon="8.2364078"><ele>220.0</ele><time>2026-05-04T16:32:00.275Z</time></trkpt><trkpt lat="45.161811" lon="8.2363054"><ele>220.0</ele><time>2026-05-04T16:32:01.287Z</time></trkpt><trkpt lat="45.1617594" lon="8.2362035"><ele>220.0</ele><time>2026-05-04T16:32:02.275Z</time></trkpt><trkpt lat="45.1617097" lon="8.2361033"><ele>220.0</ele><time>2026-05-04T16:32:03.273Z</time></trkpt><trkpt lat="45.1616872" lon="8.2359774"><ele>220.0</ele><time>2026-05-04T16:32:04.274Z</time></trkpt><trkpt lat="45.1616723" lon="8.2358344"><ele>220.0</ele><time>2026-05-04T16:32:05.271Z</time></trkpt><trkpt lat="45.1616579" lon="8.235681"><ele>220.4</ele><time>2026-05-04T16:32:06.272Z</time></trkpt><trkpt lat="45.1616433" lon="8.2355291"><ele>220.8</ele><time>2026-05-04T16:32:07.279Z</time></trkpt><trkpt lat="45.1616296" lon="8.2353921"><ele>221.2</ele><time>2026-05-04T16:32:08.277Z</time></trkpt><trkpt lat="45.1616082" lon="8.2352782"><ele>221.6</ele><time>2026-05-04T16:32:09.276Z</time></trkpt><trkpt lat="45.1615903" lon="8.2351842"><ele>222.0</ele><time>2026-05-04T16:32:10.277Z</time></trkpt><trkpt lat="45.1615139" lon="8.2350956"><ele>222.0</ele><time>2026-05-04T16:32:12.274Z</time></trkpt><trkpt lat="45.1613793" lon="8.2350989"><ele>222.0</ele><time>2026-05-04T16:32:14.271Z</time></trkpt><trkpt lat="45.1612961" lon="8.2351401"><ele>222.0</ele><time>2026-05-04T16:32:15.279Z</time></trkpt><trkpt lat="45.1612177" lon="8.2351855"><ele>222.0</ele><time>2026-05-04T16:32:16.277Z</time></trkpt><trkpt lat="45.1611454" lon="8.2352156"><ele>222.0</ele><time>2026-05-04T16:32:17.274Z</time></trkpt><trkpt lat="45.1610387" lon="8.2352144"><ele>222.0</ele><time>2026-05-04T16:32:19.277Z</time></trkpt><trkpt lat="45.1609587" lon="8.2351264"><ele>222.0</ele><time>2026-05-04T16:32:21.275Z</time></trkpt><trkpt lat="45.1609272" lon="8.2349538"><ele>222.0</ele><time>2026-05-04T16:32:23.276Z</time></trkpt><trkpt lat="45.1609316" lon="8.2347932"><ele>222.0</ele><time>2026-05-04T16:32:24.274Z</time></trkpt><trkpt lat="45.1609395" lon="8.2346193"><ele>223.5</ele><time>2026-05-04T16:32:25.275Z</time></trkpt><trkpt lat="45.1609402" lon="8.2344394"><ele>225.0</ele><time>2026-05-04T16:32:26.286Z</time></trkpt><trkpt lat="45.160939" lon="8.2342436"><ele>226.5</ele><time>2026-05-04T16:32:27.284Z</time></trkpt><trkpt lat="45.1609352" lon="8.23405"><ele>228.0</ele><time>2026-05-04T16:32:28.276Z</time></trkpt><trkpt lat="45.1609345" lon="8.2338595"><ele>230.0</ele><time>2026-05-04T16:32:29.281Z</time></trkpt><trkpt lat="45.160934" lon="8.2336798"><ele>232.0</ele><time>2026-05-04T16:32:30.274Z</time></trkpt><trkpt lat="45.1609327" lon="8.2335091"><ele>234.0</ele><time>2026-05-04T16:32:31.277Z</time></trkpt><trkpt lat="45.1609253" lon="8.2333538"><ele>236.0</ele><time>2026-05-04T16:32:32.275Z</time></trkpt><trkpt lat="45.1609089" lon="8.2331992"><ele>235.8</ele><time>2026-05-04T16:32:33.275Z</time></trkpt><trkpt lat="45.1608757" lon="8.2330564"><ele>235.60000000000002</ele><time>2026-05-04T16:32:34.281Z</time></trkpt><trkpt lat="45.1608303" lon="8.2329157"><ele>235.4</ele><time>2026-05-04T16:32:35.277Z</time></trkpt><trkpt lat="45.1607808" lon="8.2327741"><ele>235.2</ele><time>2026-05-04T16:32:36.277Z</time></trkpt><trkpt lat="45.1607349" lon="8.2326265"><ele>235.0</ele><time>2026-05-04T16:32:37.274Z</time></trkpt><trkpt lat="45.1606928" lon="8.2324672"><ele>235.0</ele><time>2026-05-04T16:32:38.274Z</time></trkpt><trkpt lat="45.1606481" lon="8.2323075"><ele>235.0</ele><time>2026-05-04T16:32:39.274Z</time></trkpt><trkpt lat="45.1605998" lon="8.2321602"><ele>235.0</ele><time>2026-05-04T16:32:40.278Z</time></trkpt><trkpt lat="45.1605521" lon="8.232016"><ele>235.0</ele><time>2026-05-04T16:32:41.276Z</time></trkpt><trkpt lat="45.1604867" lon="8.231885"><ele>237.25</ele><time>2026-05-04T16:32:42.282Z</time></trkpt><trkpt lat="45.1604112" lon="8.2317694"><ele>239.5</ele><time>2026-05-04T16:32:43.274Z</time></trkpt><trkpt lat="45.1603255" lon="8.2316611"><ele>241.75</ele><time>2026-05-04T16:32:44.282Z</time></trkpt><trkpt lat="45.1602335" lon="8.2315591"><ele>244.0</ele><time>2026-05-04T16:32:45.28Z</time></trkpt><trkpt lat="45.1601407" lon="8.2314547"><ele>245.75</ele><time>2026-05-04T16:32:46.277Z</time></trkpt><trkpt lat="45.1600486" lon="8.2313455"><ele>247.5</ele><time>2026-05-04T16:32:47.288Z</time></trkpt><trkpt lat="45.159955" lon="8.231231"><ele>249.25</ele><time>2026-05-04T16:32:48.276Z</time></trkpt><trkpt lat="45.1598675" lon="8.2311247"><ele>251.0</ele><time>2026-05-04T16:32:49.271Z</time></trkpt><trkpt lat="45.1597918" lon="8.2310253"><ele>251.0</ele><time>2026-05-04T16:32:50.276Z</time></trkpt><trkpt lat="45.1597313" lon="8.2309326"><ele>251.00000000000003</ele><time>2026-05-04T16:32:51.276Z</time></trkpt><trkpt lat="45.1596964" lon="8.2308508"><ele>251.00000000000003</ele><time>2026-05-04T16:32:52.278Z</time></trkpt><trkpt lat="45.1596893" lon="8.230703"><ele>251.0</ele><time>2026-05-04T16:32:54.275Z</time></trkpt><trkpt lat="45.1597584" lon="8.2305817"><ele>251.0</ele><time>2026-05-04T16:32:56.277Z</time></trkpt><trkpt lat="45.1598551" lon="8.2305139"><ele>251.60000000000002</ele><time>2026-05-04T16:32:58.28Z</time></trkpt><trkpt lat="45.1599746" lon="8.2305667"><ele>252.20000000000002</ele><time>2026-05-04T16:33:00.297Z</time></trkpt><trkpt lat="45.1600372" lon="8.2306594"><ele>252.79999999999998</ele><time>2026-05-04T16:33:01.275Z</time></trkpt><trkpt lat="45.1601038" lon="8.2307799"><ele>253.39999999999998</ele><time>2026-05-04T16:33:02.284Z</time></trkpt><trkpt lat="45.1601588" lon="8.2308876"><ele>254.0</ele><time>2026-05-04T16:33:03.282Z</time></trkpt><trkpt lat="45.1602062" lon="8.230987"><ele>254.0</ele><time>2026-05-04T16:33:04.278Z</time></trkpt><trkpt lat="45.1602517" lon="8.2310619"><ele>254.0</ele><time>2026-05-04T16:33:05.286Z</time></trkpt><trkpt lat="45.1603122" lon="8.2310942"><ele>254.0</ele><time>2026-05-04T16:33:06.279Z</time></trkpt><trkpt lat="45.1603783" lon="8.2311083"><ele>254.0</ele><time>2026-05-04T16:33:07.299Z</time></trkpt><trkpt lat="45.1604472" lon="8.231114"><ele>254.0</ele><time>2026-05-04T16:33:08.278Z</time></trkpt><trkpt lat="45.1605335" lon="8.231086"><ele>254.0</ele><time>2026-05-04T16:33:09.269Z</time></trkpt><trkpt lat="45.1606182" lon="8.2310537"><ele>254.0</ele><time>2026-05-04T16:33:10.273Z</time></trkpt><trkpt lat="45.1607126" lon="8.2310227"><ele>257.0</ele><time>2026-05-04T16:33:11.27Z</time></trkpt><trkpt lat="45.1608055" lon="8.2310066"><ele>260.0</ele><time>2026-05-04T16:33:12.282Z</time></trkpt><trkpt lat="45.1608956" lon="8.2309991"><ele>263.0</ele><time>2026-05-04T16:33:13.276Z</time></trkpt><trkpt lat="45.1609759" lon="8.2310219"><ele>266.0</ele><time>2026-05-04T16:33:14.279Z</time></trkpt><trkpt lat="45.1610476" lon="8.2310689"><ele>269.0</ele><time>2026-05-04T16:33:15.269Z</time></trkpt><trkpt lat="45.1611219" lon="8.2311506"><ele>272.0</ele><time>2026-05-04T16:33:16.274Z</time></trkpt><trkpt lat="45.1612049" lon="8.2312612"><ele>272.0</ele><time>2026-05-04T16:33:17.277Z</time></trkpt><trkpt lat="45.1612954" lon="8.2314036"><ele>272.0</ele><time>2026-05-04T16:33:18.273Z</time></trkpt><trkpt lat="45.1613854" lon="8.2315524"><ele>272.0</ele><time>2026-05-04T16:33:19.283Z</time></trkpt><trkpt lat="45.1614631" lon="8.2316808"><ele>272.0</ele><time>2026-05-04T16:33:20.274Z</time></trkpt><trkpt lat="45.1615343" lon="8.2317963"><ele>272.6</ele><time>2026-05-04T16:33:21.268Z</time></trkpt><trkpt lat="45.1615982" lon="8.2319021"><ele>273.2</ele><time>2026-05-04T16:33:22.28Z</time></trkpt><trkpt lat="45.1616544" lon="8.2319898"><ele>273.8</ele><time>2026-05-04T16:33:23.27Z</time></trkpt><trkpt lat="45.1617069" lon="8.232058"><ele>274.4</ele><time>2026-05-04T16:33:24.274Z</time></trkpt><trkpt lat="45.1618047" lon="8.2321273"><ele>275.0</ele><time>2026-05-04T16:33:26.279Z</time></trkpt><trkpt lat="45.1618897" lon="8.2320533"><ele>275.0</ele><time>2026-05-04T16:33:28.273Z</time></trkpt><trkpt lat="45.1619523" lon="8.2319868"><ele>275.0</ele><time>2026-05-04T16:33:30.275Z</time></trkpt><trkpt lat="45.1620391" lon="8.2319746"><ele>275.0</ele><time>2026-05-04T16:33:32.273Z</time></trkpt><trkpt lat="45.1621201" lon="8.2319996"><ele>275.0</ele><time>2026-05-04T16:33:33.275Z</time></trkpt><trkpt lat="45.162214" lon="8.2320225"><ele>275.0</ele><time>2026-05-04T16:33:34.277Z</time></trkpt><trkpt lat="45.1623049" lon="8.2320399"><ele>275.0</ele><time>2026-05-04T16:33:35.274Z</time></trkpt><trkpt lat="45.1623871" lon="8.2320541"><ele>275.0</ele><time>2026-05-04T16:33:36.284Z</time></trkpt><trkpt lat="45.1624927" lon="8.2320715"><ele>275.0</ele><time>2026-05-04T16:33:38.278Z</time></trkpt><trkpt lat="45.1625587" lon="8.2320992"><ele>275.0</ele><time>2026-05-04T16:33:41.277Z</time></trkpt><trkpt lat="45.1626018" lon="8.2320159"><ele>275.0</ele><time>2026-05-04T16:34:08.272Z</time></trkpt><trkpt lat="45.1626737" lon="8.2319142"><ele>275.0</ele><time>2026-05-04T16:34:11.278Z</time></trkpt><trkpt lat="45.1627367" lon="8.2318136"><ele>275.0</ele><time>2026-05-04T16:34:13.275Z</time></trkpt><trkpt lat="45.1627902" lon="8.2317058"><ele>275.0</ele><time>2026-05-04T16:34:15.275Z</time></trkpt><trkpt lat="45.1628283" lon="8.2315575"><ele>275.0</ele><time>2026-05-04T16:34:17.27Z</time></trkpt><trkpt lat="45.1628451" lon="8.2314697"><ele>275.0</ele><time>2026-05-04T16:34:18.27Z</time></trkpt><trkpt lat="45.1628669" lon="8.2313498"><ele>275.0</ele><time>2026-05-04T16:34:20.277Z</time></trkpt><trkpt lat="45.1628569" lon="8.2314951"><ele>275.0</ele><time>2026-05-04T16:34:48.275Z</time></trkpt><trkpt lat="45.1628254" lon="8.2316518"><ele>275.0</ele><time>2026-05-04T16:34:50.28Z</time></trkpt><trkpt lat="45.1627879" lon="8.2317419"><ele>275.0</ele><time>2026-05-04T16:34:51.274Z</time></trkpt><trkpt lat="45.162751" lon="8.2318254"><ele>275.0</ele><time>2026-05-04T16:34:52.279Z</time></trkpt><trkpt lat="45.1626933" lon="8.2319189"><ele>275.0</ele><time>2026-05-04T16:34:53.272Z</time></trkpt><trkpt lat="45.1626235" lon="8.2320224"><ele>275.0</ele><time>2026-05-04T16:34:55.288Z</time></trkpt><trkpt lat="45.162525" lon="8.2320677"><ele>275.0</ele><time>2026-05-04T16:34:58.273Z</time></trkpt><trkpt lat="45.1624028" lon="8.2320594"><ele>275.0</ele><time>2026-05-04T16:35:00.272Z</time></trkpt><trkpt lat="45.1623267" lon="8.2320504"><ele>275.0</ele><time>2026-05-04T16:35:01.305Z</time></trkpt><trkpt lat="45.1622407" lon="8.2320397"><ele>275.0</ele><time>2026-05-04T16:35:02.274Z</time></trkpt><trkpt lat="45.162157" lon="8.2320264"><ele>275.0</ele><time>2026-05-04T16:35:03.279Z</time></trkpt><trkpt lat="45.1620857" lon="8.2320134"><ele>275.0</ele><time>2026-05-04T16:35:04.272Z</time></trkpt><trkpt lat="45.1619773" lon="8.2319729"><ele>275.0</ele><time>2026-05-04T16:35:06.285Z</time></trkpt><trkpt lat="45.1619028" lon="8.2318914"><ele>275.0</ele><time>2026-05-04T16:35:08.284Z</time></trkpt><trkpt lat="45.1618314" lon="8.2317429"><ele>275.0</ele><time>2026-05-04T16:35:10.279Z</time></trkpt><trkpt lat="45.1617901" lon="8.2316358"><ele>275.0</ele><time>2026-05-04T16:35:11.276Z</time></trkpt><trkpt lat="45.1617454" lon="8.2315077"><ele>275.0</ele><time>2026-05-04T16:35:12.285Z</time></trkpt><trkpt lat="45.1616999" lon="8.2313766"><ele>275.0</ele><time>2026-05-04T16:35:13.274Z</time></trkpt><trkpt lat="45.161648" lon="8.2312233"><ele>274.25</ele><time>2026-05-04T16:35:14.282Z</time></trkpt><trkpt lat="45.1615941" lon="8.2310661"><ele>273.5</ele><time>2026-05-04T16:35:15.278Z</time></trkpt><trkpt lat="45.1615166" lon="8.2309061"><ele>272.75</ele><time>2026-05-04T16:35:16.271Z</time></trkpt><trkpt lat="45.1614351" lon="8.2307591"><ele>272.0</ele><time>2026-05-04T16:35:17.276Z</time></trkpt><trkpt lat="45.1613581" lon="8.2306251"><ele>274.75</ele><time>2026-05-04T16:35:18.28Z</time></trkpt><trkpt lat="45.1612894" lon="8.2304882"><ele>277.5</ele><time>2026-05-04T16:35:19.277Z</time></trkpt><trkpt lat="45.1612298" lon="8.2303408"><ele>280.25</ele><time>2026-05-04T16:35:20.274Z</time></trkpt><trkpt lat="45.1611756" lon="8.2301851"><ele>283.0</ele><time>2026-05-04T16:35:21.278Z</time></trkpt><trkpt lat="45.1611279" lon="8.2300387"><ele>283.0</ele><time>2026-05-04T16:35:22.28Z</time></trkpt><trkpt lat="45.1610813" lon="8.2299066"><ele>283.0</ele><time>2026-05-04T16:35:23.278Z</time></trkpt><trkpt lat="45.1610359" lon="8.2297775"><ele>283.0</ele><time>2026-05-04T16:35:24.286Z</time></trkpt><trkpt lat="45.1610035" lon="8.229649"><ele>283.0</ele><time>2026-05-04T16:35:25.28Z</time></trkpt><trkpt lat="45.1609687" lon="8.229524"><ele>283.0</ele><time>2026-05-04T16:35:26.273Z</time></trkpt><trkpt lat="45.1609545" lon="8.2293881"><ele>284.4</ele><time>2026-05-04T16:35:27.277Z</time></trkpt><trkpt lat="45.1609523" lon="8.2292531"><ele>285.8</ele><time>2026-05-04T16:35:28.277Z</time></trkpt><trkpt lat="45.1609499" lon="8.2291163"><ele>287.2</ele><time>2026-05-04T16:35:29.282Z</time></trkpt><trkpt lat="45.1609328" lon="8.228992"><ele>288.6</ele><time>2026-05-04T16:35:30.288Z</time></trkpt><trkpt lat="45.1609158" lon="8.2288682"><ele>290.0</ele><time>2026-05-04T16:35:31.28Z</time></trkpt><trkpt lat="45.1608589" lon="8.2287735"><ele>292.2</ele><time>2026-05-04T16:35:32.273Z</time></trkpt><trkpt lat="45.1607868" lon="8.2287037"><ele>294.4</ele><time>2026-05-04T16:35:33.281Z</time></trkpt><trkpt lat="45.160695" lon="8.2286443"><ele>296.6</ele><time>2026-05-04T16:35:34.283Z</time></trkpt><trkpt lat="45.1605903" lon="8.2286032"><ele>298.8</ele><time>2026-05-04T16:35:35.273Z</time></trkpt><trkpt lat="45.1604748" lon="8.2285757"><ele>301.0</ele><time>2026-05-04T16:35:36.278Z</time></trkpt><trkpt lat="45.1603606" lon="8.2285587"><ele>301.0</ele><time>2026-05-04T16:35:37.275Z</time></trkpt><trkpt lat="45.1602567" lon="8.2285405"><ele>301.0</ele><time>2026-05-04T16:35:38.274Z</time></trkpt><trkpt lat="45.160162" lon="8.2285245"><ele>301.0</ele><time>2026-05-04T16:35:39.273Z</time></trkpt><trkpt lat="45.1600869" lon="8.228507"><ele>301.0</ele><time>2026-05-04T16:35:40.271Z</time></trkpt><trkpt lat="45.1600245" lon="8.2284784"><ele>301.0</ele><time>2026-05-04T16:35:41.28Z</time></trkpt><trkpt lat="45.1599401" lon="8.2283302"><ele>301.0</ele><time>2026-05-04T16:35:43.294Z</time></trkpt><trkpt lat="45.1599191" lon="8.2282183"><ele>301.0</ele><time>2026-05-04T16:35:44.276Z</time></trkpt><trkpt lat="45.1598883" lon="8.2281106"><ele>301.0</ele><time>2026-05-04T16:35:45.271Z</time></trkpt><trkpt lat="45.1598471" lon="8.2280138"><ele>301.0</ele><time>2026-05-04T16:35:46.274Z</time></trkpt><trkpt lat="45.1597847" lon="8.2279329"><ele>301.0</ele><time>2026-05-04T16:35:47.281Z</time></trkpt><trkpt lat="45.1597242" lon="8.2278552"><ele>301.0</ele><time>2026-05-04T16:35:48.275Z</time></trkpt><trkpt lat="45.1596463" lon="8.2278113"><ele>305.3333333333333</ele><time>2026-05-04T16:35:49.288Z</time></trkpt><trkpt lat="45.1595666" lon="8.227795"><ele>309.66666666666663</ele><time>2026-05-04T16:35:50.277Z</time></trkpt><trkpt lat="45.159488" lon="8.2277811"><ele>314.0</ele><time>2026-05-04T16:35:51.272Z</time></trkpt><trkpt lat="45.159412" lon="8.2277824"><ele>318.3333333333333</ele><time>2026-05-04T16:35:52.282Z</time></trkpt><trkpt lat="45.1593457" lon="8.2278265"><ele>322.6666666666667</ele><time>2026-05-04T16:35:53.27Z</time></trkpt><trkpt lat="45.1592975" lon="8.2279216"><ele>327.0</ele><time>2026-05-04T16:35:54.274Z</time></trkpt><trkpt lat="45.1592542" lon="8.2280376"><ele>327.40000000000003</ele><time>2026-05-04T16:35:55.275Z</time></trkpt><trkpt lat="45.1592" lon="8.2281523"><ele>327.8</ele><time>2026-05-04T16:35:56.276Z</time></trkpt><trkpt lat="45.1591233" lon="8.2282558"><ele>328.2</ele><time>2026-05-04T16:35:57.282Z</time></trkpt><trkpt lat="45.1590233" lon="8.2283417"><ele>328.6</ele><time>2026-05-04T16:35:58.273Z</time></trkpt><trkpt lat="45.1589142" lon="8.228421"><ele>329.0</ele><time>2026-05-04T16:35:59.279Z</time></trkpt><trkpt lat="45.1588103" lon="8.2284993"><ele>329.0</ele><time>2026-05-04T16:36:00.278Z</time></trkpt><trkpt lat="45.1587184" lon="8.2285648"><ele>329.0</ele><time>2026-05-04T16:36:01.274Z</time></trkpt><trkpt lat="45.1586282" lon="8.2286039"><ele>329.0</ele><time>2026-05-04T16:36:02.272Z</time></trkpt><trkpt lat="45.1585378" lon="8.2286186"><ele>329.0</ele><time>2026-05-04T16:36:03.273Z</time></trkpt><trkpt lat="45.1584392" lon="8.228615"><ele>329.0</ele><time>2026-05-04T16:36:04.278Z</time></trkpt><trkpt lat="45.1583393" lon="8.2286013"><ele>329.0</ele><time>2026-05-04T16:36:05.28Z</time></trkpt><trkpt lat="45.1582405" lon="8.2286005"><ele>329.0</ele><time>2026-05-04T16:36:06.285Z</time></trkpt><trkpt lat="45.1581452" lon="8.2286186"><ele>329.0</ele><time>2026-05-04T16:36:07.282Z</time></trkpt><trkpt lat="45.1580635" lon="8.2286424"><ele>329.0</ele><time>2026-05-04T16:36:08.278Z</time></trkpt><trkpt lat="45.157992" lon="8.2286678"><ele>329.0</ele><time>2026-05-04T16:36:09.284Z</time></trkpt><trkpt lat="45.1578908" lon="8.2287208"><ele>329.0</ele><time>2026-05-04T16:36:11.282Z</time></trkpt><trkpt lat="45.1578913" lon="8.2285954"><ele>329.0</ele><time>2026-05-04T16:36:15.282Z</time></trkpt><trkpt lat="45.1579496" lon="8.2285481"><ele>329.0</ele><time>2026-05-04T16:36:16.287Z</time></trkpt><trkpt lat="45.1580281" lon="8.2285032"><ele>329.0</ele><time>2026-05-04T16:36:17.276Z</time></trkpt><trkpt lat="45.1581312" lon="8.2284538"><ele>329.0</ele><time>2026-05-04T16:36:18.283Z</time></trkpt><trkpt lat="45.1582452" lon="8.2283964"><ele>329.0</ele><time>2026-05-04T16:36:19.283Z</time></trkpt><trkpt lat="45.1583688" lon="8.2283046"><ele>329.0</ele><time>2026-05-04T16:36:20.279Z</time></trkpt><trkpt lat="45.1584923" lon="8.2282111"><ele>329.0</ele><time>2026-05-04T16:36:21.275Z</time></trkpt><trkpt lat="45.158593" lon="8.2281166"><ele>329.0</ele><time>2026-05-04T16:36:22.273Z</time></trkpt><trkpt lat="45.1586797" lon="8.2280025"><ele>329.0</ele><time>2026-05-04T16:36:23.294Z</time></trkpt><trkpt lat="45.1587535" lon="8.2278639"><ele>329.0</ele><time>2026-05-04T16:36:24.278Z</time></trkpt><trkpt lat="45.1588196" lon="8.2277061"><ele>329.0</ele><time>2026-05-04T16:36:25.276Z</time></trkpt><trkpt lat="45.1588758" lon="8.2275362"><ele>329.0</ele><time>2026-05-04T16:36:26.276Z</time></trkpt><trkpt lat="45.1589391" lon="8.2273614"><ele>329.25</ele><time>2026-05-04T16:36:27.275Z</time></trkpt><trkpt lat="45.1590147" lon="8.2271895"><ele>329.5</ele><time>2026-05-04T16:36:28.281Z</time></trkpt><trkpt lat="45.1591004" lon="8.2270239"><ele>329.75</ele><time>2026-05-04T16:36:29.271Z</time></trkpt><trkpt lat="45.1591916" lon="8.226858"><ele>330.0</ele><time>2026-05-04T16:36:30.271Z</time></trkpt><trkpt lat="45.1592892" lon="8.2266874"><ele>330.0</ele><time>2026-05-04T16:36:31.273Z</time></trkpt><trkpt lat="45.1593864" lon="8.2265118"><ele>330.0</ele><time>2026-05-04T16:36:32.272Z</time></trkpt><trkpt lat="45.1594809" lon="8.2263341"><ele>330.0</ele><time>2026-05-04T16:36:33.275Z</time></trkpt><trkpt lat="45.1595694" lon="8.2261504"><ele>326.0</ele><time>2026-05-04T16:36:34.274Z</time></trkpt><trkpt lat="45.1596602" lon="8.2259693"><ele>322.0</ele><time>2026-05-04T16:36:35.274Z</time></trkpt><trkpt lat="45.1597344" lon="8.2257684"><ele>318.0</ele><time>2026-05-04T16:36:36.271Z</time></trkpt><trkpt lat="45.1598006" lon="8.2255675"><ele>319.75</ele><time>2026-05-04T16:36:37.279Z</time></trkpt><trkpt lat="45.1598629" lon="8.2253649"><ele>321.5</ele><time>2026-05-04T16:36:38.281Z</time></trkpt><trkpt lat="45.159913" lon="8.2251683"><ele>323.25</ele><time>2026-05-04T16:36:39.274Z</time></trkpt><trkpt lat="45.1599505" lon="8.2249793"><ele>325.0</ele><time>2026-05-04T16:36:40.269Z</time></trkpt><trkpt lat="45.1599637" lon="8.2247888"><ele>325.0</ele><time>2026-05-04T16:36:41.271Z</time></trkpt><trkpt lat="45.1599559" lon="8.2245973"><ele>325.0</ele><time>2026-05-04T16:36:42.271Z</time></trkpt><trkpt lat="45.159934" lon="8.2244111"><ele>325.0</ele><time>2026-05-04T16:36:43.275Z</time></trkpt><trkpt lat="45.1599163" lon="8.2242357"><ele>325.0</ele><time>2026-05-04T16:36:44.275Z</time></trkpt><trkpt lat="45.1599177" lon="8.2240697"><ele>323.2</ele><time>2026-05-04T16:36:45.276Z</time></trkpt><trkpt lat="45.159945" lon="8.2239159"><ele>321.4</ele><time>2026-05-04T16:36:46.286Z</time></trkpt><trkpt lat="45.1599752" lon="8.2237696"><ele>319.6</ele><time>2026-05-04T16:36:47.279Z</time></trkpt><trkpt lat="45.1599875" lon="8.2236243"><ele>317.8</ele><time>2026-05-04T16:36:48.27Z</time></trkpt><trkpt lat="45.1599675" lon="8.2234766"><ele>316.0</ele><time>2026-05-04T16:36:49.274Z</time></trkpt><trkpt lat="45.1599179" lon="8.223327"><ele>315.5</ele><time>2026-05-04T16:36:50.281Z</time></trkpt><trkpt lat="45.1598515" lon="8.2231725"><ele>315.0</ele><time>2026-05-04T16:36:51.273Z</time></trkpt><trkpt lat="45.1597731" lon="8.2230083"><ele>314.5</ele><time>2026-05-04T16:36:52.276Z</time></trkpt><trkpt lat="45.1596851" lon="8.2228335"><ele>314.0</ele><time>2026-05-04T16:36:53.279Z</time></trkpt><trkpt lat="45.1595935" lon="8.2226435"><ele>314.0</ele><time>2026-05-04T16:36:54.271Z</time></trkpt><trkpt lat="45.1594996" lon="8.2224563"><ele>314.0</ele><time>2026-05-04T16:36:55.278Z</time></trkpt><trkpt lat="45.1594151" lon="8.222273"><ele>314.0</ele><time>2026-05-04T16:36:56.277Z</time></trkpt><trkpt lat="45.1593376" lon="8.2221077"><ele>314.0</ele><time>2026-05-04T16:36:57.272Z</time></trkpt><trkpt lat="45.159278" lon="8.2219405"><ele>314.0</ele><time>2026-05-04T16:36:58.274Z</time></trkpt><trkpt lat="45.159241" lon="8.2217662"><ele>314.0</ele><time>2026-05-04T16:36:59.279Z</time></trkpt><trkpt lat="45.1592292" lon="8.2215826"><ele>314.0</ele><time>2026-05-04T16:37:00.278Z</time></trkpt><trkpt lat="45.1592191" lon="8.2213969"><ele>314.0</ele><time>2026-05-04T16:37:01.271Z</time></trkpt><trkpt lat="45.1592007" lon="8.2212143"><ele>314.0</ele><time>2026-05-04T16:37:02.278Z</time></trkpt><trkpt lat="45.1591793" lon="8.221048"><ele>314.0</ele><time>2026-05-04T16:37:03.273Z</time></trkpt><trkpt lat="45.1591756" lon="8.2209006"><ele>314.0</ele><time>2026-05-04T16:37:04.276Z</time></trkpt><trkpt lat="45.1591914" lon="8.2207608"><ele>313.25</ele><time>2026-05-04T16:37:05.271Z</time></trkpt><trkpt lat="45.1592339" lon="8.2206256"><ele>312.5</ele><time>2026-05-04T16:37:06.277Z</time></trkpt><trkpt lat="45.1592958" lon="8.2204996"><ele>311.75</ele><time>2026-05-04T16:37:07.271Z</time></trkpt><trkpt lat="45.1593744" lon="8.2203731"><ele>311.0</ele><time>2026-05-04T16:37:08.273Z</time></trkpt><trkpt lat="45.1594639" lon="8.2202422"><ele>311.0</ele><time>2026-05-04T16:37:09.278Z</time></trkpt><trkpt lat="45.1595511" lon="8.2201213"><ele>311.0</ele><time>2026-05-04T16:37:10.278Z</time></trkpt><trkpt lat="45.1596226" lon="8.220002"><ele>311.0</ele><time>2026-05-04T16:37:11.283Z</time></trkpt><trkpt lat="45.1596733" lon="8.219866"><ele>311.0</ele><time>2026-05-04T16:37:12.268Z</time></trkpt><trkpt lat="45.1597058" lon="8.2197132"><ele>311.75</ele><time>2026-05-04T16:37:13.275Z</time></trkpt><trkpt lat="45.1597204" lon="8.219549"><ele>312.5</ele><time>2026-05-04T16:37:14.277Z</time></trkpt><trkpt lat="45.1597287" lon="8.2193699"><ele>313.25</ele><time>2026-05-04T16:37:15.27Z</time></trkpt><trkpt lat="45.159733" lon="8.2191833"><ele>314.0</ele><time>2026-05-04T16:37:16.269Z</time></trkpt><trkpt lat="45.1597366" lon="8.2189941"><ele>315.4</ele><time>2026-05-04T16:37:17.27Z</time></trkpt><trkpt lat="45.1597365" lon="8.2188161"><ele>316.79999999999995</ele><time>2026-05-04T16:37:18.28Z</time></trkpt><trkpt lat="45.1597307" lon="8.2186653"><ele>318.20000000000005</ele><time>2026-05-04T16:37:19.283Z</time></trkpt><trkpt lat="45.1597079" lon="8.2185259"><ele>319.6</ele><time>2026-05-04T16:37:20.272Z</time></trkpt><trkpt lat="45.1596683" lon="8.2183853"><ele>321.0</ele><time>2026-05-04T16:37:21.27Z</time></trkpt><trkpt lat="45.1596179" lon="8.2182413"><ele>320.40000000000003</ele><time>2026-05-04T16:37:22.271Z</time></trkpt><trkpt lat="45.1595643" lon="8.2180962"><ele>319.8</ele><time>2026-05-04T16:37:23.283Z</time></trkpt><trkpt lat="45.1595086" lon="8.2179676"><ele>319.20000000000005</ele><time>2026-05-04T16:37:24.277Z</time></trkpt><trkpt lat="45.1594415" lon="8.2178697"><ele>318.6</ele><time>2026-05-04T16:37:25.275Z</time></trkpt><trkpt lat="45.1593661" lon="8.217786"><ele>318.0</ele><time>2026-05-04T16:37:26.275Z</time></trkpt><trkpt lat="45.1592624" lon="8.2177471"><ele>318.0</ele><time>2026-05-04T16:37:27.275Z</time></trkpt><trkpt lat="45.1591415" lon="8.2177188"><ele>318.0</ele><time>2026-05-04T16:37:28.278Z</time></trkpt><trkpt lat="45.1590104" lon="8.2176813"><ele>318.0</ele><time>2026-05-04T16:37:29.279Z</time></trkpt><trkpt lat="45.1588742" lon="8.2176365"><ele>318.0</ele><time>2026-05-04T16:37:30.275Z</time></trkpt><trkpt lat="45.1587351" lon="8.2175845"><ele>319.25</ele><time>2026-05-04T16:37:31.275Z</time></trkpt><trkpt lat="45.1586044" lon="8.2175369"><ele>320.5</ele><time>2026-05-04T16:37:32.273Z</time></trkpt><trkpt lat="45.1584861" lon="8.2174821"><ele>321.75</ele><time>2026-05-04T16:37:33.276Z</time></trkpt><trkpt lat="45.1583763" lon="8.2174079"><ele>323.0</ele><time>2026-05-04T16:37:34.276Z</time></trkpt><trkpt lat="45.1582689" lon="8.2173254"><ele>320.0</ele><time>2026-05-04T16:37:35.28Z</time></trkpt><trkpt lat="45.1581569" lon="8.2172427"><ele>317.0</ele><time>2026-05-04T16:37:36.275Z</time></trkpt><trkpt lat="45.1580405" lon="8.2171728"><ele>314.0</ele><time>2026-05-04T16:37:37.27Z</time></trkpt><trkpt lat="45.1579242" lon="8.2171038"><ele>311.0</ele><time>2026-05-04T16:37:38.284Z</time></trkpt><trkpt lat="45.157785" lon="8.2170677"><ele>311.0</ele><time>2026-05-04T16:37:39.273Z</time></trkpt><trkpt lat="45.1576485" lon="8.2170488"><ele>311.0</ele><time>2026-05-04T16:37:40.276Z</time></trkpt><trkpt lat="45.1575245" lon="8.2170312"><ele>311.0</ele><time>2026-05-04T16:37:41.272Z</time></trkpt><trkpt lat="45.1574046" lon="8.2170013"><ele>311.0</ele><time>2026-05-04T16:37:42.275Z</time></trkpt><trkpt lat="45.1572842" lon="8.2169566"><ele>311.75</ele><time>2026-05-04T16:37:43.282Z</time></trkpt><trkpt lat="45.1571815" lon="8.21687"><ele>312.5</ele><time>2026-05-04T16:37:44.277Z</time></trkpt><trkpt lat="45.157089" lon="8.2167466"><ele>313.25</ele><time>2026-05-04T16:37:45.281Z</time></trkpt><trkpt lat="45.1569954" lon="8.2166014"><ele>314.0</ele><time>2026-05-04T16:37:46.274Z</time></trkpt><trkpt lat="45.1569038" lon="8.2164607"><ele>312.5</ele><time>2026-05-04T16:37:47.282Z</time></trkpt><trkpt lat="45.1568065" lon="8.2163402"><ele>311.0</ele><time>2026-05-04T16:37:48.267Z</time></trkpt><trkpt lat="45.1567111" lon="8.2162376"><ele>309.5</ele><time>2026-05-04T16:37:49.27Z</time></trkpt><trkpt lat="45.1566265" lon="8.2161365"><ele>308.0</ele><time>2026-05-04T16:37:50.283Z</time></trkpt><trkpt lat="45.1565569" lon="8.2160203"><ele>303.0</ele><time>2026-05-04T16:37:51.28Z</time></trkpt><trkpt lat="45.1565063" lon="8.2158832"><ele>298.0</ele><time>2026-05-04T16:37:52.273Z</time></trkpt><trkpt lat="45.1564752" lon="8.2157304"><ele>293.0</ele><time>2026-05-04T16:37:53.278Z</time></trkpt><trkpt lat="45.1564647" lon="8.2155628"><ele>288.0</ele><time>2026-05-04T16:37:54.282Z</time></trkpt><trkpt lat="45.1564614" lon="8.2153908"><ele>289.25</ele><time>2026-05-04T16:37:55.278Z</time></trkpt><trkpt lat="45.1564837" lon="8.2152046"><ele>290.5</ele><time>2026-05-04T16:37:56.273Z</time></trkpt><trkpt lat="45.1565142" lon="8.2150007"><ele>291.75</ele><time>2026-05-04T16:37:57.275Z</time></trkpt><trkpt lat="45.15655" lon="8.2147881"><ele>293.0</ele><time>2026-05-04T16:37:58.272Z</time></trkpt><trkpt lat="45.1565929" lon="8.2145625"><ele>293.0</ele><time>2026-05-04T16:37:59.286Z</time></trkpt><trkpt lat="45.1566303" lon="8.2143349"><ele>293.0</ele><time>2026-05-04T16:38:00.277Z</time></trkpt><trkpt lat="45.1566489" lon="8.2141071"><ele>293.0</ele><time>2026-05-04T16:38:01.28Z</time></trkpt><trkpt lat="45.1566434" lon="8.2138754"><ele>292.0</ele><time>2026-05-04T16:38:02.269Z</time></trkpt><trkpt lat="45.1566113" lon="8.2136542"><ele>291.0</ele><time>2026-05-04T16:38:03.27Z</time></trkpt><trkpt lat="45.156557" lon="8.2134377"><ele>290.0</ele><time>2026-05-04T16:38:04.272Z</time></trkpt><trkpt lat="45.1564857" lon="8.2132231"><ele>294.33333333333337</ele><time>2026-05-04T16:38:05.268Z</time></trkpt><trkpt lat="45.1564008" lon="8.2130144"><ele>298.6666666666667</ele><time>2026-05-04T16:38:06.279Z</time></trkpt><trkpt lat="45.1563076" lon="8.2128045"><ele>303.0</ele><time>2026-05-04T16:38:07.284Z</time></trkpt><trkpt lat="45.1562241" lon="8.2125903"><ele>303.0</ele><time>2026-05-04T16:38:08.283Z</time></trkpt><trkpt lat="45.156147" lon="8.2123876"><ele>303.0</ele><time>2026-05-04T16:38:09.273Z</time></trkpt><trkpt lat="45.1560939" lon="8.2121839"><ele>303.0</ele><time>2026-05-04T16:38:10.28Z</time></trkpt><trkpt lat="45.156047" lon="8.2119858"><ele>300.75</ele><time>2026-05-04T16:38:11.271Z</time></trkpt><trkpt lat="45.1559963" lon="8.2118081"><ele>298.5</ele><time>2026-05-04T16:38:12.269Z</time></trkpt><trkpt lat="45.1559523" lon="8.2116395"><ele>296.25</ele><time>2026-05-04T16:38:13.278Z</time></trkpt><trkpt lat="45.1559533" lon="8.2114589"><ele>294.0</ele><time>2026-05-04T16:38:14.285Z</time></trkpt><trkpt lat="45.1559896" lon="8.2112745"><ele>288.3333333333333</ele><time>2026-05-04T16:38:15.279Z</time></trkpt><trkpt lat="45.1560443" lon="8.2110883"><ele>282.66666666666663</ele><time>2026-05-04T16:38:16.28Z</time></trkpt><trkpt lat="45.1561109" lon="8.2108885"><ele>277.0</ele><time>2026-05-04T16:38:17.277Z</time></trkpt><trkpt lat="45.1561809" lon="8.2106841"><ele>273.3333333333333</ele><time>2026-05-04T16:38:18.274Z</time></trkpt><trkpt lat="45.1562469" lon="8.2104715"><ele>269.6666666666667</ele><time>2026-05-04T16:38:19.275Z</time></trkpt><trkpt lat="45.1563213" lon="8.2102497"><ele>266.0</ele><time>2026-05-04T16:38:20.276Z</time></trkpt><trkpt lat="45.1564001" lon="8.2100209"><ele>262.6666666666667</ele><time>2026-05-04T16:38:21.285Z</time></trkpt><trkpt lat="45.1564746" lon="8.2097915"><ele>259.3333333333333</ele><time>2026-05-04T16:38:22.279Z</time></trkpt><trkpt lat="45.1565386" lon="8.209555"><ele>256.0</ele><time>2026-05-04T16:38:23.282Z</time></trkpt><trkpt lat="45.1565894" lon="8.2093106"><ele>261.0</ele><time>2026-05-04T16:38:24.28Z</time></trkpt><trkpt lat="45.1566351" lon="8.2090667"><ele>266.0</ele><time>2026-05-04T16:38:25.276Z</time></trkpt><trkpt lat="45.1566777" lon="8.20882"><ele>271.0</ele><time>2026-05-04T16:38:26.279Z</time></trkpt><trkpt lat="45.1567192" lon="8.208579"><ele>271.0</ele><time>2026-05-04T16:38:27.278Z</time></trkpt><trkpt lat="45.1567716" lon="8.2083517"><ele>271.0</ele><time>2026-05-04T16:38:28.272Z</time></trkpt><trkpt lat="45.1568126" lon="8.2081149"><ele>271.0</ele><time>2026-05-04T16:38:29.277Z</time></trkpt><trkpt lat="45.156841" lon="8.2078743"><ele>269.66666666666663</ele><time>2026-05-04T16:38:30.281Z</time></trkpt><trkpt lat="45.1568539" lon="8.2076352"><ele>268.3333333333333</ele><time>2026-05-04T16:38:31.282Z</time></trkpt><trkpt lat="45.1568607" lon="8.2074034"><ele>267.0</ele><time>2026-05-04T16:38:32.278Z</time></trkpt><trkpt lat="45.15687" lon="8.2071861"><ele>267.0</ele><time>2026-05-04T16:38:33.279Z</time></trkpt><trkpt lat="45.1568695" lon="8.2069849"><ele>267.0</ele><time>2026-05-04T16:38:34.282Z</time></trkpt><trkpt lat="45.1568521" lon="8.2068076"><ele>267.0</ele><time>2026-05-04T16:38:35.28Z</time></trkpt><trkpt lat="45.1568096" lon="8.2066533"><ele>267.0</ele><time>2026-05-04T16:38:36.285Z</time></trkpt><trkpt lat="45.1567388" lon="8.2065218"><ele>267.0</ele><time>2026-05-04T16:38:37.271Z</time></trkpt><trkpt lat="45.1566415" lon="8.2064126"><ele>267.0</ele><time>2026-05-04T16:38:38.27Z</time></trkpt><trkpt lat="45.1565342" lon="8.2062971"><ele>267.0</ele><time>2026-05-04T16:38:39.284Z</time></trkpt><trkpt lat="45.1564098" lon="8.2062046"><ele>267.0</ele><time>2026-05-04T16:38:40.281Z</time></trkpt><trkpt lat="45.1562844" lon="8.2060995"><ele>267.0</ele><time>2026-05-04T16:38:41.287Z</time></trkpt><trkpt lat="45.1561738" lon="8.2059863"><ele>267.0</ele><time>2026-05-04T16:38:42.286Z</time></trkpt><trkpt lat="45.1560807" lon="8.2058625"><ele>267.0</ele><time>2026-05-04T16:38:43.274Z</time></trkpt><trkpt lat="45.1559915" lon="8.2057291"><ele>267.0</ele><time>2026-05-04T16:38:44.278Z</time></trkpt><trkpt lat="45.1559055" lon="8.2055933"><ele>266.25</ele><time>2026-05-04T16:38:45.28Z</time></trkpt><trkpt lat="45.1557963" lon="8.2054878"><ele>265.5</ele><time>2026-05-04T16:38:46.277Z</time></trkpt><trkpt lat="45.1556804" lon="8.2054041"><ele>264.75</ele><time>2026-05-04T16:38:47.27Z</time></trkpt><trkpt lat="45.1555665" lon="8.2053374"><ele>264.0</ele><time>2026-05-04T16:38:48.277Z</time></trkpt><trkpt lat="45.1554613" lon="8.2052757"><ele>264.0</ele><time>2026-05-04T16:38:49.274Z</time></trkpt><trkpt lat="45.155378" lon="8.2052106"><ele>264.0</ele><time>2026-05-04T16:38:50.284Z</time></trkpt><trkpt lat="45.1553081" lon="8.2051406"><ele>264.0</ele><time>2026-05-04T16:38:51.276Z</time></trkpt><trkpt lat="45.1552709" lon="8.2050564"><ele>264.0</ele><time>2026-05-04T16:38:52.282Z</time></trkpt><trkpt lat="45.1552768" lon="8.2049585"><ele>264.0</ele><time>2026-05-04T16:38:53.273Z</time></trkpt><trkpt lat="45.1553185" lon="8.204856"><ele>264.0</ele><time>2026-05-04T16:38:54.275Z</time></trkpt><trkpt lat="45.1553878" lon="8.2047712"><ele>263.75</ele><time>2026-05-04T16:38:55.276Z</time></trkpt><trkpt lat="45.1554891" lon="8.204699"><ele>263.5</ele><time>2026-05-04T16:38:56.279Z</time></trkpt><trkpt lat="45.155601" lon="8.2046224"><ele>263.25</ele><time>2026-05-04T16:38:57.278Z</time></trkpt><trkpt lat="45.1557305" lon="8.204556"><ele>263.0</ele><time>2026-05-04T16:38:58.28Z</time></trkpt><trkpt lat="45.1558637" lon="8.2044627"><ele>263.0</ele><time>2026-05-04T16:38:59.283Z</time></trkpt><trkpt lat="45.1559984" lon="8.2043372"><ele>263.0</ele><time>2026-05-04T16:39:00.281Z</time></trkpt><trkpt lat="45.1561301" lon="8.2041824"><ele>263.0</ele><time>2026-05-04T16:39:01.282Z</time></trkpt><trkpt lat="45.1562477" lon="8.2039945"><ele>259.33333333333337</ele><time>2026-05-04T16:39:02.272Z</time></trkpt><trkpt lat="45.1563555" lon="8.2037922"><ele>255.66666666666669</ele><time>2026-05-04T16:39:03.278Z</time></trkpt><trkpt lat="45.1564706" lon="8.2035795"><ele>252.0</ele><time>2026-05-04T16:39:04.277Z</time></trkpt><trkpt lat="45.1565859" lon="8.2033739"><ele>256.3333333333333</ele><time>2026-05-04T16:39:05.273Z</time></trkpt><trkpt lat="45.1567058" lon="8.2031756"><ele>260.66666666666663</ele><time>2026-05-04T16:39:06.275Z</time></trkpt><trkpt lat="45.1568381" lon="8.2030029"><ele>265.0</ele><time>2026-05-04T16:39:07.276Z</time></trkpt><trkpt lat="45.1569818" lon="8.2028476"><ele>265.0</ele><time>2026-05-04T16:39:08.273Z</time></trkpt><trkpt lat="45.1571271" lon="8.2026994"><ele>265.0</ele><time>2026-05-04T16:39:09.28Z</time></trkpt><trkpt lat="45.1572558" lon="8.2025597"><ele>265.0</ele><time>2026-05-04T16:39:10.277Z</time></trkpt><trkpt lat="45.1573806" lon="8.2024034"><ele>267.66666666666663</ele><time>2026-05-04T16:39:11.274Z</time></trkpt><trkpt lat="45.1574917" lon="8.2022305"><ele>270.3333333333333</ele><time>2026-05-04T16:39:12.273Z</time></trkpt><trkpt lat="45.157603" lon="8.2020499"><ele>273.0</ele><time>2026-05-04T16:39:13.293Z</time></trkpt><trkpt lat="45.1577129" lon="8.201871"><ele>273.0</ele><time>2026-05-04T16:39:14.283Z</time></trkpt><trkpt lat="45.1578152" lon="8.2016976"><ele>273.0</ele><time>2026-05-04T16:39:15.278Z</time></trkpt><trkpt lat="45.1579177" lon="8.2015338"><ele>273.0</ele><time>2026-05-04T16:39:16.275Z</time></trkpt><trkpt lat="45.1580189" lon="8.2013768"><ele>274.0</ele><time>2026-05-04T16:39:17.277Z</time></trkpt><trkpt lat="45.1581171" lon="8.2012152"><ele>275.0</ele><time>2026-05-04T16:39:18.282Z</time></trkpt><trkpt lat="45.1582132" lon="8.2010392"><ele>276.0</ele><time>2026-05-04T16:39:19.278Z</time></trkpt><trkpt lat="45.1583011" lon="8.2008508"><ele>274.0</ele><time>2026-05-04T16:39:20.274Z</time></trkpt><trkpt lat="45.158379" lon="8.2006522"><ele>272.0</ele><time>2026-05-04T16:39:21.277Z</time></trkpt><trkpt lat="45.1584467" lon="8.2004355"><ele>270.0</ele><time>2026-05-04T16:39:22.273Z</time></trkpt><trkpt lat="45.1585074" lon="8.2002152"><ele>270.0</ele><time>2026-05-04T16:39:23.282Z</time></trkpt><trkpt lat="45.1585617" lon="8.199997"><ele>270.0</ele><time>2026-05-04T16:39:24.286Z</time></trkpt><trkpt lat="45.1586132" lon="8.1997809"><ele>270.0</ele><time>2026-05-04T16:39:25.283Z</time></trkpt><trkpt lat="45.1586554" lon="8.1995749"><ele>269.75</ele><time>2026-05-04T16:39:26.275Z</time></trkpt><trkpt lat="45.1586839" lon="8.1993728"><ele>269.5</ele><time>2026-05-04T16:39:27.274Z</time></trkpt><trkpt lat="45.1586966" lon="8.1991696"><ele>269.25</ele><time>2026-05-04T16:39:28.269Z</time></trkpt><trkpt lat="45.158686" lon="8.1989623"><ele>269.0</ele><time>2026-05-04T16:39:29.279Z</time></trkpt><trkpt lat="45.1586528" lon="8.1987557"><ele>269.0</ele><time>2026-05-04T16:39:30.286Z</time></trkpt><trkpt lat="45.1586001" lon="8.1985479"><ele>269.0</ele><time>2026-05-04T16:39:31.276Z</time></trkpt><trkpt lat="45.158536" lon="8.1983388"><ele>269.0</ele><time>2026-05-04T16:39:32.282Z</time></trkpt><trkpt lat="45.1584718" lon="8.1981256"><ele>270.33333333333337</ele><time>2026-05-04T16:39:33.275Z</time></trkpt><trkpt lat="45.1584135" lon="8.197904"><ele>271.6666666666667</ele><time>2026-05-04T16:39:34.273Z</time></trkpt><trkpt lat="45.1583624" lon="8.1976743"><ele>273.0</ele><time>2026-05-04T16:39:35.275Z</time></trkpt><trkpt lat="45.1583162" lon="8.1974543"><ele>273.75</ele><time>2026-05-04T16:39:36.277Z</time></trkpt><trkpt lat="45.1582721" lon="8.1972491"><ele>274.5</ele><time>2026-05-04T16:39:37.276Z</time></trkpt><trkpt lat="45.1582281" lon="8.1970541"><ele>275.25</ele><time>2026-05-04T16:39:38.276Z</time></trkpt><trkpt lat="45.1581843" lon="8.1968674"><ele>276.0</ele><time>2026-05-04T16:39:39.275Z</time></trkpt><trkpt lat="45.1581369" lon="8.1966922"><ele>274.5</ele><time>2026-05-04T16:39:40.275Z</time></trkpt><trkpt lat="45.1580734" lon="8.1965229"><ele>273.0</ele><time>2026-05-04T16:39:41.278Z</time></trkpt><trkpt lat="45.1579906" lon="8.1963624"><ele>271.5</ele><time>2026-05-04T16:39:42.276Z</time></trkpt><trkpt lat="45.1578966" lon="8.1962137"><ele>270.0</ele><time>2026-05-04T16:39:43.274Z</time></trkpt><trkpt lat="45.1577945" lon="8.1960846"><ele>270.0</ele><time>2026-05-04T16:39:44.285Z</time></trkpt><trkpt lat="45.1576784" lon="8.1959736"><ele>270.0</ele><time>2026-05-04T16:39:45.282Z</time></trkpt><trkpt lat="45.157553" lon="8.1958801"><ele>270.0</ele><time>2026-05-04T16:39:46.283Z</time></trkpt><trkpt lat="45.1574279" lon="8.1958032"><ele>270.0</ele><time>2026-05-04T16:39:47.276Z</time></trkpt><trkpt lat="45.1573075" lon="8.1957367"><ele>268.75</ele><time>2026-05-04T16:39:48.276Z</time></trkpt><trkpt lat="45.1571984" lon="8.1956788"><ele>267.5</ele><time>2026-05-04T16:39:49.281Z</time></trkpt><trkpt lat="45.1570859" lon="8.1956627"><ele>266.25</ele><time>2026-05-04T16:39:50.283Z</time></trkpt><trkpt lat="45.1569741" lon="8.195675"><ele>265.0</ele><time>2026-05-04T16:39:51.276Z</time></trkpt><trkpt lat="45.1568662" lon="8.1957285"><ele>264.4</ele><time>2026-05-04T16:39:52.274Z</time></trkpt><trkpt lat="45.1567637" lon="8.195809"><ele>263.8</ele><time>2026-05-04T16:39:53.281Z</time></trkpt><trkpt lat="45.1566675" lon="8.1959086"><ele>263.2</ele><time>2026-05-04T16:39:54.276Z</time></trkpt><trkpt lat="45.1565756" lon="8.1959951"><ele>262.6</ele><time>2026-05-04T16:39:55.288Z</time></trkpt><trkpt lat="45.1564889" lon="8.196048"><ele>262.0</ele><time>2026-05-04T16:39:56.278Z</time></trkpt><trkpt lat="45.1564086" lon="8.196087"><ele>260.2</ele><time>2026-05-04T16:39:57.284Z</time></trkpt><trkpt lat="45.1563246" lon="8.1960665"><ele>258.4</ele><time>2026-05-04T16:39:58.284Z</time></trkpt><trkpt lat="45.1562556" lon="8.1959774"><ele>256.6</ele><time>2026-05-04T16:39:59.276Z</time></trkpt><trkpt lat="45.1561773" lon="8.1958581"><ele>254.8</ele><time>2026-05-04T16:40:00.278Z</time></trkpt><trkpt lat="45.1561041" lon="8.1957266"><ele>253.0</ele><time>2026-05-04T16:40:01.274Z</time></trkpt><trkpt lat="45.1560453" lon="8.1955823"><ele>252.25</ele><time>2026-05-04T16:40:02.281Z</time></trkpt><trkpt lat="45.1560044" lon="8.1954163"><ele>251.5</ele><time>2026-05-04T16:40:03.281Z</time></trkpt><trkpt lat="45.1559704" lon="8.1952287"><ele>250.75</ele><time>2026-05-04T16:40:04.281Z</time></trkpt><trkpt lat="45.155933" lon="8.1950283"><ele>250.0</ele><time>2026-05-04T16:40:05.283Z</time></trkpt><trkpt lat="45.155896" lon="8.1948175"><ele>248.5</ele><time>2026-05-04T16:40:06.278Z</time></trkpt><trkpt lat="45.1558581" lon="8.1946164"><ele>247.0</ele><time>2026-05-04T16:40:07.278Z</time></trkpt><trkpt lat="45.1558324" lon="8.1944169"><ele>245.5</ele><time>2026-05-04T16:40:08.273Z</time></trkpt><trkpt lat="45.1558149" lon="8.1942279"><ele>244.0</ele><time>2026-05-04T16:40:09.283Z</time></trkpt><trkpt lat="45.1558107" lon="8.1940558"><ele>243.0</ele><time>2026-05-04T16:40:10.276Z</time></trkpt><trkpt lat="45.1558251" lon="8.1938856"><ele>242.0</ele><time>2026-05-04T16:40:11.289Z</time></trkpt><trkpt lat="45.1558608" lon="8.1937074"><ele>241.0</ele><time>2026-05-04T16:40:12.274Z</time></trkpt><trkpt lat="45.1559159" lon="8.1935191"><ele>240.0</ele><time>2026-05-04T16:40:13.275Z</time></trkpt><trkpt lat="45.1559864" lon="8.1933229"><ele>237.66666666666669</ele><time>2026-05-04T16:40:14.273Z</time></trkpt><trkpt lat="45.1560676" lon="8.1931166"><ele>235.33333333333334</ele><time>2026-05-04T16:40:15.273Z</time></trkpt><trkpt lat="45.1561543" lon="8.1928965"><ele>233.0</ele><time>2026-05-04T16:40:16.278Z</time></trkpt><trkpt lat="45.1562401" lon="8.1926731"><ele>233.0</ele><time>2026-05-04T16:40:17.277Z</time></trkpt><trkpt lat="45.1563292" lon="8.1924418"><ele>233.0</ele><time>2026-05-04T16:40:18.284Z</time></trkpt><trkpt lat="45.1564177" lon="8.1922147"><ele>233.0</ele><time>2026-05-04T16:40:19.275Z</time></trkpt><trkpt lat="45.1565018" lon="8.1919998"><ele>234.0</ele><time>2026-05-04T16:40:20.277Z</time></trkpt><trkpt lat="45.1565814" lon="8.1917963"><ele>235.0</ele><time>2026-05-04T16:40:21.289Z</time></trkpt><trkpt lat="45.156656" lon="8.1916015"><ele>236.0</ele><time>2026-05-04T16:40:22.273Z</time></trkpt><trkpt lat="45.1567273" lon="8.1914192"><ele>236.0</ele><time>2026-05-04T16:40:23.274Z</time></trkpt><trkpt lat="45.156793" lon="8.1912541"><ele>236.0</ele><time>2026-05-04T16:40:24.287Z</time></trkpt><trkpt lat="45.1568511" lon="8.1911046"><ele>236.0</ele><time>2026-05-04T16:40:25.284Z</time></trkpt><trkpt lat="45.1568945" lon="8.1909688"><ele>236.0</ele><time>2026-05-04T16:40:26.277Z</time></trkpt><trkpt lat="45.1569137" lon="8.1908358"><ele>236.0</ele><time>2026-05-04T16:40:27.278Z</time></trkpt><trkpt lat="45.156902" lon="8.1907092"><ele>236.00000000000003</ele><time>2026-05-04T16:40:28.276Z</time></trkpt><trkpt lat="45.1568596" lon="8.1905983"><ele>236.00000000000003</ele><time>2026-05-04T16:40:29.272Z</time></trkpt><trkpt lat="45.1567904" lon="8.1905074"><ele>236.0</ele><time>2026-05-04T16:40:30.282Z</time></trkpt><trkpt lat="45.1567126" lon="8.190409"><ele>236.0</ele><time>2026-05-04T16:40:31.278Z</time></trkpt><trkpt lat="45.1566091" lon="8.1903319"><ele>233.5</ele><time>2026-05-04T16:40:32.275Z</time></trkpt><trkpt lat="45.1564966" lon="8.1902517"><ele>231.0</ele><time>2026-05-04T16:40:33.284Z</time></trkpt><trkpt lat="45.1563852" lon="8.1901617"><ele>228.5</ele><time>2026-05-04T16:40:34.276Z</time></trkpt><trkpt lat="45.1562726" lon="8.1900778"><ele>226.0</ele><time>2026-05-04T16:40:35.274Z</time></trkpt><trkpt lat="45.1561679" lon="8.1899957"><ele>226.0</ele><time>2026-05-04T16:40:36.276Z</time></trkpt><trkpt lat="45.1560705" lon="8.1899191"><ele>226.00000000000003</ele><time>2026-05-04T16:40:37.279Z</time></trkpt><trkpt lat="45.1559857" lon="8.1898514"><ele>226.00000000000003</ele><time>2026-05-04T16:40:38.275Z</time></trkpt><trkpt lat="45.1559191" lon="8.1897861"><ele>226.0</ele><time>2026-05-04T16:40:39.276Z</time></trkpt><trkpt lat="45.1558436" lon="8.1896967"><ele>226.0</ele><time>2026-05-04T16:40:41.283Z</time></trkpt><trkpt lat="45.1557505" lon="8.1896429"><ele>224.25</ele><time>2026-05-04T16:40:49.282Z</time></trkpt><trkpt lat="45.1556038" lon="8.1896174"><ele>222.5</ele><time>2026-05-04T16:40:51.284Z</time></trkpt><trkpt lat="45.1554912" lon="8.1896315"><ele>220.75</ele><time>2026-05-04T16:40:52.278Z</time></trkpt><trkpt lat="45.1553578" lon="8.1896497"><ele>219.0</ele><time>2026-05-04T16:40:53.276Z</time></trkpt><trkpt lat="45.1552073" lon="8.1896714"><ele>219.0</ele><time>2026-05-04T16:40:54.285Z</time></trkpt><trkpt lat="45.1550489" lon="8.1896951"><ele>219.0</ele><time>2026-05-04T16:40:55.279Z</time></trkpt><trkpt lat="45.1549027" lon="8.1897155"><ele>219.0</ele><time>2026-05-04T16:40:56.275Z</time></trkpt><trkpt lat="45.1547599" lon="8.1897366"><ele>219.5</ele><time>2026-05-04T16:40:57.276Z</time></trkpt><trkpt lat="45.1546263" lon="8.1897596"><ele>220.0</ele><time>2026-05-04T16:40:58.28Z</time></trkpt><trkpt lat="45.1545021" lon="8.1897615"><ele>220.5</ele><time>2026-05-04T16:40:59.277Z</time></trkpt><trkpt lat="45.154387" lon="8.1897368"><ele>221.0</ele><time>2026-05-04T16:41:00.278Z</time></trkpt><trkpt lat="45.1542842" lon="8.1896766"><ele>221.0</ele><time>2026-05-04T16:41:01.278Z</time></trkpt><trkpt lat="45.1541909" lon="8.1895836"><ele>221.0</ele><time>2026-05-04T16:41:02.276Z</time></trkpt><trkpt lat="45.1541008" lon="8.1894809"><ele>221.0</ele><time>2026-05-04T16:41:03.281Z</time></trkpt><trkpt lat="45.1540009" lon="8.1893873"><ele>221.0</ele><time>2026-05-04T16:41:04.283Z</time></trkpt><trkpt lat="45.1538851" lon="8.1893294"><ele>221.5</ele><time>2026-05-04T16:41:05.29Z</time></trkpt><trkpt lat="45.1537547" lon="8.189308"><ele>222.0</ele><time>2026-05-04T16:41:06.28Z</time></trkpt><trkpt lat="45.1536114" lon="8.1893115"><ele>222.5</ele><time>2026-05-04T16:41:07.274Z</time></trkpt><trkpt lat="45.1534514" lon="8.1893232"><ele>223.0</ele><time>2026-05-04T16:41:08.28Z</time></trkpt><trkpt lat="45.1532792" lon="8.1893399"><ele>224.66666666666666</ele><time>2026-05-04T16:41:09.283Z</time></trkpt><trkpt lat="45.1531003" lon="8.1893438"><ele>226.33333333333331</ele><time>2026-05-04T16:41:10.279Z</time></trkpt><trkpt lat="45.1529164" lon="8.1893289"><ele>228.0</ele><time>2026-05-04T16:41:11.277Z</time></trkpt><trkpt lat="45.1527239" lon="8.1892946"><ele>228.0</ele><time>2026-05-04T16:41:12.281Z</time></trkpt><trkpt lat="45.152537" lon="8.1892513"><ele>228.0</ele><time>2026-05-04T16:41:13.281Z</time></trkpt><trkpt lat="45.1523637" lon="8.1892142"><ele>228.0</ele><time>2026-05-04T16:41:14.284Z</time></trkpt><trkpt lat="45.1521943" lon="8.1891872"><ele>228.0</ele><time>2026-05-04T16:41:15.281Z</time></trkpt><trkpt lat="45.152017" lon="8.1891736"><ele>228.0</ele><time>2026-05-04T16:41:16.285Z</time></trkpt><trkpt lat="45.1518359" lon="8.189167"><ele>228.0</ele><time>2026-05-04T16:41:17.273Z</time></trkpt><trkpt lat="45.1516529" lon="8.1891555"><ele>227.33333333333331</ele><time>2026-05-04T16:41:18.281Z</time></trkpt><trkpt lat="45.1514671" lon="8.1891443"><ele>226.66666666666666</ele><time>2026-05-04T16:41:19.279Z</time></trkpt><trkpt lat="45.1512792" lon="8.1891289"><ele>226.0</ele><time>2026-05-04T16:41:20.279Z</time></trkpt><trkpt lat="45.1510875" lon="8.1891059"><ele>226.0</ele><time>2026-05-04T16:41:21.277Z</time></trkpt><trkpt lat="45.1508945" lon="8.1890741"><ele>226.0</ele><time>2026-05-04T16:41:22.277Z</time></trkpt><trkpt lat="45.1507027" lon="8.1890357"><ele>226.0</ele><time>2026-05-04T16:41:23.276Z</time></trkpt><trkpt lat="45.1505151" lon="8.1889935"><ele>225.0</ele><time>2026-05-04T16:41:24.274Z</time></trkpt><trkpt lat="45.1503419" lon="8.1889554"><ele>224.0</ele><time>2026-05-04T16:41:25.28Z</time></trkpt><trkpt lat="45.1501828" lon="8.1889298"><ele>223.0</ele><time>2026-05-04T16:41:26.281Z</time></trkpt><trkpt lat="45.1500365" lon="8.1889233"><ele>223.0</ele><time>2026-05-04T16:41:27.283Z</time></trkpt><trkpt lat="45.1498978" lon="8.1889453"><ele>223.0</ele><time>2026-05-04T16:41:28.286Z</time></trkpt><trkpt lat="45.1497639" lon="8.1890007"><ele>223.0</ele><time>2026-05-04T16:41:29.28Z</time></trkpt><trkpt lat="45.1496346" lon="8.1890886"><ele>223.0</ele><time>2026-05-04T16:41:30.281Z</time></trkpt><trkpt lat="45.1495045" lon="8.189204"><ele>224.0</ele><time>2026-05-04T16:41:31.274Z</time></trkpt><trkpt lat="45.1493711" lon="8.1893333"><ele>225.0</ele><time>2026-05-04T16:41:32.281Z</time></trkpt><trkpt lat="45.1492327" lon="8.1894687"><ele>226.0</ele><time>2026-05-04T16:41:33.287Z</time></trkpt><trkpt lat="45.1490932" lon="8.1895955"><ele>226.5</ele><time>2026-05-04T16:41:34.285Z</time></trkpt><trkpt lat="45.1489601" lon="8.1897092"><ele>227.0</ele><time>2026-05-04T16:41:35.27Z</time></trkpt><trkpt lat="45.1488312" lon="8.189805"><ele>227.5</ele><time>2026-05-04T16:41:36.285Z</time></trkpt><trkpt lat="45.1487" lon="8.1898712"><ele>228.0</ele><time>2026-05-04T16:41:37.275Z</time></trkpt><trkpt lat="45.1485704" lon="8.1899014"><ele>228.0</ele><time>2026-05-04T16:41:38.274Z</time></trkpt><trkpt lat="45.1484448" lon="8.1899068"><ele>228.0</ele><time>2026-05-04T16:41:39.274Z</time></trkpt><trkpt lat="45.1483236" lon="8.1899052"><ele>228.0</ele><time>2026-05-04T16:41:40.284Z</time></trkpt><trkpt lat="45.1482035" lon="8.1899043"><ele>228.0</ele><time>2026-05-04T16:41:41.275Z</time></trkpt><trkpt lat="45.1480843" lon="8.1899083"><ele>229.25</ele><time>2026-05-04T16:41:42.279Z</time></trkpt><trkpt lat="45.1479658" lon="8.1899143"><ele>230.5</ele><time>2026-05-04T16:41:43.278Z</time></trkpt><trkpt lat="45.1478453" lon="8.189926"><ele>231.75</ele><time>2026-05-04T16:41:44.285Z</time></trkpt><trkpt lat="45.1477348" lon="8.189931"><ele>233.0</ele><time>2026-05-04T16:41:45.281Z</time></trkpt><trkpt lat="45.1476292" lon="8.1899352"><ele>233.00000000000003</ele><time>2026-05-04T16:41:46.278Z</time></trkpt><trkpt lat="45.1475356" lon="8.189936"><ele>233.0</ele><time>2026-05-04T16:41:47.273Z</time></trkpt><trkpt lat="45.1474471" lon="8.1899381"><ele>233.0</ele><time>2026-05-04T16:41:48.277Z</time></trkpt><trkpt lat="45.1473705" lon="8.1899304"><ele>233.0</ele><time>2026-05-04T16:41:49.274Z</time></trkpt><trkpt lat="45.1473099" lon="8.1899025"><ele>233.00000000000003</ele><time>2026-05-04T16:41:50.282Z</time></trkpt><trkpt lat="45.1473104" lon="8.1898118"><ele>233.0</ele><time>2026-05-04T16:41:53.279Z</time></trkpt><trkpt lat="45.1474185" lon="8.1897768"><ele>231.00000000000003</ele><time>2026-05-04T16:41:55.28Z</time></trkpt><trkpt lat="45.1475013" lon="8.1897462"><ele>229.0</ele><time>2026-05-04T16:41:56.282Z</time></trkpt><trkpt lat="45.1475873" lon="8.1897102"><ele>227.0</ele><time>2026-05-04T16:41:57.285Z</time></trkpt><trkpt lat="45.147673" lon="8.1896697"><ele>225.0</ele><time>2026-05-04T16:41:58.281Z</time></trkpt><trkpt lat="45.1477578" lon="8.1896289"><ele>223.00000000000003</ele><time>2026-05-04T16:41:59.274Z</time></trkpt><trkpt lat="45.1478407" lon="8.1895858"><ele>221.0</ele><time>2026-05-04T16:42:00.285Z</time></trkpt><trkpt lat="45.1479226" lon="8.1895425"><ele>221.00000000000003</ele><time>2026-05-04T16:42:01.279Z</time></trkpt><trkpt lat="45.1479997" lon="8.1895005"><ele>221.0</ele><time>2026-05-04T16:42:02.283Z</time></trkpt><trkpt lat="45.1480708" lon="8.1894506"><ele>221.0</ele><time>2026-05-04T16:42:03.283Z</time></trkpt><trkpt lat="45.1481403" lon="8.1893886"><ele>221.0</ele><time>2026-05-04T16:42:04.278Z</time></trkpt><trkpt lat="45.1482024" lon="8.1893263"><ele>221.00000000000003</ele><time>2026-05-04T16:42:05.275Z</time></trkpt><trkpt lat="45.1482637" lon="8.1892534"><ele>221.0</ele><time>2026-05-04T16:42:06.28Z</time></trkpt><trkpt lat="45.1483283" lon="8.1891695"><ele>220.60000000000002</ele><time>2026-05-04T16:42:07.271Z</time></trkpt><trkpt lat="45.148394" lon="8.1890701"><ele>220.20000000000002</ele><time>2026-05-04T16:42:08.281Z</time></trkpt><trkpt lat="45.1484542" lon="8.1889655"><ele>219.79999999999998</ele><time>2026-05-04T16:42:09.279Z</time></trkpt><trkpt lat="45.1485114" lon="8.1888585"><ele>219.39999999999998</ele><time>2026-05-04T16:42:10.27Z</time></trkpt><trkpt lat="45.1485695" lon="8.1887483"><ele>219.0</ele><time>2026-05-04T16:42:11.282Z</time></trkpt><trkpt lat="45.1486287" lon="8.1886373"><ele>216.0</ele><time>2026-05-04T16:42:12.288Z</time></trkpt><trkpt lat="45.1486902" lon="8.1885263"><ele>212.99999999999997</ele><time>2026-05-04T16:42:13.278Z</time></trkpt><trkpt lat="45.1487523" lon="8.1884218"><ele>210.0</ele><time>2026-05-04T16:42:14.285Z</time></trkpt><trkpt lat="45.1488106" lon="8.1883229"><ele>207.0</ele><time>2026-05-04T16:42:15.278Z</time></trkpt><trkpt lat="45.148862" lon="8.1882212"><ele>204.0</ele><time>2026-05-04T16:42:16.282Z</time></trkpt><trkpt lat="45.1489062" lon="8.1881226"><ele>202.66666666666666</ele><time>2026-05-04T16:42:17.277Z</time></trkpt><trkpt lat="45.1489503" lon="8.1880387"><ele>201.33333333333331</ele><time>2026-05-04T16:42:18.277Z</time></trkpt><trkpt lat="45.1489755" lon="8.1879109"><ele>200.0</ele><time>2026-05-04T16:42:20.279Z</time></trkpt><trkpt lat="45.1489181" lon="8.1878579"><ele>198.66666666666666</ele><time>2026-05-04T16:42:22.282Z</time></trkpt><trkpt lat="45.1488406" lon="8.1879283"><ele>197.33333333333331</ele><time>2026-05-04T16:42:24.284Z</time></trkpt><trkpt lat="45.1487993" lon="8.1879995"><ele>196.0</ele><time>2026-05-04T16:42:25.274Z</time></trkpt><trkpt lat="45.1487032" lon="8.1881086"><ele>195.99999999999997</ele><time>2026-05-04T16:42:27.283Z</time></trkpt><trkpt lat="45.1486389" lon="8.188147"><ele>196.0</ele><time>2026-05-04T16:42:28.274Z</time></trkpt><trkpt lat="45.1485619" lon="8.1881889"><ele>196.0</ele><time>2026-05-04T16:42:29.286Z</time></trkpt><trkpt lat="45.1484884" lon="8.1882284"><ele>196.0</ele><time>2026-05-04T16:42:30.278Z</time></trkpt><trkpt lat="45.1484148" lon="8.188257"><ele>195.99999999999997</ele><time>2026-05-04T16:42:31.274Z</time></trkpt><trkpt lat="45.1483413" lon="8.1882905"><ele>196.0</ele><time>2026-05-04T16:42:32.272Z</time></trkpt><trkpt lat="45.1482658" lon="8.1883126"><ele>195.99999999999997</ele><time>2026-05-04T16:42:33.274Z</time></trkpt><trkpt lat="45.1481982" lon="8.1883306"><ele>196.0</ele><time>2026-05-04T16:42:34.281Z</time></trkpt><trkpt lat="45.1480911" lon="8.1883396"><ele>196.0</ele><time>2026-05-04T16:42:36.28Z</time></trkpt><trkpt lat="45.1480304" lon="8.1882918"><ele>196.0</ele><time>2026-05-04T16:42:38.28Z</time></trkpt><trkpt lat="45.148055" lon="8.1881849"><ele>195.99999999999997</ele><time>2026-05-04T16:42:40.274Z</time></trkpt><trkpt lat="45.1481525" lon="8.1880856"><ele>196.0</ele><time>2026-05-04T16:42:42.282Z</time></trkpt><trkpt lat="45.1482388" lon="8.1879883"><ele>196.0</ele><time>2026-05-04T16:42:44.277Z</time></trkpt><trkpt lat="45.1482206" lon="8.187886"><ele>196.0</ele><time>2026-05-04T16:42:46.271Z</time></trkpt><trkpt lat="45.1481528" lon="8.1878502"><ele>196.0</ele><time>2026-05-04T16:42:48.278Z</time></trkpt><trkpt lat="45.1480375" lon="8.1878544"><ele>196.0</ele><time>2026-05-04T16:42:50.271Z</time></trkpt><trkpt lat="45.1479366" lon="8.1877921"><ele>196.0</ele><time>2026-05-04T16:42:52.271Z</time></trkpt><trkpt lat="45.1478886" lon="8.1876999"><ele>196.4</ele><time>2026-05-04T16:42:53.278Z</time></trkpt><trkpt lat="45.1478476" lon="8.1875908"><ele>196.8</ele><time>2026-05-04T16:42:54.276Z</time></trkpt><trkpt lat="45.1478036" lon="8.1874747"><ele>197.20000000000002</ele><time>2026-05-04T16:42:55.28Z</time></trkpt><trkpt lat="45.1477689" lon="8.1873585"><ele>197.60000000000002</ele><time>2026-05-04T16:42:56.275Z</time></trkpt><trkpt lat="45.147735" lon="8.1872357"><ele>198.0</ele><time>2026-05-04T16:42:57.283Z</time></trkpt><trkpt lat="45.1477149" lon="8.1871017"><ele>196.2</ele><time>2026-05-04T16:42:58.285Z</time></trkpt><trkpt lat="45.1476889" lon="8.186966"><ele>194.4</ele><time>2026-05-04T16:42:59.278Z</time></trkpt><trkpt lat="45.147656" lon="8.1868212"><ele>192.6</ele><time>2026-05-04T16:43:00.275Z</time></trkpt><trkpt lat="45.1476179" lon="8.1866805"><ele>190.79999999999998</ele><time>2026-05-04T16:43:01.286Z</time></trkpt><trkpt lat="45.147584" lon="8.1865524"><ele>189.0</ele><time>2026-05-04T16:43:02.278Z</time></trkpt><trkpt lat="45.1475803" lon="8.186413"><ele>188.16666666666666</ele><time>2026-05-04T16:43:03.28Z</time></trkpt><trkpt lat="45.1475662" lon="8.1862855"><ele>187.33333333333334</ele><time>2026-05-04T16:43:04.275Z</time></trkpt><trkpt lat="45.1475759" lon="8.1861463"><ele>186.5</ele><time>2026-05-04T16:43:05.28Z</time></trkpt><trkpt lat="45.1475921" lon="8.1860104"><ele>185.66666666666669</ele><time>2026-05-04T16:43:06.277Z</time></trkpt><trkpt lat="45.1476084" lon="8.1858998"><ele>184.83333333333334</ele><time>2026-05-04T16:43:07.278Z</time></trkpt><trkpt lat="45.1476227" lon="8.1857992"><ele>184.0</ele><time>2026-05-04T16:43:08.287Z</time></trkpt><trkpt lat="45.1476538" lon="8.1857201"><ele>184.79999999999998</ele><time>2026-05-04T16:43:09.278Z</time></trkpt><trkpt lat="45.1477011" lon="8.1856391"><ele>185.6</ele><time>2026-05-04T16:43:10.279Z</time></trkpt><trkpt lat="45.1477708" lon="8.1855526"><ele>186.4</ele><time>2026-05-04T16:43:11.274Z</time></trkpt><trkpt lat="45.1478471" lon="8.1854539"><ele>187.2</ele><time>2026-05-04T16:43:12.315Z</time></trkpt><trkpt lat="45.1479208" lon="8.1853504"><ele>188.0</ele><time>2026-05-04T16:43:13.275Z</time></trkpt><trkpt lat="45.1479965" lon="8.1852447"><ele>188.0</ele><time>2026-05-04T16:43:14.271Z</time></trkpt><trkpt lat="45.1480767" lon="8.1851516"><ele>188.0</ele><time>2026-05-04T16:43:15.279Z</time></trkpt><trkpt lat="45.1481623" lon="8.1850757"><ele>188.0</ele><time>2026-05-04T16:43:16.267Z</time></trkpt><trkpt lat="45.148241" lon="8.1850052"><ele>188.0</ele><time>2026-05-04T16:43:17.286Z</time></trkpt><trkpt lat="45.148331" lon="8.1849323"><ele>188.0</ele><time>2026-05-04T16:43:18.277Z</time></trkpt><trkpt lat="45.1484131" lon="8.1848603"><ele>187.66666666666666</ele><time>2026-05-04T16:43:19.284Z</time></trkpt><trkpt lat="45.1484886" lon="8.1847893"><ele>187.33333333333331</ele><time>2026-05-04T16:43:20.278Z</time></trkpt><trkpt lat="45.1485605" lon="8.1847298"><ele>187.0</ele><time>2026-05-04T16:43:21.277Z</time></trkpt><trkpt lat="45.1486373" lon="8.1846886"><ele>186.66666666666666</ele><time>2026-05-04T16:43:22.275Z</time></trkpt><trkpt lat="45.1487169" lon="8.1846618"><ele>186.33333333333334</ele><time>2026-05-04T16:43:23.273Z</time></trkpt><trkpt lat="45.1487953" lon="8.1846621"><ele>186.0</ele><time>2026-05-04T16:43:24.271Z</time></trkpt><trkpt lat="45.1488646" lon="8.1846431"><ele>186.0</ele><time>2026-05-04T16:43:25.279Z</time></trkpt><trkpt lat="45.1489428" lon="8.1846117"><ele>186.0</ele><time>2026-05-04T16:43:26.277Z</time></trkpt><trkpt lat="45.149011" lon="8.1845629"><ele>186.0</ele><time>2026-05-04T16:43:27.28Z</time></trkpt><trkpt lat="45.149076" lon="8.1845042"><ele>186.0</ele><time>2026-05-04T16:43:28.281Z</time></trkpt><trkpt lat="45.1491336" lon="8.1844347"><ele>186.0</ele><time>2026-05-04T16:43:29.272Z</time></trkpt><trkpt lat="45.1491847" lon="8.1843502"><ele>186.0</ele><time>2026-05-04T16:43:30.278Z</time></trkpt><trkpt lat="45.1492317" lon="8.1842472"><ele>184.4</ele><time>2026-05-04T16:43:31.274Z</time></trkpt><trkpt lat="45.1492724" lon="8.1841354"><ele>182.8</ele><time>2026-05-04T16:43:32.289Z</time></trkpt><trkpt lat="45.1493173" lon="8.1840111"><ele>181.20000000000002</ele><time>2026-05-04T16:43:33.282Z</time></trkpt><trkpt lat="45.1493667" lon="8.1838722"><ele>179.60000000000002</ele><time>2026-05-04T16:43:34.27Z</time></trkpt><trkpt lat="45.1494226" lon="8.1837144"><ele>178.0</ele><time>2026-05-04T16:43:35.28Z</time></trkpt><trkpt lat="45.1494774" lon="8.1835467"><ele>178.0</ele><time>2026-05-04T16:43:36.282Z</time></trkpt><trkpt lat="45.1495215" lon="8.1834031"><ele>178.0</ele><time>2026-05-04T16:43:37.281Z</time></trkpt><trkpt lat="45.1495645" lon="8.1832632"><ele>178.0</ele><time>2026-05-04T16:43:38.272Z</time></trkpt><trkpt lat="45.149603" lon="8.1831381"><ele>178.0</ele><time>2026-05-04T16:43:39.285Z</time></trkpt><trkpt lat="45.1496425" lon="8.1830384"><ele>178.0</ele><time>2026-05-04T16:43:40.27Z</time></trkpt><trkpt lat="45.14968" lon="8.1829444"><ele>177.5</ele><time>2026-05-04T16:43:41.283Z</time></trkpt><trkpt lat="45.149711" lon="8.1828547"><ele>177.0</ele><time>2026-05-04T16:43:42.277Z</time></trkpt><trkpt lat="45.1497419" lon="8.1827557"><ele>176.5</ele><time>2026-05-04T16:43:43.282Z</time></trkpt><trkpt lat="45.1497718" lon="8.1826471"><ele>176.0</ele><time>2026-05-04T16:43:44.271Z</time></trkpt><trkpt lat="45.1498017" lon="8.1825343"><ele>175.5</ele><time>2026-05-04T16:43:45.277Z</time></trkpt><trkpt lat="45.1498134" lon="8.1824081"><ele>175.0</ele><time>2026-05-04T16:43:46.275Z</time></trkpt><trkpt lat="45.1498135" lon="8.1822846"><ele>174.8</ele><time>2026-05-04T16:43:47.278Z</time></trkpt><trkpt lat="45.1498071" lon="8.1821462"><ele>174.6</ele><time>2026-05-04T16:43:48.275Z</time></trkpt><trkpt lat="45.1497953" lon="8.1820029"><ele>174.39999999999998</ele><time>2026-05-04T16:43:49.277Z</time></trkpt><trkpt lat="45.1497801" lon="8.181854"><ele>174.2</ele><time>2026-05-04T16:43:50.282Z</time></trkpt><trkpt lat="45.149766" lon="8.1817003"><ele>174.0</ele><time>2026-05-04T16:43:51.283Z</time></trkpt><trkpt lat="45.1497551" lon="8.181549"><ele>173.0</ele><time>2026-05-04T16:43:52.274Z</time></trkpt><trkpt lat="45.1497453" lon="8.1814039"><ele>172.0</ele><time>2026-05-04T16:43:53.279Z</time></trkpt><trkpt lat="45.1497391" lon="8.1812582"><ele>171.0</ele><time>2026-05-04T16:43:54.273Z</time></trkpt><trkpt lat="45.1497344" lon="8.1811116"><ele>170.0</ele><time>2026-05-04T16:43:55.276Z</time></trkpt><trkpt lat="45.1497301" lon="8.1809635"><ele>169.0</ele><time>2026-05-04T16:43:56.284Z</time></trkpt><trkpt lat="45.1497238" lon="8.1808167"><ele>167.2</ele><time>2026-05-04T16:43:57.278Z</time></trkpt><trkpt lat="45.1497153" lon="8.1806759"><ele>165.39999999999998</ele><time>2026-05-04T16:43:58.277Z</time></trkpt><trkpt lat="45.1497046" lon="8.1805547"><ele>163.6</ele><time>2026-05-04T16:43:59.282Z</time></trkpt><trkpt lat="45.1496941" lon="8.1804609"><ele>161.8</ele><time>2026-05-04T16:44:00.282Z</time></trkpt><trkpt lat="45.1496632" lon="8.1803313"><ele>160.0</ele><time>2026-05-04T16:44:02.274Z</time></trkpt><trkpt lat="45.149555" lon="8.1802801"><ele>160.0</ele><time>2026-05-04T16:44:04.273Z</time></trkpt><trkpt lat="45.14947" lon="8.1802713"><ele>160.0</ele><time>2026-05-04T16:44:05.285Z</time></trkpt><trkpt lat="45.1493846" lon="8.1802628"><ele>160.0</ele><time>2026-05-04T16:44:06.279Z</time></trkpt><trkpt lat="45.1492981" lon="8.1802843"><ele>160.0</ele><time>2026-05-04T16:44:07.278Z</time></trkpt><trkpt lat="45.149216" lon="8.1803044"><ele>160.0</ele><time>2026-05-04T16:44:08.275Z</time></trkpt><trkpt lat="45.1491404" lon="8.1803467"><ele>160.0</ele><time>2026-05-04T16:44:09.283Z</time></trkpt><trkpt lat="45.1490842" lon="8.180403"><ele>160.16666666666669</ele><time>2026-05-04T16:44:10.276Z</time></trkpt><trkpt lat="45.1490275" lon="8.1804644"><ele>160.33333333333334</ele><time>2026-05-04T16:44:11.274Z</time></trkpt><trkpt lat="45.14896" lon="8.180519"><ele>160.5</ele><time>2026-05-04T16:44:12.282Z</time></trkpt><trkpt lat="45.1488832" lon="8.1805402"><ele>160.66666666666666</ele><time>2026-05-04T16:44:13.282Z</time></trkpt><trkpt lat="45.1487963" lon="8.1805503"><ele>160.83333333333331</ele><time>2026-05-04T16:44:14.279Z</time></trkpt><trkpt lat="45.148698" lon="8.1805585"><ele>161.0</ele><time>2026-05-04T16:44:15.274Z</time></trkpt><trkpt lat="45.1485788" lon="8.1805539"><ele>161.0</ele><time>2026-05-04T16:44:16.276Z</time></trkpt><trkpt lat="45.1484543" lon="8.1805411"><ele>161.0</ele><time>2026-05-04T16:44:17.284Z</time></trkpt><trkpt lat="45.1483379" lon="8.1805238"><ele>161.0</ele><time>2026-05-04T16:44:18.278Z</time></trkpt><trkpt lat="45.1482247" lon="8.1805007"><ele>161.0</ele><time>2026-05-04T16:44:19.28Z</time></trkpt><trkpt lat="45.1481152" lon="8.1804798"><ele>162.8</ele><time>2026-05-04T16:44:20.268Z</time></trkpt><trkpt lat="45.1480167" lon="8.1804651"><ele>164.60000000000002</ele><time>2026-05-04T16:44:21.27Z</time></trkpt><trkpt lat="45.1479252" lon="8.1804485"><ele>166.4</ele><time>2026-05-04T16:44:22.279Z</time></trkpt><trkpt lat="45.1478284" lon="8.1804279"><ele>168.2</ele><time>2026-05-04T16:44:23.278Z</time></trkpt><trkpt lat="45.1477264" lon="8.1804032"><ele>170.0</ele><time>2026-05-04T16:44:24.284Z</time></trkpt><trkpt lat="45.1476285" lon="8.1803552"><ele>170.0</ele><time>2026-05-04T16:44:25.28Z</time></trkpt><trkpt lat="45.1475351" lon="8.1802991"><ele>170.0</ele><time>2026-05-04T16:44:26.277Z</time></trkpt><trkpt lat="45.1474351" lon="8.1802497"><ele>170.0</ele><time>2026-05-04T16:44:27.273Z</time></trkpt><trkpt lat="45.1473238" lon="8.1802067"><ele>170.0</ele><time>2026-05-04T16:44:28.274Z</time></trkpt><trkpt lat="45.1472162" lon="8.1801566"><ele>170.0</ele><time>2026-05-04T16:44:29.27Z</time></trkpt><trkpt lat="45.1471083" lon="8.1801078"><ele>170.0</ele><time>2026-05-04T16:44:30.278Z</time></trkpt><trkpt lat="45.1470021" lon="8.1800876"><ele>170.0</ele><time>2026-05-04T16:44:31.276Z</time></trkpt><trkpt lat="45.1469055" lon="8.1800669"><ele>170.0</ele><time>2026-05-04T16:44:32.271Z</time></trkpt><trkpt lat="45.1468147" lon="8.1800381"><ele>170.0</ele><time>2026-05-04T16:44:33.276Z</time></trkpt><trkpt lat="45.1467341" lon="8.1800106"><ele>170.0</ele><time>2026-05-04T16:44:34.275Z</time></trkpt><trkpt lat="45.1466613" lon="8.1799745"><ele>170.0</ele><time>2026-05-04T16:44:35.276Z</time></trkpt><trkpt lat="45.1465904" lon="8.1799397"><ele>170.0</ele><time>2026-05-04T16:44:36.289Z</time></trkpt><trkpt lat="45.1465206" lon="8.1799208"><ele>170.0</ele><time>2026-05-04T16:44:37.276Z</time></trkpt><trkpt lat="45.1464468" lon="8.1799286"><ele>170.0</ele><time>2026-05-04T16:44:38.279Z</time></trkpt><trkpt lat="45.1463767" lon="8.1799529"><ele>170.0</ele><time>2026-05-04T16:44:39.277Z</time></trkpt><trkpt lat="45.1462962" lon="8.1799858"><ele>170.0</ele><time>2026-05-04T16:44:40.276Z</time></trkpt><trkpt lat="45.1462115" lon="8.1800304"><ele>169.4</ele><time>2026-05-04T16:44:41.274Z</time></trkpt><trkpt lat="45.1461218" lon="8.1800892"><ele>168.8</ele><time>2026-05-04T16:44:42.277Z</time></trkpt><trkpt lat="45.1460301" lon="8.1801624"><ele>168.2</ele><time>2026-05-04T16:44:43.275Z</time></trkpt><trkpt lat="45.1459424" lon="8.1802322"><ele>167.6</ele><time>2026-05-04T16:44:44.282Z</time></trkpt><trkpt lat="45.1458589" lon="8.1802987"><ele>167.0</ele><time>2026-05-04T16:44:45.275Z</time></trkpt><trkpt lat="45.1457717" lon="8.1803572"><ele>166.8</ele><time>2026-05-04T16:44:46.285Z</time></trkpt><trkpt lat="45.1456742" lon="8.1804103"><ele>166.6</ele><time>2026-05-04T16:44:47.27Z</time></trkpt><trkpt lat="45.1455705" lon="8.1804669"><ele>166.4</ele><time>2026-05-04T16:44:48.281Z</time></trkpt><trkpt lat="45.1454645" lon="8.1805133"><ele>166.20000000000002</ele><time>2026-05-04T16:44:49.275Z</time></trkpt><trkpt lat="45.1453687" lon="8.1805579"><ele>166.0</ele><time>2026-05-04T16:44:50.271Z</time></trkpt><trkpt lat="45.1452793" lon="8.1805948"><ele>166.0</ele><time>2026-05-04T16:44:51.279Z</time></trkpt><trkpt lat="45.1451959" lon="8.1806214"><ele>166.0</ele><time>2026-05-04T16:44:52.272Z</time></trkpt><trkpt lat="45.1451202" lon="8.180638"><ele>166.0</ele><time>2026-05-04T16:44:53.28Z</time></trkpt><trkpt lat="45.1450549" lon="8.1806473"><ele>166.0</ele><time>2026-05-04T16:44:54.281Z</time></trkpt><trkpt lat="45.1449427" lon="8.1806683"><ele>166.0</ele><time>2026-05-04T16:44:56.273Z</time></trkpt><trkpt lat="45.144879" lon="8.1806884"><ele>166.0</ele><time>2026-05-04T16:44:57.284Z</time></trkpt><trkpt lat="45.1447925" lon="8.1807229"><ele>166.0</ele><time>2026-05-04T16:44:58.274Z</time></trkpt><trkpt lat="45.1446826" lon="8.1807625"><ele>166.0</ele><time>2026-05-04T16:44:59.279Z</time></trkpt><trkpt lat="45.1445607" lon="8.1808102"><ele>166.0</ele><time>2026-05-04T16:45:00.279Z</time></trkpt><trkpt lat="45.1444373" lon="8.1808615"><ele>166.0</ele><time>2026-05-04T16:45:01.28Z</time></trkpt><trkpt lat="45.1443067" lon="8.1809155"><ele>166.0</ele><time>2026-05-04T16:45:02.274Z</time></trkpt><trkpt lat="45.1441749" lon="8.1809725"><ele>166.0</ele><time>2026-05-04T16:45:03.282Z</time></trkpt><trkpt lat="45.1440431" lon="8.181028"><ele>166.0</ele><time>2026-05-04T16:45:04.273Z</time></trkpt><trkpt lat="45.1439114" lon="8.1810736"><ele>166.0</ele><time>2026-05-04T16:45:05.281Z</time></trkpt><trkpt lat="45.143779" lon="8.1811038"><ele>165.5</ele><time>2026-05-04T16:45:06.279Z</time></trkpt><trkpt lat="45.1436497" lon="8.1811296"><ele>165.0</ele><time>2026-05-04T16:45:07.283Z</time></trkpt><trkpt lat="45.1435238" lon="8.1811108"><ele>164.5</ele><time>2026-05-04T16:45:08.278Z</time></trkpt><trkpt lat="45.1434052" lon="8.1810845"><ele>164.0</ele><time>2026-05-04T16:45:09.277Z</time></trkpt><trkpt lat="45.143283" lon="8.1810651"><ele>165.0</ele><time>2026-05-04T16:45:10.27Z</time></trkpt><trkpt lat="45.1431573" lon="8.1810574"><ele>166.0</ele><time>2026-05-04T16:45:11.285Z</time></trkpt><trkpt lat="45.1430297" lon="8.1810618"><ele>167.0</ele><time>2026-05-04T16:45:12.288Z</time></trkpt><trkpt lat="45.1429037" lon="8.1810812"><ele>168.0</ele><time>2026-05-04T16:45:13.288Z</time></trkpt><trkpt lat="45.1427788" lon="8.1811177"><ele>168.0</ele><time>2026-05-04T16:45:14.283Z</time></trkpt><trkpt lat="45.1426549" lon="8.1811661"><ele>168.0</ele><time>2026-05-04T16:45:15.283Z</time></trkpt><trkpt lat="45.1425333" lon="8.1812205"><ele>168.0</ele><time>2026-05-04T16:45:16.276Z</time></trkpt><trkpt lat="45.1424136" lon="8.1812694"><ele>168.0</ele><time>2026-05-04T16:45:17.277Z</time></trkpt><trkpt lat="45.1422952" lon="8.1813054"><ele>167.4</ele><time>2026-05-04T16:45:18.27Z</time></trkpt><trkpt lat="45.1421787" lon="8.1813338"><ele>166.8</ele><time>2026-05-04T16:45:19.276Z</time></trkpt><trkpt lat="45.14207" lon="8.1813636"><ele>166.2</ele><time>2026-05-04T16:45:20.275Z</time></trkpt><trkpt lat="45.1419634" lon="8.1813931"><ele>165.6</ele><time>2026-05-04T16:45:21.276Z</time></trkpt><trkpt lat="45.1418599" lon="8.1814381"><ele>165.0</ele><time>2026-05-04T16:45:22.281Z</time></trkpt><trkpt lat="45.141757" lon="8.1814886"><ele>168.2</ele><time>2026-05-04T16:45:23.282Z</time></trkpt><trkpt lat="45.1416576" lon="8.1815383"><ele>171.4</ele><time>2026-05-04T16:45:24.278Z</time></trkpt><trkpt lat="45.1415534" lon="8.1815759"><ele>174.60000000000002</ele><time>2026-05-04T16:45:25.291Z</time></trkpt><trkpt lat="45.1414543" lon="8.181619"><ele>177.8</ele><time>2026-05-04T16:45:26.28Z</time></trkpt><trkpt lat="45.1413466" lon="8.1816488"><ele>181.0</ele><time>2026-05-04T16:45:27.272Z</time></trkpt><trkpt lat="45.1412281" lon="8.1816369"><ele>181.25</ele><time>2026-05-04T16:45:28.276Z</time></trkpt><trkpt lat="45.1411041" lon="8.1816263"><ele>181.5</ele><time>2026-05-04T16:45:29.271Z</time></trkpt><trkpt lat="45.1409739" lon="8.1816159"><ele>181.75</ele><time>2026-05-04T16:45:30.285Z</time></trkpt><trkpt lat="45.1408344" lon="8.1816209"><ele>182.0</ele><time>2026-05-04T16:45:31.274Z</time></trkpt><trkpt lat="45.1406885" lon="8.1816318"><ele>182.0</ele><time>2026-05-04T16:45:32.269Z</time></trkpt><trkpt lat="45.1405447" lon="8.1816366"><ele>182.0</ele><time>2026-05-04T16:45:33.276Z</time></trkpt><trkpt lat="45.1404044" lon="8.1816269"><ele>182.0</ele><time>2026-05-04T16:45:34.273Z</time></trkpt><trkpt lat="45.1402625" lon="8.1815928"><ele>182.0</ele><time>2026-05-04T16:45:35.269Z</time></trkpt><trkpt lat="45.1401224" lon="8.1815523"><ele>182.0</ele><time>2026-05-04T16:45:36.278Z</time></trkpt><trkpt lat="45.139983" lon="8.1815221"><ele>182.0</ele><time>2026-05-04T16:45:37.276Z</time></trkpt><trkpt lat="45.1398565" lon="8.1815014"><ele>182.0</ele><time>2026-05-04T16:45:38.271Z</time></trkpt><trkpt lat="45.1397346" lon="8.1814912"><ele>182.0</ele><time>2026-05-04T16:45:39.275Z</time></trkpt><trkpt lat="45.1396196" lon="8.1814904"><ele>181.0</ele><time>2026-05-04T16:45:40.282Z</time></trkpt><trkpt lat="45.1395069" lon="8.1815098"><ele>180.0</ele><time>2026-05-04T16:45:41.282Z</time></trkpt><trkpt lat="45.1393936" lon="8.1815331"><ele>179.0</ele><time>2026-05-04T16:45:42.28Z</time></trkpt><trkpt lat="45.1392852" lon="8.18159"><ele>178.0</ele><time>2026-05-04T16:45:43.276Z</time></trkpt><trkpt lat="45.1391763" lon="8.1816431"><ele>178.0</ele><time>2026-05-04T16:45:44.287Z</time></trkpt><trkpt lat="45.1390642" lon="8.1816797"><ele>178.0</ele><time>2026-05-04T16:45:45.276Z</time></trkpt><trkpt lat="45.1389467" lon="8.1817033"><ele>178.0</ele><time>2026-05-04T16:45:46.294Z</time></trkpt><trkpt lat="45.1388222" lon="8.1817209"><ele>178.0</ele><time>2026-05-04T16:45:47.273Z</time></trkpt><trkpt lat="45.1386923" lon="8.181737"><ele>177.75</ele><time>2026-05-04T16:45:48.275Z</time></trkpt><trkpt lat="45.1385695" lon="8.1817442"><ele>177.5</ele><time>2026-05-04T16:45:49.272Z</time></trkpt><trkpt lat="45.1384474" lon="8.1817479"><ele>177.25</ele><time>2026-05-04T16:45:50.278Z</time></trkpt><trkpt lat="45.1383249" lon="8.1817491"><ele>177.0</ele><time>2026-05-04T16:45:51.276Z</time></trkpt><trkpt lat="45.1381991" lon="8.1817452"><ele>178.0</ele><time>2026-05-04T16:45:52.274Z</time></trkpt><trkpt lat="45.1380655" lon="8.1817336"><ele>179.0</ele><time>2026-05-04T16:45:53.274Z</time></trkpt><trkpt lat="45.1379239" lon="8.1817155"><ele>180.0</ele><time>2026-05-04T16:45:54.28Z</time></trkpt><trkpt lat="45.1377759" lon="8.1816889"><ele>181.0</ele><time>2026-05-04T16:45:55.273Z</time></trkpt><trkpt lat="45.1376271" lon="8.1816562"><ele>181.0</ele><time>2026-05-04T16:45:56.283Z</time></trkpt><trkpt lat="45.1374756" lon="8.1816227"><ele>181.0</ele><time>2026-05-04T16:45:57.278Z</time></trkpt><trkpt lat="45.137335" lon="8.181589"><ele>181.0</ele><time>2026-05-04T16:45:58.276Z</time></trkpt><trkpt lat="45.1372065" lon="8.1815482"><ele>181.0</ele><time>2026-05-04T16:45:59.276Z</time></trkpt><trkpt lat="45.1370794" lon="8.1814976"><ele>179.25</ele><time>2026-05-04T16:46:00.28Z</time></trkpt><trkpt lat="45.1369495" lon="8.1814383"><ele>177.5</ele><time>2026-05-04T16:46:01.276Z</time></trkpt><trkpt lat="45.1368228" lon="8.1813775"><ele>175.75</ele><time>2026-05-04T16:46:02.271Z</time></trkpt><trkpt lat="45.1367003" lon="8.1813156"><ele>174.0</ele><time>2026-05-04T16:46:03.281Z</time></trkpt><trkpt lat="45.1365807" lon="8.1812547"><ele>174.39999999999998</ele><time>2026-05-04T16:46:04.275Z</time></trkpt><trkpt lat="45.1364727" lon="8.1811796"><ele>174.8</ele><time>2026-05-04T16:46:05.298Z</time></trkpt><trkpt lat="45.1363773" lon="8.1811103"><ele>175.2</ele><time>2026-05-04T16:46:06.275Z</time></trkpt><trkpt lat="45.1362871" lon="8.1810604"><ele>175.60000000000002</ele><time>2026-05-04T16:46:07.278Z</time></trkpt><trkpt lat="45.1361983" lon="8.181035"><ele>176.0</ele><time>2026-05-04T16:46:08.278Z</time></trkpt><trkpt lat="45.1361066" lon="8.1810361"><ele>176.0</ele><time>2026-05-04T16:46:09.278Z</time></trkpt><trkpt lat="45.1360079" lon="8.181056"><ele>176.0</ele><time>2026-05-04T16:46:10.284Z</time></trkpt><trkpt lat="45.1359026" lon="8.1810805"><ele>176.0</ele><time>2026-05-04T16:46:11.274Z</time></trkpt><trkpt lat="45.1357992" lon="8.1810937"><ele>176.0</ele><time>2026-05-04T16:46:12.271Z</time></trkpt><trkpt lat="45.1357036" lon="8.181085"><ele>176.0</ele><time>2026-05-04T16:46:13.271Z</time></trkpt><trkpt lat="45.135608" lon="8.1810459"><ele>176.8</ele><time>2026-05-04T16:46:14.272Z</time></trkpt><trkpt lat="45.1355041" lon="8.1809838"><ele>177.60000000000002</ele><time>2026-05-04T16:46:15.271Z</time></trkpt><trkpt lat="45.1354009" lon="8.180919"><ele>178.4</ele><time>2026-05-04T16:46:16.274Z</time></trkpt><trkpt lat="45.1352909" lon="8.1808781"><ele>179.2</ele><time>2026-05-04T16:46:17.281Z</time></trkpt><trkpt lat="45.1351848" lon="8.1808389"><ele>180.0</ele><time>2026-05-04T16:46:18.278Z</time></trkpt><trkpt lat="45.1350803" lon="8.1808353"><ele>180.0</ele><time>2026-05-04T16:46:19.284Z</time></trkpt><trkpt lat="45.1349738" lon="8.1808278"><ele>180.0</ele><time>2026-05-04T16:46:20.271Z</time></trkpt><trkpt lat="45.1348652" lon="8.1807883"><ele>180.0</ele><time>2026-05-04T16:46:21.277Z</time></trkpt><trkpt lat="45.134751" lon="8.1807245"><ele>180.0</ele><time>2026-05-04T16:46:22.28Z</time></trkpt><trkpt lat="45.1346351" lon="8.1806343"><ele>179.4</ele><time>2026-05-04T16:46:23.272Z</time></trkpt><trkpt lat="45.1345332" lon="8.180532"><ele>178.8</ele><time>2026-05-04T16:46:24.274Z</time></trkpt><trkpt lat="45.1344535" lon="8.1804359"><ele>178.2</ele><time>2026-05-04T16:46:25.279Z</time></trkpt><trkpt lat="45.1343801" lon="8.1803638"><ele>177.6</ele><time>2026-05-04T16:46:26.272Z</time></trkpt><trkpt lat="45.1343034" lon="8.1803209"><ele>177.0</ele><time>2026-05-04T16:46:27.277Z</time></trkpt><trkpt lat="45.1342224" lon="8.1803073"><ele>177.0</ele><time>2026-05-04T16:46:28.274Z</time></trkpt><trkpt lat="45.13414" lon="8.1802974"><ele>177.0</ele><time>2026-05-04T16:46:29.275Z</time></trkpt><trkpt lat="45.1340567" lon="8.180276"><ele>177.0</ele><time>2026-05-04T16:46:30.272Z</time></trkpt><trkpt lat="45.1339816" lon="8.1802259"><ele>177.0</ele><time>2026-05-04T16:46:31.271Z</time></trkpt><trkpt lat="45.1339208" lon="8.1801478"><ele>177.0</ele><time>2026-05-04T16:46:32.271Z</time></trkpt><trkpt lat="45.1338594" lon="8.1800636"><ele>177.0</ele><time>2026-05-04T16:46:33.279Z</time></trkpt><trkpt lat="45.1338181" lon="8.1799394"><ele>178.39999999999998</ele><time>2026-05-04T16:46:34.281Z</time></trkpt><trkpt lat="45.1337865" lon="8.1798015"><ele>179.79999999999998</ele><time>2026-05-04T16:46:35.275Z</time></trkpt><trkpt lat="45.1337496" lon="8.1796606"><ele>181.2</ele><time>2026-05-04T16:46:36.268Z</time></trkpt><trkpt lat="45.1336956" lon="8.1795243"><ele>182.6</ele><time>2026-05-04T16:46:37.274Z</time></trkpt><trkpt lat="45.1336272" lon="8.1794061"><ele>184.0</ele><time>2026-05-04T16:46:38.27Z</time></trkpt><trkpt lat="45.1335613" lon="8.1793046"><ele>184.0</ele><time>2026-05-04T16:46:39.277Z</time></trkpt><trkpt lat="45.1335113" lon="8.1792104"><ele>184.0</ele><time>2026-05-04T16:46:40.271Z</time></trkpt><trkpt lat="45.1334782" lon="8.1791263"><ele>184.0</ele><time>2026-05-04T16:46:41.28Z</time></trkpt><trkpt lat="45.1334662" lon="8.17902"><ele>184.0</ele><time>2026-05-04T16:46:43.276Z</time></trkpt><trkpt lat="45.1335206" lon="8.1789465"><ele>184.0</ele><time>2026-05-04T16:46:45.274Z</time></trkpt><trkpt lat="45.1336205" lon="8.1788255"><ele>184.0</ele><time>2026-05-04T16:46:47.282Z</time></trkpt><trkpt lat="45.1336738" lon="8.1787242"><ele>184.0</ele><time>2026-05-04T16:46:48.282Z</time></trkpt><trkpt lat="45.1337209" lon="8.1786098"><ele>184.0</ele><time>2026-05-04T16:46:49.276Z</time></trkpt><trkpt lat="45.1337577" lon="8.1785087"><ele>184.0</ele><time>2026-05-04T16:46:50.279Z</time></trkpt><trkpt lat="45.1338035" lon="8.1783788"><ele>184.0</ele><time>2026-05-04T16:46:52.276Z</time></trkpt><trkpt lat="45.1338422" lon="8.1782747"><ele>184.0</ele><time>2026-05-04T16:46:54.274Z</time></trkpt><trkpt lat="45.1338883" lon="8.178126"><ele>185.0</ele><time>2026-05-04T16:46:56.269Z</time></trkpt><trkpt lat="45.133913" lon="8.1780296"><ele>186.0</ele><time>2026-05-04T16:46:57.277Z</time></trkpt><trkpt lat="45.1339329" lon="8.1779296"><ele>187.0</ele><time>2026-05-04T16:46:58.276Z</time></trkpt><trkpt lat="45.1339366" lon="8.1778356"><ele>188.0</ele><time>2026-05-04T16:46:59.285Z</time></trkpt><trkpt lat="45.1339181" lon="8.1776653"><ele>189.0</ele><time>2026-05-04T16:47:01.273Z</time></trkpt><trkpt lat="45.1338914" lon="8.1775557"><ele>190.0</ele><time>2026-05-04T16:47:02.28Z</time></trkpt><trkpt lat="45.1338603" lon="8.1774372"><ele>191.66666666666669</ele><time>2026-05-04T16:47:03.278Z</time></trkpt><trkpt lat="45.1338287" lon="8.1773158"><ele>193.33333333333334</ele><time>2026-05-04T16:47:04.274Z</time></trkpt><trkpt lat="45.1338009" lon="8.177202"><ele>195.0</ele><time>2026-05-04T16:47:05.275Z</time></trkpt><trkpt lat="45.1337754" lon="8.1770914"><ele>196.66666666666669</ele><time>2026-05-04T16:47:06.283Z</time></trkpt><trkpt lat="45.1337598" lon="8.1769814"><ele>198.33333333333334</ele><time>2026-05-04T16:47:07.284Z</time></trkpt><trkpt lat="45.1337519" lon="8.1768797"><ele>200.0</ele><time>2026-05-04T16:47:08.292Z</time></trkpt><trkpt lat="45.1337469" lon="8.1767832"><ele>200.00000000000003</ele><time>2026-05-04T16:47:09.278Z</time></trkpt><trkpt lat="45.133758" lon="8.1766894"><ele>200.0</ele><time>2026-05-04T16:47:10.278Z</time></trkpt><trkpt lat="45.133798" lon="8.1765142"><ele>200.0</ele><time>2026-05-04T16:47:12.273Z</time></trkpt><trkpt lat="45.1338263" lon="8.1764252"><ele>200.0</ele><time>2026-05-04T16:47:13.281Z</time></trkpt><trkpt lat="45.1338619" lon="8.1763385"><ele>200.00000000000003</ele><time>2026-05-04T16:47:14.281Z</time></trkpt><trkpt lat="45.1339308" lon="8.1762337"><ele>200.0</ele><time>2026-05-04T16:47:16.276Z</time></trkpt><trkpt lat="45.1340114" lon="8.1761883"><ele>203.16666666666669</ele><time>2026-05-04T16:47:18.277Z</time></trkpt><trkpt lat="45.1341103" lon="8.1762254"><ele>206.33333333333334</ele><time>2026-05-04T16:47:20.27Z</time></trkpt><trkpt lat="45.1341797" lon="8.1763401"><ele>209.5</ele><time>2026-05-04T16:47:22.275Z</time></trkpt><trkpt lat="45.1342091" lon="8.1764229"><ele>212.66666666666669</ele><time>2026-05-04T16:47:23.278Z</time></trkpt><trkpt lat="45.1342409" lon="8.176509"><ele>215.83333333333334</ele><time>2026-05-04T16:47:24.273Z</time></trkpt><trkpt lat="45.1342835" lon="8.1765849"><ele>219.0</ele><time>2026-05-04T16:47:25.276Z</time></trkpt><trkpt lat="45.1343364" lon="8.176635"><ele>219.0</ele><time>2026-05-04T16:47:26.275Z</time></trkpt><trkpt lat="45.1344588" lon="8.1766488"><ele>219.0</ele><time>2026-05-04T16:47:28.275Z</time></trkpt><trkpt lat="45.1345194" lon="8.176618"><ele>219.0</ele><time>2026-05-04T16:47:29.272Z</time></trkpt><trkpt lat="45.1345706" lon="8.1765615"><ele>219.0</ele><time>2026-05-04T16:47:30.277Z</time></trkpt><trkpt lat="45.1346095" lon="8.1764878"><ele>219.0</ele><time>2026-05-04T16:47:31.274Z</time></trkpt><trkpt lat="45.1346493" lon="8.1764102"><ele>219.0</ele><time>2026-05-04T16:47:32.273Z</time></trkpt><trkpt lat="45.134654" lon="8.1762903"><ele>220.6</ele><time>2026-05-04T16:47:33.284Z</time></trkpt><trkpt lat="45.134652" lon="8.1761524"><ele>222.2</ele><time>2026-05-04T16:47:34.271Z</time></trkpt><trkpt lat="45.1346495" lon="8.1760084"><ele>223.79999999999998</ele><time>2026-05-04T16:47:35.282Z</time></trkpt><trkpt lat="45.1346627" lon="8.1758483"><ele>225.39999999999998</ele><time>2026-05-04T16:47:36.276Z</time></trkpt><trkpt lat="45.1346793" lon="8.1756831"><ele>227.0</ele><time>2026-05-04T16:47:37.283Z</time></trkpt><trkpt lat="45.1346966" lon="8.1755262"><ele>229.16666666666669</ele><time>2026-05-04T16:47:38.277Z</time></trkpt><trkpt lat="45.1347113" lon="8.1753847"><ele>231.33333333333334</ele><time>2026-05-04T16:47:39.279Z</time></trkpt><trkpt lat="45.1347207" lon="8.1752805"><ele>233.5</ele><time>2026-05-04T16:47:40.269Z</time></trkpt><trkpt lat="45.1347141" lon="8.1751833"><ele>235.66666666666669</ele><time>2026-05-04T16:47:41.273Z</time></trkpt><trkpt lat="45.1346668" lon="8.1750195"><ele>237.83333333333334</ele><time>2026-05-04T16:47:43.281Z</time></trkpt><trkpt lat="45.1346215" lon="8.1749441"><ele>240.0</ele><time>2026-05-04T16:47:44.276Z</time></trkpt><trkpt lat="45.1345843" lon="8.1748659"><ele>243.0</ele><time>2026-05-04T16:47:45.285Z</time></trkpt><trkpt lat="45.1345458" lon="8.1746988"><ele>246.0</ele><time>2026-05-04T16:47:47.273Z</time></trkpt><trkpt lat="45.1345434" lon="8.1745037"><ele>249.0</ele><time>2026-05-04T16:47:49.271Z</time></trkpt><trkpt lat="45.1345589" lon="8.1743942"><ele>252.0</ele><time>2026-05-04T16:47:50.275Z</time></trkpt><trkpt lat="45.1345872" lon="8.1742792"><ele>255.0</ele><time>2026-05-04T16:47:51.282Z</time></trkpt><trkpt lat="45.1346207" lon="8.1741736"><ele>255.0</ele><time>2026-05-04T16:47:52.277Z</time></trkpt><trkpt lat="45.1346433" lon="8.1740893"><ele>255.0</ele><time>2026-05-04T16:47:53.286Z</time></trkpt><trkpt lat="45.1346587" lon="8.1739641"><ele>255.0</ele><time>2026-05-04T16:47:55.27Z</time></trkpt><trkpt lat="45.1345945" lon="8.1738485"><ele>255.0</ele><time>2026-05-04T16:47:57.277Z</time></trkpt><trkpt lat="45.1345236" lon="8.1737247"><ele>255.0</ele><time>2026-05-04T16:47:59.277Z</time></trkpt><trkpt lat="45.1344676" lon="8.1735952"><ele>257.6</ele><time>2026-05-04T16:48:01.276Z</time></trkpt><trkpt lat="45.1344409" lon="8.1734201"><ele>260.2</ele><time>2026-05-04T16:48:03.273Z</time></trkpt><trkpt lat="45.1344264" lon="8.1733029"><ele>262.8</ele><time>2026-05-04T16:48:04.272Z</time></trkpt><trkpt lat="45.1343997" lon="8.1731662"><ele>265.4</ele><time>2026-05-04T16:48:05.277Z</time></trkpt><trkpt lat="45.1343773" lon="8.1730219"><ele>268.0</ele><time>2026-05-04T16:48:06.272Z</time></trkpt><trkpt lat="45.1343562" lon="8.172865"><ele>270.4</ele><time>2026-05-04T16:48:07.285Z</time></trkpt><trkpt lat="45.1343366" lon="8.1727207"><ele>272.8</ele><time>2026-05-04T16:48:08.271Z</time></trkpt><trkpt lat="45.1343088" lon="8.1725912"><ele>275.2</ele><time>2026-05-04T16:48:09.271Z</time></trkpt><trkpt lat="45.1342667" lon="8.1724678"><ele>277.6</ele><time>2026-05-04T16:48:10.272Z</time></trkpt><trkpt lat="45.1342235" lon="8.1723419"><ele>280.0</ele><time>2026-05-04T16:48:11.278Z</time></trkpt><trkpt lat="45.1341638" lon="8.1722228"><ele>278.8</ele><time>2026-05-04T16:48:12.273Z</time></trkpt><trkpt lat="45.1340958" lon="8.172106"><ele>277.6</ele><time>2026-05-04T16:48:13.278Z</time></trkpt><trkpt lat="45.1340212" lon="8.1719864"><ele>276.4</ele><time>2026-05-04T16:48:14.272Z</time></trkpt><trkpt lat="45.1339442" lon="8.1718718"><ele>275.2</ele><time>2026-05-04T16:48:15.282Z</time></trkpt><trkpt lat="45.13387" lon="8.1717643"><ele>274.0</ele><time>2026-05-04T16:48:16.266Z</time></trkpt><trkpt lat="45.1338031" lon="8.1716675"><ele>274.0</ele><time>2026-05-04T16:48:17.278Z</time></trkpt><trkpt lat="45.1337432" lon="8.1715777"><ele>274.0</ele><time>2026-05-04T16:48:18.27Z</time></trkpt><trkpt lat="45.1336974" lon="8.171496"><ele>274.0</ele><time>2026-05-04T16:48:19.268Z</time></trkpt><trkpt lat="45.1336545" lon="8.1714194"><ele>274.0</ele><time>2026-05-04T16:48:20.273Z</time></trkpt><trkpt lat="45.1336514" lon="8.171229"><ele>274.0</ele><time>2026-05-04T16:48:22.276Z</time></trkpt><trkpt lat="45.1336708" lon="8.1711201"><ele>274.0</ele><time>2026-05-04T16:48:23.279Z</time></trkpt><trkpt lat="45.133695" lon="8.1710178"><ele>274.5</ele><time>2026-05-04T16:48:24.271Z</time></trkpt><trkpt lat="45.1337168" lon="8.1709325"><ele>275.0</ele><time>2026-05-04T16:48:25.277Z</time></trkpt><trkpt lat="45.1337894" lon="8.1708133"><ele>275.5</ele><time>2026-05-04T16:48:27.28Z</time></trkpt><trkpt lat="45.1338482" lon="8.1707666"><ele>276.0</ele><time>2026-05-04T16:48:28.27Z</time></trkpt><trkpt lat="45.1339228" lon="8.1707284"><ele>276.5</ele><time>2026-05-04T16:48:29.274Z</time></trkpt><trkpt lat="45.1340039" lon="8.1706982"><ele>277.0</ele><time>2026-05-04T16:48:30.273Z</time></trkpt><trkpt lat="45.1340837" lon="8.1706673"><ele>279.85714285714283</ele><time>2026-05-04T16:48:31.27Z</time></trkpt><trkpt lat="45.1341558" lon="8.1706167"><ele>282.71428571428567</ele><time>2026-05-04T16:48:32.271Z</time></trkpt><trkpt lat="45.1342151" lon="8.1705439"><ele>285.57142857142856</ele><time>2026-05-04T16:48:33.281Z</time></trkpt><trkpt lat="45.1342721" lon="8.1704701"><ele>288.42857142857144</ele><time>2026-05-04T16:48:34.271Z</time></trkpt><trkpt lat="45.1342975" lon="8.1703742"><ele>291.28571428571433</ele><time>2026-05-04T16:48:35.276Z</time></trkpt><trkpt lat="45.1343247" lon="8.1702853"><ele>294.14285714285717</ele><time>2026-05-04T16:48:36.274Z</time></trkpt><trkpt lat="45.1343608" lon="8.1702041"><ele>297.0</ele><time>2026-05-04T16:48:37.271Z</time></trkpt><trkpt lat="45.1344033" lon="8.1701299"><ele>297.0</ele><time>2026-05-04T16:48:38.273Z</time></trkpt><trkpt lat="45.1344523" lon="8.1700556"><ele>297.0</ele><time>2026-05-04T16:48:39.284Z</time></trkpt><trkpt lat="45.1345033" lon="8.1699824"><ele>297.0</ele><time>2026-05-04T16:48:40.273Z</time></trkpt><trkpt lat="45.1345742" lon="8.1698731"><ele>297.0</ele><time>2026-05-04T16:48:42.277Z</time></trkpt><trkpt lat="45.1346252" lon="8.1697524"><ele>297.0</ele><time>2026-05-04T16:48:44.269Z</time></trkpt><trkpt lat="45.1346767" lon="8.1696379"><ele>297.0</ele><time>2026-05-04T16:48:46.269Z</time></trkpt><trkpt lat="45.1347097" lon="8.1695421"><ele>296.3333333333333</ele><time>2026-05-04T16:48:49.274Z</time></trkpt><trkpt lat="45.1346843" lon="8.1694155"><ele>295.6666666666667</ele><time>2026-05-04T16:48:51.278Z</time></trkpt><trkpt lat="45.1346573" lon="8.1693289"><ele>295.0</ele><time>2026-05-04T16:48:52.273Z</time></trkpt><trkpt lat="45.1346217" lon="8.1692188"><ele>294.33333333333337</ele><time>2026-05-04T16:48:53.269Z</time></trkpt><trkpt lat="45.1345785" lon="8.1690979"><ele>293.6666666666667</ele><time>2026-05-04T16:48:54.274Z</time></trkpt><trkpt lat="45.1345314" lon="8.1689827"><ele>293.0</ele><time>2026-05-04T16:48:55.274Z</time></trkpt><trkpt lat="45.1344882" lon="8.1688707"><ele>292.0</ele><time>2026-05-04T16:48:56.273Z</time></trkpt><trkpt lat="45.1344512" lon="8.1687561"><ele>291.0</ele><time>2026-05-04T16:48:57.285Z</time></trkpt><trkpt lat="45.1344154" lon="8.1686425"><ele>290.0</ele><time>2026-05-04T16:48:58.277Z</time></trkpt><trkpt lat="45.1343756" lon="8.1685282"><ele>289.0</ele><time>2026-05-04T16:48:59.278Z</time></trkpt><trkpt lat="45.1343317" lon="8.168412"><ele>288.0</ele><time>2026-05-04T16:49:00.281Z</time></trkpt><trkpt lat="45.1342842" lon="8.1682964"><ele>287.6</ele><time>2026-05-04T16:49:01.276Z</time></trkpt><trkpt lat="45.1342304" lon="8.168187"><ele>287.20000000000005</ele><time>2026-05-04T16:49:02.28Z</time></trkpt><trkpt lat="45.1341652" lon="8.16808"><ele>286.8</ele><time>2026-05-04T16:49:03.28Z</time></trkpt><trkpt lat="45.1340861" lon="8.167974"><ele>286.40000000000003</ele><time>2026-05-04T16:49:04.274Z</time></trkpt><trkpt lat="45.1340047" lon="8.167867"><ele>286.0</ele><time>2026-05-04T16:49:05.279Z</time></trkpt><trkpt lat="45.1339172" lon="8.1677728"><ele>286.0</ele><time>2026-05-04T16:49:06.28Z</time></trkpt><trkpt lat="45.1338332" lon="8.1676849"><ele>286.0</ele><time>2026-05-04T16:49:07.277Z</time></trkpt><trkpt lat="45.1337545" lon="8.1676038"><ele>286.0</ele><time>2026-05-04T16:49:08.279Z</time></trkpt><trkpt lat="45.1336789" lon="8.1675335"><ele>286.0</ele><time>2026-05-04T16:49:09.278Z</time></trkpt><trkpt lat="45.1336068" lon="8.1674686"><ele>286.0</ele><time>2026-05-04T16:49:10.275Z</time></trkpt><trkpt lat="45.133538" lon="8.1674217"><ele>285.99999999999994</ele><time>2026-05-04T16:49:11.276Z</time></trkpt><trkpt lat="45.1334781" lon="8.1673679"><ele>286.0</ele><time>2026-05-04T16:49:12.281Z</time></trkpt><trkpt lat="45.1334293" lon="8.1673024"><ele>286.0</ele><time>2026-05-04T16:49:13.276Z</time></trkpt><trkpt lat="45.1333896" lon="8.1672328"><ele>286.0</ele><time>2026-05-04T16:49:14.276Z</time></trkpt><trkpt lat="45.1333486" lon="8.1671598"><ele>286.0</ele><time>2026-05-04T16:49:15.279Z</time></trkpt><trkpt lat="45.133314" lon="8.1670805"><ele>285.99999999999994</ele><time>2026-05-04T16:49:16.28Z</time></trkpt><trkpt lat="45.1332804" lon="8.1669926"><ele>286.0</ele><time>2026-05-04T16:49:17.271Z</time></trkpt><trkpt lat="45.13325" lon="8.1669117"><ele>286.0</ele><time>2026-05-04T16:49:18.28Z</time></trkpt><trkpt lat="45.1332257" lon="8.1668288"><ele>286.0</ele><time>2026-05-04T16:49:19.273Z</time></trkpt><trkpt lat="45.1331848" lon="8.1666798"><ele>286.0</ele><time>2026-05-04T16:49:21.28Z</time></trkpt><trkpt lat="45.1331631" lon="8.166575"><ele>286.0</ele><time>2026-05-04T16:49:23.285Z</time></trkpt><trkpt lat="45.1331804" lon="8.1664382"><ele>286.0</ele><time>2026-05-04T16:49:26.272Z</time></trkpt><trkpt lat="45.1332469" lon="8.1663451"><ele>286.0</ele><time>2026-05-04T16:49:28.273Z</time></trkpt><trkpt lat="45.1333178" lon="8.1662241"><ele>286.40000000000003</ele><time>2026-05-04T16:49:30.281Z</time></trkpt><trkpt lat="45.1333758" lon="8.1661007"><ele>286.8</ele><time>2026-05-04T16:49:32.289Z</time></trkpt><trkpt lat="45.1334289" lon="8.1659966"><ele>287.20000000000005</ele><time>2026-05-04T16:49:34.278Z</time></trkpt><trkpt lat="45.1334801" lon="8.1659277"><ele>287.6</ele><time>2026-05-04T16:49:42.28Z</time></trkpt><trkpt lat="45.1335678" lon="8.1658603"><ele>288.0</ele><time>2026-05-04T16:49:45.28Z</time></trkpt><trkpt lat="45.1336465" lon="8.1657977"><ele>288.0</ele><time>2026-05-04T16:49:47.283Z</time></trkpt><trkpt lat="45.1337363" lon="8.1657187"><ele>288.0</ele><time>2026-05-04T16:49:49.275Z</time></trkpt><trkpt lat="45.1337993" lon="8.1656789"><ele>288.0</ele><time>2026-05-04T16:49:51.275Z</time></trkpt><trkpt lat="45.133859" lon="8.1656359"><ele>288.0</ele><time>2026-05-04T16:49:55.273Z</time></trkpt><trkpt lat="45.1339344" lon="8.1655953"><ele>288.0</ele><time>2026-05-04T16:49:58.273Z</time></trkpt><trkpt lat="45.1340174" lon="8.1655541"><ele>288.0</ele><time>2026-05-04T16:50:01.277Z</time></trkpt><trkpt lat="45.1340868" lon="8.1655284"><ele>288.0</ele><time>2026-05-04T16:50:04.278Z</time></trkpt><trkpt lat="45.1340141" lon="8.1655693"><ele>288.0</ele><time>2026-05-04T16:50:48.274Z</time></trkpt><trkpt lat="45.1339566" lon="8.1656073"><ele>288.0</ele><time>2026-05-04T16:50:50.274Z</time></trkpt><trkpt lat="45.133862" lon="8.1656515"><ele>288.0</ele><time>2026-05-04T16:50:52.288Z</time></trkpt><trkpt lat="45.1337534" lon="8.1657193"><ele>288.0</ele><time>2026-05-04T16:50:54.276Z</time></trkpt><trkpt lat="45.133697" lon="8.1657626"><ele>288.0</ele><time>2026-05-04T16:50:55.271Z</time></trkpt><trkpt lat="45.1335942" lon="8.1658457"><ele>288.0</ele><time>2026-05-04T16:50:57.275Z</time></trkpt><trkpt lat="45.1335057" lon="8.1659209"><ele>288.0</ele><time>2026-05-04T16:50:59.278Z</time></trkpt><trkpt lat="45.1334455" lon="8.1659509"><ele>288.0</ele><time>2026-05-04T16:51:02.276Z</time></trkpt><trkpt lat="45.1334075" lon="8.1658143"><ele>288.0</ele><time>2026-05-04T16:51:05.278Z</time></trkpt><trkpt lat="45.133383" lon="8.1656868"><ele>288.0</ele><time>2026-05-04T16:51:07.276Z</time></trkpt><trkpt lat="45.133353" lon="8.1655551"><ele>286.6</ele><time>2026-05-04T16:51:09.276Z</time></trkpt><trkpt lat="45.1333183" lon="8.1654274"><ele>285.20000000000005</ele><time>2026-05-04T16:51:11.282Z</time></trkpt><trkpt lat="45.1332642" lon="8.1652912"><ele>283.8</ele><time>2026-05-04T16:51:13.275Z</time></trkpt><trkpt lat="45.1331858" lon="8.1651772"><ele>282.40000000000003</ele><time>2026-05-04T16:51:15.273Z</time></trkpt><trkpt lat="45.1331326" lon="8.165067"><ele>281.0</ele><time>2026-05-04T16:51:17.278Z</time></trkpt><trkpt lat="45.1331278" lon="8.1649275"><ele>278.6</ele><time>2026-05-04T16:51:19.271Z</time></trkpt><trkpt lat="45.1331441" lon="8.164772"><ele>276.20000000000005</ele><time>2026-05-04T16:51:21.273Z</time></trkpt><trkpt lat="45.1331785" lon="8.1646791"><ele>273.79999999999995</ele><time>2026-05-04T16:51:22.275Z</time></trkpt><trkpt lat="45.1332198" lon="8.1645696"><ele>271.4</ele><time>2026-05-04T16:51:23.275Z</time></trkpt><trkpt lat="45.1332746" lon="8.1644348"><ele>269.0</ele><time>2026-05-04T16:51:24.279Z</time></trkpt><trkpt lat="45.1333186" lon="8.1643208"><ele>269.0</ele><time>2026-05-04T16:51:25.278Z</time></trkpt><trkpt lat="45.1333654" lon="8.1642104"><ele>269.0</ele><time>2026-05-04T16:51:26.278Z</time></trkpt><trkpt lat="45.1334035" lon="8.1641123"><ele>269.0</ele><time>2026-05-04T16:51:27.272Z</time></trkpt><trkpt lat="45.1334374" lon="8.1640251"><ele>269.0</ele><time>2026-05-04T16:51:28.275Z</time></trkpt><trkpt lat="45.1334698" lon="8.1639449"><ele>269.0</ele><time>2026-05-04T16:51:29.279Z</time></trkpt><trkpt lat="45.133507" lon="8.1638695"><ele>269.0</ele><time>2026-05-04T16:51:30.273Z</time></trkpt><trkpt lat="45.133571" lon="8.1637403"><ele>268.0</ele><time>2026-05-04T16:51:32.27Z</time></trkpt><trkpt lat="45.1336127" lon="8.1636452"><ele>267.0</ele><time>2026-05-04T16:51:34.269Z</time></trkpt><trkpt lat="45.1336488" lon="8.1635256"><ele>266.0</ele><time>2026-05-04T16:51:36.267Z</time></trkpt><trkpt lat="45.1336794" lon="8.1633829"><ele>265.0</ele><time>2026-05-04T16:51:38.28Z</time></trkpt><trkpt lat="45.1337112" lon="8.163233"><ele>264.0</ele><time>2026-05-04T16:51:40.276Z</time></trkpt><trkpt lat="45.1337547" lon="8.163132"><ele>263.5</ele><time>2026-05-04T16:51:42.277Z</time></trkpt><trkpt lat="45.1338461" lon="8.1630761"><ele>263.0</ele><time>2026-05-04T16:51:44.276Z</time></trkpt><trkpt lat="45.1339535" lon="8.1630487"><ele>262.5</ele><time>2026-05-04T16:51:46.276Z</time></trkpt><trkpt lat="45.1340174" lon="8.1630455"><ele>262.0</ele><time>2026-05-04T16:51:47.269Z</time></trkpt><trkpt lat="45.1340857" lon="8.1630395"><ele>261.5</ele><time>2026-05-04T16:51:48.274Z</time></trkpt><trkpt lat="45.1341603" lon="8.1630301"><ele>261.0</ele><time>2026-05-04T16:51:49.269Z</time></trkpt><trkpt lat="45.1342295" lon="8.1630234"><ele>258.14285714285717</ele><time>2026-05-04T16:51:50.297Z</time></trkpt><trkpt lat="45.1343011" lon="8.1630241"><ele>255.28571428571428</ele><time>2026-05-04T16:51:51.277Z</time></trkpt><trkpt lat="45.1343723" lon="8.1630551"><ele>252.42857142857144</ele><time>2026-05-04T16:51:52.277Z</time></trkpt><trkpt lat="45.1344366" lon="8.1630853"><ele>249.57142857142858</ele><time>2026-05-04T16:51:53.272Z</time></trkpt><trkpt lat="45.1345014" lon="8.1631233"><ele>246.71428571428572</ele><time>2026-05-04T16:51:54.275Z</time></trkpt><trkpt lat="45.1345748" lon="8.1631591"><ele>243.85714285714286</ele><time>2026-05-04T16:51:55.284Z</time></trkpt><trkpt lat="45.1346421" lon="8.1631932"><ele>241.0</ele><time>2026-05-04T16:51:56.274Z</time></trkpt><trkpt lat="45.1347062" lon="8.1632239"><ele>241.0</ele><time>2026-05-04T16:51:57.27Z</time></trkpt><trkpt lat="45.1347724" lon="8.1632518"><ele>241.00000000000003</ele><time>2026-05-04T16:51:58.278Z</time></trkpt><trkpt lat="45.134841" lon="8.1632788"><ele>241.0</ele><time>2026-05-04T16:51:59.279Z</time></trkpt><trkpt lat="45.1349073" lon="8.1633111"><ele>241.0</ele><time>2026-05-04T16:52:00.281Z</time></trkpt><trkpt lat="45.1349743" lon="8.1633396"><ele>241.00000000000003</ele><time>2026-05-04T16:52:01.275Z</time></trkpt><trkpt lat="45.1350454" lon="8.1633697"><ele>241.0</ele><time>2026-05-04T16:52:02.275Z</time></trkpt><trkpt lat="45.1351151" lon="8.1633956"><ele>241.0</ele><time>2026-05-04T16:52:03.275Z</time></trkpt><trkpt lat="45.1351822" lon="8.1634219"><ele>238.20000000000002</ele><time>2026-05-04T16:52:04.273Z</time></trkpt><trkpt lat="45.1352978" lon="8.1634903"><ele>235.40000000000003</ele><time>2026-05-04T16:52:06.275Z</time></trkpt><trkpt lat="45.1354045" lon="8.1635786"><ele>232.6</ele><time>2026-05-04T16:52:08.273Z</time></trkpt><trkpt lat="45.1354553" lon="8.1636407"><ele>229.8</ele><time>2026-05-04T16:52:09.28Z</time></trkpt><trkpt lat="45.1355033" lon="8.1637126"><ele>227.0</ele><time>2026-05-04T16:52:10.281Z</time></trkpt><trkpt lat="45.1355481" lon="8.1638031"><ele>227.00000000000003</ele><time>2026-05-04T16:52:11.276Z</time></trkpt><trkpt lat="45.1355838" lon="8.1638994"><ele>227.0</ele><time>2026-05-04T16:52:12.272Z</time></trkpt><trkpt lat="45.1356166" lon="8.1639949"><ele>227.0</ele><time>2026-05-04T16:52:13.269Z</time></trkpt><trkpt lat="45.1356503" lon="8.1640909"><ele>227.0</ele><time>2026-05-04T16:52:14.278Z</time></trkpt><trkpt lat="45.1356872" lon="8.1641853"><ele>227.00000000000003</ele><time>2026-05-04T16:52:15.276Z</time></trkpt><trkpt lat="45.1357439" lon="8.1642763"><ele>227.0</ele><time>2026-05-04T16:52:16.276Z</time></trkpt><trkpt lat="45.1358067" lon="8.1643569"><ele>226.2</ele><time>2026-05-04T16:52:17.278Z</time></trkpt><trkpt lat="45.1358737" lon="8.1644286"><ele>225.39999999999998</ele><time>2026-05-04T16:52:18.285Z</time></trkpt><trkpt lat="45.1359387" lon="8.1644982"><ele>224.60000000000002</ele><time>2026-05-04T16:52:19.275Z</time></trkpt><trkpt lat="45.135997" lon="8.1645628"><ele>223.8</ele><time>2026-05-04T16:52:20.271Z</time></trkpt><trkpt lat="45.1360889" lon="8.1646719"><ele>223.0</ele><time>2026-05-04T16:52:22.269Z</time></trkpt><trkpt lat="45.1361707" lon="8.1648134"><ele>224.71428571428572</ele><time>2026-05-04T16:52:24.278Z</time></trkpt><trkpt lat="45.1362126" lon="8.1649069"><ele>226.42857142857142</ele><time>2026-05-04T16:52:25.277Z</time></trkpt><trkpt lat="45.1362494" lon="8.1650039"><ele>228.14285714285714</ele><time>2026-05-04T16:52:26.273Z</time></trkpt><trkpt lat="45.1362787" lon="8.1651112"><ele>229.85714285714283</ele><time>2026-05-04T16:52:27.275Z</time></trkpt><trkpt lat="45.136298" lon="8.1652044"><ele>231.57142857142856</ele><time>2026-05-04T16:52:28.275Z</time></trkpt><trkpt lat="45.1363048" lon="8.1652968"><ele>233.28571428571428</ele><time>2026-05-04T16:52:29.273Z</time></trkpt><trkpt lat="45.1363016" lon="8.1653869"><ele>235.0</ele><time>2026-05-04T16:52:30.27Z</time></trkpt><trkpt lat="45.136285" lon="8.1654926"><ele>235.0</ele><time>2026-05-04T16:52:31.275Z</time></trkpt><trkpt lat="45.136266" lon="8.1655813"><ele>234.99999999999997</ele><time>2026-05-04T16:52:32.276Z</time></trkpt><trkpt lat="45.1362389" lon="8.1656705"><ele>235.0</ele><time>2026-05-04T16:52:33.279Z</time></trkpt><trkpt lat="45.1362034" lon="8.1657605"><ele>235.0</ele><time>2026-05-04T16:52:34.291Z</time></trkpt><trkpt lat="45.1361619" lon="8.1658539"><ele>234.99999999999997</ele><time>2026-05-04T16:52:35.271Z</time></trkpt><trkpt lat="45.1361238" lon="8.1659411"><ele>235.0</ele><time>2026-05-04T16:52:36.266Z</time></trkpt><trkpt lat="45.1360805" lon="8.1660181"><ele>235.0</ele><time>2026-05-04T16:52:37.28Z</time></trkpt><trkpt lat="45.1359948" lon="8.1661274"><ele>234.4</ele><time>2026-05-04T16:52:39.284Z</time></trkpt><trkpt lat="45.1359028" lon="8.1662135"><ele>233.8</ele><time>2026-05-04T16:52:41.278Z</time></trkpt><trkpt lat="45.1358543" lon="8.1663046"><ele>233.2</ele><time>2026-05-04T16:52:43.274Z</time></trkpt><trkpt lat="45.1358426" lon="8.1664407"><ele>232.6</ele><time>2026-05-04T16:52:45.278Z</time></trkpt><trkpt lat="45.1358601" lon="8.1666057"><ele>232.0</ele><time>2026-05-04T16:52:47.275Z</time></trkpt><trkpt lat="45.1358816" lon="8.1666988"><ele>231.99999999999997</ele><time>2026-05-04T16:52:48.273Z</time></trkpt><trkpt lat="45.135904" lon="8.1667857"><ele>232.0</ele><time>2026-05-04T16:52:49.274Z</time></trkpt><trkpt lat="45.1359326" lon="8.1668712"><ele>232.0</ele><time>2026-05-04T16:52:50.282Z</time></trkpt><trkpt lat="45.1359662" lon="8.1669483"><ele>232.0</ele><time>2026-05-04T16:52:51.272Z</time></trkpt><trkpt lat="45.1360229" lon="8.1671101"><ele>231.99999999999997</ele><time>2026-05-04T16:52:53.275Z</time></trkpt><trkpt lat="45.1360647" lon="8.1672213"><ele>232.0</ele><time>2026-05-04T16:52:54.278Z</time></trkpt><trkpt lat="45.1361216" lon="8.1673154"><ele>232.0</ele><time>2026-05-04T16:52:55.282Z</time></trkpt><trkpt lat="45.1361837" lon="8.1674106"><ele>232.0</ele><time>2026-05-04T16:52:56.275Z</time></trkpt><trkpt lat="45.1362495" lon="8.1674976"><ele>232.0</ele><time>2026-05-04T16:52:57.269Z</time></trkpt><trkpt lat="45.136308" lon="8.1675997"><ele>232.0</ele><time>2026-05-04T16:52:58.274Z</time></trkpt><trkpt lat="45.1363608" lon="8.1677092"><ele>232.0</ele><time>2026-05-04T16:52:59.274Z</time></trkpt><trkpt lat="45.1364123" lon="8.1678295"><ele>232.0</ele><time>2026-05-04T16:53:00.274Z</time></trkpt><trkpt lat="45.1364578" lon="8.1679397"><ele>232.0</ele><time>2026-05-04T16:53:01.27Z</time></trkpt><trkpt lat="45.1364937" lon="8.1680271"><ele>232.0</ele><time>2026-05-04T16:53:02.279Z</time></trkpt><trkpt lat="45.1365494" lon="8.1681324"><ele>232.0</ele><time>2026-05-04T16:53:04.273Z</time></trkpt><trkpt lat="45.1366545" lon="8.1682421"><ele>232.0</ele><time>2026-05-04T16:53:06.277Z</time></trkpt><trkpt lat="45.1367114" lon="8.1683105"><ele>230.42857142857147</ele><time>2026-05-04T16:53:07.277Z</time></trkpt><trkpt lat="45.1367516" lon="8.168395"><ele>228.85714285714286</ele><time>2026-05-04T16:53:08.281Z</time></trkpt><trkpt lat="45.1367902" lon="8.1684776"><ele>227.2857142857143</ele><time>2026-05-04T16:53:09.276Z</time></trkpt><trkpt lat="45.1368324" lon="8.1685598"><ele>225.71428571428572</ele><time>2026-05-04T16:53:10.27Z</time></trkpt><trkpt lat="45.1368818" lon="8.1686288"><ele>224.14285714285717</ele><time>2026-05-04T16:53:11.276Z</time></trkpt><trkpt lat="45.1369403" lon="8.1686771"><ele>222.57142857142858</ele><time>2026-05-04T16:53:12.281Z</time></trkpt><trkpt lat="45.1370012" lon="8.168702"><ele>221.0</ele><time>2026-05-04T16:53:13.27Z</time></trkpt><trkpt lat="45.1370698" lon="8.1686964"><ele>221.0</ele><time>2026-05-04T16:53:14.276Z</time></trkpt><trkpt lat="45.1371476" lon="8.1686591"><ele>221.00000000000003</ele><time>2026-05-04T16:53:15.283Z</time></trkpt><trkpt lat="45.1372323" lon="8.1685956"><ele>221.00000000000003</ele><time>2026-05-04T16:53:16.281Z</time></trkpt><trkpt lat="45.1373219" lon="8.1685134"><ele>221.0</ele><time>2026-05-04T16:53:17.275Z</time></trkpt><trkpt lat="45.1374161" lon="8.1684196"><ele>221.0</ele><time>2026-05-04T16:53:18.278Z</time></trkpt><trkpt lat="45.1375183" lon="8.1683203"><ele>218.5</ele><time>2026-05-04T16:53:19.281Z</time></trkpt><trkpt lat="45.1376226" lon="8.1682149"><ele>216.0</ele><time>2026-05-04T16:53:20.283Z</time></trkpt><trkpt lat="45.1377181" lon="8.1681025"><ele>213.5</ele><time>2026-05-04T16:53:21.274Z</time></trkpt><trkpt lat="45.1378005" lon="8.1679767"><ele>211.0</ele><time>2026-05-04T16:53:22.284Z</time></trkpt><trkpt lat="45.1378702" lon="8.1678335"><ele>209.0</ele><time>2026-05-04T16:53:23.274Z</time></trkpt><trkpt lat="45.1379226" lon="8.1676713"><ele>207.0</ele><time>2026-05-04T16:53:24.276Z</time></trkpt><trkpt lat="45.1379601" lon="8.1674954"><ele>205.0</ele><time>2026-05-04T16:53:25.275Z</time></trkpt><trkpt lat="45.1379926" lon="8.1673137"><ele>203.0</ele><time>2026-05-04T16:53:26.275Z</time></trkpt><trkpt lat="45.1380347" lon="8.1671287"><ele>201.0</ele><time>2026-05-04T16:53:27.287Z</time></trkpt><trkpt lat="45.1380878" lon="8.1669398"><ele>199.0</ele><time>2026-05-04T16:53:28.274Z</time></trkpt><trkpt lat="45.1381478" lon="8.1667444"><ele>197.0</ele><time>2026-05-04T16:53:29.273Z</time></trkpt><trkpt lat="45.1382125" lon="8.1665416"><ele>195.66666666666669</ele><time>2026-05-04T16:53:30.276Z</time></trkpt><trkpt lat="45.1382802" lon="8.1663292"><ele>194.33333333333331</ele><time>2026-05-04T16:53:31.28Z</time></trkpt><trkpt lat="45.1383501" lon="8.1661091"><ele>193.0</ele><time>2026-05-04T16:53:32.272Z</time></trkpt><trkpt lat="45.1384217" lon="8.1658857"><ele>189.33333333333331</ele><time>2026-05-04T16:53:33.282Z</time></trkpt><trkpt lat="45.1384972" lon="8.1656552"><ele>185.66666666666666</ele><time>2026-05-04T16:53:34.279Z</time></trkpt><trkpt lat="45.1385772" lon="8.165422"><ele>182.0</ele><time>2026-05-04T16:53:35.28Z</time></trkpt><trkpt lat="45.1386639" lon="8.1651986"><ele>182.0</ele><time>2026-05-04T16:53:36.282Z</time></trkpt><trkpt lat="45.1387574" lon="8.1649911"><ele>182.0</ele><time>2026-05-04T16:53:37.28Z</time></trkpt><trkpt lat="45.1388786" lon="8.1648159"><ele>182.0</ele><time>2026-05-04T16:53:38.282Z</time></trkpt><trkpt lat="45.1390025" lon="8.164648"><ele>180.66666666666666</ele><time>2026-05-04T16:53:39.276Z</time></trkpt><trkpt lat="45.1391259" lon="8.1644772"><ele>179.33333333333334</ele><time>2026-05-04T16:53:40.273Z</time></trkpt><trkpt lat="45.1392432" lon="8.1642981"><ele>178.0</ele><time>2026-05-04T16:53:41.277Z</time></trkpt><trkpt lat="45.1393536" lon="8.1641072"><ele>177.33333333333334</ele><time>2026-05-04T16:53:42.275Z</time></trkpt><trkpt lat="45.1394493" lon="8.1638985"><ele>176.66666666666666</ele><time>2026-05-04T16:53:43.273Z</time></trkpt><trkpt lat="45.1395354" lon="8.1636749"><ele>176.0</ele><time>2026-05-04T16:53:44.27Z</time></trkpt><trkpt lat="45.1396146" lon="8.1634428"><ele>176.0</ele><time>2026-05-04T16:53:45.278Z</time></trkpt><trkpt lat="45.1396884" lon="8.1632147"><ele>176.0</ele><time>2026-05-04T16:53:46.272Z</time></trkpt><trkpt lat="45.1397575" lon="8.1629951"><ele>176.0</ele><time>2026-05-04T16:53:47.271Z</time></trkpt><trkpt lat="45.1398335" lon="8.1627888"><ele>175.33333333333331</ele><time>2026-05-04T16:53:48.269Z</time></trkpt><trkpt lat="45.1399142" lon="8.1626035"><ele>174.66666666666666</ele><time>2026-05-04T16:53:49.278Z</time></trkpt><trkpt lat="45.1400099" lon="8.1624422"><ele>174.0</ele><time>2026-05-04T16:53:50.27Z</time></trkpt><trkpt lat="45.1401313" lon="8.1622939"><ele>173.66666666666666</ele><time>2026-05-04T16:53:51.276Z</time></trkpt><trkpt lat="45.1402796" lon="8.1621591"><ele>173.33333333333331</ele><time>2026-05-04T16:53:52.284Z</time></trkpt><trkpt lat="45.1404481" lon="8.1620321"><ele>173.0</ele><time>2026-05-04T16:53:53.276Z</time></trkpt><trkpt lat="45.1406278" lon="8.1619014"><ele>172.33333333333331</ele><time>2026-05-04T16:53:54.275Z</time></trkpt><trkpt lat="45.1408052" lon="8.1617746"><ele>171.66666666666666</ele><time>2026-05-04T16:53:55.271Z</time></trkpt><trkpt lat="45.1409653" lon="8.1616537"><ele>171.0</ele><time>2026-05-04T16:53:56.274Z</time></trkpt><trkpt lat="45.1411128" lon="8.1615396"><ele>171.25</ele><time>2026-05-04T16:53:57.272Z</time></trkpt><trkpt lat="45.141247" lon="8.1614323"><ele>171.5</ele><time>2026-05-04T16:53:58.271Z</time></trkpt><trkpt lat="45.1413703" lon="8.1613356"><ele>171.75</ele><time>2026-05-04T16:53:59.275Z</time></trkpt><trkpt lat="45.1414796" lon="8.1612501"><ele>172.0</ele><time>2026-05-04T16:54:00.273Z</time></trkpt><trkpt lat="45.1415703" lon="8.1611803"><ele>173.0</ele><time>2026-05-04T16:54:01.273Z</time></trkpt><trkpt lat="45.1416427" lon="8.1611211"><ele>174.0</ele><time>2026-05-04T16:54:02.278Z</time></trkpt><trkpt lat="45.141717" lon="8.1610335"><ele>175.0</ele><time>2026-05-04T16:54:04.274Z</time></trkpt><trkpt lat="45.141726" lon="8.1609162"><ele>176.0</ele><time>2026-05-04T16:54:06.274Z</time></trkpt><trkpt lat="45.1417148" lon="8.1608194"><ele>177.0</ele><time>2026-05-04T16:54:07.275Z</time></trkpt><trkpt lat="45.1417014" lon="8.160708"><ele>178.0</ele><time>2026-05-04T16:54:08.281Z</time></trkpt><trkpt lat="45.1416662" lon="8.1605698"><ele>178.4</ele><time>2026-05-04T16:54:09.271Z</time></trkpt><trkpt lat="45.141623" lon="8.1604205"><ele>178.8</ele><time>2026-05-04T16:54:10.28Z</time></trkpt><trkpt lat="45.1415817" lon="8.1602824"><ele>179.2</ele><time>2026-05-04T16:54:11.272Z</time></trkpt><trkpt lat="45.1415529" lon="8.1601589"><ele>179.6</ele><time>2026-05-04T16:54:12.283Z</time></trkpt><trkpt lat="45.1415395" lon="8.1600414"><ele>180.0</ele><time>2026-05-04T16:54:13.272Z</time></trkpt><trkpt lat="45.1415274" lon="8.1599222"><ele>180.0</ele><time>2026-05-04T16:54:14.271Z</time></trkpt><trkpt lat="45.141531" lon="8.1597761"><ele>180.0</ele><time>2026-05-04T16:54:15.273Z</time></trkpt><trkpt lat="45.1415379" lon="8.1596115"><ele>180.0</ele><time>2026-05-04T16:54:16.278Z</time></trkpt><trkpt lat="45.1415495" lon="8.1594545"><ele>180.0</ele><time>2026-05-04T16:54:17.27Z</time></trkpt><trkpt lat="45.1415616" lon="8.159315"><ele>180.0</ele><time>2026-05-04T16:54:18.276Z</time></trkpt><trkpt lat="45.1415703" lon="8.1592141"><ele>180.0</ele><time>2026-05-04T16:54:19.273Z</time></trkpt><trkpt lat="45.141605" lon="8.1591084"><ele>180.0</ele><time>2026-05-04T16:54:21.278Z</time></trkpt><trkpt lat="45.1417017" lon="8.159068"><ele>180.0</ele><time>2026-05-04T16:54:23.282Z</time></trkpt><trkpt lat="45.1417841" lon="8.1590588"><ele>180.0</ele><time>2026-05-04T16:54:24.274Z</time></trkpt><trkpt lat="45.1418824" lon="8.1590539"><ele>180.0</ele><time>2026-05-04T16:54:25.276Z</time></trkpt><trkpt lat="45.1419939" lon="8.1590489"><ele>180.0</ele><time>2026-05-04T16:54:26.276Z</time></trkpt><trkpt lat="45.142118" lon="8.1590432"><ele>180.0</ele><time>2026-05-04T16:54:27.271Z</time></trkpt><trkpt lat="45.1422427" lon="8.1590332"><ele>180.0</ele><time>2026-05-04T16:54:28.278Z</time></trkpt><trkpt lat="45.1423587" lon="8.1590157"><ele>180.0</ele><time>2026-05-04T16:54:29.269Z</time></trkpt><trkpt lat="45.1424531" lon="8.158991"><ele>181.0</ele><time>2026-05-04T16:54:30.275Z</time></trkpt><trkpt lat="45.1425282" lon="8.1589657"><ele>182.0</ele><time>2026-05-04T16:54:31.27Z</time></trkpt><trkpt lat="45.1426049" lon="8.1588843"><ele>183.0</ele><time>2026-05-04T16:54:33.273Z</time></trkpt><trkpt lat="45.1426924" lon="8.1588465"><ele>184.0</ele><time>2026-05-04T16:54:36.278Z</time></trkpt><trkpt lat="45.1427709" lon="8.1588382"><ele>185.0</ele><time>2026-05-04T16:54:38.273Z</time></trkpt><trkpt lat="45.1428332" lon="8.1586946"><ele>185.0</ele><time>2026-05-04T16:54:40.276Z</time></trkpt><trkpt lat="45.1428381" lon="8.1585354"><ele>185.0</ele><time>2026-05-04T16:54:42.273Z</time></trkpt><trkpt lat="45.1429548" lon="8.1584471"><ele>185.0</ele><time>2026-05-04T16:54:44.276Z</time></trkpt><trkpt lat="45.1430273" lon="8.1584092"><ele>185.0</ele><time>2026-05-04T16:54:45.275Z</time></trkpt><trkpt lat="45.1430942" lon="8.1583373"><ele>185.0</ele><time>2026-05-04T16:54:46.276Z</time></trkpt><trkpt lat="45.1431605" lon="8.1582546"><ele>185.99999999999997</ele><time>2026-05-04T16:54:47.287Z</time></trkpt><trkpt lat="45.143226" lon="8.1581738"><ele>187.0</ele><time>2026-05-04T16:54:48.278Z</time></trkpt><trkpt lat="45.1432944" lon="8.158113"><ele>188.0</ele><time>2026-05-04T16:54:49.275Z</time></trkpt><trkpt lat="45.1433632" lon="8.158067"><ele>189.0</ele><time>2026-05-04T16:54:50.275Z</time></trkpt><trkpt lat="45.1434236" lon="8.1580264"><ele>190.0</ele><time>2026-05-04T16:54:51.271Z</time></trkpt><trkpt lat="45.1434924" lon="8.1580002"><ele>190.99999999999997</ele><time>2026-05-04T16:54:52.277Z</time></trkpt><trkpt lat="45.1435564" lon="8.1579771"><ele>192.0</ele><time>2026-05-04T16:54:53.272Z</time></trkpt><trkpt lat="45.1436272" lon="8.1579753"><ele>192.0</ele><time>2026-05-04T16:54:54.276Z</time></trkpt><trkpt lat="45.1437311" lon="8.1579718"><ele>192.0</ele><time>2026-05-04T16:54:56.279Z</time></trkpt><trkpt lat="45.1438414" lon="8.1580434"><ele>192.0</ele><time>2026-05-04T16:54:58.272Z</time></trkpt><trkpt lat="45.143902" lon="8.1580968"><ele>192.0</ele><time>2026-05-04T16:54:59.267Z</time></trkpt><trkpt lat="45.1439502" lon="8.1581683"><ele>192.0</ele><time>2026-05-04T16:55:00.275Z</time></trkpt><trkpt lat="45.1440419" lon="8.1582553"><ele>195.39999999999998</ele><time>2026-05-04T16:55:02.271Z</time></trkpt><trkpt lat="45.1441065" lon="8.1582879"><ele>198.79999999999998</ele><time>2026-05-04T16:55:03.27Z</time></trkpt><trkpt lat="45.1442307" lon="8.1583018"><ele>202.2</ele><time>2026-05-04T16:55:05.277Z</time></trkpt><trkpt lat="45.1442955" lon="8.1582791"><ele>205.6</ele><time>2026-05-04T16:55:06.277Z</time></trkpt><trkpt lat="45.144393" lon="8.1582034"><ele>209.0</ele><time>2026-05-04T16:55:08.273Z</time></trkpt><trkpt lat="45.144417" lon="8.1580243"><ele>209.00000000000003</ele><time>2026-05-04T16:55:10.278Z</time></trkpt><trkpt lat="45.1444382" lon="8.157918"><ele>209.0</ele><time>2026-05-04T16:55:11.271Z</time></trkpt><trkpt lat="45.1444549" lon="8.1578048"><ele>209.0</ele><time>2026-05-04T16:55:12.269Z</time></trkpt><trkpt lat="45.1444721" lon="8.1576946"><ele>209.0</ele><time>2026-05-04T16:55:13.271Z</time></trkpt><trkpt lat="45.1444965" lon="8.1575732"><ele>209.00000000000003</ele><time>2026-05-04T16:55:14.27Z</time></trkpt><trkpt lat="45.1445126" lon="8.1574475"><ele>209.0</ele><time>2026-05-04T16:55:15.272Z</time></trkpt><trkpt lat="45.1445293" lon="8.1573235"><ele>209.83333333333334</ele><time>2026-05-04T16:55:16.274Z</time></trkpt><trkpt lat="45.1445476" lon="8.1572235"><ele>210.66666666666669</ele><time>2026-05-04T16:55:17.274Z</time></trkpt><trkpt lat="45.1445677" lon="8.1571308"><ele>211.5</ele><time>2026-05-04T16:55:18.285Z</time></trkpt><trkpt lat="45.1446092" lon="8.1570214"><ele>212.33333333333331</ele><time>2026-05-04T16:55:20.279Z</time></trkpt><trkpt lat="45.1446752" lon="8.1569865"><ele>213.16666666666666</ele><time>2026-05-04T16:55:22.277Z</time></trkpt><trkpt lat="45.1447674" lon="8.1570476"><ele>214.0</ele><time>2026-05-04T16:55:24.274Z</time></trkpt><trkpt lat="45.1448726" lon="8.1571476"><ele>216.99999999999997</ele><time>2026-05-04T16:55:26.28Z</time></trkpt><trkpt lat="45.1449782" lon="8.1572331"><ele>220.0</ele><time>2026-05-04T16:55:28.277Z</time></trkpt><trkpt lat="45.1450422" lon="8.1572842"><ele>223.0</ele><time>2026-05-04T16:55:29.275Z</time></trkpt><trkpt lat="45.145104" lon="8.1573368"><ele>226.0</ele><time>2026-05-04T16:55:30.281Z</time></trkpt><trkpt lat="45.1451603" lon="8.1574014"><ele>228.99999999999997</ele><time>2026-05-04T16:55:31.279Z</time></trkpt><trkpt lat="45.1452174" lon="8.1574741"><ele>232.0</ele><time>2026-05-04T16:55:32.276Z</time></trkpt><trkpt lat="45.1452633" lon="8.1575503"><ele>231.99999999999997</ele><time>2026-05-04T16:55:33.276Z</time></trkpt><trkpt lat="45.1453129" lon="8.1576466"><ele>232.0</ele><time>2026-05-04T16:55:34.277Z</time></trkpt><trkpt lat="45.1453507" lon="8.1577368"><ele>232.0</ele><time>2026-05-04T16:55:35.274Z</time></trkpt><trkpt lat="45.1453789" lon="8.1578286"><ele>232.0</ele><time>2026-05-04T16:55:36.279Z</time></trkpt><trkpt lat="45.1454117" lon="8.1579138"><ele>231.99999999999997</ele><time>2026-05-04T16:55:37.276Z</time></trkpt><trkpt lat="45.1454428" lon="8.1579959"><ele>232.0</ele><time>2026-05-04T16:55:38.273Z</time></trkpt><trkpt lat="45.1455118" lon="8.1580956"><ele>232.0</ele><time>2026-05-04T16:55:40.278Z</time></trkpt><trkpt lat="45.1456242" lon="8.1581018"><ele>232.0</ele><time>2026-05-04T16:55:42.28Z</time></trkpt><trkpt lat="45.1457561" lon="8.1580708"><ele>232.0</ele><time>2026-05-04T16:55:44.283Z</time></trkpt><trkpt lat="45.1458226" lon="8.158042"><ele>232.0</ele><time>2026-05-04T16:55:45.269Z</time></trkpt><trkpt lat="45.14589" lon="8.1579942"><ele>232.0</ele><time>2026-05-04T16:55:47.277Z</time></trkpt><trkpt lat="45.1459159" lon="8.157852"><ele>235.16666666666666</ele><time>2026-05-04T16:55:50.274Z</time></trkpt><trkpt lat="45.1459101" lon="8.1577568"><ele>238.33333333333331</ele><time>2026-05-04T16:55:51.273Z</time></trkpt><trkpt lat="45.1459022" lon="8.1576594"><ele>241.5</ele><time>2026-05-04T16:55:52.273Z</time></trkpt><trkpt lat="45.1458895" lon="8.1575514"><ele>244.66666666666669</ele><time>2026-05-04T16:55:53.274Z</time></trkpt><trkpt lat="45.1458715" lon="8.1574306"><ele>247.83333333333334</ele><time>2026-05-04T16:55:54.272Z</time></trkpt><trkpt lat="45.1458577" lon="8.1573187"><ele>251.0</ele><time>2026-05-04T16:55:55.273Z</time></trkpt><trkpt lat="45.1458467" lon="8.1572227"><ele>252.4</ele><time>2026-05-04T16:55:56.276Z</time></trkpt><trkpt lat="45.1458404" lon="8.1570804"><ele>253.8</ele><time>2026-05-04T16:55:58.273Z</time></trkpt><trkpt lat="45.1458587" lon="8.1569816"><ele>255.20000000000002</ele><time>2026-05-04T16:56:00.279Z</time></trkpt><trkpt lat="45.1459466" lon="8.156923"><ele>256.6</ele><time>2026-05-04T16:56:02.274Z</time></trkpt><trkpt lat="45.1460427" lon="8.1568383"><ele>258.0</ele><time>2026-05-04T16:56:04.285Z</time></trkpt><trkpt lat="45.1461136" lon="8.1567236"><ele>258.0</ele><time>2026-05-04T16:56:06.275Z</time></trkpt><trkpt lat="45.1461253" lon="8.1566355"><ele>258.0</ele><time>2026-05-04T16:56:07.276Z</time></trkpt><trkpt lat="45.1461145" lon="8.1564879"><ele>258.0</ele><time>2026-05-04T16:56:09.28Z</time></trkpt><trkpt lat="45.1460609" lon="8.1563467"><ele>258.0</ele><time>2026-05-04T16:56:11.27Z</time></trkpt><trkpt lat="45.1460021" lon="8.1562779"><ele>258.0</ele><time>2026-05-04T16:56:12.282Z</time></trkpt><trkpt lat="45.1459481" lon="8.156187"><ele>258.0</ele><time>2026-05-04T16:56:13.275Z</time></trkpt><trkpt lat="45.1459012" lon="8.1560832"><ele>258.4</ele><time>2026-05-04T16:56:14.273Z</time></trkpt><trkpt lat="45.145854" lon="8.1559497"><ele>258.8</ele><time>2026-05-04T16:56:15.272Z</time></trkpt><trkpt lat="45.1458154" lon="8.1558181"><ele>259.2</ele><time>2026-05-04T16:56:16.274Z</time></trkpt><trkpt lat="45.1457829" lon="8.1556933"><ele>259.6</ele><time>2026-05-04T16:56:17.277Z</time></trkpt><trkpt lat="45.145758" lon="8.1555747"><ele>260.0</ele><time>2026-05-04T16:56:18.279Z</time></trkpt><trkpt lat="45.1457381" lon="8.1554723"><ele>260.5</ele><time>2026-05-04T16:56:19.271Z</time></trkpt><trkpt lat="45.1457234" lon="8.1553727"><ele>261.0</ele><time>2026-05-04T16:56:20.276Z</time></trkpt><trkpt lat="45.1457101" lon="8.1552735"><ele>261.5</ele><time>2026-05-04T16:56:21.282Z</time></trkpt><trkpt lat="45.1457182" lon="8.1551683"><ele>262.0</ele><time>2026-05-04T16:56:22.282Z</time></trkpt><trkpt lat="45.1457333" lon="8.1550468"><ele>262.5</ele><time>2026-05-04T16:56:23.273Z</time></trkpt><trkpt lat="45.1457482" lon="8.1549244"><ele>263.0</ele><time>2026-05-04T16:56:24.279Z</time></trkpt><trkpt lat="45.1457748" lon="8.1547937"><ele>264.4</ele><time>2026-05-04T16:56:25.286Z</time></trkpt><trkpt lat="45.1457986" lon="8.154672"><ele>265.8</ele><time>2026-05-04T16:56:26.277Z</time></trkpt><trkpt lat="45.1458238" lon="8.1545461"><ele>267.2</ele><time>2026-05-04T16:56:27.272Z</time></trkpt><trkpt lat="45.1458469" lon="8.1544127"><ele>268.6</ele><time>2026-05-04T16:56:28.276Z</time></trkpt><trkpt lat="45.1458555" lon="8.1542784"><ele>270.0</ele><time>2026-05-04T16:56:29.278Z</time></trkpt><trkpt lat="45.1458543" lon="8.1541477"><ele>269.6666666666667</ele><time>2026-05-04T16:56:30.28Z</time></trkpt><trkpt lat="45.1458337" lon="8.154026"><ele>269.3333333333333</ele><time>2026-05-04T16:56:31.271Z</time></trkpt><trkpt lat="45.1458127" lon="8.153908"><ele>269.0</ele><time>2026-05-04T16:56:32.274Z</time></trkpt><trkpt lat="45.1457931" lon="8.153792"><ele>268.66666666666663</ele><time>2026-05-04T16:56:33.275Z</time></trkpt><trkpt lat="45.1457728" lon="8.1536789"><ele>268.3333333333333</ele><time>2026-05-04T16:56:34.273Z</time></trkpt><trkpt lat="45.1457506" lon="8.1535781"><ele>268.0</ele><time>2026-05-04T16:56:35.275Z</time></trkpt><trkpt lat="45.1457207" lon="8.1534834"><ele>266.2</ele><time>2026-05-04T16:56:36.272Z</time></trkpt><trkpt lat="45.1456872" lon="8.153386"><ele>264.4</ele><time>2026-05-04T16:56:37.275Z</time></trkpt><trkpt lat="45.1456675" lon="8.1532942"><ele>262.59999999999997</ele><time>2026-05-04T16:56:38.276Z</time></trkpt><trkpt lat="45.1456573" lon="8.1531252"><ele>260.8</ele><time>2026-05-04T16:56:40.27Z</time></trkpt><trkpt lat="45.145643" lon="8.1529591"><ele>259.0</ele><time>2026-05-04T16:56:42.271Z</time></trkpt><trkpt lat="45.1456194" lon="8.1527831"><ele>259.0</ele><time>2026-05-04T16:56:44.267Z</time></trkpt><trkpt lat="45.1455977" lon="8.1526915"><ele>259.0</ele><time>2026-05-04T16:56:45.273Z</time></trkpt><trkpt lat="45.1455783" lon="8.1526009"><ele>259.0</ele><time>2026-05-04T16:56:46.273Z</time></trkpt><trkpt lat="45.1455597" lon="8.152501"><ele>259.0</ele><time>2026-05-04T16:56:47.282Z</time></trkpt><trkpt lat="45.1455509" lon="8.1523651"><ele>259.0</ele><time>2026-05-04T16:56:48.277Z</time></trkpt><trkpt lat="45.1455315" lon="8.1522512"><ele>259.0</ele><time>2026-05-04T16:56:49.273Z</time></trkpt><trkpt lat="45.1455343" lon="8.1521467"><ele>258.8333333333333</ele><time>2026-05-04T16:56:50.274Z</time></trkpt><trkpt lat="45.1455448" lon="8.152038"><ele>258.66666666666663</ele><time>2026-05-04T16:56:51.274Z</time></trkpt><trkpt lat="45.1455628" lon="8.1519342"><ele>258.5</ele><time>2026-05-04T16:56:52.276Z</time></trkpt><trkpt lat="45.1455885" lon="8.1518342"><ele>258.3333333333333</ele><time>2026-05-04T16:56:53.276Z</time></trkpt><trkpt lat="45.1456157" lon="8.1517359"><ele>258.1666666666667</ele><time>2026-05-04T16:56:54.273Z</time></trkpt><trkpt lat="45.1456442" lon="8.1516232"><ele>258.0</ele><time>2026-05-04T16:56:55.278Z</time></trkpt><trkpt lat="45.1456691" lon="8.1515162"><ele>257.5</ele><time>2026-05-04T16:56:56.279Z</time></trkpt><trkpt lat="45.1456874" lon="8.1513859"><ele>257.0</ele><time>2026-05-04T16:56:57.272Z</time></trkpt><trkpt lat="45.1457021" lon="8.1512747"><ele>256.5</ele><time>2026-05-04T16:56:58.275Z</time></trkpt><trkpt lat="45.1457105" lon="8.1511699"><ele>256.0</ele><time>2026-05-04T16:56:59.273Z</time></trkpt><trkpt lat="45.1457058" lon="8.1510695"><ele>255.5</ele><time>2026-05-04T16:57:00.275Z</time></trkpt><trkpt lat="45.1457129" lon="8.1509803"><ele>255.0</ele><time>2026-05-04T16:57:01.271Z</time></trkpt><trkpt lat="45.1456843" lon="8.1508363"><ele>255.2</ele><time>2026-05-04T16:57:03.274Z</time></trkpt><trkpt lat="45.1456344" lon="8.1506619"><ele>255.4</ele><time>2026-05-04T16:57:05.274Z</time></trkpt><trkpt lat="45.1456058" lon="8.1505479"><ele>255.60000000000002</ele><time>2026-05-04T16:57:06.266Z</time></trkpt><trkpt lat="45.1455786" lon="8.1504436"><ele>255.8</ele><time>2026-05-04T16:57:07.275Z</time></trkpt><trkpt lat="45.1455513" lon="8.1503326"><ele>256.0</ele><time>2026-05-04T16:57:08.277Z</time></trkpt><trkpt lat="45.1455262" lon="8.1502181"><ele>255.99999999999997</ele><time>2026-05-04T16:57:09.274Z</time></trkpt><trkpt lat="45.1455004" lon="8.1501074"><ele>256.0</ele><time>2026-05-04T16:57:10.275Z</time></trkpt><trkpt lat="45.1454775" lon="8.1499894"><ele>256.0</ele><time>2026-05-04T16:57:11.274Z</time></trkpt><trkpt lat="45.1454605" lon="8.1498765"><ele>256.0</ele><time>2026-05-04T16:57:12.28Z</time></trkpt><trkpt lat="45.1454475" lon="8.1497658"><ele>255.99999999999997</ele><time>2026-05-04T16:57:13.277Z</time></trkpt><trkpt lat="45.1454408" lon="8.1496544"><ele>256.0</ele><time>2026-05-04T16:57:14.271Z</time></trkpt><trkpt lat="45.1454404" lon="8.1495474"><ele>257.16666666666663</ele><time>2026-05-04T16:57:15.285Z</time></trkpt><trkpt lat="45.145448" lon="8.1494429"><ele>258.3333333333333</ele><time>2026-05-04T16:57:16.279Z</time></trkpt><trkpt lat="45.1454553" lon="8.1493339"><ele>259.5</ele><time>2026-05-04T16:57:17.274Z</time></trkpt><trkpt lat="45.145456" lon="8.1492312"><ele>260.6666666666667</ele><time>2026-05-04T16:57:18.276Z</time></trkpt><trkpt lat="45.1454527" lon="8.1491346"><ele>261.83333333333337</ele><time>2026-05-04T16:57:19.279Z</time></trkpt><trkpt lat="45.145449" lon="8.149044"><ele>263.0</ele><time>2026-05-04T16:57:20.271Z</time></trkpt><trkpt lat="45.1454027" lon="8.1488854"><ele>264.0</ele><time>2026-05-04T16:57:22.28Z</time></trkpt><trkpt lat="45.1453482" lon="8.1488205"><ele>265.0</ele><time>2026-05-04T16:57:23.277Z</time></trkpt><trkpt lat="45.1452843" lon="8.1487651"><ele>266.0</ele><time>2026-05-04T16:57:24.275Z</time></trkpt><trkpt lat="45.1452197" lon="8.1487088"><ele>267.0</ele><time>2026-05-04T16:57:25.275Z</time></trkpt><trkpt lat="45.1451592" lon="8.148639"><ele>268.0</ele><time>2026-05-04T16:57:26.277Z</time></trkpt><trkpt lat="45.1451005" lon="8.1485692"><ele>269.0</ele><time>2026-05-04T16:57:27.277Z</time></trkpt><trkpt lat="45.1450569" lon="8.1484798"><ele>269.0</ele><time>2026-05-04T16:57:28.283Z</time></trkpt><trkpt lat="45.1450174" lon="8.1483836"><ele>269.0</ele><time>2026-05-04T16:57:29.274Z</time></trkpt><trkpt lat="45.1449791" lon="8.1482783"><ele>269.0</ele><time>2026-05-04T16:57:30.277Z</time></trkpt><trkpt lat="45.1449428" lon="8.1481804"><ele>269.0</ele><time>2026-05-04T16:57:31.276Z</time></trkpt><trkpt lat="45.1449099" lon="8.1480873"><ele>269.0</ele><time>2026-05-04T16:57:32.279Z</time></trkpt><trkpt lat="45.144879" lon="8.1480013"><ele>269.0</ele><time>2026-05-04T16:57:33.276Z</time></trkpt><trkpt lat="45.1448417" lon="8.1479265"><ele>269.0</ele><time>2026-05-04T16:57:34.286Z</time></trkpt><trkpt lat="45.1447981" lon="8.1478501"><ele>271.8</ele><time>2026-05-04T16:57:35.278Z</time></trkpt><trkpt lat="45.1447492" lon="8.1477796"><ele>274.59999999999997</ele><time>2026-05-04T16:57:36.275Z</time></trkpt><trkpt lat="45.144698" lon="8.1477103"><ele>277.4</ele><time>2026-05-04T16:57:37.277Z</time></trkpt><trkpt lat="45.1446062" lon="8.1475895"><ele>280.2</ele><time>2026-05-04T16:57:39.295Z</time></trkpt><trkpt lat="45.1445185" lon="8.1474724"><ele>283.0</ele><time>2026-05-04T16:57:41.282Z</time></trkpt><trkpt lat="45.1444812" lon="8.1473174"><ele>286.25</ele><time>2026-05-04T16:57:43.281Z</time></trkpt><trkpt lat="45.1444355" lon="8.1471738"><ele>289.5</ele><time>2026-05-04T16:57:45.273Z</time></trkpt><trkpt lat="45.1443526" lon="8.147104"><ele>292.75</ele><time>2026-05-04T16:57:47.276Z</time></trkpt><trkpt lat="45.1442349" lon="8.1470544"><ele>296.0</ele><time>2026-05-04T16:57:49.282Z</time></trkpt><trkpt lat="45.144109" lon="8.1469809"><ele>294.83333333333337</ele><time>2026-05-04T16:57:51.278Z</time></trkpt><trkpt lat="45.1440302" lon="8.1469377"><ele>293.6666666666667</ele><time>2026-05-04T16:57:52.274Z</time></trkpt><trkpt lat="45.1439621" lon="8.1469027"><ele>292.5</ele><time>2026-05-04T16:57:53.276Z</time></trkpt><trkpt lat="45.1438973" lon="8.1468627"><ele>291.3333333333333</ele><time>2026-05-04T16:57:54.273Z</time></trkpt><trkpt lat="45.143829" lon="8.1468282"><ele>290.16666666666663</ele><time>2026-05-04T16:57:55.278Z</time></trkpt><trkpt lat="45.1437561" lon="8.1467925"><ele>289.0</ele><time>2026-05-04T16:57:56.274Z</time></trkpt><trkpt lat="45.1436821" lon="8.1467585"><ele>289.0</ele><time>2026-05-04T16:57:57.276Z</time></trkpt><trkpt lat="45.1436148" lon="8.1467374"><ele>289.0</ele><time>2026-05-04T16:57:58.277Z</time></trkpt><trkpt lat="45.1435028" lon="8.1466895"><ele>289.0</ele><time>2026-05-04T16:58:00.267Z</time></trkpt><trkpt lat="45.1434166" lon="8.1466401"><ele>289.0</ele><time>2026-05-04T16:58:02.276Z</time></trkpt><trkpt lat="45.1433733" lon="8.1465422"><ele>289.0</ele><time>2026-05-04T16:58:04.275Z</time></trkpt><trkpt lat="45.1433825" lon="8.146407"><ele>289.59999999999997</ele><time>2026-05-04T16:58:06.278Z</time></trkpt><trkpt lat="45.1434107" lon="8.1462354"><ele>290.2</ele><time>2026-05-04T16:58:08.273Z</time></trkpt><trkpt lat="45.1434248" lon="8.1461425"><ele>290.79999999999995</ele><time>2026-05-04T16:58:09.277Z</time></trkpt><trkpt lat="45.143437" lon="8.1460489"><ele>291.4</ele><time>2026-05-04T16:58:10.274Z</time></trkpt><trkpt lat="45.1434551" lon="8.1458676"><ele>292.0</ele><time>2026-05-04T16:58:12.28Z</time></trkpt><trkpt lat="45.1434644" lon="8.1457793"><ele>293.4</ele><time>2026-05-04T16:58:13.283Z</time></trkpt><trkpt lat="45.143448" lon="8.1455962"><ele>294.79999999999995</ele><time>2026-05-04T16:58:15.273Z</time></trkpt><trkpt lat="45.1434332" lon="8.1455"><ele>296.2</ele><time>2026-05-04T16:58:16.276Z</time></trkpt><trkpt lat="45.1434149" lon="8.1454052"><ele>297.59999999999997</ele><time>2026-05-04T16:58:17.281Z</time></trkpt><trkpt lat="45.1433955" lon="8.1453168"><ele>299.0</ele><time>2026-05-04T16:58:18.27Z</time></trkpt><trkpt lat="45.143346" lon="8.1451553"><ele>299.0</ele><time>2026-05-04T16:58:20.281Z</time></trkpt><trkpt lat="45.1433191" lon="8.1450744"><ele>299.0</ele><time>2026-05-04T16:58:21.275Z</time></trkpt><trkpt lat="45.1432906" lon="8.1449948"><ele>299.0</ele><time>2026-05-04T16:58:22.277Z</time></trkpt><trkpt lat="45.1432241" lon="8.1448479"><ele>299.0</ele><time>2026-05-04T16:58:24.278Z</time></trkpt><trkpt lat="45.1431528" lon="8.1447073"><ele>299.0</ele><time>2026-05-04T16:58:26.28Z</time></trkpt><trkpt lat="45.1430814" lon="8.1445593"><ele>294.2</ele><time>2026-05-04T16:58:28.282Z</time></trkpt><trkpt lat="45.143044" lon="8.1444871"><ele>289.4</ele><time>2026-05-04T16:58:29.272Z</time></trkpt><trkpt lat="45.1429693" lon="8.1443487"><ele>284.6</ele><time>2026-05-04T16:58:31.278Z</time></trkpt><trkpt lat="45.1429292" lon="8.1442785"><ele>279.8</ele><time>2026-05-04T16:58:32.284Z</time></trkpt><trkpt lat="45.1428579" lon="8.1441615"><ele>275.0</ele><time>2026-05-04T16:58:34.281Z</time></trkpt><trkpt lat="45.142787" lon="8.1440181"><ele>275.0</ele><time>2026-05-04T16:58:36.278Z</time></trkpt><trkpt lat="45.142763" lon="8.1439289"><ele>275.0</ele><time>2026-05-04T16:58:37.275Z</time></trkpt><trkpt lat="45.1427397" lon="8.1438445"><ele>275.0</ele><time>2026-05-04T16:58:38.275Z</time></trkpt><trkpt lat="45.1427316" lon="8.1437505"><ele>275.0</ele><time>2026-05-04T16:58:39.284Z</time></trkpt><trkpt lat="45.1427129" lon="8.143652"><ele>275.0</ele><time>2026-05-04T16:58:40.28Z</time></trkpt><trkpt lat="45.1426954" lon="8.1435616"><ele>275.0</ele><time>2026-05-04T16:58:41.27Z</time></trkpt><trkpt lat="45.1426581" lon="8.1433965"><ele>275.0</ele><time>2026-05-04T16:58:43.273Z</time></trkpt><trkpt lat="45.1426313" lon="8.1433132"><ele>275.0</ele><time>2026-05-04T16:58:44.283Z</time></trkpt><trkpt lat="45.1426002" lon="8.1432334"><ele>275.0</ele><time>2026-05-04T16:58:45.275Z</time></trkpt><trkpt lat="45.142542" lon="8.1431054"><ele>275.0</ele><time>2026-05-04T16:58:47.27Z</time></trkpt><trkpt lat="45.1424649" lon="8.1430216"><ele>275.0</ele><time>2026-05-04T16:58:49.28Z</time></trkpt><trkpt lat="45.1423482" lon="8.14298"><ele>277.83333333333337</ele><time>2026-05-04T16:58:51.27Z</time></trkpt><trkpt lat="45.1422336" lon="8.1429692"><ele>280.6666666666667</ele><time>2026-05-04T16:58:53.272Z</time></trkpt><trkpt lat="45.1421682" lon="8.1429789"><ele>283.5</ele><time>2026-05-04T16:58:54.281Z</time></trkpt><trkpt lat="45.1420912" lon="8.1430017"><ele>286.3333333333333</ele><time>2026-05-04T16:58:55.268Z</time></trkpt><trkpt lat="45.1420072" lon="8.1430433"><ele>289.16666666666663</ele><time>2026-05-04T16:58:56.29Z</time></trkpt><trkpt lat="45.1419297" lon="8.1430989"><ele>292.0</ele><time>2026-05-04T16:58:57.272Z</time></trkpt><trkpt lat="45.1418515" lon="8.1431652"><ele>289.0</ele><time>2026-05-04T16:58:58.276Z</time></trkpt><trkpt lat="45.1417799" lon="8.1432286"><ele>286.0</ele><time>2026-05-04T16:58:59.271Z</time></trkpt><trkpt lat="45.1417126" lon="8.1432959"><ele>283.0</ele><time>2026-05-04T16:59:00.272Z</time></trkpt><trkpt lat="45.1416439" lon="8.1433603"><ele>280.0</ele><time>2026-05-04T16:59:01.274Z</time></trkpt><trkpt lat="45.1415761" lon="8.1434265"><ele>277.0</ele><time>2026-05-04T16:59:02.274Z</time></trkpt><trkpt lat="45.14151" lon="8.1435043"><ele>274.0</ele><time>2026-05-04T16:59:03.278Z</time></trkpt><trkpt lat="45.1414461" lon="8.1435791"><ele>273.5</ele><time>2026-05-04T16:59:04.282Z</time></trkpt><trkpt lat="45.1413847" lon="8.1436566"><ele>273.0</ele><time>2026-05-04T16:59:05.275Z</time></trkpt><trkpt lat="45.1413247" lon="8.1437322"><ele>272.5</ele><time>2026-05-04T16:59:06.276Z</time></trkpt><trkpt lat="45.1412704" lon="8.1437823"><ele>272.0</ele><time>2026-05-04T16:59:07.274Z</time></trkpt><trkpt lat="45.1411641" lon="8.1438401"><ele>271.5</ele><time>2026-05-04T16:59:09.274Z</time></trkpt><trkpt lat="45.1410797" lon="8.1438507"><ele>271.0</ele><time>2026-05-04T16:59:11.273Z</time></trkpt><trkpt lat="45.1410106" lon="8.1437323"><ele>271.0</ele><time>2026-05-04T16:59:13.272Z</time></trkpt><trkpt lat="45.1409748" lon="8.1435552"><ele>271.0</ele><time>2026-05-04T16:59:15.28Z</time></trkpt><trkpt lat="45.1409552" lon="8.1434629"><ele>271.0</ele><time>2026-05-04T16:59:16.278Z</time></trkpt><trkpt lat="45.1409346" lon="8.1433741"><ele>271.0</ele><time>2026-05-04T16:59:17.274Z</time></trkpt><trkpt lat="45.1409129" lon="8.1432778"><ele>271.0</ele><time>2026-05-04T16:59:18.275Z</time></trkpt><trkpt lat="45.1408912" lon="8.1431768"><ele>271.0</ele><time>2026-05-04T16:59:19.275Z</time></trkpt><trkpt lat="45.1408712" lon="8.1430727"><ele>271.8333333333333</ele><time>2026-05-04T16:59:20.279Z</time></trkpt><trkpt lat="45.1408472" lon="8.1429653"><ele>272.66666666666663</ele><time>2026-05-04T16:59:21.275Z</time></trkpt><trkpt lat="45.1408178" lon="8.1428508"><ele>273.5</ele><time>2026-05-04T16:59:22.276Z</time></trkpt><trkpt lat="45.1407901" lon="8.1427379"><ele>274.3333333333333</ele><time>2026-05-04T16:59:23.276Z</time></trkpt><trkpt lat="45.1407597" lon="8.1426266"><ele>275.1666666666667</ele><time>2026-05-04T16:59:24.278Z</time></trkpt><trkpt lat="45.140727" lon="8.1425188"><ele>276.0</ele><time>2026-05-04T16:59:25.274Z</time></trkpt><trkpt lat="45.1406953" lon="8.1424164"><ele>278.0</ele><time>2026-05-04T16:59:26.276Z</time></trkpt><trkpt lat="45.1406555" lon="8.1423204"><ele>280.0</ele><time>2026-05-04T16:59:27.277Z</time></trkpt><trkpt lat="45.1406134" lon="8.1422366"><ele>282.0</ele><time>2026-05-04T16:59:28.285Z</time></trkpt><trkpt lat="45.1405716" lon="8.1421657"><ele>284.0</ele><time>2026-05-04T16:59:29.274Z</time></trkpt><trkpt lat="45.1405244" lon="8.1421064"><ele>286.0</ele><time>2026-05-04T16:59:30.273Z</time></trkpt><trkpt lat="45.1404659" lon="8.1420642"><ele>288.0</ele><time>2026-05-04T16:59:31.274Z</time></trkpt><trkpt lat="45.1404043" lon="8.1420215"><ele>290.0</ele><time>2026-05-04T16:59:32.277Z</time></trkpt><trkpt lat="45.1403443" lon="8.1419835"><ele>290.0</ele><time>2026-05-04T16:59:33.279Z</time></trkpt><trkpt lat="45.1402318" lon="8.1419412"><ele>290.0</ele><time>2026-05-04T16:59:35.274Z</time></trkpt><trkpt lat="45.1401304" lon="8.1420286"><ele>290.0</ele><time>2026-05-04T16:59:37.276Z</time></trkpt><trkpt lat="45.140077" lon="8.1421039"><ele>290.0</ele><time>2026-05-04T16:59:38.278Z</time></trkpt><trkpt lat="45.1400261" lon="8.1421803"><ele>290.0</ele><time>2026-05-04T16:59:39.282Z</time></trkpt><trkpt lat="45.1399659" lon="8.1422613"><ele>290.0</ele><time>2026-05-04T16:59:40.283Z</time></trkpt><trkpt lat="45.1398939" lon="8.1423311"><ele>290.0</ele><time>2026-05-04T16:59:41.284Z</time></trkpt><trkpt lat="45.1398316" lon="8.1423847"><ele>290.0</ele><time>2026-05-04T16:59:42.277Z</time></trkpt><trkpt lat="45.1397621" lon="8.1424184"><ele>290.0</ele><time>2026-05-04T16:59:43.275Z</time></trkpt><trkpt lat="45.1396374" lon="8.1424335"><ele>290.0</ele><time>2026-05-04T16:59:45.277Z</time></trkpt><trkpt lat="45.1395066" lon="8.1423993"><ele>290.83333333333337</ele><time>2026-05-04T16:59:47.278Z</time></trkpt><trkpt lat="45.139428" lon="8.1423766"><ele>291.6666666666667</ele><time>2026-05-04T16:59:48.281Z</time></trkpt><trkpt lat="45.1393435" lon="8.1423606"><ele>292.5</ele><time>2026-05-04T16:59:49.284Z</time></trkpt><trkpt lat="45.1392582" lon="8.142328"><ele>293.3333333333333</ele><time>2026-05-04T16:59:50.283Z</time></trkpt><trkpt lat="45.1391867" lon="8.1422792"><ele>294.16666666666663</ele><time>2026-05-04T16:59:51.287Z</time></trkpt><trkpt lat="45.1391505" lon="8.142206"><ele>295.0</ele><time>2026-05-04T16:59:52.282Z</time></trkpt><trkpt lat="45.1391262" lon="8.1420434"><ele>295.00000000000006</ele><time>2026-05-04T16:59:54.281Z</time></trkpt><trkpt lat="45.1391036" lon="8.1419418"><ele>295.0</ele><time>2026-05-04T16:59:55.279Z</time></trkpt><trkpt lat="45.1390774" lon="8.1418375"><ele>295.0</ele><time>2026-05-04T16:59:56.288Z</time></trkpt><trkpt lat="45.1390517" lon="8.14174"><ele>295.0</ele><time>2026-05-04T16:59:57.276Z</time></trkpt><trkpt lat="45.1390227" lon="8.1416553"><ele>295.0</ele><time>2026-05-04T16:59:58.281Z</time></trkpt><trkpt lat="45.1389907" lon="8.1415717"><ele>295.00000000000006</ele><time>2026-05-04T16:59:59.278Z</time></trkpt><trkpt lat="45.1389616" lon="8.1414876"><ele>295.0</ele><time>2026-05-04T17:00:00.281Z</time></trkpt><trkpt lat="45.138939" lon="8.1414041"><ele>293.16666666666663</ele><time>2026-05-04T17:00:01.279Z</time></trkpt><trkpt lat="45.138904" lon="8.1412243"><ele>291.3333333333333</ele><time>2026-05-04T17:00:03.273Z</time></trkpt><trkpt lat="45.1388835" lon="8.141094"><ele>289.5</ele><time>2026-05-04T17:00:04.279Z</time></trkpt><trkpt lat="45.1388657" lon="8.1409825"><ele>287.6666666666667</ele><time>2026-05-04T17:00:05.277Z</time></trkpt><trkpt lat="45.1388463" lon="8.1408906"><ele>285.83333333333337</ele><time>2026-05-04T17:00:06.282Z</time></trkpt><trkpt lat="45.1388166" lon="8.1407969"><ele>284.0</ele><time>2026-05-04T17:00:07.272Z</time></trkpt><trkpt lat="45.1387884" lon="8.1407097"><ele>284.0</ele><time>2026-05-04T17:00:08.274Z</time></trkpt><trkpt lat="45.1387587" lon="8.1405375"><ele>284.0</ele><time>2026-05-04T17:00:10.28Z</time></trkpt><trkpt lat="45.138763" lon="8.140441"><ele>284.0</ele><time>2026-05-04T17:00:11.281Z</time></trkpt><trkpt lat="45.1387836" lon="8.1403386"><ele>284.0</ele><time>2026-05-04T17:00:12.282Z</time></trkpt><trkpt lat="45.1388246" lon="8.1402308"><ele>284.0</ele><time>2026-05-04T17:00:13.278Z</time></trkpt><trkpt lat="45.1388586" lon="8.1401289"><ele>284.0</ele><time>2026-05-04T17:00:14.278Z</time></trkpt><trkpt lat="45.1388875" lon="8.1400127"><ele>284.0</ele><time>2026-05-04T17:00:15.271Z</time></trkpt><trkpt lat="45.1389095" lon="8.1399032"><ele>284.0</ele><time>2026-05-04T17:00:16.28Z</time></trkpt><trkpt lat="45.1389386" lon="8.1398016"><ele>284.0</ele><time>2026-05-04T17:00:17.273Z</time></trkpt><trkpt lat="45.1389732" lon="8.1397037"><ele>284.0</ele><time>2026-05-04T17:00:18.28Z</time></trkpt><trkpt lat="45.1390096" lon="8.139609"><ele>284.0</ele><time>2026-05-04T17:00:19.278Z</time></trkpt><trkpt lat="45.1390362" lon="8.1395008"><ele>284.0</ele><time>2026-05-04T17:00:20.277Z</time></trkpt><trkpt lat="45.1390468" lon="8.1394014"><ele>285.59999999999997</ele><time>2026-05-04T17:00:21.275Z</time></trkpt><trkpt lat="45.1390454" lon="8.139248"><ele>287.2</ele><time>2026-05-04T17:00:23.273Z</time></trkpt><trkpt lat="45.1389579" lon="8.1391724"><ele>288.79999999999995</ele><time>2026-05-04T17:00:25.273Z</time></trkpt><trkpt lat="45.1388889" lon="8.1391576"><ele>290.4</ele><time>2026-05-04T17:00:26.279Z</time></trkpt><trkpt lat="45.1388023" lon="8.1391348"><ele>292.0</ele><time>2026-05-04T17:00:27.273Z</time></trkpt><trkpt lat="45.1387107" lon="8.1390895"><ele>292.0</ele><time>2026-05-04T17:00:28.273Z</time></trkpt><trkpt lat="45.1386205" lon="8.1390362"><ele>292.0</ele><time>2026-05-04T17:00:29.276Z</time></trkpt><trkpt lat="45.138536" lon="8.1389884"><ele>292.0</ele><time>2026-05-04T17:00:30.279Z</time></trkpt><trkpt lat="45.138468" lon="8.1389584"><ele>292.0</ele><time>2026-05-04T17:00:31.271Z</time></trkpt><trkpt lat="45.138402" lon="8.1389457"><ele>292.0</ele><time>2026-05-04T17:00:32.297Z</time></trkpt><trkpt lat="45.1383063" lon="8.1389808"><ele>292.0</ele><time>2026-05-04T17:00:34.282Z</time></trkpt><trkpt lat="45.1382265" lon="8.1390586"><ele>290.6</ele><time>2026-05-04T17:00:36.278Z</time></trkpt><trkpt lat="45.1380955" lon="8.1390894"><ele>289.2</ele><time>2026-05-04T17:00:38.281Z</time></trkpt><trkpt lat="45.1380238" lon="8.1391064"><ele>287.8</ele><time>2026-05-04T17:00:39.277Z</time></trkpt><trkpt lat="45.1379599" lon="8.1391081"><ele>286.4</ele><time>2026-05-04T17:00:40.285Z</time></trkpt><trkpt lat="45.137848" lon="8.1390637"><ele>285.0</ele><time>2026-05-04T17:00:42.275Z</time></trkpt><trkpt lat="45.1377871" lon="8.1390337"><ele>287.6666666666667</ele><time>2026-05-04T17:00:43.28Z</time></trkpt><trkpt lat="45.1376886" lon="8.1389884"><ele>290.3333333333333</ele><time>2026-05-04T17:00:45.287Z</time></trkpt><trkpt lat="45.1376135" lon="8.1389146"><ele>293.0</ele><time>2026-05-04T17:00:47.278Z</time></trkpt><trkpt lat="45.1375615" lon="8.1387881"><ele>295.66666666666663</ele><time>2026-05-04T17:00:49.281Z</time></trkpt><trkpt lat="45.1375398" lon="8.1386955"><ele>298.3333333333333</ele><time>2026-05-04T17:00:50.28Z</time></trkpt><trkpt lat="45.1375049" lon="8.1385954"><ele>301.0</ele><time>2026-05-04T17:00:51.288Z</time></trkpt><trkpt lat="45.1374597" lon="8.1385017"><ele>301.0</ele><time>2026-05-04T17:00:52.281Z</time></trkpt><trkpt lat="45.1374154" lon="8.1384075"><ele>301.0</ele><time>2026-05-04T17:00:53.275Z</time></trkpt><trkpt lat="45.1373676" lon="8.1383099"><ele>301.0</ele><time>2026-05-04T17:00:54.277Z</time></trkpt><trkpt lat="45.1373255" lon="8.1381836"><ele>301.0</ele><time>2026-05-04T17:00:55.28Z</time></trkpt><trkpt lat="45.137279" lon="8.138054"><ele>301.0</ele><time>2026-05-04T17:00:56.299Z</time></trkpt><trkpt lat="45.1372363" lon="8.1379141"><ele>302.0</ele><time>2026-05-04T17:00:57.28Z</time></trkpt><trkpt lat="45.137205" lon="8.13779"><ele>303.0</ele><time>2026-05-04T17:00:58.278Z</time></trkpt><trkpt lat="45.1371758" lon="8.1376865"><ele>304.0</ele><time>2026-05-04T17:00:59.277Z</time></trkpt><trkpt lat="45.1371133" lon="8.1375486"><ele>305.0</ele><time>2026-05-04T17:01:01.283Z</time></trkpt><trkpt lat="45.1369923" lon="8.1374826"><ele>306.0</ele><time>2026-05-04T17:01:03.287Z</time></trkpt><trkpt lat="45.1369217" lon="8.1374579"><ele>306.0</ele><time>2026-05-04T17:01:04.288Z</time></trkpt><trkpt lat="45.1368358" lon="8.1374327"><ele>306.0</ele><time>2026-05-04T17:01:05.277Z</time></trkpt><trkpt lat="45.1367619" lon="8.1374088"><ele>306.0</ele><time>2026-05-04T17:01:06.282Z</time></trkpt><trkpt lat="45.1366987" lon="8.1373857"><ele>306.0</ele><time>2026-05-04T17:01:07.278Z</time></trkpt><trkpt lat="45.1366129" lon="8.1373147"><ele>306.0</ele><time>2026-05-04T17:01:09.276Z</time></trkpt><trkpt lat="45.1365811" lon="8.137197"><ele>306.0</ele><time>2026-05-04T17:01:11.279Z</time></trkpt><trkpt lat="45.1365922" lon="8.137014"><ele>305.3333333333333</ele><time>2026-05-04T17:01:13.281Z</time></trkpt><trkpt lat="45.1366209" lon="8.1369027"><ele>304.6666666666667</ele><time>2026-05-04T17:01:14.285Z</time></trkpt><trkpt lat="45.1366384" lon="8.1368047"><ele>304.0</ele><time>2026-05-04T17:01:15.285Z</time></trkpt><trkpt lat="45.1366557" lon="8.1366746"><ele>303.33333333333337</ele><time>2026-05-04T17:01:17.28Z</time></trkpt><trkpt lat="45.1367121" lon="8.1366218"><ele>302.6666666666667</ele><time>2026-05-04T17:01:19.28Z</time></trkpt><trkpt lat="45.1368355" lon="8.1365876"><ele>302.0</ele><time>2026-05-04T17:01:21.273Z</time></trkpt><trkpt lat="45.136931" lon="8.1365684"><ele>301.6666666666667</ele><time>2026-05-04T17:01:22.284Z</time></trkpt><trkpt lat="45.1370398" lon="8.1365497"><ele>301.33333333333337</ele><time>2026-05-04T17:01:23.287Z</time></trkpt><trkpt lat="45.137142" lon="8.1365275"><ele>301.0</ele><time>2026-05-04T17:01:24.276Z</time></trkpt><trkpt lat="45.1372258" lon="8.1364999"><ele>300.6666666666667</ele><time>2026-05-04T17:01:25.284Z</time></trkpt><trkpt lat="45.1372939" lon="8.1364589"><ele>300.3333333333333</ele><time>2026-05-04T17:01:26.281Z</time></trkpt><trkpt lat="45.1373551" lon="8.136418"><ele>300.0</ele><time>2026-05-04T17:01:27.281Z</time></trkpt><trkpt lat="45.1374042" lon="8.1363397"><ele>300.0</ele><time>2026-05-04T17:01:28.278Z</time></trkpt><trkpt lat="45.1374483" lon="8.1362447"><ele>300.0</ele><time>2026-05-04T17:01:29.28Z</time></trkpt><trkpt lat="45.1374878" lon="8.1361317"><ele>300.0</ele><time>2026-05-04T17:01:30.273Z</time></trkpt><trkpt lat="45.1375214" lon="8.1360194"><ele>300.0</ele><time>2026-05-04T17:01:31.285Z</time></trkpt><trkpt lat="45.1375524" lon="8.1359137"><ele>300.0</ele><time>2026-05-04T17:01:32.281Z</time></trkpt><trkpt lat="45.1375864" lon="8.1358198"><ele>300.0</ele><time>2026-05-04T17:01:33.277Z</time></trkpt><trkpt lat="45.1376309" lon="8.135745"><ele>296.5</ele><time>2026-05-04T17:01:34.278Z</time></trkpt><trkpt lat="45.1376866" lon="8.1356855"><ele>293.0</ele><time>2026-05-04T17:01:35.279Z</time></trkpt><trkpt lat="45.1377576" lon="8.1356391"><ele>289.5</ele><time>2026-05-04T17:01:36.277Z</time></trkpt><trkpt lat="45.137828" lon="8.1355938"><ele>286.0</ele><time>2026-05-04T17:01:37.271Z</time></trkpt><trkpt lat="45.1379124" lon="8.135572"><ele>282.5</ele><time>2026-05-04T17:01:38.27Z</time></trkpt><trkpt lat="45.1379936" lon="8.1355403"><ele>279.0</ele><time>2026-05-04T17:01:39.273Z</time></trkpt><trkpt lat="45.1380675" lon="8.1354949"><ele>278.99999999999994</ele><time>2026-05-04T17:01:40.271Z</time></trkpt><trkpt lat="45.1381369" lon="8.1354514"><ele>279.0</ele><time>2026-05-04T17:01:41.28Z</time></trkpt><trkpt lat="45.1381853" lon="8.1353704"><ele>279.0</ele><time>2026-05-04T17:01:42.276Z</time></trkpt><trkpt lat="45.1382353" lon="8.1352858"><ele>279.0</ele><time>2026-05-04T17:01:43.286Z</time></trkpt><trkpt lat="45.1382611" lon="8.1351864"><ele>279.0</ele><time>2026-05-04T17:01:44.274Z</time></trkpt><trkpt lat="45.1382838" lon="8.1350914"><ele>278.99999999999994</ele><time>2026-05-04T17:01:45.277Z</time></trkpt><trkpt lat="45.1383114" lon="8.1350016"><ele>279.0</ele><time>2026-05-04T17:01:46.283Z</time></trkpt><trkpt lat="45.1383498" lon="8.1349127"><ele>279.3333333333333</ele><time>2026-05-04T17:01:47.281Z</time></trkpt><trkpt lat="45.138409" lon="8.1348389"><ele>279.6666666666667</ele><time>2026-05-04T17:01:48.27Z</time></trkpt><trkpt lat="45.1384757" lon="8.1347642"><ele>280.0</ele><time>2026-05-04T17:01:49.285Z</time></trkpt><trkpt lat="45.1385419" lon="8.1346816"><ele>280.33333333333337</ele><time>2026-05-04T17:01:50.277Z</time></trkpt><trkpt lat="45.1386102" lon="8.1345892"><ele>280.6666666666667</ele><time>2026-05-04T17:01:51.277Z</time></trkpt><trkpt lat="45.1386734" lon="8.1344848"><ele>281.0</ele><time>2026-05-04T17:01:52.279Z</time></trkpt><trkpt lat="45.1387336" lon="8.1343679"><ele>281.0</ele><time>2026-05-04T17:01:53.274Z</time></trkpt><trkpt lat="45.1387821" lon="8.1342525"><ele>281.0</ele><time>2026-05-04T17:01:54.278Z</time></trkpt><trkpt lat="45.1388213" lon="8.1341227"><ele>281.0</ele><time>2026-05-04T17:01:55.271Z</time></trkpt><trkpt lat="45.1388612" lon="8.133996"><ele>281.0</ele><time>2026-05-04T17:01:56.274Z</time></trkpt><trkpt lat="45.1388967" lon="8.1338794"><ele>281.0</ele><time>2026-05-04T17:01:57.278Z</time></trkpt><trkpt lat="45.1389218" lon="8.1337711"><ele>278.0</ele><time>2026-05-04T17:01:58.28Z</time></trkpt><trkpt lat="45.1389384" lon="8.1336541"><ele>275.0</ele><time>2026-05-04T17:01:59.277Z</time></trkpt><trkpt lat="45.1389444" lon="8.1335309"><ele>272.0</ele><time>2026-05-04T17:02:00.282Z</time></trkpt><trkpt lat="45.1389424" lon="8.1333979"><ele>269.0</ele><time>2026-05-04T17:02:01.28Z</time></trkpt><trkpt lat="45.1389298" lon="8.1332641"><ele>266.0</ele><time>2026-05-04T17:02:02.281Z</time></trkpt><trkpt lat="45.1389178" lon="8.1331314"><ele>264.0</ele><time>2026-05-04T17:02:03.277Z</time></trkpt><trkpt lat="45.1389062" lon="8.132995"><ele>262.0</ele><time>2026-05-04T17:02:04.278Z</time></trkpt><trkpt lat="45.1388983" lon="8.1328695"><ele>260.0</ele><time>2026-05-04T17:02:05.273Z</time></trkpt><trkpt lat="45.1388923" lon="8.1327614"><ele>258.0</ele><time>2026-05-04T17:02:06.278Z</time></trkpt><trkpt lat="45.1388867" lon="8.1325916"><ele>256.0</ele><time>2026-05-04T17:02:08.275Z</time></trkpt><trkpt lat="45.1389203" lon="8.1324388"><ele>255.66666666666666</ele><time>2026-05-04T17:02:10.274Z</time></trkpt><trkpt lat="45.1389757" lon="8.1323295"><ele>255.33333333333331</ele><time>2026-05-04T17:02:12.273Z</time></trkpt><trkpt lat="45.1390627" lon="8.1323095"><ele>255.0</ele><time>2026-05-04T17:02:14.273Z</time></trkpt><trkpt lat="45.1391645" lon="8.1323864"><ele>254.66666666666669</ele><time>2026-05-04T17:02:16.274Z</time></trkpt><trkpt lat="45.1392032" lon="8.1324593"><ele>254.33333333333334</ele><time>2026-05-04T17:02:17.286Z</time></trkpt><trkpt lat="45.139243" lon="8.1325345"><ele>254.0</ele><time>2026-05-04T17:02:18.272Z</time></trkpt><trkpt lat="45.1392549" lon="8.1326477"><ele>256.6666666666667</ele><time>2026-05-04T17:02:19.278Z</time></trkpt><trkpt lat="45.1392725" lon="8.1327737"><ele>259.33333333333337</ele><time>2026-05-04T17:02:20.275Z</time></trkpt><trkpt lat="45.1392934" lon="8.1328937"><ele>262.0</ele><time>2026-05-04T17:02:21.275Z</time></trkpt><trkpt lat="45.1393143" lon="8.1330054"><ele>264.6666666666667</ele><time>2026-05-04T17:02:22.274Z</time></trkpt><trkpt lat="45.1393313" lon="8.1331148"><ele>267.3333333333333</ele><time>2026-05-04T17:02:23.277Z</time></trkpt><trkpt lat="45.1393531" lon="8.1332322"><ele>270.0</ele><time>2026-05-04T17:02:24.271Z</time></trkpt><trkpt lat="45.1393946" lon="8.1333542"><ele>271.3333333333333</ele><time>2026-05-04T17:02:25.279Z</time></trkpt><trkpt lat="45.1394392" lon="8.1334578"><ele>272.6666666666667</ele><time>2026-05-04T17:02:26.273Z</time></trkpt><trkpt lat="45.1394804" lon="8.1335578"><ele>274.0</ele><time>2026-05-04T17:02:27.276Z</time></trkpt><trkpt lat="45.1395185" lon="8.1336434"><ele>275.33333333333337</ele><time>2026-05-04T17:02:28.275Z</time></trkpt><trkpt lat="45.1395875" lon="8.133758"><ele>276.6666666666667</ele><time>2026-05-04T17:02:30.269Z</time></trkpt><trkpt lat="45.1396476" lon="8.1338445"><ele>278.0</ele><time>2026-05-04T17:02:32.277Z</time></trkpt><trkpt lat="45.1397204" lon="8.1338873"><ele>278.0</ele><time>2026-05-04T17:02:34.283Z</time></trkpt><trkpt lat="45.1398018" lon="8.1337839"><ele>278.0</ele><time>2026-05-04T17:02:36.277Z</time></trkpt><trkpt lat="45.139847" lon="8.133702"><ele>278.0</ele><time>2026-05-04T17:02:37.277Z</time></trkpt><trkpt lat="45.1398801" lon="8.1336144"><ele>278.0</ele><time>2026-05-04T17:02:38.276Z</time></trkpt><trkpt lat="45.1399093" lon="8.1335336"><ele>278.0</ele><time>2026-05-04T17:02:39.28Z</time></trkpt><trkpt lat="45.1399507" lon="8.1334605"><ele>278.0</ele><time>2026-05-04T17:02:40.275Z</time></trkpt><trkpt lat="45.1400055" lon="8.1333998"><ele>274.5</ele><time>2026-05-04T17:02:41.273Z</time></trkpt><trkpt lat="45.1400636" lon="8.1333389"><ele>271.0</ele><time>2026-05-04T17:02:42.282Z</time></trkpt><trkpt lat="45.1401289" lon="8.1333011"><ele>267.5</ele><time>2026-05-04T17:02:43.275Z</time></trkpt><trkpt lat="45.1402006" lon="8.1332761"><ele>264.0</ele><time>2026-05-04T17:02:44.284Z</time></trkpt><trkpt lat="45.1402839" lon="8.1332423"><ele>260.5</ele><time>2026-05-04T17:02:45.281Z</time></trkpt><trkpt lat="45.1403828" lon="8.1331926"><ele>257.0</ele><time>2026-05-04T17:02:46.275Z</time></trkpt><trkpt lat="45.1404767" lon="8.1331277"><ele>255.66666666666669</ele><time>2026-05-04T17:02:47.279Z</time></trkpt><trkpt lat="45.1405714" lon="8.1330587"><ele>254.33333333333334</ele><time>2026-05-04T17:02:48.281Z</time></trkpt><trkpt lat="45.1406569" lon="8.1329988"><ele>253.0</ele><time>2026-05-04T17:02:49.273Z</time></trkpt><trkpt lat="45.1407337" lon="8.1329435"><ele>251.66666666666669</ele><time>2026-05-04T17:02:50.277Z</time></trkpt><trkpt lat="45.1408079" lon="8.1328862"><ele>250.33333333333334</ele><time>2026-05-04T17:02:51.279Z</time></trkpt><trkpt lat="45.1408767" lon="8.1328384"><ele>249.0</ele><time>2026-05-04T17:02:52.28Z</time></trkpt><trkpt lat="45.1409446" lon="8.1327988"><ele>246.83333333333334</ele><time>2026-05-04T17:02:53.287Z</time></trkpt><trkpt lat="45.1410103" lon="8.1327692"><ele>244.66666666666669</ele><time>2026-05-04T17:02:54.275Z</time></trkpt><trkpt lat="45.141078" lon="8.1327442"><ele>242.5</ele><time>2026-05-04T17:02:55.278Z</time></trkpt><trkpt lat="45.1411458" lon="8.1327274"><ele>240.33333333333334</ele><time>2026-05-04T17:02:56.288Z</time></trkpt><trkpt lat="45.1412163" lon="8.1327308"><ele>238.16666666666669</ele><time>2026-05-04T17:02:57.285Z</time></trkpt><trkpt lat="45.1412809" lon="8.132751"><ele>236.0</ele><time>2026-05-04T17:02:58.285Z</time></trkpt><trkpt lat="45.1413809" lon="8.1328289"><ele>236.0</ele><time>2026-05-04T17:03:00.285Z</time></trkpt><trkpt lat="45.141445" lon="8.1329582"><ele>236.00000000000003</ele><time>2026-05-04T17:03:02.278Z</time></trkpt><trkpt lat="45.1414614" lon="8.1331298"><ele>236.00000000000003</ele><time>2026-05-04T17:03:04.277Z</time></trkpt><trkpt lat="45.1414587" lon="8.133226"><ele>236.0</ele><time>2026-05-04T17:03:05.275Z</time></trkpt><trkpt lat="45.1414608" lon="8.1333178"><ele>236.0</ele><time>2026-05-04T17:03:06.287Z</time></trkpt><trkpt lat="45.1414947" lon="8.1334803"><ele>236.00000000000003</ele><time>2026-05-04T17:03:08.283Z</time></trkpt><trkpt lat="45.1415826" lon="8.133561"><ele>236.0</ele><time>2026-05-04T17:03:10.284Z</time></trkpt><trkpt lat="45.1416505" lon="8.1335687"><ele>236.0</ele><time>2026-05-04T17:03:11.277Z</time></trkpt><trkpt lat="45.1417194" lon="8.1335643"><ele>236.0</ele><time>2026-05-04T17:03:12.284Z</time></trkpt><trkpt lat="45.1417827" lon="8.1335658"><ele>236.00000000000003</ele><time>2026-05-04T17:03:13.276Z</time></trkpt><trkpt lat="45.1418937" lon="8.1336303"><ele>236.0</ele><time>2026-05-04T17:03:15.279Z</time></trkpt><trkpt lat="45.1419473" lon="8.1336976"><ele>236.00000000000003</ele><time>2026-05-04T17:03:16.282Z</time></trkpt><trkpt lat="45.1420026" lon="8.133787"><ele>236.0</ele><time>2026-05-04T17:03:17.277Z</time></trkpt><trkpt lat="45.1420573" lon="8.1338818"><ele>236.0</ele><time>2026-05-04T17:03:18.292Z</time></trkpt><trkpt lat="45.1421048" lon="8.1339757"><ele>236.0</ele><time>2026-05-04T17:03:19.289Z</time></trkpt><trkpt lat="45.1421454" lon="8.1340596"><ele>236.00000000000003</ele><time>2026-05-04T17:03:20.278Z</time></trkpt><trkpt lat="45.1422078" lon="8.134172"><ele>236.0</ele><time>2026-05-04T17:03:22.282Z</time></trkpt><trkpt lat="45.1422573" lon="8.1342304"><ele>236.00000000000003</ele><time>2026-05-04T17:03:24.287Z</time></trkpt><trkpt lat="45.1423213" lon="8.1342054"><ele>236.0</ele><time>2026-05-04T17:03:26.278Z</time></trkpt><trkpt lat="45.1423322" lon="8.134063"><ele>236.0</ele><time>2026-05-04T17:03:28.275Z</time></trkpt><trkpt lat="45.1423113" lon="8.1339621"><ele>236.0</ele><time>2026-05-04T17:03:29.273Z</time></trkpt><trkpt lat="45.1422862" lon="8.133852"><ele>236.00000000000003</ele><time>2026-05-04T17:03:30.282Z</time></trkpt><trkpt lat="45.1422532" lon="8.1337433"><ele>236.0</ele><time>2026-05-04T17:03:31.28Z</time></trkpt><trkpt lat="45.1422447" lon="8.1336312"><ele>236.00000000000003</ele><time>2026-05-04T17:03:32.279Z</time></trkpt><trkpt lat="45.1422296" lon="8.1335239"><ele>236.0</ele><time>2026-05-04T17:03:33.278Z</time></trkpt><trkpt lat="45.1422176" lon="8.1334208"><ele>236.0</ele><time>2026-05-04T17:03:34.274Z</time></trkpt><trkpt lat="45.1422132" lon="8.1333216"><ele>236.0</ele><time>2026-05-04T17:03:35.271Z</time></trkpt><trkpt lat="45.1422098" lon="8.1332277"><ele>236.00000000000003</ele><time>2026-05-04T17:03:36.286Z</time></trkpt><trkpt lat="45.1422047" lon="8.1330614"><ele>236.0</ele><time>2026-05-04T17:03:38.273Z</time></trkpt><trkpt lat="45.1421885" lon="8.1329711"><ele>233.83333333333334</ele><time>2026-05-04T17:03:39.281Z</time></trkpt><trkpt lat="45.1421571" lon="8.1328839"><ele>231.66666666666669</ele><time>2026-05-04T17:03:40.288Z</time></trkpt><trkpt lat="45.1421172" lon="8.1327373"><ele>229.5</ele><time>2026-05-04T17:03:42.285Z</time></trkpt><trkpt lat="45.1422039" lon="8.1326586"><ele>227.33333333333331</ele><time>2026-05-04T17:03:46.276Z</time></trkpt><trkpt lat="45.1422733" lon="8.1326693"><ele>225.16666666666666</ele><time>2026-05-04T17:03:47.277Z</time></trkpt><trkpt lat="45.1423572" lon="8.1326449"><ele>223.0</ele><time>2026-05-04T17:03:48.275Z</time></trkpt><trkpt lat="45.1424523" lon="8.1325707"><ele>220.0</ele><time>2026-05-04T17:03:49.297Z</time></trkpt><trkpt lat="45.1425379" lon="8.1324569"><ele>217.0</ele><time>2026-05-04T17:03:50.281Z</time></trkpt><trkpt lat="45.1426163" lon="8.1323563"><ele>214.0</ele><time>2026-05-04T17:03:51.282Z</time></trkpt><trkpt lat="45.1426971" lon="8.1322756"><ele>211.0</ele><time>2026-05-04T17:03:52.272Z</time></trkpt><trkpt lat="45.1427695" lon="8.1322024"><ele>208.0</ele><time>2026-05-04T17:03:53.286Z</time></trkpt><trkpt lat="45.1428513" lon="8.1321892"><ele>206.60000000000002</ele><time>2026-05-04T17:03:54.28Z</time></trkpt><trkpt lat="45.1429299" lon="8.1321847"><ele>205.20000000000002</ele><time>2026-05-04T17:03:55.283Z</time></trkpt><trkpt lat="45.1430209" lon="8.1321872"><ele>203.8</ele><time>2026-05-04T17:03:56.276Z</time></trkpt><trkpt lat="45.1431154" lon="8.1321841"><ele>202.4</ele><time>2026-05-04T17:03:57.283Z</time></trkpt><trkpt lat="45.143215" lon="8.1321633"><ele>201.0</ele><time>2026-05-04T17:03:58.279Z</time></trkpt><trkpt lat="45.1433198" lon="8.1321281"><ele>199.75</ele><time>2026-05-04T17:03:59.283Z</time></trkpt><trkpt lat="45.1434272" lon="8.1320765"><ele>198.5</ele><time>2026-05-04T17:04:00.281Z</time></trkpt><trkpt lat="45.1435387" lon="8.1320102"><ele>197.25</ele><time>2026-05-04T17:04:01.284Z</time></trkpt><trkpt lat="45.1436509" lon="8.1319373"><ele>196.0</ele><time>2026-05-04T17:04:02.291Z</time></trkpt><trkpt lat="45.1437565" lon="8.1318667"><ele>196.0</ele><time>2026-05-04T17:04:03.282Z</time></trkpt><trkpt lat="45.1438531" lon="8.1317956"><ele>196.0</ele><time>2026-05-04T17:04:04.283Z</time></trkpt><trkpt lat="45.1439357" lon="8.131723"><ele>196.0</ele><time>2026-05-04T17:04:05.279Z</time></trkpt><trkpt lat="45.1440035" lon="8.1316403"><ele>196.0</ele><time>2026-05-04T17:04:06.28Z</time></trkpt><trkpt lat="45.1440574" lon="8.1315457"><ele>196.0</ele><time>2026-05-04T17:04:07.275Z</time></trkpt><trkpt lat="45.1441121" lon="8.131454"><ele>194.0</ele><time>2026-05-04T17:04:08.284Z</time></trkpt><trkpt lat="45.1441791" lon="8.1313847"><ele>192.0</ele><time>2026-05-04T17:04:09.28Z</time></trkpt><trkpt lat="45.144265" lon="8.1313349"><ele>190.0</ele><time>2026-05-04T17:04:10.289Z</time></trkpt><trkpt lat="45.1443691" lon="8.1313008"><ele>188.0</ele><time>2026-05-04T17:04:11.278Z</time></trkpt><trkpt lat="45.1444895" lon="8.1312759"><ele>186.0</ele><time>2026-05-04T17:04:12.273Z</time></trkpt><trkpt lat="45.1446227" lon="8.1312517"><ele>186.0</ele><time>2026-05-04T17:04:13.281Z</time></trkpt><trkpt lat="45.1447655" lon="8.131218"><ele>186.0</ele><time>2026-05-04T17:04:14.28Z</time></trkpt><trkpt lat="45.1449165" lon="8.1311782"><ele>186.0</ele><time>2026-05-04T17:04:15.279Z</time></trkpt><trkpt lat="45.1450702" lon="8.1311292"><ele>184.75</ele><time>2026-05-04T17:04:16.282Z</time></trkpt><trkpt lat="45.145219" lon="8.1310797"><ele>183.5</ele><time>2026-05-04T17:04:17.273Z</time></trkpt><trkpt lat="45.1453629" lon="8.1310269"><ele>182.25</ele><time>2026-05-04T17:04:18.283Z</time></trkpt><trkpt lat="45.1454995" lon="8.1309694"><ele>181.0</ele><time>2026-05-04T17:04:19.281Z</time></trkpt><trkpt lat="45.1456225" lon="8.1309144"><ele>180.25</ele><time>2026-05-04T17:04:20.271Z</time></trkpt><trkpt lat="45.1457346" lon="8.1308721"><ele>179.5</ele><time>2026-05-04T17:04:21.284Z</time></trkpt><trkpt lat="45.1458441" lon="8.1308425"><ele>178.75</ele><time>2026-05-04T17:04:22.286Z</time></trkpt><trkpt lat="45.1459564" lon="8.1308302"><ele>178.0</ele><time>2026-05-04T17:04:23.277Z</time></trkpt><trkpt lat="45.1460668" lon="8.1308316"><ele>178.0</ele><time>2026-05-04T17:04:24.275Z</time></trkpt><trkpt lat="45.1461731" lon="8.1308434"><ele>178.0</ele><time>2026-05-04T17:04:25.276Z</time></trkpt><trkpt lat="45.1462716" lon="8.1308588"><ele>178.0</ele><time>2026-05-04T17:04:26.283Z</time></trkpt><trkpt lat="45.1463545" lon="8.1308685"><ele>178.0</ele><time>2026-05-04T17:04:27.273Z</time></trkpt><trkpt lat="45.1464203" lon="8.1308599"><ele>178.0</ele><time>2026-05-04T17:04:28.274Z</time></trkpt><trkpt lat="45.146476" lon="8.1307979"><ele>178.0</ele><time>2026-05-04T17:04:30.279Z</time></trkpt><trkpt lat="45.146468" lon="8.1306597"><ele>176.8</ele><time>2026-05-04T17:04:32.28Z</time></trkpt><trkpt lat="45.1464429" lon="8.1305505"><ele>175.60000000000002</ele><time>2026-05-04T17:04:33.281Z</time></trkpt><trkpt lat="45.1464096" lon="8.130425"><ele>174.39999999999998</ele><time>2026-05-04T17:04:34.275Z</time></trkpt><trkpt lat="45.1463673" lon="8.1302823"><ele>173.2</ele><time>2026-05-04T17:04:35.283Z</time></trkpt><trkpt lat="45.1463192" lon="8.1301173"><ele>172.0</ele><time>2026-05-04T17:04:36.281Z</time></trkpt><trkpt lat="45.1462701" lon="8.129937"><ele>170.66666666666669</ele><time>2026-05-04T17:04:37.276Z</time></trkpt><trkpt lat="45.1462181" lon="8.1297454"><ele>169.33333333333334</ele><time>2026-05-04T17:04:38.276Z</time></trkpt><trkpt lat="45.1461627" lon="8.129541"><ele>168.0</ele><time>2026-05-04T17:04:39.276Z</time></trkpt><trkpt lat="45.1461031" lon="8.1293273"><ele>168.0</ele><time>2026-05-04T17:04:40.275Z</time></trkpt><trkpt lat="45.1460455" lon="8.1291257"><ele>168.0</ele><time>2026-05-04T17:04:41.286Z</time></trkpt><trkpt lat="45.1459939" lon="8.128942"><ele>168.0</ele><time>2026-05-04T17:04:42.28Z</time></trkpt><trkpt lat="45.1459498" lon="8.1287798"><ele>168.0</ele><time>2026-05-04T17:04:43.278Z</time></trkpt><trkpt lat="45.1459157" lon="8.1286371"><ele>168.4</ele><time>2026-05-04T17:04:44.275Z</time></trkpt><trkpt lat="45.1458903" lon="8.1285104"><ele>168.8</ele><time>2026-05-04T17:04:45.284Z</time></trkpt><trkpt lat="45.1458703" lon="8.1284071"><ele>169.2</ele><time>2026-05-04T17:04:46.281Z</time></trkpt><trkpt lat="45.145817" lon="8.1282807"><ele>169.6</ele><time>2026-05-04T17:04:48.283Z</time></trkpt><trkpt lat="45.1457247" lon="8.1281737"><ele>170.0</ele><time>2026-05-04T17:04:50.291Z</time></trkpt><trkpt lat="45.1456485" lon="8.1281067"><ele>171.0</ele><time>2026-05-04T17:04:51.28Z</time></trkpt><trkpt lat="45.1455526" lon="8.128036"><ele>172.0</ele><time>2026-05-04T17:04:52.275Z</time></trkpt><trkpt lat="45.1454445" lon="8.1279554"><ele>173.0</ele><time>2026-05-04T17:04:53.277Z</time></trkpt><trkpt lat="45.1453189" lon="8.1278654"><ele>174.0</ele><time>2026-05-04T17:04:54.275Z</time></trkpt><trkpt lat="45.145182" lon="8.1277691"><ele>174.0</ele><time>2026-05-04T17:04:55.282Z</time></trkpt><trkpt lat="45.1450389" lon="8.1276615"><ele>174.0</ele><time>2026-05-04T17:04:56.282Z</time></trkpt><trkpt lat="45.1448816" lon="8.1275389"><ele>174.0</ele><time>2026-05-04T17:04:57.277Z</time></trkpt><trkpt lat="45.1447183" lon="8.1274048"><ele>175.33333333333334</ele><time>2026-05-04T17:04:58.283Z</time></trkpt><trkpt lat="45.1445484" lon="8.1272667"><ele>176.66666666666669</ele><time>2026-05-04T17:04:59.282Z</time></trkpt><trkpt lat="45.14437" lon="8.1271205"><ele>178.0</ele><time>2026-05-04T17:05:00.276Z</time></trkpt><trkpt lat="45.1441882" lon="8.1269738"><ele>177.33333333333334</ele><time>2026-05-04T17:05:01.273Z</time></trkpt><trkpt lat="45.1440135" lon="8.1268337"><ele>176.66666666666666</ele><time>2026-05-04T17:05:02.279Z</time></trkpt><trkpt lat="45.143848" lon="8.1267024"><ele>176.0</ele><time>2026-05-04T17:05:03.277Z</time></trkpt><trkpt lat="45.1436882" lon="8.1265699"><ele>178.66666666666666</ele><time>2026-05-04T17:05:04.28Z</time></trkpt><trkpt lat="45.1435336" lon="8.1264335"><ele>181.33333333333334</ele><time>2026-05-04T17:05:05.283Z</time></trkpt><trkpt lat="45.1433831" lon="8.1262982"><ele>184.0</ele><time>2026-05-04T17:05:06.274Z</time></trkpt><trkpt lat="45.1432344" lon="8.1261669"><ele>181.66666666666669</ele><time>2026-05-04T17:05:07.271Z</time></trkpt><trkpt lat="45.1430929" lon="8.1260399"><ele>179.33333333333334</ele><time>2026-05-04T17:05:08.287Z</time></trkpt><trkpt lat="45.1429567" lon="8.1259174"><ele>177.0</ele><time>2026-05-04T17:05:09.272Z</time></trkpt><trkpt lat="45.1428256" lon="8.1258025"><ele>178.66666666666666</ele><time>2026-05-04T17:05:10.285Z</time></trkpt><trkpt lat="45.1426934" lon="8.1256955"><ele>180.33333333333331</ele><time>2026-05-04T17:05:11.285Z</time></trkpt><trkpt lat="45.142558" lon="8.1256016"><ele>182.0</ele><time>2026-05-04T17:05:12.277Z</time></trkpt><trkpt lat="45.1424124" lon="8.1255271"><ele>181.33333333333331</ele><time>2026-05-04T17:05:13.274Z</time></trkpt><trkpt lat="45.1422553" lon="8.1254758"><ele>180.66666666666666</ele><time>2026-05-04T17:05:14.275Z</time></trkpt><trkpt lat="45.1420878" lon="8.1254406"><ele>180.0</ele><time>2026-05-04T17:05:15.281Z</time></trkpt><trkpt lat="45.1419117" lon="8.1254108"><ele>180.0</ele><time>2026-05-04T17:05:16.28Z</time></trkpt><trkpt lat="45.1417303" lon="8.1253858"><ele>180.0</ele><time>2026-05-04T17:05:17.274Z</time></trkpt><trkpt lat="45.1415458" lon="8.125369"><ele>180.0</ele><time>2026-05-04T17:05:18.289Z</time></trkpt><trkpt lat="45.1413591" lon="8.1253515"><ele>180.0</ele><time>2026-05-04T17:05:19.273Z</time></trkpt><trkpt lat="45.1411701" lon="8.1253216"><ele>180.0</ele><time>2026-05-04T17:05:20.279Z</time></trkpt><trkpt lat="45.1409804" lon="8.1252805"><ele>180.0</ele><time>2026-05-04T17:05:21.277Z</time></trkpt><trkpt lat="45.1407912" lon="8.1252371"><ele>180.33333333333334</ele><time>2026-05-04T17:05:22.276Z</time></trkpt><trkpt lat="45.1406042" lon="8.1251953"><ele>180.66666666666669</ele><time>2026-05-04T17:05:23.273Z</time></trkpt><trkpt lat="45.14042" lon="8.1251507"><ele>181.0</ele><time>2026-05-04T17:05:24.281Z</time></trkpt><trkpt lat="45.1402428" lon="8.1250962"><ele>181.0</ele><time>2026-05-04T17:05:25.276Z</time></trkpt><trkpt lat="45.140071" lon="8.1250281"><ele>181.0</ele><time>2026-05-04T17:05:26.279Z</time></trkpt><trkpt lat="45.1399024" lon="8.1249476"><ele>181.0</ele><time>2026-05-04T17:05:27.281Z</time></trkpt><trkpt lat="45.1397351" lon="8.1248555"><ele>183.33333333333334</ele><time>2026-05-04T17:05:28.28Z</time></trkpt><trkpt lat="45.13957" lon="8.1247508"><ele>185.66666666666666</ele><time>2026-05-04T17:05:29.284Z</time></trkpt><trkpt lat="45.1394092" lon="8.1246309"><ele>188.0</ele><time>2026-05-04T17:05:30.284Z</time></trkpt><trkpt lat="45.139252" lon="8.1244986"><ele>188.0</ele><time>2026-05-04T17:05:31.279Z</time></trkpt><trkpt lat="45.1390968" lon="8.1243628"><ele>188.0</ele><time>2026-05-04T17:05:32.284Z</time></trkpt><trkpt lat="45.138942" lon="8.1242306"><ele>188.0</ele><time>2026-05-04T17:05:33.278Z</time></trkpt><trkpt lat="45.1387894" lon="8.1240949"><ele>190.33333333333331</ele><time>2026-05-04T17:05:34.283Z</time></trkpt><trkpt lat="45.1386359" lon="8.1239602"><ele>192.66666666666666</ele><time>2026-05-04T17:05:35.279Z</time></trkpt><trkpt lat="45.1384897" lon="8.123837"><ele>195.0</ele><time>2026-05-04T17:05:36.288Z</time></trkpt><trkpt lat="45.1383614" lon="8.1236907"><ele>195.0</ele><time>2026-05-04T17:05:37.279Z</time></trkpt><trkpt lat="45.1382423" lon="8.1235414"><ele>195.0</ele><time>2026-05-04T17:05:38.271Z</time></trkpt><trkpt lat="45.1381334" lon="8.1233906"><ele>195.0</ele><time>2026-05-04T17:05:39.269Z</time></trkpt><trkpt lat="45.1380237" lon="8.1232401"><ele>195.66666666666669</ele><time>2026-05-04T17:05:40.282Z</time></trkpt><trkpt lat="45.1379159" lon="8.1230821"><ele>196.33333333333334</ele><time>2026-05-04T17:05:41.282Z</time></trkpt><trkpt lat="45.1378086" lon="8.1229187"><ele>197.0</ele><time>2026-05-04T17:05:42.28Z</time></trkpt><trkpt lat="45.1377028" lon="8.122751"><ele>197.0</ele><time>2026-05-04T17:05:43.28Z</time></trkpt><trkpt lat="45.1375923" lon="8.122584"><ele>197.0</ele><time>2026-05-04T17:05:44.274Z</time></trkpt><trkpt lat="45.1374862" lon="8.1224227"><ele>197.0</ele><time>2026-05-04T17:05:45.279Z</time></trkpt><trkpt lat="45.1373922" lon="8.1222768"><ele>197.0</ele><time>2026-05-04T17:05:46.277Z</time></trkpt><trkpt lat="45.1373047" lon="8.1221325"><ele>197.0</ele><time>2026-05-04T17:05:47.282Z</time></trkpt><trkpt lat="45.1372245" lon="8.1219766"><ele>197.0</ele><time>2026-05-04T17:05:48.277Z</time></trkpt><trkpt lat="45.1371505" lon="8.1218093"><ele>197.0</ele><time>2026-05-04T17:05:49.273Z</time></trkpt><trkpt lat="45.1370793" lon="8.1216326"><ele>197.66666666666669</ele><time>2026-05-04T17:05:50.279Z</time></trkpt><trkpt lat="45.1370076" lon="8.1214503"><ele>198.33333333333331</ele><time>2026-05-04T17:05:51.276Z</time></trkpt><trkpt lat="45.1369351" lon="8.1212607"><ele>199.0</ele><time>2026-05-04T17:05:52.279Z</time></trkpt><trkpt lat="45.1368614" lon="8.1210654"><ele>199.0</ele><time>2026-05-04T17:05:53.278Z</time></trkpt><trkpt lat="45.1367843" lon="8.120868"><ele>199.0</ele><time>2026-05-04T17:05:54.284Z</time></trkpt><trkpt lat="45.1367039" lon="8.1206704"><ele>199.0</ele><time>2026-05-04T17:05:55.289Z</time></trkpt><trkpt lat="45.1366245" lon="8.1204646"><ele>200.33333333333331</ele><time>2026-05-04T17:05:56.275Z</time></trkpt><trkpt lat="45.1365461" lon="8.1202554"><ele>201.66666666666669</ele><time>2026-05-04T17:05:57.277Z</time></trkpt><trkpt lat="45.1364655" lon="8.120047"><ele>203.0</ele><time>2026-05-04T17:05:58.281Z</time></trkpt><trkpt lat="45.1363827" lon="8.1198433"><ele>203.0</ele><time>2026-05-04T17:05:59.273Z</time></trkpt><trkpt lat="45.1363018" lon="8.1196379"><ele>203.0</ele><time>2026-05-04T17:06:00.276Z</time></trkpt><trkpt lat="45.1362262" lon="8.1194329"><ele>203.0</ele><time>2026-05-04T17:06:01.275Z</time></trkpt><trkpt lat="45.1361618" lon="8.1192396"><ele>204.25</ele><time>2026-05-04T17:06:02.277Z</time></trkpt><trkpt lat="45.1361222" lon="8.1190541"><ele>205.5</ele><time>2026-05-04T17:06:03.278Z</time></trkpt><trkpt lat="45.1361034" lon="8.1188666"><ele>206.75</ele><time>2026-05-04T17:06:04.281Z</time></trkpt><trkpt lat="45.1360997" lon="8.1186728"><ele>208.0</ele><time>2026-05-04T17:06:05.281Z</time></trkpt><trkpt lat="45.1361071" lon="8.1184716"><ele>208.0</ele><time>2026-05-04T17:06:06.281Z</time></trkpt><trkpt lat="45.1361204" lon="8.1182692"><ele>208.0</ele><time>2026-05-04T17:06:07.278Z</time></trkpt><trkpt lat="45.1361348" lon="8.1180674"><ele>208.0</ele><time>2026-05-04T17:06:08.278Z</time></trkpt><trkpt lat="45.1361514" lon="8.11787"><ele>208.0</ele><time>2026-05-04T17:06:09.275Z</time></trkpt><trkpt lat="45.1361608" lon="8.1176812"><ele>209.75</ele><time>2026-05-04T17:06:10.276Z</time></trkpt><trkpt lat="45.1361513" lon="8.1174955"><ele>211.5</ele><time>2026-05-04T17:06:11.274Z</time></trkpt><trkpt lat="45.1361204" lon="8.1173161"><ele>213.25</ele><time>2026-05-04T17:06:12.28Z</time></trkpt><trkpt lat="45.1360712" lon="8.1171457"><ele>215.0</ele><time>2026-05-04T17:06:13.274Z</time></trkpt><trkpt lat="45.1360098" lon="8.1169867"><ele>215.6</ele><time>2026-05-04T17:06:14.28Z</time></trkpt><trkpt lat="45.1359487" lon="8.1168365"><ele>216.2</ele><time>2026-05-04T17:06:15.28Z</time></trkpt><trkpt lat="45.1358942" lon="8.1167002"><ele>216.8</ele><time>2026-05-04T17:06:16.279Z</time></trkpt><trkpt lat="45.1358485" lon="8.1165665"><ele>217.4</ele><time>2026-05-04T17:06:17.282Z</time></trkpt><trkpt lat="45.1358143" lon="8.1164278"><ele>218.0</ele><time>2026-05-04T17:06:18.282Z</time></trkpt><trkpt lat="45.1357896" lon="8.1162835"><ele>218.4</ele><time>2026-05-04T17:06:19.284Z</time></trkpt><trkpt lat="45.1357677" lon="8.1161417"><ele>218.8</ele><time>2026-05-04T17:06:20.286Z</time></trkpt><trkpt lat="45.1357531" lon="8.1160033"><ele>219.2</ele><time>2026-05-04T17:06:21.281Z</time></trkpt><trkpt lat="45.1357488" lon="8.115864"><ele>219.6</ele><time>2026-05-04T17:06:22.281Z</time></trkpt><trkpt lat="45.1357585" lon="8.1157188"><ele>220.0</ele><time>2026-05-04T17:06:23.282Z</time></trkpt><trkpt lat="45.1357806" lon="8.1155744"><ele>220.8</ele><time>2026-05-04T17:06:24.28Z</time></trkpt><trkpt lat="45.1358063" lon="8.1154376"><ele>221.6</ele><time>2026-05-04T17:06:25.288Z</time></trkpt><trkpt lat="45.135819" lon="8.1153081"><ele>222.39999999999998</ele><time>2026-05-04T17:06:26.281Z</time></trkpt><trkpt lat="45.1358091" lon="8.1151791"><ele>223.2</ele><time>2026-05-04T17:06:27.294Z</time></trkpt><trkpt lat="45.1357983" lon="8.1150515"><ele>224.0</ele><time>2026-05-04T17:06:28.283Z</time></trkpt><trkpt lat="45.1357635" lon="8.1149318"><ele>225.0</ele><time>2026-05-04T17:06:29.277Z</time></trkpt><trkpt lat="45.1357369" lon="8.1148201"><ele>225.99999999999997</ele><time>2026-05-04T17:06:30.275Z</time></trkpt><trkpt lat="45.1357151" lon="8.1147173"><ele>226.99999999999997</ele><time>2026-05-04T17:06:31.284Z</time></trkpt><trkpt lat="45.1356977" lon="8.1146274"><ele>228.0</ele><time>2026-05-04T17:06:32.283Z</time></trkpt><trkpt lat="45.1356609" lon="8.1144696"><ele>229.0</ele><time>2026-05-04T17:06:34.287Z</time></trkpt><trkpt lat="45.1356656" lon="8.1143077"><ele>228.79999999999998</ele><time>2026-05-04T17:06:36.281Z</time></trkpt><trkpt lat="45.1357068" lon="8.1141507"><ele>228.59999999999997</ele><time>2026-05-04T17:06:38.279Z</time></trkpt><trkpt lat="45.1357282" lon="8.114063"><ele>228.4</ele><time>2026-05-04T17:06:39.284Z</time></trkpt><trkpt lat="45.1357411" lon="8.1138975"><ele>228.2</ele><time>2026-05-04T17:06:41.28Z</time></trkpt><trkpt lat="45.1357544" lon="8.1138101"><ele>228.0</ele><time>2026-05-04T17:06:42.279Z</time></trkpt><trkpt lat="45.1357912" lon="8.1136747"><ele>228.0</ele><time>2026-05-04T17:06:44.283Z</time></trkpt><trkpt lat="45.1358378" lon="8.1134999"><ele>228.0</ele><time>2026-05-04T17:06:46.287Z</time></trkpt><trkpt lat="45.135871" lon="8.1133418"><ele>228.0</ele><time>2026-05-04T17:06:48.278Z</time></trkpt><trkpt lat="45.1359001" lon="8.113208"><ele>228.0</ele><time>2026-05-04T17:06:50.283Z</time></trkpt><trkpt lat="45.1359261" lon="8.1130693"><ele>228.0</ele><time>2026-05-04T17:06:52.28Z</time></trkpt><trkpt lat="45.135981" lon="8.1129374"><ele>226.0</ele><time>2026-05-04T17:06:54.276Z</time></trkpt><trkpt lat="45.1360285" lon="8.1128615"><ele>224.0</ele><time>2026-05-04T17:06:56.282Z</time></trkpt><trkpt lat="45.1359788" lon="8.112946"><ele>222.0</ele><time>2026-05-04T17:07:16.28Z</time></trkpt><trkpt lat="45.135915" lon="8.1130569"><ele>220.0</ele><time>2026-05-04T17:07:18.288Z</time></trkpt><trkpt lat="45.1359909" lon="8.113003"><ele>218.0</ele><time>2026-05-04T17:07:24.283Z</time></trkpt><trkpt lat="45.1360836" lon="8.1128632"><ele>218.0</ele><time>2026-05-04T17:07:26.28Z</time></trkpt><trkpt lat="45.136143" lon="8.1127732"><ele>218.0</ele><time>2026-05-04T17:07:27.271Z</time></trkpt><trkpt lat="45.1362108" lon="8.1126809"><ele>218.0</ele><time>2026-05-04T17:07:28.275Z</time></trkpt><trkpt lat="45.1362821" lon="8.1125812"><ele>218.0</ele><time>2026-05-04T17:07:29.27Z</time></trkpt><trkpt lat="45.1363518" lon="8.1124779"><ele>218.0</ele><time>2026-05-04T17:07:30.278Z</time></trkpt><trkpt lat="45.1364125" lon="8.1123743"><ele>218.50000000000003</ele><time>2026-05-04T17:07:31.278Z</time></trkpt><trkpt lat="45.1364733" lon="8.1122776"><ele>219.0</ele><time>2026-05-04T17:07:32.279Z</time></trkpt><trkpt lat="45.1365232" lon="8.1121833"><ele>219.5</ele><time>2026-05-04T17:07:33.27Z</time></trkpt><trkpt lat="45.1365737" lon="8.1120979"><ele>220.0</ele><time>2026-05-04T17:07:34.279Z</time></trkpt><trkpt lat="45.1366357" lon="8.1120094"><ele>220.50000000000003</ele><time>2026-05-04T17:07:35.282Z</time></trkpt><trkpt lat="45.1366958" lon="8.1119141"><ele>221.0</ele><time>2026-05-04T17:07:36.28Z</time></trkpt><trkpt lat="45.1367471" lon="8.1118298"><ele>221.00000000000003</ele><time>2026-05-04T17:07:37.28Z</time></trkpt><trkpt lat="45.1367762" lon="8.1117456"><ele>221.0</ele><time>2026-05-04T17:07:39.281Z</time></trkpt><trkpt lat="45.1367053" lon="8.1117398"><ele>221.0</ele><time>2026-05-04T17:07:42.28Z</time></trkpt><trkpt lat="45.136592" lon="8.1118365"><ele>221.0</ele><time>2026-05-04T17:07:44.277Z</time></trkpt><trkpt lat="45.1365332" lon="8.1118844"><ele>221.00000000000003</ele><time>2026-05-04T17:07:45.275Z</time></trkpt><trkpt lat="45.1364775" lon="8.1119339"><ele>221.0</ele><time>2026-05-04T17:07:46.283Z</time></trkpt><trkpt lat="45.1364207" lon="8.1119818"><ele>218.33333333333334</ele><time>2026-05-04T17:07:47.273Z</time></trkpt><trkpt lat="45.1363625" lon="8.1120223"><ele>215.66666666666669</ele><time>2026-05-04T17:07:48.274Z</time></trkpt><trkpt lat="45.136265" lon="8.11209"><ele>213.0</ele><time>2026-05-04T17:07:50.276Z</time></trkpt><trkpt lat="45.1361924" lon="8.1120914"><ele>210.33333333333331</ele><time>2026-05-04T17:07:52.279Z</time></trkpt><trkpt lat="45.1361187" lon="8.11199"><ele>207.66666666666666</ele><time>2026-05-04T17:07:54.276Z</time></trkpt><trkpt lat="45.1360669" lon="8.1119159"><ele>205.0</ele><time>2026-05-04T17:07:55.275Z</time></trkpt><trkpt lat="45.136006" lon="8.1118446"><ele>205.0</ele><time>2026-05-04T17:07:56.277Z</time></trkpt><trkpt lat="45.1359458" lon="8.1117775"><ele>205.0</ele><time>2026-05-04T17:07:57.276Z</time></trkpt><trkpt lat="45.1358785" lon="8.1117221"><ele>205.0</ele><time>2026-05-04T17:07:58.28Z</time></trkpt><trkpt lat="45.135804" lon="8.111674"><ele>205.0</ele><time>2026-05-04T17:07:59.284Z</time></trkpt><trkpt lat="45.1357381" lon="8.1116432"><ele>205.0</ele><time>2026-05-04T17:08:00.281Z</time></trkpt><trkpt lat="45.1356666" lon="8.1116294"><ele>205.0</ele><time>2026-05-04T17:08:01.281Z</time></trkpt><trkpt lat="45.1355952" lon="8.1116223"><ele>205.0</ele><time>2026-05-04T17:08:02.28Z</time></trkpt><trkpt lat="45.1355301" lon="8.1116264"><ele>205.2</ele><time>2026-05-04T17:08:03.271Z</time></trkpt><trkpt lat="45.1354274" lon="8.1116248"><ele>205.4</ele><time>2026-05-04T17:08:05.276Z</time></trkpt><trkpt lat="45.1353722" lon="8.1115594"><ele>205.60000000000002</ele><time>2026-05-04T17:08:07.281Z</time></trkpt><trkpt lat="45.1353738" lon="8.1114259"><ele>205.8</ele><time>2026-05-04T17:08:09.285Z</time></trkpt><trkpt lat="45.1353463" lon="8.1112544"><ele>206.0</ele><time>2026-05-04T17:08:11.287Z</time></trkpt><trkpt lat="45.1352581" lon="8.1111262"><ele>206.4</ele><time>2026-05-04T17:08:13.272Z</time></trkpt><trkpt lat="45.1351863" lon="8.1110784"><ele>206.8</ele><time>2026-05-04T17:08:14.275Z</time></trkpt><trkpt lat="45.1351095" lon="8.1110283"><ele>207.20000000000002</ele><time>2026-05-04T17:08:15.282Z</time></trkpt><trkpt lat="45.1350134" lon="8.1110067"><ele>207.60000000000002</ele><time>2026-05-04T17:08:16.274Z</time></trkpt><trkpt lat="45.1348967" lon="8.1109904"><ele>208.0</ele><time>2026-05-04T17:08:17.313Z</time></trkpt><trkpt lat="45.1347732" lon="8.1109607"><ele>207.99999999999997</ele><time>2026-05-04T17:08:18.277Z</time></trkpt><trkpt lat="45.1346659" lon="8.1109391"><ele>208.0</ele><time>2026-05-04T17:08:19.282Z</time></trkpt><trkpt lat="45.1345795" lon="8.1109191"><ele>208.0</ele><time>2026-05-04T17:08:20.281Z</time></trkpt><trkpt lat="45.1345091" lon="8.1108969"><ele>208.0</ele><time>2026-05-04T17:08:21.279Z</time></trkpt><trkpt lat="45.1344457" lon="8.1108568"><ele>207.99999999999997</ele><time>2026-05-04T17:08:22.282Z</time></trkpt><trkpt lat="45.1343808" lon="8.1108133"><ele>208.0</ele><time>2026-05-04T17:08:23.28Z</time></trkpt><trkpt lat="45.1343274" lon="8.1107287"><ele>207.4</ele><time>2026-05-04T17:08:24.274Z</time></trkpt><trkpt lat="45.1342769" lon="8.1106271"><ele>206.8</ele><time>2026-05-04T17:08:25.279Z</time></trkpt><trkpt lat="45.1342163" lon="8.1105199"><ele>206.2</ele><time>2026-05-04T17:08:26.281Z</time></trkpt><trkpt lat="45.1341497" lon="8.1104045"><ele>205.6</ele><time>2026-05-04T17:08:27.279Z</time></trkpt><trkpt lat="45.1340872" lon="8.1102868"><ele>205.0</ele><time>2026-05-04T17:08:28.273Z</time></trkpt><trkpt lat="45.1340229" lon="8.1101646"><ele>205.0</ele><time>2026-05-04T17:08:29.275Z</time></trkpt><trkpt lat="45.1339687" lon="8.1100504"><ele>205.0</ele><time>2026-05-04T17:08:30.279Z</time></trkpt><trkpt lat="45.1339244" lon="8.109938"><ele>205.0</ele><time>2026-05-04T17:08:31.28Z</time></trkpt><trkpt lat="45.1338903" lon="8.1098134"><ele>205.0</ele><time>2026-05-04T17:08:32.282Z</time></trkpt><trkpt lat="45.1338759" lon="8.1096758"><ele>205.0</ele><time>2026-05-04T17:08:33.28Z</time></trkpt><trkpt lat="45.1338716" lon="8.1095396"><ele>205.33333333333331</ele><time>2026-05-04T17:08:34.281Z</time></trkpt><trkpt lat="45.1338671" lon="8.1094094"><ele>205.66666666666666</ele><time>2026-05-04T17:08:35.28Z</time></trkpt><trkpt lat="45.1338633" lon="8.1092999"><ele>206.0</ele><time>2026-05-04T17:08:36.282Z</time></trkpt><trkpt lat="45.1338591" lon="8.1092031"><ele>206.33333333333331</ele><time>2026-05-04T17:08:37.28Z</time></trkpt><trkpt lat="45.1338556" lon="8.1090795"><ele>206.66666666666666</ele><time>2026-05-04T17:08:39.28Z</time></trkpt><trkpt lat="45.1338798" lon="8.1089733"><ele>207.0</ele><time>2026-05-04T17:08:41.291Z</time></trkpt><trkpt lat="45.1339443" lon="8.1089031"><ele>207.8</ele><time>2026-05-04T17:08:43.286Z</time></trkpt><trkpt lat="45.134043" lon="8.108811"><ele>208.6</ele><time>2026-05-04T17:08:45.275Z</time></trkpt><trkpt lat="45.1341714" lon="8.1087659"><ele>209.4</ele><time>2026-05-04T17:08:47.277Z</time></trkpt><trkpt lat="45.1342486" lon="8.1087374"><ele>210.20000000000002</ele><time>2026-05-04T17:08:48.298Z</time></trkpt><trkpt lat="45.1343121" lon="8.1087195"><ele>211.0</ele><time>2026-05-04T17:08:49.283Z</time></trkpt><trkpt lat="45.1343742" lon="8.1087036"><ele>211.99999999999997</ele><time>2026-05-04T17:08:50.282Z</time></trkpt><trkpt lat="45.1344431" lon="8.1086842"><ele>213.0</ele><time>2026-05-04T17:08:51.286Z</time></trkpt><trkpt lat="45.134515" lon="8.1086731"><ele>214.0</ele><time>2026-05-04T17:08:52.281Z</time></trkpt><trkpt lat="45.1345893" lon="8.1086635"><ele>215.0</ele><time>2026-05-04T17:08:53.305Z</time></trkpt><trkpt lat="45.1346536" lon="8.1086591"><ele>215.99999999999997</ele><time>2026-05-04T17:08:54.277Z</time></trkpt><trkpt lat="45.13476" lon="8.1086756"><ele>217.0</ele><time>2026-05-04T17:08:56.278Z</time></trkpt><trkpt lat="45.1348541" lon="8.1087093"><ele>219.6</ele><time>2026-05-04T17:08:58.287Z</time></trkpt><trkpt lat="45.1349521" lon="8.1087661"><ele>222.2</ele><time>2026-05-04T17:09:00.278Z</time></trkpt><trkpt lat="45.1350079" lon="8.1088106"><ele>224.8</ele><time>2026-05-04T17:09:01.28Z</time></trkpt><trkpt lat="45.1351189" lon="8.1088766"><ele>227.4</ele><time>2026-05-04T17:09:03.27Z</time></trkpt><trkpt lat="45.1352434" lon="8.1089325"><ele>230.0</ele><time>2026-05-04T17:09:05.275Z</time></trkpt><trkpt lat="45.1353212" lon="8.1089564"><ele>230.00000000000003</ele><time>2026-05-04T17:09:06.276Z</time></trkpt><trkpt lat="45.135413" lon="8.1089857"><ele>230.0</ele><time>2026-05-04T17:09:07.275Z</time></trkpt><trkpt lat="45.1355035" lon="8.1090048"><ele>230.0</ele><time>2026-05-04T17:09:08.273Z</time></trkpt><trkpt lat="45.1355794" lon="8.1090211"><ele>230.0</ele><time>2026-05-04T17:09:09.281Z</time></trkpt><trkpt lat="45.1356437" lon="8.1090356"><ele>230.00000000000003</ele><time>2026-05-04T17:09:10.273Z</time></trkpt><trkpt lat="45.1357085" lon="8.1090459"><ele>230.0</ele><time>2026-05-04T17:09:11.29Z</time></trkpt><trkpt lat="45.135774" lon="8.1090576"><ele>233.2</ele><time>2026-05-04T17:09:12.284Z</time></trkpt><trkpt lat="45.1358428" lon="8.1090661"><ele>236.4</ele><time>2026-05-04T17:09:13.283Z</time></trkpt><trkpt lat="45.135962" lon="8.1090606"><ele>239.60000000000002</ele><time>2026-05-04T17:09:15.277Z</time></trkpt><trkpt lat="45.1360257" lon="8.1090421"><ele>242.8</ele><time>2026-05-04T17:09:16.278Z</time></trkpt><trkpt lat="45.1361422" lon="8.1089965"><ele>246.0</ele><time>2026-05-04T17:09:18.275Z</time></trkpt><trkpt lat="45.1362505" lon="8.108929"><ele>246.0</ele><time>2026-05-04T17:09:20.283Z</time></trkpt><trkpt lat="45.1363181" lon="8.1088823"><ele>246.00000000000003</ele><time>2026-05-04T17:09:22.287Z</time></trkpt><trkpt lat="45.1364075" lon="8.1087926"><ele>246.00000000000003</ele><time>2026-05-04T17:09:24.283Z</time></trkpt><trkpt lat="45.1364757" lon="8.1086583"><ele>246.0</ele><time>2026-05-04T17:09:26.28Z</time></trkpt><trkpt lat="45.1365271" lon="8.1085444"><ele>246.0</ele><time>2026-05-04T17:09:28.279Z</time></trkpt><trkpt lat="45.1365743" lon="8.1084191"><ele>247.0</ele><time>2026-05-04T17:09:30.279Z</time></trkpt><trkpt lat="45.1366181" lon="8.1082939"><ele>248.00000000000003</ele><time>2026-05-04T17:09:32.286Z</time></trkpt><trkpt lat="45.1366648" lon="8.1081733"><ele>249.00000000000003</ele><time>2026-05-04T17:09:34.28Z</time></trkpt><trkpt lat="45.1367302" lon="8.1080385"><ele>250.0</ele><time>2026-05-04T17:09:36.28Z</time></trkpt><trkpt lat="45.1367733" lon="8.1079662"><ele>251.0</ele><time>2026-05-04T17:09:37.279Z</time></trkpt><trkpt lat="45.1368249" lon="8.107889"><ele>251.33333333333334</ele><time>2026-05-04T17:09:38.278Z</time></trkpt><trkpt lat="45.1368736" lon="8.1078159"><ele>251.66666666666669</ele><time>2026-05-04T17:09:39.28Z</time></trkpt><trkpt lat="45.1369243" lon="8.1077528"><ele>252.0</ele><time>2026-05-04T17:09:40.281Z</time></trkpt><trkpt lat="45.1370134" lon="8.107667"><ele>252.33333333333331</ele><time>2026-05-04T17:09:42.27Z</time></trkpt><trkpt lat="45.1371255" lon="8.107598"><ele>252.66666666666666</ele><time>2026-05-04T17:09:44.279Z</time></trkpt><trkpt lat="45.1371861" lon="8.1075495"><ele>253.0</ele><time>2026-05-04T17:09:45.285Z</time></trkpt><trkpt lat="45.137248" lon="8.1074976"><ele>252.99999999999997</ele><time>2026-05-04T17:09:46.278Z</time></trkpt><trkpt lat="45.1373157" lon="8.1074422"><ele>253.0</ele><time>2026-05-04T17:09:47.274Z</time></trkpt><trkpt lat="45.1373793" lon="8.1073918"><ele>253.0</ele><time>2026-05-04T17:09:48.278Z</time></trkpt><trkpt lat="45.1374407" lon="8.1073411"><ele>253.0</ele><time>2026-05-04T17:09:49.279Z</time></trkpt><trkpt lat="45.1375009" lon="8.1072907"><ele>252.99999999999997</ele><time>2026-05-04T17:09:50.277Z</time></trkpt><trkpt lat="45.1375558" lon="8.1072317"><ele>253.0</ele><time>2026-05-04T17:09:51.28Z</time></trkpt><trkpt lat="45.1376584" lon="8.1071456"><ele>252.83333333333331</ele><time>2026-05-04T17:09:53.278Z</time></trkpt><trkpt lat="45.1377591" lon="8.107078"><ele>252.66666666666666</ele><time>2026-05-04T17:09:55.27Z</time></trkpt><trkpt lat="45.1378498" lon="8.1069773"><ele>252.5</ele><time>2026-05-04T17:09:57.273Z</time></trkpt><trkpt lat="45.1379068" lon="8.1069383"><ele>252.33333333333331</ele><time>2026-05-04T17:09:58.285Z</time></trkpt><trkpt lat="45.137964" lon="8.1069002"><ele>252.16666666666666</ele><time>2026-05-04T17:09:59.277Z</time></trkpt><trkpt lat="45.1380228" lon="8.1068591"><ele>252.0</ele><time>2026-05-04T17:10:00.273Z</time></trkpt><trkpt lat="45.1381211" lon="8.1067586"><ele>252.0</ele><time>2026-05-04T17:10:02.283Z</time></trkpt><trkpt lat="45.1381893" lon="8.1066253"><ele>252.0</ele><time>2026-05-04T17:10:04.279Z</time></trkpt><trkpt lat="45.1382489" lon="8.1064853"><ele>252.0</ele><time>2026-05-04T17:10:06.276Z</time></trkpt><trkpt lat="45.1383261" lon="8.1063898"><ele>252.0</ele><time>2026-05-04T17:10:08.289Z</time></trkpt><trkpt lat="45.1384234" lon="8.1063293"><ele>252.0</ele><time>2026-05-04T17:10:10.276Z</time></trkpt><trkpt lat="45.1385112" lon="8.106219"><ele>255.6</ele><time>2026-05-04T17:10:12.287Z</time></trkpt><trkpt lat="45.1386116" lon="8.1060847"><ele>259.2</ele><time>2026-05-04T17:10:14.277Z</time></trkpt><trkpt lat="45.1386789" lon="8.1060101"><ele>262.8</ele><time>2026-05-04T17:10:15.273Z</time></trkpt><trkpt lat="45.1387373" lon="8.1059508"><ele>266.4</ele><time>2026-05-04T17:10:16.271Z</time></trkpt><trkpt lat="45.1388358" lon="8.105868"><ele>270.0</ele><time>2026-05-04T17:10:18.277Z</time></trkpt><trkpt lat="45.1389466" lon="8.1058066"><ele>270.0</ele><time>2026-05-04T17:10:20.281Z</time></trkpt><trkpt lat="45.1390165" lon="8.1057952"><ele>270.0</ele><time>2026-05-04T17:10:21.269Z</time></trkpt><trkpt lat="45.1390985" lon="8.1057786"><ele>270.0</ele><time>2026-05-04T17:10:22.281Z</time></trkpt><trkpt lat="45.1391787" lon="8.1057533"><ele>270.0</ele><time>2026-05-04T17:10:23.274Z</time></trkpt><trkpt lat="45.139257" lon="8.1057175"><ele>270.0</ele><time>2026-05-04T17:10:24.28Z</time></trkpt><trkpt lat="45.1393215" lon="8.1056809"><ele>270.0</ele><time>2026-05-04T17:10:25.28Z</time></trkpt><trkpt lat="45.1393976" lon="8.1055898"><ele>269.1666666666667</ele><time>2026-05-04T17:10:27.279Z</time></trkpt><trkpt lat="45.1394468" lon="8.1055176"><ele>268.3333333333333</ele><time>2026-05-04T17:10:29.283Z</time></trkpt><trkpt lat="45.1395565" lon="8.1054253"><ele>267.5</ele><time>2026-05-04T17:10:31.278Z</time></trkpt><trkpt lat="45.1396163" lon="8.1053524"><ele>266.66666666666663</ele><time>2026-05-04T17:10:32.285Z</time></trkpt><trkpt lat="45.139678" lon="8.1052827"><ele>265.8333333333333</ele><time>2026-05-04T17:10:33.289Z</time></trkpt><trkpt lat="45.1397348" lon="8.1052153"><ele>265.0</ele><time>2026-05-04T17:10:34.285Z</time></trkpt><trkpt lat="45.1398127" lon="8.1051244"><ele>265.0</ele><time>2026-05-04T17:10:36.279Z</time></trkpt><trkpt lat="45.139864" lon="8.1050436"><ele>265.0</ele><time>2026-05-04T17:10:38.28Z</time></trkpt><trkpt lat="45.1398663" lon="8.104916"><ele>265.0</ele><time>2026-05-04T17:10:40.276Z</time></trkpt><trkpt lat="45.1398574" lon="8.1047975"><ele>265.0</ele><time>2026-05-04T17:10:42.278Z</time></trkpt><trkpt lat="45.1398874" lon="8.1046969"><ele>265.0</ele><time>2026-05-04T17:10:44.281Z</time></trkpt><trkpt lat="45.1399674" lon="8.1045961"><ele>265.0</ele><time>2026-05-04T17:10:46.271Z</time></trkpt><trkpt lat="45.1400317" lon="8.104482"><ele>268.0</ele><time>2026-05-04T17:10:48.28Z</time></trkpt><trkpt lat="45.1400726" lon="8.104394"><ele>271.0</ele><time>2026-05-04T17:10:50.284Z</time></trkpt><trkpt lat="45.1401628" lon="8.1043251"><ele>274.0</ele><time>2026-05-04T17:10:52.279Z</time></trkpt><trkpt lat="45.140241" lon="8.1042378"><ele>277.0</ele><time>2026-05-04T17:10:54.274Z</time></trkpt><trkpt lat="45.1403342" lon="8.1041644"><ele>280.0</ele><time>2026-05-04T17:10:56.279Z</time></trkpt><trkpt lat="45.1404535" lon="8.1041334"><ele>280.0</ele><time>2026-05-04T17:10:58.277Z</time></trkpt><trkpt lat="45.1405193" lon="8.1041059"><ele>280.0</ele><time>2026-05-04T17:10:59.279Z</time></trkpt><trkpt lat="45.140597" lon="8.1040692"><ele>280.0</ele><time>2026-05-04T17:11:00.28Z</time></trkpt><trkpt lat="45.1406761" lon="8.1040363"><ele>280.0</ele><time>2026-05-04T17:11:01.27Z</time></trkpt><trkpt lat="45.1407404" lon="8.1040159"><ele>280.0</ele><time>2026-05-04T17:11:02.27Z</time></trkpt><trkpt lat="45.1408576" lon="8.1039569"><ele>280.0</ele><time>2026-05-04T17:11:04.277Z</time></trkpt><trkpt lat="45.1409137" lon="8.1039151"><ele>281.4</ele><time>2026-05-04T17:11:05.279Z</time></trkpt><trkpt lat="45.1409681" lon="8.1038667"><ele>282.8</ele><time>2026-05-04T17:11:06.285Z</time></trkpt><trkpt lat="45.1410557" lon="8.103749"><ele>284.2</ele><time>2026-05-04T17:11:08.28Z</time></trkpt><trkpt lat="45.1411062" lon="8.103617"><ele>285.6</ele><time>2026-05-04T17:11:10.285Z</time></trkpt><trkpt lat="45.1411395" lon="8.103497"><ele>287.0</ele><time>2026-05-04T17:11:12.283Z</time></trkpt><trkpt lat="45.1411619" lon="8.1033747"><ele>286.4</ele><time>2026-05-04T17:11:14.278Z</time></trkpt><trkpt lat="45.1411662" lon="8.103217"><ele>285.79999999999995</ele><time>2026-05-04T17:11:16.278Z</time></trkpt><trkpt lat="45.1412211" lon="8.1030636"><ele>285.2</ele><time>2026-05-04T17:11:18.28Z</time></trkpt><trkpt lat="45.1412793" lon="8.1029078"><ele>284.59999999999997</ele><time>2026-05-04T17:11:20.278Z</time></trkpt><trkpt lat="45.1413101" lon="8.1028287"><ele>284.0</ele><time>2026-05-04T17:11:21.278Z</time></trkpt><trkpt lat="45.1413426" lon="8.1027512"><ele>284.0</ele><time>2026-05-04T17:11:22.277Z</time></trkpt><trkpt lat="45.14139" lon="8.1026147"><ele>284.0</ele><time>2026-05-04T17:11:24.274Z</time></trkpt><trkpt lat="45.1414177" lon="8.1025338"><ele>284.0</ele><time>2026-05-04T17:11:25.28Z</time></trkpt><trkpt lat="45.1414687" lon="8.1023622"><ele>284.0</ele><time>2026-05-04T17:11:27.277Z</time></trkpt><trkpt lat="45.1415049" lon="8.1022597"><ele>284.0</ele><time>2026-05-04T17:11:28.285Z</time></trkpt><trkpt lat="45.1415426" lon="8.1021546"><ele>286.1666666666667</ele><time>2026-05-04T17:11:29.278Z</time></trkpt><trkpt lat="45.1415904" lon="8.1020598"><ele>288.33333333333337</ele><time>2026-05-04T17:11:30.277Z</time></trkpt><trkpt lat="45.1416319" lon="8.1019747"><ele>290.5</ele><time>2026-05-04T17:11:31.287Z</time></trkpt><trkpt lat="45.1416828" lon="8.1018959"><ele>292.6666666666667</ele><time>2026-05-04T17:11:32.285Z</time></trkpt><trkpt lat="45.1417323" lon="8.1018216"><ele>294.8333333333333</ele><time>2026-05-04T17:11:33.282Z</time></trkpt><trkpt lat="45.141799" lon="8.1017175"><ele>297.0</ele><time>2026-05-04T17:11:35.271Z</time></trkpt><trkpt lat="45.1418553" lon="8.1016349"><ele>295.8</ele><time>2026-05-04T17:11:37.28Z</time></trkpt><trkpt lat="45.1419284" lon="8.1015312"><ele>294.6</ele><time>2026-05-04T17:11:39.272Z</time></trkpt><trkpt lat="45.1420244" lon="8.1014219"><ele>293.40000000000003</ele><time>2026-05-04T17:11:41.275Z</time></trkpt><trkpt lat="45.1420796" lon="8.1013761"><ele>292.2</ele><time>2026-05-04T17:11:42.273Z</time></trkpt><trkpt lat="45.1421721" lon="8.1013366"><ele>291.0</ele><time>2026-05-04T17:11:44.279Z</time></trkpt><trkpt lat="45.1422379" lon="8.1013596"><ele>291.0</ele><time>2026-05-04T17:12:00.276Z</time></trkpt><trkpt lat="45.1423206" lon="8.1013569"><ele>291.0</ele><time>2026-05-04T17:12:03.279Z</time></trkpt><trkpt lat="45.142398" lon="8.1012774"><ele>291.0</ele><time>2026-05-04T17:12:05.279Z</time></trkpt><trkpt lat="45.1424654" lon="8.1011384"><ele>291.0</ele><time>2026-05-04T17:12:07.283Z</time></trkpt><trkpt lat="45.1424993" lon="8.1010058"><ele>291.0</ele><time>2026-05-04T17:12:09.28Z</time></trkpt><trkpt lat="45.1424853" lon="8.1008564"><ele>294.3333333333333</ele><time>2026-05-04T17:12:11.279Z</time></trkpt><trkpt lat="45.1424845" lon="8.1007588"><ele>297.6666666666667</ele><time>2026-05-04T17:12:12.281Z</time></trkpt><trkpt lat="45.1425005" lon="8.1006494"><ele>301.0</ele><time>2026-05-04T17:12:13.28Z</time></trkpt><trkpt lat="45.1425148" lon="8.1005442"><ele>304.33333333333337</ele><time>2026-05-04T17:12:14.278Z</time></trkpt><trkpt lat="45.1425221" lon="8.1004441"><ele>307.6666666666667</ele><time>2026-05-04T17:12:15.283Z</time></trkpt><trkpt lat="45.1425354" lon="8.1002829"><ele>311.0</ele><time>2026-05-04T17:12:17.275Z</time></trkpt><trkpt lat="45.142548" lon="8.1001837"><ele>313.20000000000005</ele><time>2026-05-04T17:12:19.282Z</time></trkpt><trkpt lat="45.1425425" lon="8.1000091"><ele>315.40000000000003</ele><time>2026-05-04T17:12:21.278Z</time></trkpt><trkpt lat="45.1425432" lon="8.0999189"><ele>317.6</ele><time>2026-05-04T17:12:22.28Z</time></trkpt><trkpt lat="45.1425457" lon="8.099825"><ele>319.8</ele><time>2026-05-04T17:12:23.284Z</time></trkpt><trkpt lat="45.1425403" lon="8.099674"><ele>322.0</ele><time>2026-05-04T17:12:25.285Z</time></trkpt><trkpt lat="45.1425142" lon="8.0995054"><ele>323.14285714285717</ele><time>2026-05-04T17:12:27.275Z</time></trkpt><trkpt lat="45.1424996" lon="8.0993997"><ele>324.2857142857143</ele><time>2026-05-04T17:12:28.273Z</time></trkpt><trkpt lat="45.1424867" lon="8.0992914"><ele>325.42857142857144</ele><time>2026-05-04T17:12:29.279Z</time></trkpt><trkpt lat="45.142473" lon="8.0991861"><ele>326.57142857142856</ele><time>2026-05-04T17:12:30.276Z</time></trkpt><trkpt lat="45.1424469" lon="8.0990776"><ele>327.7142857142857</ele><time>2026-05-04T17:12:31.307Z</time></trkpt><trkpt lat="45.1424184" lon="8.0989884"><ele>328.8571428571429</ele><time>2026-05-04T17:12:32.279Z</time></trkpt><trkpt lat="45.1423767" lon="8.0989108"><ele>330.0</ele><time>2026-05-04T17:12:33.284Z</time></trkpt><trkpt lat="45.1422965" lon="8.0987932"><ele>330.0</ele><time>2026-05-04T17:12:35.276Z</time></trkpt><trkpt lat="45.142221" lon="8.0986519"><ele>330.0</ele><time>2026-05-04T17:12:37.274Z</time></trkpt><trkpt lat="45.1421778" lon="8.0985597"><ele>330.0</ele><time>2026-05-04T17:12:38.283Z</time></trkpt><trkpt lat="45.1421332" lon="8.0984728"><ele>330.0</ele><time>2026-05-04T17:12:39.283Z</time></trkpt><trkpt lat="45.142084" lon="8.098347"><ele>330.0</ele><time>2026-05-04T17:12:41.281Z</time></trkpt><trkpt lat="45.1421109" lon="8.0981997"><ele>332.0</ele><time>2026-05-04T17:12:43.28Z</time></trkpt><trkpt lat="45.1421254" lon="8.0981018"><ele>334.0</ele><time>2026-05-04T17:12:44.279Z</time></trkpt><trkpt lat="45.1421234" lon="8.0980062"><ele>336.0</ele><time>2026-05-04T17:12:45.276Z</time></trkpt><trkpt lat="45.142108" lon="8.0979051"><ele>338.0</ele><time>2026-05-04T17:12:46.27Z</time></trkpt><trkpt lat="45.1421042" lon="8.0978116"><ele>340.0</ele><time>2026-05-04T17:12:47.277Z</time></trkpt><trkpt lat="45.1421149" lon="8.0977095"><ele>342.0</ele><time>2026-05-04T17:12:48.277Z</time></trkpt><trkpt lat="45.1421378" lon="8.0975445"><ele>342.20000000000005</ele><time>2026-05-04T17:12:50.285Z</time></trkpt><trkpt lat="45.1421418" lon="8.0973994"><ele>342.4</ele><time>2026-05-04T17:12:52.274Z</time></trkpt><trkpt lat="45.142153" lon="8.0972739"><ele>342.6</ele><time>2026-05-04T17:12:54.279Z</time></trkpt><trkpt lat="45.1422003" lon="8.0971709"><ele>342.79999999999995</ele><time>2026-05-04T17:12:56.278Z</time></trkpt><trkpt lat="45.1422415" lon="8.097022"><ele>343.0</ele><time>2026-05-04T17:12:58.279Z</time></trkpt><trkpt lat="45.1422466" lon="8.0969302"><ele>343.0</ele><time>2026-05-04T17:12:59.292Z</time></trkpt><trkpt lat="45.142259" lon="8.096833"><ele>343.0</ele><time>2026-05-04T17:13:00.28Z</time></trkpt><trkpt lat="45.1422837" lon="8.0966792"><ele>343.0</ele><time>2026-05-04T17:13:02.273Z</time></trkpt><trkpt lat="45.1423417" lon="8.0965353"><ele>343.0</ele><time>2026-05-04T17:13:04.278Z</time></trkpt><trkpt lat="45.1423831" lon="8.0964183"><ele>343.0</ele><time>2026-05-04T17:13:06.279Z</time></trkpt><trkpt lat="45.1424046" lon="8.0962578"><ele>344.2</ele><time>2026-05-04T17:13:08.272Z</time></trkpt><trkpt lat="45.1423964" lon="8.096105"><ele>345.4</ele><time>2026-05-04T17:13:10.277Z</time></trkpt><trkpt lat="45.1423429" lon="8.0959619"><ele>346.59999999999997</ele><time>2026-05-04T17:13:12.278Z</time></trkpt><trkpt lat="45.1423174" lon="8.0958752"><ele>347.79999999999995</ele><time>2026-05-04T17:13:13.274Z</time></trkpt><trkpt lat="45.1422748" lon="8.0957225"><ele>349.0</ele><time>2026-05-04T17:13:15.277Z</time></trkpt><trkpt lat="45.1422258" lon="8.0956079"><ele>351.8333333333333</ele><time>2026-05-04T17:13:17.276Z</time></trkpt><trkpt lat="45.1421559" lon="8.0954798"><ele>354.66666666666663</ele><time>2026-05-04T17:13:19.27Z</time></trkpt><trkpt lat="45.1420754" lon="8.0953671"><ele>357.5</ele><time>2026-05-04T17:13:21.277Z</time></trkpt><trkpt lat="45.1420272" lon="8.0953036"><ele>360.3333333333333</ele><time>2026-05-04T17:13:22.281Z</time></trkpt><trkpt lat="45.1419814" lon="8.0952334"><ele>363.1666666666667</ele><time>2026-05-04T17:13:23.273Z</time></trkpt><trkpt lat="45.1419323" lon="8.0951665"><ele>366.0</ele><time>2026-05-04T17:13:24.281Z</time></trkpt><trkpt lat="45.1418802" lon="8.095098"><ele>366.0</ele><time>2026-05-04T17:13:25.275Z</time></trkpt><trkpt lat="45.1418283" lon="8.0950364"><ele>366.0</ele><time>2026-05-04T17:13:26.277Z</time></trkpt><trkpt lat="45.1417773" lon="8.0949699"><ele>366.0</ele><time>2026-05-04T17:13:27.274Z</time></trkpt><trkpt lat="45.1416887" lon="8.0948676"><ele>366.0</ele><time>2026-05-04T17:13:29.277Z</time></trkpt><trkpt lat="45.1415766" lon="8.0947982"><ele>366.0</ele><time>2026-05-04T17:13:31.283Z</time></trkpt><trkpt lat="45.1415013" lon="8.0947581"><ele>365.6666666666667</ele><time>2026-05-04T17:13:32.279Z</time></trkpt><trkpt lat="45.1414292" lon="8.0947233"><ele>365.3333333333333</ele><time>2026-05-04T17:13:33.274Z</time></trkpt><trkpt lat="45.1413612" lon="8.0947212"><ele>365.0</ele><time>2026-05-04T17:13:34.283Z</time></trkpt><trkpt lat="45.1412603" lon="8.0947258"><ele>364.66666666666663</ele><time>2026-05-04T17:13:36.287Z</time></trkpt><trkpt lat="45.141199" lon="8.0947511"><ele>364.3333333333333</ele><time>2026-05-04T17:13:38.278Z</time></trkpt><trkpt lat="45.1411262" lon="8.0947633"><ele>364.0</ele><time>2026-05-04T17:13:40.282Z</time></trkpt><trkpt lat="45.1410558" lon="8.0947287"><ele>364.0</ele><time>2026-05-04T17:13:43.276Z</time></trkpt><trkpt lat="45.1410724" lon="8.0946408"><ele>364.0</ele><time>2026-05-04T17:13:45.283Z</time></trkpt><trkpt lat="45.1411468" lon="8.0945134"><ele>364.0</ele><time>2026-05-04T17:13:47.277Z</time></trkpt><trkpt lat="45.1411994" lon="8.0944319"><ele>364.0</ele><time>2026-05-04T17:13:48.272Z</time></trkpt><trkpt lat="45.1412524" lon="8.0943525"><ele>364.0</ele><time>2026-05-04T17:13:49.281Z</time></trkpt><trkpt lat="45.1413058" lon="8.0942778"><ele>364.0</ele><time>2026-05-04T17:13:50.276Z</time></trkpt><trkpt lat="45.1413616" lon="8.0942111"><ele>364.0</ele><time>2026-05-04T17:13:51.27Z</time></trkpt><trkpt lat="45.1414224" lon="8.0941624"><ele>364.0</ele><time>2026-05-04T17:13:52.277Z</time></trkpt><trkpt lat="45.1414896" lon="8.094128"><ele>364.0</ele><time>2026-05-04T17:13:53.279Z</time></trkpt><trkpt lat="45.1415656" lon="8.094118"><ele>364.0</ele><time>2026-05-04T17:13:54.275Z</time></trkpt><trkpt lat="45.1416784" lon="8.0941377"><ele>364.0</ele><time>2026-05-04T17:13:55.278Z</time></trkpt><trkpt lat="45.1417876" lon="8.09416"><ele>364.0</ele><time>2026-05-04T17:13:56.271Z</time></trkpt><trkpt lat="45.1419038" lon="8.0941897"><ele>364.4</ele><time>2026-05-04T17:13:57.27Z</time></trkpt><trkpt lat="45.1420164" lon="8.0942067"><ele>364.79999999999995</ele><time>2026-05-04T17:13:58.276Z</time></trkpt><trkpt lat="45.1421274" lon="8.0942333"><ele>365.20000000000005</ele><time>2026-05-04T17:13:59.277Z</time></trkpt><trkpt lat="45.1422196" lon="8.0942616"><ele>365.6</ele><time>2026-05-04T17:14:00.272Z</time></trkpt><trkpt lat="45.1422978" lon="8.0942935"><ele>366.0</ele><time>2026-05-04T17:14:01.279Z</time></trkpt><trkpt lat="45.142386" lon="8.0943101"><ele>366.0</ele><time>2026-05-04T17:14:02.275Z</time></trkpt><trkpt lat="45.1424768" lon="8.0943016"><ele>366.0</ele><time>2026-05-04T17:14:03.273Z</time></trkpt><trkpt lat="45.142551" lon="8.0942606"><ele>366.0</ele><time>2026-05-04T17:14:04.277Z</time></trkpt><trkpt lat="45.1426047" lon="8.0941842"><ele>366.0</ele><time>2026-05-04T17:14:05.275Z</time></trkpt><trkpt lat="45.1426368" lon="8.0940865"><ele>366.0</ele><time>2026-05-04T17:14:06.27Z</time></trkpt><trkpt lat="45.1426279" lon="8.0939767"><ele>366.0</ele><time>2026-05-04T17:14:07.296Z</time></trkpt><trkpt lat="45.1426273" lon="8.0938689"><ele>364.1666666666667</ele><time>2026-05-04T17:14:08.277Z</time></trkpt><trkpt lat="45.1426154" lon="8.0937697"><ele>362.3333333333333</ele><time>2026-05-04T17:14:09.275Z</time></trkpt><trkpt lat="45.1425758" lon="8.0935984"><ele>360.5</ele><time>2026-05-04T17:14:11.273Z</time></trkpt><trkpt lat="45.1425361" lon="8.0935143"><ele>358.66666666666663</ele><time>2026-05-04T17:14:12.271Z</time></trkpt><trkpt lat="45.1424865" lon="8.093425"><ele>356.8333333333333</ele><time>2026-05-04T17:14:13.274Z</time></trkpt><trkpt lat="45.1424214" lon="8.0933578"><ele>355.0</ele><time>2026-05-04T17:14:14.277Z</time></trkpt><trkpt lat="45.1423585" lon="8.0932824"><ele>351.0</ele><time>2026-05-04T17:14:15.273Z</time></trkpt><trkpt lat="45.1423163" lon="8.0931918"><ele>347.0</ele><time>2026-05-04T17:14:16.275Z</time></trkpt><trkpt lat="45.142281" lon="8.0931081"><ele>343.0</ele><time>2026-05-04T17:14:17.273Z</time></trkpt><trkpt lat="45.1422491" lon="8.0930196"><ele>339.0</ele><time>2026-05-04T17:14:18.282Z</time></trkpt><trkpt lat="45.1422219" lon="8.0929045"><ele>335.0</ele><time>2026-05-04T17:14:19.274Z</time></trkpt><trkpt lat="45.1421888" lon="8.0927894"><ele>331.0</ele><time>2026-05-04T17:14:20.272Z</time></trkpt><trkpt lat="45.1421582" lon="8.0926717"><ele>331.0</ele><time>2026-05-04T17:14:21.271Z</time></trkpt><trkpt lat="45.1421319" lon="8.092561"><ele>331.0</ele><time>2026-05-04T17:14:22.274Z</time></trkpt><trkpt lat="45.1421098" lon="8.0924597"><ele>331.0</ele><time>2026-05-04T17:14:23.274Z</time></trkpt><trkpt lat="45.1420989" lon="8.0923709"><ele>331.0</ele><time>2026-05-04T17:14:24.275Z</time></trkpt><trkpt lat="45.142106" lon="8.0922083"><ele>331.0</ele><time>2026-05-04T17:14:26.278Z</time></trkpt><trkpt lat="45.142148" lon="8.0921304"><ele>331.0</ele><time>2026-05-04T17:14:27.278Z</time></trkpt><trkpt lat="45.1422078" lon="8.0920478"><ele>332.0</ele><time>2026-05-04T17:14:28.278Z</time></trkpt><trkpt lat="45.142294" lon="8.0919706"><ele>333.0</ele><time>2026-05-04T17:14:29.271Z</time></trkpt><trkpt lat="45.1423816" lon="8.0918936"><ele>334.0</ele><time>2026-05-04T17:14:30.273Z</time></trkpt><trkpt lat="45.1424685" lon="8.0918277"><ele>335.0</ele><time>2026-05-04T17:14:31.273Z</time></trkpt><trkpt lat="45.1425505" lon="8.091765"><ele>336.0</ele><time>2026-05-04T17:14:32.278Z</time></trkpt><trkpt lat="45.1426223" lon="8.0917253"><ele>336.0</ele><time>2026-05-04T17:14:33.272Z</time></trkpt><trkpt lat="45.142689" lon="8.0917107"><ele>336.0</ele><time>2026-05-04T17:14:34.271Z</time></trkpt><trkpt lat="45.1427529" lon="8.0917265"><ele>336.0</ele><time>2026-05-04T17:14:35.273Z</time></trkpt><trkpt lat="45.1428174" lon="8.091767"><ele>336.0</ele><time>2026-05-04T17:14:36.279Z</time></trkpt><trkpt lat="45.1428807" lon="8.0918093"><ele>336.0</ele><time>2026-05-04T17:14:37.276Z</time></trkpt><trkpt lat="45.1429409" lon="8.091849"><ele>336.0</ele><time>2026-05-04T17:14:38.277Z</time></trkpt><trkpt lat="45.1430738" lon="8.0918658"><ele>336.0</ele><time>2026-05-04T17:14:40.279Z</time></trkpt><trkpt lat="45.1431371" lon="8.0918141"><ele>336.0</ele><time>2026-05-04T17:14:41.271Z</time></trkpt><trkpt lat="45.1432068" lon="8.0917567"><ele>336.0</ele><time>2026-05-04T17:14:42.28Z</time></trkpt><trkpt lat="45.1433007" lon="8.0917107"><ele>336.0</ele><time>2026-05-04T17:14:43.271Z</time></trkpt><trkpt lat="45.1434031" lon="8.0916818"><ele>336.0</ele><time>2026-05-04T17:14:44.279Z</time></trkpt><trkpt lat="45.1435207" lon="8.0916454"><ele>337.25</ele><time>2026-05-04T17:14:45.279Z</time></trkpt><trkpt lat="45.1436375" lon="8.0915921"><ele>338.5</ele><time>2026-05-04T17:14:46.271Z</time></trkpt><trkpt lat="45.1437647" lon="8.0915378"><ele>339.75</ele><time>2026-05-04T17:14:47.276Z</time></trkpt><trkpt lat="45.1438875" lon="8.0914864"><ele>341.0</ele><time>2026-05-04T17:14:48.276Z</time></trkpt><trkpt lat="45.1439995" lon="8.0914285"><ele>338.8</ele><time>2026-05-04T17:14:49.28Z</time></trkpt><trkpt lat="45.1440975" lon="8.0913721"><ele>336.6</ele><time>2026-05-04T17:14:50.278Z</time></trkpt><trkpt lat="45.1441824" lon="8.0913277"><ele>334.4</ele><time>2026-05-04T17:14:51.284Z</time></trkpt><trkpt lat="45.1442559" lon="8.0912802"><ele>332.2</ele><time>2026-05-04T17:14:52.275Z</time></trkpt><trkpt lat="45.1443116" lon="8.0912309"><ele>330.0</ele><time>2026-05-04T17:14:53.276Z</time></trkpt><trkpt lat="45.1443656" lon="8.0910778"><ele>330.0</ele><time>2026-05-04T17:14:55.282Z</time></trkpt><trkpt lat="45.1443678" lon="8.0909775"><ele>330.0</ele><time>2026-05-04T17:14:56.283Z</time></trkpt><trkpt lat="45.1443682" lon="8.0908719"><ele>330.0</ele><time>2026-05-04T17:14:57.279Z</time></trkpt><trkpt lat="45.144369" lon="8.0907678"><ele>330.0</ele><time>2026-05-04T17:14:58.282Z</time></trkpt><trkpt lat="45.1443698" lon="8.090671"><ele>330.0</ele><time>2026-05-04T17:14:59.279Z</time></trkpt><trkpt lat="45.1443571" lon="8.0904996"><ele>330.0</ele><time>2026-05-04T17:15:01.276Z</time></trkpt><trkpt lat="45.144362" lon="8.0904099"><ele>328.4</ele><time>2026-05-04T17:15:02.28Z</time></trkpt><trkpt lat="45.1444002" lon="8.0903277"><ele>326.8</ele><time>2026-05-04T17:15:03.277Z</time></trkpt><trkpt lat="45.1444544" lon="8.090246"><ele>325.20000000000005</ele><time>2026-05-04T17:15:04.275Z</time></trkpt><trkpt lat="45.1445236" lon="8.0901674"><ele>323.6</ele><time>2026-05-04T17:15:05.274Z</time></trkpt><trkpt lat="45.1446108" lon="8.090082"><ele>322.0</ele><time>2026-05-04T17:15:06.276Z</time></trkpt><trkpt lat="45.1447039" lon="8.0899887"><ele>322.5</ele><time>2026-05-04T17:15:07.27Z</time></trkpt><trkpt lat="45.1448004" lon="8.0898727"><ele>323.0</ele><time>2026-05-04T17:15:08.278Z</time></trkpt><trkpt lat="45.1448928" lon="8.0897514"><ele>323.5</ele><time>2026-05-04T17:15:09.274Z</time></trkpt><trkpt lat="45.1449763" lon="8.0896349"><ele>324.0</ele><time>2026-05-04T17:15:10.274Z</time></trkpt><trkpt lat="45.145054" lon="8.0895266"><ele>324.0</ele><time>2026-05-04T17:15:11.279Z</time></trkpt><trkpt lat="45.1451236" lon="8.0894235"><ele>324.0</ele><time>2026-05-04T17:15:12.277Z</time></trkpt><trkpt lat="45.1451891" lon="8.0893277"><ele>324.0</ele><time>2026-05-04T17:15:13.279Z</time></trkpt><trkpt lat="45.1452527" lon="8.0892564"><ele>324.0</ele><time>2026-05-04T17:15:14.276Z</time></trkpt><trkpt lat="45.1453228" lon="8.0891823"><ele>324.0</ele><time>2026-05-04T17:15:15.286Z</time></trkpt><trkpt lat="45.1454087" lon="8.0891343"><ele>324.2</ele><time>2026-05-04T17:15:16.274Z</time></trkpt><trkpt lat="45.1455002" lon="8.0890853"><ele>324.4</ele><time>2026-05-04T17:15:17.276Z</time></trkpt><trkpt lat="45.1455945" lon="8.0890138"><ele>324.6</ele><time>2026-05-04T17:15:18.278Z</time></trkpt><trkpt lat="45.1456882" lon="8.0889268"><ele>324.8</ele><time>2026-05-04T17:15:19.276Z</time></trkpt><trkpt lat="45.1457837" lon="8.0888322"><ele>325.0</ele><time>2026-05-04T17:15:20.277Z</time></trkpt><trkpt lat="45.1458699" lon="8.0887438"><ele>325.3333333333333</ele><time>2026-05-04T17:15:21.275Z</time></trkpt><trkpt lat="45.1459484" lon="8.0886621"><ele>325.66666666666663</ele><time>2026-05-04T17:15:22.273Z</time></trkpt><trkpt lat="45.1460201" lon="8.0885887"><ele>326.0</ele><time>2026-05-04T17:15:23.28Z</time></trkpt><trkpt lat="45.1460892" lon="8.0885212"><ele>326.3333333333333</ele><time>2026-05-04T17:15:24.278Z</time></trkpt><trkpt lat="45.1461603" lon="8.0884594"><ele>326.6666666666667</ele><time>2026-05-04T17:15:25.285Z</time></trkpt><trkpt lat="45.1462325" lon="8.0883947"><ele>327.0</ele><time>2026-05-04T17:15:26.271Z</time></trkpt><trkpt lat="45.1463046" lon="8.0883264"><ele>327.0</ele><time>2026-05-04T17:15:27.275Z</time></trkpt><trkpt lat="45.1463727" lon="8.0882617"><ele>327.0</ele><time>2026-05-04T17:15:28.274Z</time></trkpt><trkpt lat="45.1464316" lon="8.0882073"><ele>327.0</ele><time>2026-05-04T17:15:29.269Z</time></trkpt><trkpt lat="45.1465072" lon="8.0881631"><ele>327.0</ele><time>2026-05-04T17:15:31.275Z</time></trkpt><trkpt lat="45.1466057" lon="8.0882015"><ele>327.0</ele><time>2026-05-04T17:15:33.275Z</time></trkpt><trkpt lat="45.1466702" lon="8.0882366"><ele>327.0</ele><time>2026-05-04T17:15:34.276Z</time></trkpt><trkpt lat="45.1467481" lon="8.0882979"><ele>326.40000000000003</ele><time>2026-05-04T17:15:35.273Z</time></trkpt><trkpt lat="45.1468436" lon="8.0883735"><ele>325.8</ele><time>2026-05-04T17:15:36.275Z</time></trkpt><trkpt lat="45.1469398" lon="8.0884627"><ele>325.2</ele><time>2026-05-04T17:15:37.282Z</time></trkpt><trkpt lat="45.1470226" lon="8.0885498"><ele>324.6</ele><time>2026-05-04T17:15:38.269Z</time></trkpt><trkpt lat="45.1470962" lon="8.08865"><ele>324.0</ele><time>2026-05-04T17:15:39.279Z</time></trkpt><trkpt lat="45.1471631" lon="8.0887729"><ele>324.0</ele><time>2026-05-04T17:15:40.28Z</time></trkpt><trkpt lat="45.1472168" lon="8.0889107"><ele>324.0</ele><time>2026-05-04T17:15:41.274Z</time></trkpt><trkpt lat="45.1472625" lon="8.0890586"><ele>324.0</ele><time>2026-05-04T17:15:42.275Z</time></trkpt><trkpt lat="45.1473097" lon="8.0892125"><ele>324.0</ele><time>2026-05-04T17:15:43.274Z</time></trkpt><trkpt lat="45.1473709" lon="8.08936"><ele>322.59999999999997</ele><time>2026-05-04T17:15:44.274Z</time></trkpt><trkpt lat="45.1474322" lon="8.0894956"><ele>321.2</ele><time>2026-05-04T17:15:45.28Z</time></trkpt><trkpt lat="45.1474959" lon="8.0896056"><ele>319.79999999999995</ele><time>2026-05-04T17:15:46.28Z</time></trkpt><trkpt lat="45.1475528" lon="8.089702"><ele>318.4</ele><time>2026-05-04T17:15:47.275Z</time></trkpt><trkpt lat="45.1476339" lon="8.0897443"><ele>317.0</ele><time>2026-05-04T17:15:48.28Z</time></trkpt><trkpt lat="45.147712" lon="8.0897861"><ele>317.0</ele><time>2026-05-04T17:15:49.274Z</time></trkpt><trkpt lat="45.1477977" lon="8.0898072"><ele>317.0</ele><time>2026-05-04T17:15:50.276Z</time></trkpt><trkpt lat="45.1478841" lon="8.0898276"><ele>317.0</ele><time>2026-05-04T17:15:51.279Z</time></trkpt><trkpt lat="45.1479694" lon="8.0898883"><ele>317.0</ele><time>2026-05-04T17:15:52.283Z</time></trkpt><trkpt lat="45.1480557" lon="8.0899588"><ele>317.0</ele><time>2026-05-04T17:15:53.279Z</time></trkpt><trkpt lat="45.1481426" lon="8.0900407"><ele>315.2</ele><time>2026-05-04T17:15:54.273Z</time></trkpt><trkpt lat="45.1482226" lon="8.0901271"><ele>313.4</ele><time>2026-05-04T17:15:55.278Z</time></trkpt><trkpt lat="45.1482892" lon="8.0902242"><ele>311.6</ele><time>2026-05-04T17:15:56.269Z</time></trkpt><trkpt lat="45.1483352" lon="8.0903372"><ele>309.8</ele><time>2026-05-04T17:15:57.282Z</time></trkpt><trkpt lat="45.1483593" lon="8.0904629"><ele>308.0</ele><time>2026-05-04T17:15:58.282Z</time></trkpt><trkpt lat="45.1483764" lon="8.0905834"><ele>308.0</ele><time>2026-05-04T17:15:59.273Z</time></trkpt><trkpt lat="45.1484065" lon="8.0906916"><ele>308.0</ele><time>2026-05-04T17:16:00.281Z</time></trkpt><trkpt lat="45.1484367" lon="8.0907954"><ele>308.0</ele><time>2026-05-04T17:16:01.282Z</time></trkpt><trkpt lat="45.1485133" lon="8.0908622"><ele>308.0</ele><time>2026-05-04T17:16:02.274Z</time></trkpt><trkpt lat="45.1486045" lon="8.0909229"><ele>308.0</ele><time>2026-05-04T17:16:03.278Z</time></trkpt><trkpt lat="45.1487069" lon="8.0909722"><ele>308.25</ele><time>2026-05-04T17:16:04.28Z</time></trkpt><trkpt lat="45.1488226" lon="8.0910129"><ele>308.5</ele><time>2026-05-04T17:16:05.278Z</time></trkpt><trkpt lat="45.1489506" lon="8.0910503"><ele>308.75</ele><time>2026-05-04T17:16:06.274Z</time></trkpt><trkpt lat="45.1490872" lon="8.0910949"><ele>309.0</ele><time>2026-05-04T17:16:07.283Z</time></trkpt><trkpt lat="45.149231" lon="8.0911468"><ele>308.0</ele><time>2026-05-04T17:16:08.28Z</time></trkpt><trkpt lat="45.1493776" lon="8.0912006"><ele>307.0</ele><time>2026-05-04T17:16:09.278Z</time></trkpt><trkpt lat="45.149526" lon="8.0912574"><ele>306.0</ele><time>2026-05-04T17:16:10.28Z</time></trkpt><trkpt lat="45.1496702" lon="8.0913159"><ele>306.0</ele><time>2026-05-04T17:16:11.278Z</time></trkpt><trkpt lat="45.1498193" lon="8.0913953"><ele>306.0</ele><time>2026-05-04T17:16:12.275Z</time></trkpt><trkpt lat="45.1499644" lon="8.091486"><ele>306.0</ele><time>2026-05-04T17:16:13.276Z</time></trkpt><trkpt lat="45.1501103" lon="8.0915774"><ele>307.3333333333333</ele><time>2026-05-04T17:16:14.277Z</time></trkpt><trkpt lat="45.150262" lon="8.0916656"><ele>308.66666666666663</ele><time>2026-05-04T17:16:15.279Z</time></trkpt><trkpt lat="45.1504168" lon="8.0917457"><ele>310.0</ele><time>2026-05-04T17:16:16.278Z</time></trkpt><trkpt lat="45.1505783" lon="8.0918159"><ele>311.66666666666663</ele><time>2026-05-04T17:16:17.278Z</time></trkpt><trkpt lat="45.1507386" lon="8.0918844"><ele>313.3333333333333</ele><time>2026-05-04T17:16:18.279Z</time></trkpt><trkpt lat="45.1509019" lon="8.0919508"><ele>315.0</ele><time>2026-05-04T17:16:19.277Z</time></trkpt><trkpt lat="45.1510631" lon="8.0920295"><ele>315.0</ele><time>2026-05-04T17:16:20.273Z</time></trkpt><trkpt lat="45.1512171" lon="8.0921194"><ele>315.0</ele><time>2026-05-04T17:16:21.272Z</time></trkpt><trkpt lat="45.1513678" lon="8.0922256"><ele>315.0</ele><time>2026-05-04T17:16:22.278Z</time></trkpt><trkpt lat="45.1515162" lon="8.0923421"><ele>313.3333333333333</ele><time>2026-05-04T17:16:23.282Z</time></trkpt><trkpt lat="45.1516638" lon="8.0924609"><ele>311.66666666666663</ele><time>2026-05-04T17:16:24.283Z</time></trkpt><trkpt lat="45.1518046" lon="8.0925779"><ele>310.0</ele><time>2026-05-04T17:16:25.281Z</time></trkpt><trkpt lat="45.1519385" lon="8.0926882"><ele>310.0</ele><time>2026-05-04T17:16:26.282Z</time></trkpt><trkpt lat="45.1520626" lon="8.0927931"><ele>310.0</ele><time>2026-05-04T17:16:27.282Z</time></trkpt><trkpt lat="45.1521778" lon="8.0928948"><ele>310.0</ele><time>2026-05-04T17:16:28.278Z</time></trkpt><trkpt lat="45.1522855" lon="8.0929839"><ele>310.0</ele><time>2026-05-04T17:16:29.281Z</time></trkpt><trkpt lat="45.152395" lon="8.0930526"><ele>312.5</ele><time>2026-05-04T17:16:30.285Z</time></trkpt><trkpt lat="45.1525137" lon="8.093107"><ele>315.0</ele><time>2026-05-04T17:16:31.272Z</time></trkpt><trkpt lat="45.1526424" lon="8.0931543"><ele>317.5</ele><time>2026-05-04T17:16:32.283Z</time></trkpt><trkpt lat="45.1527807" lon="8.0931945"><ele>320.0</ele><time>2026-05-04T17:16:33.277Z</time></trkpt><trkpt lat="45.1529271" lon="8.0932323"><ele>317.6666666666667</ele><time>2026-05-04T17:16:34.279Z</time></trkpt><trkpt lat="45.1530781" lon="8.0932628"><ele>315.3333333333333</ele><time>2026-05-04T17:16:35.279Z</time></trkpt><trkpt lat="45.1532325" lon="8.0932846"><ele>313.0</ele><time>2026-05-04T17:16:36.278Z</time></trkpt><trkpt lat="45.1533884" lon="8.0933071"><ele>312.3333333333333</ele><time>2026-05-04T17:16:37.278Z</time></trkpt><trkpt lat="45.1535392" lon="8.0933393"><ele>311.6666666666667</ele><time>2026-05-04T17:16:38.272Z</time></trkpt><trkpt lat="45.1536879" lon="8.0933786"><ele>311.0</ele><time>2026-05-04T17:16:39.272Z</time></trkpt><trkpt lat="45.1538322" lon="8.0934282"><ele>311.0</ele><time>2026-05-04T17:16:40.278Z</time></trkpt><trkpt lat="45.153974" lon="8.0934793"><ele>311.0</ele><time>2026-05-04T17:16:41.278Z</time></trkpt><trkpt lat="45.1541133" lon="8.09353"><ele>311.0</ele><time>2026-05-04T17:16:42.274Z</time></trkpt><trkpt lat="45.1542496" lon="8.0935787"><ele>311.0</ele><time>2026-05-04T17:16:43.29Z</time></trkpt><trkpt lat="45.1543808" lon="8.0936263"><ele>308.75</ele><time>2026-05-04T17:16:44.274Z</time></trkpt><trkpt lat="45.1545073" lon="8.0936746"><ele>306.5</ele><time>2026-05-04T17:16:45.279Z</time></trkpt><trkpt lat="45.1546245" lon="8.0937119"><ele>304.25</ele><time>2026-05-04T17:16:46.271Z</time></trkpt><trkpt lat="45.1547368" lon="8.0937532"><ele>302.0</ele><time>2026-05-04T17:16:47.281Z</time></trkpt><trkpt lat="45.1548455" lon="8.0937807"><ele>300.75</ele><time>2026-05-04T17:16:48.274Z</time></trkpt><trkpt lat="45.1549534" lon="8.0937799"><ele>299.5</ele><time>2026-05-04T17:16:49.28Z</time></trkpt><trkpt lat="45.155088" lon="8.0937451"><ele>298.25</ele><time>2026-05-04T17:16:50.276Z</time></trkpt><trkpt lat="45.1552366" lon="8.0937035"><ele>297.0</ele><time>2026-05-04T17:16:51.279Z</time></trkpt><trkpt lat="45.1553961" lon="8.0936643"><ele>297.0</ele><time>2026-05-04T17:16:52.277Z</time></trkpt><trkpt lat="45.1555608" lon="8.093632"><ele>297.0</ele><time>2026-05-04T17:16:53.276Z</time></trkpt><trkpt lat="45.1557245" lon="8.0936031"><ele>297.0</ele><time>2026-05-04T17:16:54.274Z</time></trkpt><trkpt lat="45.1558972" lon="8.0935717"><ele>295.6666666666667</ele><time>2026-05-04T17:16:55.277Z</time></trkpt><trkpt lat="45.1560588" lon="8.0935457"><ele>294.33333333333337</ele><time>2026-05-04T17:16:56.274Z</time></trkpt><trkpt lat="45.1562118" lon="8.0935262"><ele>293.0</ele><time>2026-05-04T17:16:57.284Z</time></trkpt><trkpt lat="45.1563466" lon="8.0935025"><ele>293.0</ele><time>2026-05-04T17:16:58.283Z</time></trkpt><trkpt lat="45.156474" lon="8.0934832"><ele>293.0</ele><time>2026-05-04T17:16:59.287Z</time></trkpt><trkpt lat="45.1566019" lon="8.0934651"><ele>293.0</ele><time>2026-05-04T17:17:00.276Z</time></trkpt><trkpt lat="45.1567282" lon="8.0934481"><ele>293.0</ele><time>2026-05-04T17:17:01.288Z</time></trkpt><trkpt lat="45.1568509" lon="8.0934279"><ele>292.2</ele><time>2026-05-04T17:17:02.282Z</time></trkpt><trkpt lat="45.1569645" lon="8.0933955"><ele>291.4</ele><time>2026-05-04T17:17:03.277Z</time></trkpt><trkpt lat="45.1570734" lon="8.0933584"><ele>290.59999999999997</ele><time>2026-05-04T17:17:04.278Z</time></trkpt><trkpt lat="45.1571765" lon="8.0933259"><ele>289.8</ele><time>2026-05-04T17:17:05.278Z</time></trkpt><trkpt lat="45.1572743" lon="8.0933176"><ele>289.0</ele><time>2026-05-04T17:17:06.277Z</time></trkpt><trkpt lat="45.1573568" lon="8.0933179"><ele>288.2</ele><time>2026-05-04T17:17:07.277Z</time></trkpt><trkpt lat="45.1574722" lon="8.0933245"><ele>287.4</ele><time>2026-05-04T17:17:09.273Z</time></trkpt><trkpt lat="45.1575783" lon="8.0934674"><ele>286.6</ele><time>2026-05-04T17:17:11.279Z</time></trkpt><trkpt lat="45.1576349" lon="8.0935704"><ele>285.8</ele><time>2026-05-04T17:17:12.278Z</time></trkpt><trkpt lat="45.1576904" lon="8.0936724"><ele>285.0</ele><time>2026-05-04T17:17:13.275Z</time></trkpt><trkpt lat="45.1577531" lon="8.0937583"><ele>285.0</ele><time>2026-05-04T17:17:14.281Z</time></trkpt><trkpt lat="45.1578408" lon="8.0938264"><ele>285.0</ele><time>2026-05-04T17:17:15.275Z</time></trkpt><trkpt lat="45.1579411" lon="8.0939013"><ele>285.0</ele><time>2026-05-04T17:17:16.278Z</time></trkpt><trkpt lat="45.1580741" lon="8.0939514"><ele>285.0</ele><time>2026-05-04T17:17:17.275Z</time></trkpt><trkpt lat="45.1582234" lon="8.0940159"><ele>282.3333333333333</ele><time>2026-05-04T17:17:18.273Z</time></trkpt><trkpt lat="45.158366" lon="8.0941062"><ele>279.66666666666663</ele><time>2026-05-04T17:17:19.282Z</time></trkpt><trkpt lat="45.158535" lon="8.0942058"><ele>277.0</ele><time>2026-05-04T17:17:20.275Z</time></trkpt><trkpt lat="45.1587093" lon="8.0943081"><ele>277.0</ele><time>2026-05-04T17:17:21.273Z</time></trkpt><trkpt lat="45.1589022" lon="8.0944039"><ele>277.0</ele><time>2026-05-04T17:17:22.274Z</time></trkpt><trkpt lat="45.159065" lon="8.0945466"><ele>277.0</ele><time>2026-05-04T17:17:23.273Z</time></trkpt><trkpt lat="45.1592203" lon="8.0946888"><ele>275.3333333333333</ele><time>2026-05-04T17:17:24.282Z</time></trkpt><trkpt lat="45.15937" lon="8.0948331"><ele>273.6666666666667</ele><time>2026-05-04T17:17:25.28Z</time></trkpt><trkpt lat="45.1595163" lon="8.0949804"><ele>272.0</ele><time>2026-05-04T17:17:26.285Z</time></trkpt><trkpt lat="45.1596577" lon="8.0951222"><ele>271.6666666666667</ele><time>2026-05-04T17:17:27.274Z</time></trkpt><trkpt lat="45.159793" lon="8.0952504"><ele>271.3333333333333</ele><time>2026-05-04T17:17:28.282Z</time></trkpt><trkpt lat="45.159924" lon="8.0953693"><ele>271.0</ele><time>2026-05-04T17:17:29.276Z</time></trkpt><trkpt lat="45.1600483" lon="8.0954872"><ele>270.0</ele><time>2026-05-04T17:17:30.279Z</time></trkpt><trkpt lat="45.1601723" lon="8.0955763"><ele>269.0</ele><time>2026-05-04T17:17:31.274Z</time></trkpt><trkpt lat="45.1602973" lon="8.0956574"><ele>268.0</ele><time>2026-05-04T17:17:32.279Z</time></trkpt><trkpt lat="45.1604328" lon="8.0957173"><ele>267.0</ele><time>2026-05-04T17:17:33.272Z</time></trkpt><trkpt lat="45.1605732" lon="8.0957456"><ele>267.3333333333333</ele><time>2026-05-04T17:17:34.276Z</time></trkpt><trkpt lat="45.1607232" lon="8.0957572"><ele>267.66666666666663</ele><time>2026-05-04T17:17:35.275Z</time></trkpt><trkpt lat="45.1608711" lon="8.0957407"><ele>268.0</ele><time>2026-05-04T17:17:36.272Z</time></trkpt><trkpt lat="45.1610287" lon="8.0957389"><ele>268.0</ele><time>2026-05-04T17:17:37.298Z</time></trkpt><trkpt lat="45.1611929" lon="8.095749"><ele>268.0</ele><time>2026-05-04T17:17:38.277Z</time></trkpt><trkpt lat="45.1613475" lon="8.0957537"><ele>268.0</ele><time>2026-05-04T17:17:39.274Z</time></trkpt><trkpt lat="45.1614857" lon="8.095765"><ele>266.5</ele><time>2026-05-04T17:17:40.272Z</time></trkpt><trkpt lat="45.1616192" lon="8.0957872"><ele>265.0</ele><time>2026-05-04T17:17:41.271Z</time></trkpt><trkpt lat="45.1617447" lon="8.0958256"><ele>263.5</ele><time>2026-05-04T17:17:42.273Z</time></trkpt><trkpt lat="45.1618638" lon="8.0958967"><ele>262.0</ele><time>2026-05-04T17:17:43.275Z</time></trkpt><trkpt lat="45.161981" lon="8.0959977"><ele>262.0</ele><time>2026-05-04T17:17:44.276Z</time></trkpt><trkpt lat="45.1620982" lon="8.0961065"><ele>262.0</ele><time>2026-05-04T17:17:45.271Z</time></trkpt><trkpt lat="45.1622187" lon="8.0962198"><ele>262.0</ele><time>2026-05-04T17:17:46.28Z</time></trkpt><trkpt lat="45.162344" lon="8.0963343"><ele>262.0</ele><time>2026-05-04T17:17:47.28Z</time></trkpt><trkpt lat="45.1624707" lon="8.0964598"><ele>261.0</ele><time>2026-05-04T17:17:48.282Z</time></trkpt><trkpt lat="45.162595" lon="8.0966028"><ele>260.0</ele><time>2026-05-04T17:17:49.276Z</time></trkpt><trkpt lat="45.1627149" lon="8.0967703"><ele>259.0</ele><time>2026-05-04T17:17:50.282Z</time></trkpt><trkpt lat="45.1628376" lon="8.0969602"><ele>259.0</ele><time>2026-05-04T17:17:51.278Z</time></trkpt><trkpt lat="45.1629606" lon="8.0971585"><ele>259.0</ele><time>2026-05-04T17:17:52.28Z</time></trkpt><trkpt lat="45.163081" lon="8.0973526"><ele>259.0</ele><time>2026-05-04T17:17:53.278Z</time></trkpt><trkpt lat="45.1631978" lon="8.097535"><ele>258.66666666666663</ele><time>2026-05-04T17:17:54.278Z</time></trkpt><trkpt lat="45.1633057" lon="8.097706"><ele>258.3333333333333</ele><time>2026-05-04T17:17:55.277Z</time></trkpt><trkpt lat="45.1634043" lon="8.0978675"><ele>258.0</ele><time>2026-05-04T17:17:56.278Z</time></trkpt><trkpt lat="45.1634888" lon="8.0980255"><ele>258.0</ele><time>2026-05-04T17:17:57.273Z</time></trkpt><trkpt lat="45.1635632" lon="8.0981649"><ele>258.0</ele><time>2026-05-04T17:17:58.284Z</time></trkpt><trkpt lat="45.1636028" lon="8.0983141"><ele>258.0</ele><time>2026-05-04T17:17:59.282Z</time></trkpt><trkpt lat="45.1636021" lon="8.0984843"><ele>258.0</ele><time>2026-05-04T17:18:00.279Z</time></trkpt><trkpt lat="45.1635745" lon="8.0986688"><ele>258.0</ele><time>2026-05-04T17:18:01.276Z</time></trkpt><trkpt lat="45.1635399" lon="8.0988658"><ele>258.0</ele><time>2026-05-04T17:18:02.278Z</time></trkpt><trkpt lat="45.163505" lon="8.099075"><ele>258.0</ele><time>2026-05-04T17:18:03.286Z</time></trkpt><trkpt lat="45.1634752" lon="8.0993062"><ele>258.0</ele><time>2026-05-04T17:18:04.282Z</time></trkpt><trkpt lat="45.1634416" lon="8.0995502"><ele>258.0</ele><time>2026-05-04T17:18:05.278Z</time></trkpt><trkpt lat="45.1634016" lon="8.0998063"><ele>258.0</ele><time>2026-05-04T17:18:06.283Z</time></trkpt><trkpt lat="45.1633533" lon="8.1000687"><ele>258.6666666666667</ele><time>2026-05-04T17:18:07.284Z</time></trkpt><trkpt lat="45.1633008" lon="8.1003462"><ele>259.33333333333337</ele><time>2026-05-04T17:18:08.284Z</time></trkpt><trkpt lat="45.1632563" lon="8.1006298"><ele>260.0</ele><time>2026-05-04T17:18:09.273Z</time></trkpt><trkpt lat="45.1632156" lon="8.1009243"><ele>255.66666666666669</ele><time>2026-05-04T17:18:10.278Z</time></trkpt><trkpt lat="45.1631773" lon="8.1012181"><ele>251.33333333333331</ele><time>2026-05-04T17:18:11.279Z</time></trkpt><trkpt lat="45.1631395" lon="8.101493"><ele>247.0</ele><time>2026-05-04T17:18:12.272Z</time></trkpt><trkpt lat="45.1631035" lon="8.1017569"><ele>246.66666666666666</ele><time>2026-05-04T17:18:13.272Z</time></trkpt><trkpt lat="45.1630662" lon="8.1020173"><ele>246.33333333333331</ele><time>2026-05-04T17:18:14.28Z</time></trkpt><trkpt lat="45.1630317" lon="8.102267"><ele>246.0</ele><time>2026-05-04T17:18:15.275Z</time></trkpt><trkpt lat="45.1629982" lon="8.102507"><ele>245.0</ele><time>2026-05-04T17:18:16.279Z</time></trkpt><trkpt lat="45.1629664" lon="8.1027366"><ele>244.0</ele><time>2026-05-04T17:18:17.272Z</time></trkpt><trkpt lat="45.1629414" lon="8.1029612"><ele>243.0</ele><time>2026-05-04T17:18:18.273Z</time></trkpt><trkpt lat="45.1629241" lon="8.1031831"><ele>243.75</ele><time>2026-05-04T17:18:19.272Z</time></trkpt><trkpt lat="45.1629169" lon="8.1033932"><ele>244.5</ele><time>2026-05-04T17:18:20.286Z</time></trkpt><trkpt lat="45.1629153" lon="8.1035846"><ele>245.25</ele><time>2026-05-04T17:18:21.276Z</time></trkpt><trkpt lat="45.1629193" lon="8.1037557"><ele>246.0</ele><time>2026-05-04T17:18:22.273Z</time></trkpt><trkpt lat="45.1629347" lon="8.1039008"><ele>246.0</ele><time>2026-05-04T17:18:23.275Z</time></trkpt><trkpt lat="45.1629592" lon="8.1040331"><ele>246.00000000000003</ele><time>2026-05-04T17:18:24.282Z</time></trkpt><trkpt lat="45.1630171" lon="8.1041348"><ele>246.00000000000003</ele><time>2026-05-04T17:18:25.28Z</time></trkpt><trkpt lat="45.1631027" lon="8.104204"><ele>246.0</ele><time>2026-05-04T17:18:26.276Z</time></trkpt><trkpt lat="45.1631966" lon="8.1042364"><ele>246.0</ele><time>2026-05-04T17:18:27.284Z</time></trkpt><trkpt lat="45.1632973" lon="8.1042264"><ele>246.75</ele><time>2026-05-04T17:18:28.284Z</time></trkpt><trkpt lat="45.1634091" lon="8.104184"><ele>247.5</ele><time>2026-05-04T17:18:29.286Z</time></trkpt><trkpt lat="45.1635296" lon="8.1041144"><ele>248.25</ele><time>2026-05-04T17:18:30.279Z</time></trkpt><trkpt lat="45.1636603" lon="8.1040551"><ele>249.0</ele><time>2026-05-04T17:18:31.275Z</time></trkpt><trkpt lat="45.1637986" lon="8.1040176"><ele>251.75</ele><time>2026-05-04T17:18:32.273Z</time></trkpt><trkpt lat="45.1639412" lon="8.1039875"><ele>254.5</ele><time>2026-05-04T17:18:33.275Z</time></trkpt><trkpt lat="45.1640785" lon="8.1040054"><ele>257.25</ele><time>2026-05-04T17:18:34.283Z</time></trkpt><trkpt lat="45.1642076" lon="8.1040132"><ele>260.0</ele><time>2026-05-04T17:18:35.277Z</time></trkpt><trkpt lat="45.1643388" lon="8.1039887"><ele>260.0</ele><time>2026-05-04T17:18:36.277Z</time></trkpt><trkpt lat="45.164471" lon="8.1039388"><ele>260.0</ele><time>2026-05-04T17:18:37.274Z</time></trkpt><trkpt lat="45.1645994" lon="8.1038812"><ele>260.0</ele><time>2026-05-04T17:18:38.286Z</time></trkpt><trkpt lat="45.164718" lon="8.1038336"><ele>260.0</ele><time>2026-05-04T17:18:39.275Z</time></trkpt><trkpt lat="45.1648222" lon="8.1038247"><ele>258.25</ele><time>2026-05-04T17:18:40.278Z</time></trkpt><trkpt lat="45.1649126" lon="8.103866"><ele>256.5</ele><time>2026-05-04T17:18:41.278Z</time></trkpt><trkpt lat="45.1649988" lon="8.1039547"><ele>254.75</ele><time>2026-05-04T17:18:42.276Z</time></trkpt><trkpt lat="45.1650697" lon="8.1040882"><ele>253.0</ele><time>2026-05-04T17:18:43.283Z</time></trkpt><trkpt lat="45.1651369" lon="8.1042582"><ele>250.5</ele><time>2026-05-04T17:18:44.278Z</time></trkpt><trkpt lat="45.1651997" lon="8.1044137"><ele>248.0</ele><time>2026-05-04T17:18:45.279Z</time></trkpt><trkpt lat="45.1652739" lon="8.1045516"><ele>245.5</ele><time>2026-05-04T17:18:46.281Z</time></trkpt><trkpt lat="45.1653682" lon="8.1046685"><ele>243.0</ele><time>2026-05-04T17:18:47.278Z</time></trkpt><trkpt lat="45.1654852" lon="8.1047602"><ele>243.0</ele><time>2026-05-04T17:18:48.282Z</time></trkpt><trkpt lat="45.1656082" lon="8.1048524"><ele>243.0</ele><time>2026-05-04T17:18:49.277Z</time></trkpt><trkpt lat="45.1657375" lon="8.1049233"><ele>243.0</ele><time>2026-05-04T17:18:50.271Z</time></trkpt><trkpt lat="45.1658555" lon="8.1050083"><ele>243.0</ele><time>2026-05-04T17:18:51.274Z</time></trkpt><trkpt lat="45.165953" lon="8.1051134"><ele>242.0</ele><time>2026-05-04T17:18:52.281Z</time></trkpt><trkpt lat="45.1660445" lon="8.105219"><ele>241.0</ele><time>2026-05-04T17:18:53.276Z</time></trkpt><trkpt lat="45.16613" lon="8.1053135"><ele>240.0</ele><time>2026-05-04T17:18:54.279Z</time></trkpt><trkpt lat="45.166213" lon="8.1054002"><ele>239.0</ele><time>2026-05-04T17:18:55.277Z</time></trkpt><trkpt lat="45.1663131" lon="8.1054448"><ele>238.0</ele><time>2026-05-04T17:18:56.276Z</time></trkpt><trkpt lat="45.1664154" lon="8.1054395"><ele>238.25</ele><time>2026-05-04T17:18:57.274Z</time></trkpt><trkpt lat="45.1665285" lon="8.1053945"><ele>238.5</ele><time>2026-05-04T17:18:58.283Z</time></trkpt><trkpt lat="45.1666521" lon="8.1053318"><ele>238.75</ele><time>2026-05-04T17:18:59.28Z</time></trkpt><trkpt lat="45.1667855" lon="8.1052854"><ele>239.0</ele><time>2026-05-04T17:19:00.279Z</time></trkpt><trkpt lat="45.166934" lon="8.1052659"><ele>239.0</ele><time>2026-05-04T17:19:01.286Z</time></trkpt><trkpt lat="45.1670927" lon="8.1052819"><ele>239.0</ele><time>2026-05-04T17:19:02.277Z</time></trkpt><trkpt lat="45.1672529" lon="8.1053086"><ele>239.0</ele><time>2026-05-04T17:19:03.277Z</time></trkpt><trkpt lat="45.1674208" lon="8.1053728"><ele>238.33333333333334</ele><time>2026-05-04T17:19:04.284Z</time></trkpt><trkpt lat="45.1676006" lon="8.1054398"><ele>237.66666666666669</ele><time>2026-05-04T17:19:05.276Z</time></trkpt><trkpt lat="45.1677761" lon="8.1054873"><ele>237.0</ele><time>2026-05-04T17:19:06.283Z</time></trkpt><trkpt lat="45.1679344" lon="8.1055269"><ele>237.0</ele><time>2026-05-04T17:19:07.279Z</time></trkpt><trkpt lat="45.1680844" lon="8.1055345"><ele>237.0</ele><time>2026-05-04T17:19:08.285Z</time></trkpt><trkpt lat="45.16823" lon="8.10555"><ele>237.0</ele><time>2026-05-04T17:19:09.277Z</time></trkpt><trkpt lat="45.1683608" lon="8.1055624"><ele>237.0</ele><time>2026-05-04T17:19:10.284Z</time></trkpt><trkpt lat="45.1684885" lon="8.1055496"><ele>235.0</ele><time>2026-05-04T17:19:11.277Z</time></trkpt><trkpt lat="45.1686105" lon="8.1055137"><ele>233.0</ele><time>2026-05-04T17:19:12.277Z</time></trkpt><trkpt lat="45.1687213" lon="8.1054562"><ele>231.0</ele><time>2026-05-04T17:19:13.277Z</time></trkpt><trkpt lat="45.1688189" lon="8.1053779"><ele>229.0</ele><time>2026-05-04T17:19:14.278Z</time></trkpt><trkpt lat="45.1689077" lon="8.1052885"><ele>229.0</ele><time>2026-05-04T17:19:15.271Z</time></trkpt><trkpt lat="45.1689614" lon="8.1051509"><ele>229.0</ele><time>2026-05-04T17:19:16.285Z</time></trkpt><trkpt lat="45.1689969" lon="8.1049867"><ele>229.0</ele><time>2026-05-04T17:19:17.273Z</time></trkpt><trkpt lat="45.1690214" lon="8.1048107"><ele>229.0</ele><time>2026-05-04T17:19:18.28Z</time></trkpt><trkpt lat="45.1690458" lon="8.1046412"><ele>229.25</ele><time>2026-05-04T17:19:19.278Z</time></trkpt><trkpt lat="45.1690709" lon="8.1044788"><ele>229.5</ele><time>2026-05-04T17:19:20.275Z</time></trkpt><trkpt lat="45.169102" lon="8.1043211"><ele>229.75</ele><time>2026-05-04T17:19:21.277Z</time></trkpt><trkpt lat="45.1691433" lon="8.1041745"><ele>230.0</ele><time>2026-05-04T17:19:22.273Z</time></trkpt><trkpt lat="45.1692034" lon="8.1040467"><ele>230.0</ele><time>2026-05-04T17:19:23.282Z</time></trkpt><trkpt lat="45.1692806" lon="8.1039314"><ele>230.0</ele><time>2026-05-04T17:19:24.277Z</time></trkpt><trkpt lat="45.1693684" lon="8.1038337"><ele>230.0</ele><time>2026-05-04T17:19:25.282Z</time></trkpt><trkpt lat="45.1694704" lon="8.1037571"><ele>230.0</ele><time>2026-05-04T17:19:26.283Z</time></trkpt><trkpt lat="45.1695791" lon="8.103694"><ele>230.0</ele><time>2026-05-04T17:19:27.271Z</time></trkpt><trkpt lat="45.169696" lon="8.1036747"><ele>230.0</ele><time>2026-05-04T17:19:28.278Z</time></trkpt><trkpt lat="45.1698122" lon="8.1036468"><ele>230.0</ele><time>2026-05-04T17:19:29.274Z</time></trkpt><trkpt lat="45.1699253" lon="8.1036023"><ele>230.0</ele><time>2026-05-04T17:19:30.274Z</time></trkpt><trkpt lat="45.1700278" lon="8.1035318"><ele>226.5</ele><time>2026-05-04T17:19:31.275Z</time></trkpt><trkpt lat="45.1701243" lon="8.1034349"><ele>223.0</ele><time>2026-05-04T17:19:32.273Z</time></trkpt><trkpt lat="45.1702116" lon="8.1033036"><ele>219.5</ele><time>2026-05-04T17:19:33.274Z</time></trkpt><trkpt lat="45.1702824" lon="8.1031537"><ele>216.0</ele><time>2026-05-04T17:19:34.272Z</time></trkpt><trkpt lat="45.1703401" lon="8.1030014"><ele>215.0</ele><time>2026-05-04T17:19:35.276Z</time></trkpt><trkpt lat="45.1703858" lon="8.1028539"><ele>214.00000000000003</ele><time>2026-05-04T17:19:36.276Z</time></trkpt><trkpt lat="45.1704136" lon="8.1027013"><ele>213.0</ele><time>2026-05-04T17:19:37.269Z</time></trkpt><trkpt lat="45.1704161" lon="8.1025484"><ele>212.0</ele><time>2026-05-04T17:19:38.276Z</time></trkpt><trkpt lat="45.1703892" lon="8.1024001"><ele>211.0</ele><time>2026-05-04T17:19:39.273Z</time></trkpt><trkpt lat="45.1703371" lon="8.1022594"><ele>211.0</ele><time>2026-05-04T17:19:40.276Z</time></trkpt><trkpt lat="45.17028" lon="8.1021194"><ele>211.0</ele><time>2026-05-04T17:19:41.275Z</time></trkpt><trkpt lat="45.1702297" lon="8.1019888"><ele>211.0</ele><time>2026-05-04T17:19:42.28Z</time></trkpt><trkpt lat="45.1701936" lon="8.1018508"><ele>211.0</ele><time>2026-05-04T17:19:43.269Z</time></trkpt><trkpt lat="45.1701819" lon="8.1017082"><ele>211.0</ele><time>2026-05-04T17:19:44.274Z</time></trkpt><trkpt lat="45.1701894" lon="8.1015762"><ele>210.33333333333331</ele><time>2026-05-04T17:19:45.275Z</time></trkpt><trkpt lat="45.1702236" lon="8.1014702"><ele>209.66666666666666</ele><time>2026-05-04T17:19:46.275Z</time></trkpt><trkpt lat="45.17028" lon="8.1013905"><ele>209.0</ele><time>2026-05-04T17:19:47.274Z</time></trkpt><trkpt lat="45.170352" lon="8.1013427"><ele>208.33333333333331</ele><time>2026-05-04T17:19:48.274Z</time></trkpt><trkpt lat="45.1704415" lon="8.1013268"><ele>207.66666666666666</ele><time>2026-05-04T17:19:49.277Z</time></trkpt><trkpt lat="45.1705442" lon="8.1013471"><ele>207.0</ele><time>2026-05-04T17:19:50.275Z</time></trkpt><trkpt lat="45.1706493" lon="8.101406"><ele>205.8</ele><time>2026-05-04T17:19:51.276Z</time></trkpt><trkpt lat="45.1707527" lon="8.1014866"><ele>204.6</ele><time>2026-05-04T17:19:52.279Z</time></trkpt><trkpt lat="45.1708491" lon="8.1015682"><ele>203.4</ele><time>2026-05-04T17:19:53.275Z</time></trkpt><trkpt lat="45.1709477" lon="8.1016379"><ele>202.20000000000002</ele><time>2026-05-04T17:19:54.274Z</time></trkpt><trkpt lat="45.1710458" lon="8.1016889"><ele>201.0</ele><time>2026-05-04T17:19:55.271Z</time></trkpt><trkpt lat="45.1711444" lon="8.1017094"><ele>201.0</ele><time>2026-05-04T17:19:56.273Z</time></trkpt><trkpt lat="45.1712365" lon="8.1017085"><ele>201.0</ele><time>2026-05-04T17:19:57.275Z</time></trkpt><trkpt lat="45.1713226" lon="8.1016572"><ele>201.0</ele><time>2026-05-04T17:19:58.274Z</time></trkpt><trkpt lat="45.171393" lon="8.1015791"><ele>201.0</ele><time>2026-05-04T17:19:59.272Z</time></trkpt><trkpt lat="45.1714411" lon="8.1014951"><ele>201.0</ele><time>2026-05-04T17:20:00.273Z</time></trkpt><trkpt lat="45.1714761" lon="8.1013951"><ele>201.0</ele><time>2026-05-04T17:20:01.275Z</time></trkpt><trkpt lat="45.1714605" lon="8.1012986"><ele>198.60000000000002</ele><time>2026-05-04T17:20:02.28Z</time></trkpt><trkpt lat="45.1714179" lon="8.1012141"><ele>196.2</ele><time>2026-05-04T17:20:03.274Z</time></trkpt><trkpt lat="45.171374" lon="8.1011476"><ele>193.8</ele><time>2026-05-04T17:20:04.277Z</time></trkpt><trkpt lat="45.1713207" lon="8.1010076"><ele>191.39999999999998</ele><time>2026-05-04T17:20:06.277Z</time></trkpt><trkpt lat="45.1713846" lon="8.1008675"><ele>189.0</ele><time>2026-05-04T17:20:08.275Z</time></trkpt><trkpt lat="45.1714848" lon="8.1008025"><ele>187.0</ele><time>2026-05-04T17:20:09.271Z</time></trkpt><trkpt lat="45.1715916" lon="8.1007357"><ele>185.0</ele><time>2026-05-04T17:20:10.278Z</time></trkpt><trkpt lat="45.1717108" lon="8.1006526"><ele>183.0</ele><time>2026-05-04T17:20:11.274Z</time></trkpt><trkpt lat="45.1718342" lon="8.1005467"><ele>181.0</ele><time>2026-05-04T17:20:12.273Z</time></trkpt><trkpt lat="45.1719604" lon="8.1004258"><ele>181.0</ele><time>2026-05-04T17:20:13.274Z</time></trkpt><trkpt lat="45.1720725" lon="8.1003065"><ele>181.0</ele><time>2026-05-04T17:20:14.271Z</time></trkpt><trkpt lat="45.1721806" lon="8.1001939"><ele>181.0</ele><time>2026-05-04T17:20:15.272Z</time></trkpt><trkpt lat="45.1722656" lon="8.1000681"><ele>181.0</ele><time>2026-05-04T17:20:16.271Z</time></trkpt><trkpt lat="45.1723351" lon="8.099903"><ele>179.4</ele><time>2026-05-04T17:20:17.271Z</time></trkpt><trkpt lat="45.1723994" lon="8.0997569"><ele>177.8</ele><time>2026-05-04T17:20:18.282Z</time></trkpt><trkpt lat="45.1724597" lon="8.0996246"><ele>176.20000000000002</ele><time>2026-05-04T17:20:19.279Z</time></trkpt><trkpt lat="45.1725068" lon="8.0994942"><ele>174.60000000000002</ele><time>2026-05-04T17:20:20.297Z</time></trkpt><trkpt lat="45.1725364" lon="8.0993601"><ele>173.0</ele><time>2026-05-04T17:20:21.269Z</time></trkpt><trkpt lat="45.1725464" lon="8.0992204"><ele>173.0</ele><time>2026-05-04T17:20:22.28Z</time></trkpt><trkpt lat="45.1725303" lon="8.0990847"><ele>173.0</ele><time>2026-05-04T17:20:23.272Z</time></trkpt><trkpt lat="45.1725054" lon="8.098958"><ele>173.0</ele><time>2026-05-04T17:20:24.278Z</time></trkpt><trkpt lat="45.1724795" lon="8.0988353"><ele>173.0</ele><time>2026-05-04T17:20:25.278Z</time></trkpt><trkpt lat="45.1725013" lon="8.0987262"><ele>173.0</ele><time>2026-05-04T17:20:26.275Z</time></trkpt><trkpt lat="45.1725309" lon="8.0986169"><ele>173.0</ele><time>2026-05-04T17:20:27.275Z</time></trkpt><trkpt lat="45.1726135" lon="8.0985439"><ele>174.0</ele><time>2026-05-04T17:20:28.276Z</time></trkpt><trkpt lat="45.1727108" lon="8.0984952"><ele>175.0</ele><time>2026-05-04T17:20:29.266Z</time></trkpt><trkpt lat="45.1728184" lon="8.0984711"><ele>176.0</ele><time>2026-05-04T17:20:30.271Z</time></trkpt><trkpt lat="45.172938" lon="8.0984734"><ele>177.0</ele><time>2026-05-04T17:20:31.273Z</time></trkpt><trkpt lat="45.1730581" lon="8.0985075"><ele>177.0</ele><time>2026-05-04T17:20:32.277Z</time></trkpt><trkpt lat="45.1731734" lon="8.0985495"><ele>177.0</ele><time>2026-05-04T17:20:33.276Z</time></trkpt><trkpt lat="45.1732825" lon="8.0985882"><ele>177.0</ele><time>2026-05-04T17:20:34.273Z</time></trkpt><trkpt lat="45.1733937" lon="8.098604"><ele>177.0</ele><time>2026-05-04T17:20:35.271Z</time></trkpt><trkpt lat="45.1735045" lon="8.0985871"><ele>174.6</ele><time>2026-05-04T17:20:36.28Z</time></trkpt><trkpt lat="45.1736094" lon="8.0985457"><ele>172.2</ele><time>2026-05-04T17:20:37.281Z</time></trkpt><trkpt lat="45.1736981" lon="8.0984654"><ele>169.8</ele><time>2026-05-04T17:20:38.276Z</time></trkpt><trkpt lat="45.1737654" lon="8.0983698"><ele>167.4</ele><time>2026-05-04T17:20:39.274Z</time></trkpt><trkpt lat="45.1738118" lon="8.098272"><ele>165.0</ele><time>2026-05-04T17:20:40.271Z</time></trkpt><trkpt lat="45.1738473" lon="8.0981818"><ele>165.0</ele><time>2026-05-04T17:20:41.278Z</time></trkpt><trkpt lat="45.1738914" lon="8.0981174"><ele>165.0</ele><time>2026-05-04T17:20:42.286Z</time></trkpt><trkpt lat="45.1739797" lon="8.0980877"><ele>165.0</ele><time>2026-05-04T17:20:44.275Z</time></trkpt><trkpt lat="45.1740981" lon="8.0981964"><ele>165.0</ele><time>2026-05-04T17:20:46.275Z</time></trkpt><trkpt lat="45.1741816" lon="8.0982874"><ele>165.0</ele><time>2026-05-04T17:20:47.282Z</time></trkpt><trkpt lat="45.1742827" lon="8.0983821"><ele>164.75</ele><time>2026-05-04T17:20:48.275Z</time></trkpt><trkpt lat="45.1744045" lon="8.0984795"><ele>164.5</ele><time>2026-05-04T17:20:49.274Z</time></trkpt><trkpt lat="45.1745312" lon="8.0985556"><ele>164.25</ele><time>2026-05-04T17:20:50.279Z</time></trkpt><trkpt lat="45.1746469" lon="8.0986099"><ele>164.0</ele><time>2026-05-04T17:20:51.274Z</time></trkpt><trkpt lat="45.1747494" lon="8.0986481"><ele>164.0</ele><time>2026-05-04T17:20:52.273Z</time></trkpt><trkpt lat="45.1748408" lon="8.0986759"><ele>164.0</ele><time>2026-05-04T17:20:53.282Z</time></trkpt><trkpt lat="45.1749213" lon="8.0986974"><ele>164.0</ele><time>2026-05-04T17:20:54.273Z</time></trkpt><trkpt lat="45.1749914" lon="8.0987127"><ele>164.0</ele><time>2026-05-04T17:20:55.275Z</time></trkpt><trkpt lat="45.1750539" lon="8.098729"><ele>164.0</ele><time>2026-05-04T17:20:56.271Z</time></trkpt><trkpt lat="45.1751616" lon="8.0987545"><ele>164.0</ele><time>2026-05-04T17:20:58.273Z</time></trkpt><trkpt lat="45.1752397" lon="8.0987746"><ele>162.39999999999998</ele><time>2026-05-04T17:21:00.276Z</time></trkpt><trkpt lat="45.1753532" lon="8.0988055"><ele>160.79999999999998</ele><time>2026-05-04T17:21:05.279Z</time></trkpt><trkpt lat="45.1754296" lon="8.0988037"><ele>159.2</ele><time>2026-05-04T17:23:01.18Z</time></trkpt><trkpt lat="45.1755121" lon="8.0987827"><ele>157.6</ele><time>2026-05-04T17:23:04.307Z</time></trkpt><trkpt lat="45.1756017" lon="8.0988127"><ele>156.0</ele><time>2026-05-04T17:23:07.308Z</time></trkpt><trkpt lat="45.17568" lon="8.0988539"><ele>155.16666666666666</ele><time>2026-05-04T17:23:10.348Z</time></trkpt><trkpt lat="45.1757621" lon="8.0988677"><ele>154.33333333333334</ele><time>2026-05-04T17:23:13.221Z</time></trkpt><trkpt lat="45.1758282" lon="8.0988909"><ele>153.5</ele><time>2026-05-04T17:23:15.313Z</time></trkpt><trkpt lat="45.1759011" lon="8.0989167"><ele>152.66666666666669</ele><time>2026-05-04T17:23:17.308Z</time></trkpt><trkpt lat="45.1759788" lon="8.0989464"><ele>151.83333333333334</ele><time>2026-05-04T17:23:19.349Z</time></trkpt><trkpt lat="45.176058" lon="8.0989699"><ele>151.0</ele><time>2026-05-04T17:23:21.28Z</time></trkpt><trkpt lat="45.1761385" lon="8.098993"><ele>151.0</ele><time>2026-05-04T17:23:23.309Z</time></trkpt><trkpt lat="45.1762198" lon="8.0990071"><ele>151.0</ele><time>2026-05-04T17:23:25.348Z</time></trkpt><trkpt lat="45.1762981" lon="8.0990145"><ele>151.0</ele><time>2026-05-04T17:23:27.289Z</time></trkpt><trkpt lat="45.1763756" lon="8.0990253"><ele>151.0</ele><time>2026-05-04T17:23:29.329Z</time></trkpt><trkpt lat="45.1764728" lon="8.0990502"><ele>151.0</ele><time>2026-05-04T17:23:31.281Z</time></trkpt><trkpt lat="45.1765456" lon="8.0990658"><ele>151.0</ele><time>2026-05-04T17:23:32.283Z</time></trkpt><trkpt lat="45.1766278" lon="8.0990783"><ele>150.4</ele><time>2026-05-04T17:23:33.281Z</time></trkpt><trkpt lat="45.1767136" lon="8.0990889"><ele>149.8</ele><time>2026-05-04T17:23:34.276Z</time></trkpt><trkpt lat="45.1768024" lon="8.0990979"><ele>149.20000000000002</ele><time>2026-05-04T17:23:35.283Z</time></trkpt><trkpt lat="45.1768949" lon="8.0991066"><ele>148.6</ele><time>2026-05-04T17:23:36.283Z</time></trkpt><trkpt lat="45.1769894" lon="8.0991213"><ele>148.0</ele><time>2026-05-04T17:23:37.276Z</time></trkpt><trkpt lat="45.177084" lon="8.0991436"><ele>148.0</ele><time>2026-05-04T17:23:38.323Z</time></trkpt><trkpt lat="45.177177" lon="8.0991686"><ele>148.0</ele><time>2026-05-04T17:23:39.283Z</time></trkpt><trkpt lat="45.1772749" lon="8.0991941"><ele>148.0</ele><time>2026-05-04T17:23:40.286Z</time></trkpt><trkpt lat="45.1773761" lon="8.0992177"><ele>148.0</ele><time>2026-05-04T17:23:41.276Z</time></trkpt><trkpt lat="45.1774813" lon="8.0992419"><ele>148.0</ele><time>2026-05-04T17:23:42.279Z</time></trkpt><trkpt lat="45.1775884" lon="8.0992645"><ele>148.0</ele><time>2026-05-04T17:23:43.278Z</time></trkpt><trkpt lat="45.1776918" lon="8.0992864"><ele>148.0</ele><time>2026-05-04T17:23:44.278Z</time></trkpt><trkpt lat="45.1777894" lon="8.0993086"><ele>148.0</ele><time>2026-05-04T17:23:45.279Z</time></trkpt><trkpt lat="45.1778848" lon="8.0993328"><ele>148.0</ele><time>2026-05-04T17:23:46.28Z</time></trkpt><trkpt lat="45.1779793" lon="8.0993583"><ele>148.0</ele><time>2026-05-04T17:23:47.288Z</time></trkpt><trkpt lat="45.1780745" lon="8.0993816"><ele>148.0</ele><time>2026-05-04T17:23:48.287Z</time></trkpt><trkpt lat="45.1781719" lon="8.0994032"><ele>148.0</ele><time>2026-05-04T17:23:49.291Z</time></trkpt><trkpt lat="45.1782711" lon="8.0994249"><ele>148.0</ele><time>2026-05-04T17:23:50.282Z</time></trkpt><trkpt lat="45.1783725" lon="8.0994508"><ele>148.0</ele><time>2026-05-04T17:23:51.282Z</time></trkpt><trkpt lat="45.178476" lon="8.0994816"><ele>148.0</ele><time>2026-05-04T17:23:52.282Z</time></trkpt><trkpt lat="45.1785811" lon="8.0995175"><ele>148.0</ele><time>2026-05-04T17:23:53.281Z</time></trkpt><trkpt lat="45.178688" lon="8.0995569"><ele>148.0</ele><time>2026-05-04T17:23:54.279Z</time></trkpt><trkpt lat="45.1787983" lon="8.0995958"><ele>148.0</ele><time>2026-05-04T17:23:55.286Z</time></trkpt><trkpt lat="45.1789108" lon="8.0996305"><ele>148.0</ele><time>2026-05-04T17:23:56.283Z</time></trkpt><trkpt lat="45.1790273" lon="8.0996606"><ele>147.75</ele><time>2026-05-04T17:23:57.286Z</time></trkpt><trkpt lat="45.1791472" lon="8.0996886"><ele>147.5</ele><time>2026-05-04T17:23:58.283Z</time></trkpt><trkpt lat="45.1792711" lon="8.0997155"><ele>147.25</ele><time>2026-05-04T17:23:59.288Z</time></trkpt><trkpt lat="45.1793977" lon="8.0997434"><ele>147.0</ele><time>2026-05-04T17:24:00.278Z</time></trkpt><trkpt lat="45.1795308" lon="8.0997716"><ele>147.0</ele><time>2026-05-04T17:24:01.284Z</time></trkpt><trkpt lat="45.1796701" lon="8.0998038"><ele>147.0</ele><time>2026-05-04T17:24:02.291Z</time></trkpt><trkpt lat="45.1798126" lon="8.0998379"><ele>147.0</ele><time>2026-05-04T17:24:03.281Z</time></trkpt><trkpt lat="45.1799579" lon="8.0998724"><ele>147.0</ele><time>2026-05-04T17:24:04.278Z</time></trkpt><trkpt lat="45.1801072" lon="8.099907"><ele>148.33333333333334</ele><time>2026-05-04T17:24:05.282Z</time></trkpt><trkpt lat="45.1802603" lon="8.0999407"><ele>149.66666666666669</ele><time>2026-05-04T17:24:06.289Z</time></trkpt><trkpt lat="45.1804168" lon="8.0999728"><ele>151.0</ele><time>2026-05-04T17:24:07.285Z</time></trkpt><trkpt lat="45.180581" lon="8.1000063"><ele>151.33333333333334</ele><time>2026-05-04T17:24:08.288Z</time></trkpt><trkpt lat="45.1807559" lon="8.1000431"><ele>151.66666666666666</ele><time>2026-05-04T17:24:09.283Z</time></trkpt><trkpt lat="45.1809478" lon="8.100087"><ele>152.0</ele><time>2026-05-04T17:24:10.284Z</time></trkpt><trkpt lat="45.1811591" lon="8.1001372"><ele>152.0</ele><time>2026-05-04T17:24:11.29Z</time></trkpt><trkpt lat="45.1813888" lon="8.100189"><ele>152.0</ele><time>2026-05-04T17:24:12.284Z</time></trkpt><trkpt lat="45.1816392" lon="8.1002406"><ele>153.0</ele><time>2026-05-04T17:24:13.283Z</time></trkpt><trkpt lat="45.1819005" lon="8.1002973"><ele>154.0</ele><time>2026-05-04T17:24:14.28Z</time></trkpt><trkpt lat="45.182155" lon="8.100357"><ele>155.5</ele><time>2026-05-04T17:24:15.28Z</time></trkpt><trkpt lat="45.1823911" lon="8.1004192"><ele>157.0</ele><time>2026-05-04T17:24:16.281Z</time></trkpt><trkpt lat="45.1826082" lon="8.1004789"><ele>157.0</ele><time>2026-05-04T17:24:17.279Z</time></trkpt><trkpt lat="45.1828084" lon="8.1005317"><ele>157.0</ele><time>2026-05-04T17:24:18.282Z</time></trkpt><trkpt lat="45.1829927" lon="8.1005771"><ele>157.0</ele><time>2026-05-04T17:24:19.282Z</time></trkpt><trkpt lat="45.1831661" lon="8.1006168"><ele>156.66666666666669</ele><time>2026-05-04T17:24:20.282Z</time></trkpt><trkpt lat="45.1833314" lon="8.1006552"><ele>156.33333333333334</ele><time>2026-05-04T17:24:21.287Z</time></trkpt><trkpt lat="45.1834906" lon="8.1006931"><ele>156.0</ele><time>2026-05-04T17:24:22.279Z</time></trkpt><trkpt lat="45.1836456" lon="8.1007297"><ele>155.0</ele><time>2026-05-04T17:24:23.28Z</time></trkpt><trkpt lat="45.1837933" lon="8.1007646"><ele>154.0</ele><time>2026-05-04T17:24:24.286Z</time></trkpt><trkpt lat="45.18393" lon="8.1007967"><ele>153.0</ele><time>2026-05-04T17:24:25.289Z</time></trkpt><trkpt lat="45.1840542" lon="8.1008245"><ele>152.0</ele><time>2026-05-04T17:24:26.284Z</time></trkpt><trkpt lat="45.1841685" lon="8.1008489"><ele>151.79999999999998</ele><time>2026-05-04T17:24:27.283Z</time></trkpt><trkpt lat="45.184276" lon="8.100873"><ele>151.6</ele><time>2026-05-04T17:24:28.284Z</time></trkpt><trkpt lat="45.184378" lon="8.1008965"><ele>151.39999999999998</ele><time>2026-05-04T17:24:29.288Z</time></trkpt><trkpt lat="45.1844771" lon="8.1009168"><ele>151.2</ele><time>2026-05-04T17:24:30.282Z</time></trkpt><trkpt lat="45.1845734" lon="8.1009355"><ele>151.0</ele><time>2026-05-04T17:24:31.281Z</time></trkpt><trkpt lat="45.1846642" lon="8.1009536"><ele>151.0</ele><time>2026-05-04T17:24:32.276Z</time></trkpt><trkpt lat="45.1847486" lon="8.100976"><ele>151.0</ele><time>2026-05-04T17:24:33.283Z</time></trkpt><trkpt lat="45.1848273" lon="8.101003"><ele>151.0</ele><time>2026-05-04T17:24:34.281Z</time></trkpt><trkpt lat="45.1849089" lon="8.1010297"><ele>151.0</ele><time>2026-05-04T17:24:35.29Z</time></trkpt><trkpt lat="45.1849947" lon="8.101051"><ele>151.0</ele><time>2026-05-04T17:24:36.286Z</time></trkpt><trkpt lat="45.1850816" lon="8.1010654"><ele>151.0</ele><time>2026-05-04T17:24:37.277Z</time></trkpt><trkpt lat="45.1851669" lon="8.1010723"><ele>151.0</ele><time>2026-05-04T17:24:38.28Z</time></trkpt><trkpt lat="45.1852475" lon="8.1010746"><ele>151.0</ele><time>2026-05-04T17:24:39.279Z</time></trkpt><trkpt lat="45.1853254" lon="8.1010825"><ele>151.0</ele><time>2026-05-04T17:24:40.275Z</time></trkpt><trkpt lat="45.1854034" lon="8.1011"><ele>151.0</ele><time>2026-05-04T17:24:41.286Z</time></trkpt><trkpt lat="45.1854835" lon="8.1011219"><ele>151.0</ele><time>2026-05-04T17:24:42.285Z</time></trkpt><trkpt lat="45.1855682" lon="8.101148"><ele>151.0</ele><time>2026-05-04T17:24:43.285Z</time></trkpt><trkpt lat="45.1856539" lon="8.1011803"><ele>151.00000000000003</ele><time>2026-05-04T17:24:44.282Z</time></trkpt><trkpt lat="45.1857321" lon="8.101215"><ele>151.0</ele><time>2026-05-04T17:24:45.28Z</time></trkpt><trkpt lat="45.1857967" lon="8.1012435"><ele>151.0</ele><time>2026-05-04T17:24:46.285Z</time></trkpt><trkpt lat="45.1858546" lon="8.1012958"><ele>151.0</ele><time>2026-05-04T17:24:47.279Z</time></trkpt><trkpt lat="45.185916" lon="8.101333"><ele>151.0</ele><time>2026-05-04T17:24:48.289Z</time></trkpt><trkpt lat="45.1859861" lon="8.1013649"><ele>151.00000000000003</ele><time>2026-05-04T17:24:49.288Z</time></trkpt><trkpt lat="45.1860629" lon="8.101374"><ele>151.0</ele><time>2026-05-04T17:24:50.28Z</time></trkpt><trkpt lat="45.1861439" lon="8.1013693"><ele>151.0</ele><time>2026-05-04T17:24:51.284Z</time></trkpt><trkpt lat="45.1862252" lon="8.1013727"><ele>151.0</ele><time>2026-05-04T17:24:52.285Z</time></trkpt><trkpt lat="45.1863055" lon="8.1013835"><ele>151.0</ele><time>2026-05-04T17:24:53.284Z</time></trkpt><trkpt lat="45.1863889" lon="8.1013946"><ele>151.0</ele><time>2026-05-04T17:24:54.281Z</time></trkpt><trkpt lat="45.1864782" lon="8.101404"><ele>151.0</ele><time>2026-05-04T17:24:55.283Z</time></trkpt><trkpt lat="45.1865731" lon="8.1014171"><ele>151.0</ele><time>2026-05-04T17:24:56.281Z</time></trkpt><trkpt lat="45.1866738" lon="8.1014354"><ele>151.25</ele><time>2026-05-04T17:24:57.281Z</time></trkpt><trkpt lat="45.186787" lon="8.1014588"><ele>151.5</ele><time>2026-05-04T17:24:58.276Z</time></trkpt><trkpt lat="45.1869151" lon="8.1014836"><ele>151.75</ele><time>2026-05-04T17:24:59.289Z</time></trkpt><trkpt lat="45.1870714" lon="8.1015167"><ele>152.0</ele><time>2026-05-04T17:25:00.275Z</time></trkpt><trkpt lat="45.1872447" lon="8.1015541"><ele>152.33333333333331</ele><time>2026-05-04T17:25:01.281Z</time></trkpt><trkpt lat="45.1874346" lon="8.1015954"><ele>152.66666666666666</ele><time>2026-05-04T17:25:02.281Z</time></trkpt><trkpt lat="45.1876375" lon="8.1016452"><ele>153.0</ele><time>2026-05-04T17:25:03.278Z</time></trkpt><trkpt lat="45.1878494" lon="8.101684"><ele>153.0</ele><time>2026-05-04T17:25:04.281Z</time></trkpt><trkpt lat="45.1880727" lon="8.1017347"><ele>153.0</ele><time>2026-05-04T17:25:05.283Z</time></trkpt><trkpt lat="45.1882788" lon="8.1017938"><ele>153.0</ele><time>2026-05-04T17:25:06.281Z</time></trkpt><trkpt lat="45.1884697" lon="8.1018468"><ele>153.33333333333334</ele><time>2026-05-04T17:25:07.282Z</time></trkpt><trkpt lat="45.1886474" lon="8.1018843"><ele>153.66666666666669</ele><time>2026-05-04T17:25:08.29Z</time></trkpt><trkpt lat="45.1888121" lon="8.1019204"><ele>154.0</ele><time>2026-05-04T17:25:09.28Z</time></trkpt><trkpt lat="45.1889618" lon="8.1019557"><ele>154.5</ele><time>2026-05-04T17:25:10.282Z</time></trkpt><trkpt lat="45.1890985" lon="8.1019883"><ele>155.0</ele><time>2026-05-04T17:25:11.282Z</time></trkpt><trkpt lat="45.1892231" lon="8.1020238"><ele>155.5</ele><time>2026-05-04T17:25:12.285Z</time></trkpt><trkpt lat="45.1893494" lon="8.1020611"><ele>156.0</ele><time>2026-05-04T17:25:13.281Z</time></trkpt><trkpt lat="45.1894789" lon="8.102092"><ele>156.0</ele><time>2026-05-04T17:25:14.29Z</time></trkpt><trkpt lat="45.1896056" lon="8.1021252"><ele>156.0</ele><time>2026-05-04T17:25:15.287Z</time></trkpt><trkpt lat="45.1897279" lon="8.1021572"><ele>156.0</ele><time>2026-05-04T17:25:16.279Z</time></trkpt><trkpt lat="45.1898436" lon="8.1021869"><ele>156.0</ele><time>2026-05-04T17:25:17.275Z</time></trkpt><trkpt lat="45.1899428" lon="8.1022069"><ele>156.83333333333334</ele><time>2026-05-04T17:25:18.279Z</time></trkpt><trkpt lat="45.1900398" lon="8.1022068"><ele>157.66666666666666</ele><time>2026-05-04T17:25:19.285Z</time></trkpt><trkpt lat="45.1901279" lon="8.1022171"><ele>158.5</ele><time>2026-05-04T17:25:20.275Z</time></trkpt><trkpt lat="45.1902107" lon="8.1022378"><ele>159.33333333333331</ele><time>2026-05-04T17:25:21.281Z</time></trkpt><trkpt lat="45.190275" lon="8.1022759"><ele>160.16666666666666</ele><time>2026-05-04T17:25:22.279Z</time></trkpt><trkpt lat="45.1903687" lon="8.1022961"><ele>161.0</ele><time>2026-05-04T17:25:24.284Z</time></trkpt><trkpt lat="45.1904057" lon="8.1022072"><ele>161.0</ele><time>2026-05-04T17:25:26.294Z</time></trkpt><trkpt lat="45.1904038" lon="8.1021122"><ele>161.0</ele><time>2026-05-04T17:25:27.282Z</time></trkpt><trkpt lat="45.1904171" lon="8.1019853"><ele>161.0</ele><time>2026-05-04T17:25:28.283Z</time></trkpt><trkpt lat="45.1904393" lon="8.1018378"><ele>161.0</ele><time>2026-05-04T17:25:29.283Z</time></trkpt><trkpt lat="45.1904669" lon="8.1016604"><ele>161.0</ele><time>2026-05-04T17:25:30.276Z</time></trkpt><trkpt lat="45.1904951" lon="8.1014584"><ele>159.33333333333331</ele><time>2026-05-04T17:25:31.281Z</time></trkpt><trkpt lat="45.1905275" lon="8.1012405"><ele>157.66666666666666</ele><time>2026-05-04T17:25:32.285Z</time></trkpt><trkpt lat="45.1905672" lon="8.1010021"><ele>156.0</ele><time>2026-05-04T17:25:33.286Z</time></trkpt><trkpt lat="45.1906025" lon="8.1007631"><ele>155.75</ele><time>2026-05-04T17:25:34.283Z</time></trkpt><trkpt lat="45.1906372" lon="8.1005429"><ele>155.5</ele><time>2026-05-04T17:25:35.281Z</time></trkpt><trkpt lat="45.1906703" lon="8.1003361"><ele>155.25</ele><time>2026-05-04T17:25:36.286Z</time></trkpt><trkpt lat="45.1906981" lon="8.1001511"><ele>155.0</ele><time>2026-05-04T17:25:37.281Z</time></trkpt><trkpt lat="45.1907238" lon="8.0999758"><ele>155.16666666666666</ele><time>2026-05-04T17:25:38.281Z</time></trkpt><trkpt lat="45.1907402" lon="8.0998248"><ele>155.33333333333331</ele><time>2026-05-04T17:25:39.278Z</time></trkpt><trkpt lat="45.1907756" lon="8.0997"><ele>155.5</ele><time>2026-05-04T17:25:40.282Z</time></trkpt><trkpt lat="45.1908182" lon="8.0996006"><ele>155.66666666666666</ele><time>2026-05-04T17:25:41.283Z</time></trkpt><trkpt lat="45.1908687" lon="8.0995411"><ele>155.83333333333334</ele><time>2026-05-04T17:25:42.287Z</time></trkpt><trkpt lat="45.1909523" lon="8.0995224"><ele>156.0</ele><time>2026-05-04T17:25:43.297Z</time></trkpt><trkpt lat="45.1910463" lon="8.099529"><ele>156.0</ele><time>2026-05-04T17:25:44.285Z</time></trkpt><trkpt lat="45.1911593" lon="8.0995546"><ele>156.0</ele><time>2026-05-04T17:25:45.281Z</time></trkpt><trkpt lat="45.1912783" lon="8.0995843"><ele>156.0</ele><time>2026-05-04T17:25:46.279Z</time></trkpt><trkpt lat="45.1913788" lon="8.0996091"><ele>156.0</ele><time>2026-05-04T17:25:47.282Z</time></trkpt><trkpt lat="45.1914669" lon="8.099635"><ele>156.0</ele><time>2026-05-04T17:25:48.276Z</time></trkpt><trkpt lat="45.1915331" lon="8.0996456"><ele>156.0</ele><time>2026-05-04T17:25:49.279Z</time></trkpt><trkpt lat="45.1916143" lon="8.0995759"><ele>156.0</ele><time>2026-05-04T17:25:51.274Z</time></trkpt><trkpt lat="45.1916342" lon="8.0993925"><ele>156.0</ele><time>2026-05-04T17:25:53.276Z</time></trkpt><trkpt lat="45.1916364" lon="8.099259"><ele>156.0</ele><time>2026-05-04T17:25:54.276Z</time></trkpt><trkpt lat="45.1916251" lon="8.0990822"><ele>156.0</ele><time>2026-05-04T17:25:55.283Z</time></trkpt><trkpt lat="45.1916246" lon="8.0988825"><ele>155.66666666666666</ele><time>2026-05-04T17:25:56.282Z</time></trkpt><trkpt lat="45.1916324" lon="8.0986774"><ele>155.33333333333331</ele><time>2026-05-04T17:25:57.287Z</time></trkpt><trkpt lat="45.1916463" lon="8.0984522"><ele>155.0</ele><time>2026-05-04T17:25:58.279Z</time></trkpt><trkpt lat="45.1916505" lon="8.0982089"><ele>155.0</ele><time>2026-05-04T17:25:59.281Z</time></trkpt><trkpt lat="45.1916378" lon="8.0979548"><ele>155.0</ele><time>2026-05-04T17:26:00.278Z</time></trkpt><trkpt lat="45.1916232" lon="8.0977007"><ele>155.0</ele><time>2026-05-04T17:26:01.275Z</time></trkpt><trkpt lat="45.1915968" lon="8.0974414"><ele>156.0</ele><time>2026-05-04T17:26:02.285Z</time></trkpt><trkpt lat="45.1915698" lon="8.0971912"><ele>157.0</ele><time>2026-05-04T17:26:03.28Z</time></trkpt><trkpt lat="45.1915471" lon="8.0969473"><ele>158.0</ele><time>2026-05-04T17:26:04.28Z</time></trkpt><trkpt lat="45.1915269" lon="8.0967153"><ele>158.0</ele><time>2026-05-04T17:26:05.282Z</time></trkpt><trkpt lat="45.1915125" lon="8.0964989"><ele>158.0</ele><time>2026-05-04T17:26:06.281Z</time></trkpt><trkpt lat="45.1914948" lon="8.096305"><ele>158.0</ele><time>2026-05-04T17:26:07.282Z</time></trkpt><trkpt lat="45.1914746" lon="8.0961263"><ele>158.0</ele><time>2026-05-04T17:26:08.278Z</time></trkpt><trkpt lat="45.1914529" lon="8.095953"><ele>158.0</ele><time>2026-05-04T17:26:09.283Z</time></trkpt><trkpt lat="45.1914315" lon="8.095782"><ele>158.0</ele><time>2026-05-04T17:26:10.282Z</time></trkpt><trkpt lat="45.1914045" lon="8.0956029"><ele>158.0</ele><time>2026-05-04T17:26:11.288Z</time></trkpt><trkpt lat="45.1913897" lon="8.0954043"><ele>158.0</ele><time>2026-05-04T17:26:12.278Z</time></trkpt><trkpt lat="45.1913824" lon="8.0951968"><ele>157.33333333333331</ele><time>2026-05-04T17:26:13.282Z</time></trkpt><trkpt lat="45.1913737" lon="8.0949715"><ele>156.66666666666666</ele><time>2026-05-04T17:26:14.283Z</time></trkpt><trkpt lat="45.1913622" lon="8.0947312"><ele>156.0</ele><time>2026-05-04T17:26:15.282Z</time></trkpt><trkpt lat="45.1913564" lon="8.0944815"><ele>156.0</ele><time>2026-05-04T17:26:16.277Z</time></trkpt><trkpt lat="45.1913595" lon="8.0942375"><ele>156.0</ele><time>2026-05-04T17:26:17.28Z</time></trkpt><trkpt lat="45.1913712" lon="8.0940132"><ele>156.0</ele><time>2026-05-04T17:26:18.285Z</time></trkpt><trkpt lat="45.1913788" lon="8.0938224"><ele>156.25</ele><time>2026-05-04T17:26:19.293Z</time></trkpt><trkpt lat="45.1913751" lon="8.0936695"><ele>156.5</ele><time>2026-05-04T17:26:20.284Z</time></trkpt><trkpt lat="45.1913695" lon="8.0935195"><ele>156.75</ele><time>2026-05-04T17:26:21.281Z</time></trkpt><trkpt lat="45.1913713" lon="8.0933545"><ele>157.0</ele><time>2026-05-04T17:26:22.283Z</time></trkpt><trkpt lat="45.1913418" lon="8.09315"><ele>157.33333333333334</ele><time>2026-05-04T17:26:23.281Z</time></trkpt><trkpt lat="45.1913045" lon="8.0929264"><ele>157.66666666666666</ele><time>2026-05-04T17:26:24.279Z</time></trkpt><trkpt lat="45.1912634" lon="8.0926739"><ele>158.0</ele><time>2026-05-04T17:26:25.283Z</time></trkpt><trkpt lat="45.191235" lon="8.0924144"><ele>157.33333333333331</ele><time>2026-05-04T17:26:26.284Z</time></trkpt><trkpt lat="45.1912055" lon="8.0921469"><ele>156.66666666666666</ele><time>2026-05-04T17:26:27.283Z</time></trkpt><trkpt lat="45.1911862" lon="8.0918836"><ele>156.0</ele><time>2026-05-04T17:26:28.275Z</time></trkpt><trkpt lat="45.1911568" lon="8.0915927"><ele>155.5</ele><time>2026-05-04T17:26:29.286Z</time></trkpt><trkpt lat="45.1911255" lon="8.0912838"><ele>155.0</ele><time>2026-05-04T17:26:30.283Z</time></trkpt><trkpt lat="45.1910904" lon="8.0909517"><ele>154.5</ele><time>2026-05-04T17:26:31.288Z</time></trkpt><trkpt lat="45.1910525" lon="8.0905889"><ele>154.0</ele><time>2026-05-04T17:26:32.286Z</time></trkpt><trkpt lat="45.1910234" lon="8.0902198"><ele>153.5</ele><time>2026-05-04T17:26:33.288Z</time></trkpt><trkpt lat="45.191011" lon="8.0898311"><ele>153.0</ele><time>2026-05-04T17:26:34.282Z</time></trkpt><trkpt lat="45.1909814" lon="8.0894555"><ele>153.0</ele><time>2026-05-04T17:26:35.283Z</time></trkpt><trkpt lat="45.1909519" lon="8.0890719"><ele>153.0</ele><time>2026-05-04T17:26:36.279Z</time></trkpt><trkpt lat="45.190919" lon="8.0886777"><ele>153.0</ele><time>2026-05-04T17:26:37.294Z</time></trkpt><trkpt lat="45.1908851" lon="8.0882749"><ele>153.0</ele><time>2026-05-04T17:26:38.287Z</time></trkpt><trkpt lat="45.1908509" lon="8.0878603"><ele>154.0</ele><time>2026-05-04T17:26:39.284Z</time></trkpt><trkpt lat="45.1908162" lon="8.0874349"><ele>155.0</ele><time>2026-05-04T17:26:40.281Z</time></trkpt><trkpt lat="45.1907796" lon="8.0870025"><ele>155.0</ele><time>2026-05-04T17:26:41.285Z</time></trkpt><trkpt lat="45.1907448" lon="8.0865554"><ele>155.0</ele><time>2026-05-04T17:26:42.286Z</time></trkpt><trkpt lat="45.1907071" lon="8.0860929"><ele>155.0</ele><time>2026-05-04T17:26:43.286Z</time></trkpt><trkpt lat="45.1906682" lon="8.0856197"><ele>155.0</ele><time>2026-05-04T17:26:44.284Z</time></trkpt><trkpt lat="45.190631" lon="8.085154"><ele>155.0</ele><time>2026-05-04T17:26:45.283Z</time></trkpt><trkpt lat="45.1905963" lon="8.0846996"><ele>155.0</ele><time>2026-05-04T17:26:46.287Z</time></trkpt><trkpt lat="45.190562" lon="8.0842531"><ele>155.5</ele><time>2026-05-04T17:26:47.287Z</time></trkpt><trkpt lat="45.190528" lon="8.08382"><ele>156.0</ele><time>2026-05-04T17:26:48.281Z</time></trkpt><trkpt lat="45.1904933" lon="8.0834019"><ele>156.0</ele><time>2026-05-04T17:26:49.285Z</time></trkpt><trkpt lat="45.1904592" lon="8.0829915"><ele>156.0</ele><time>2026-05-04T17:26:50.285Z</time></trkpt><trkpt lat="45.1904255" lon="8.0825865"><ele>156.5</ele><time>2026-05-04T17:26:51.282Z</time></trkpt><trkpt lat="45.1903917" lon="8.0821857"><ele>157.0</ele><time>2026-05-04T17:26:52.283Z</time></trkpt><trkpt lat="45.1903563" lon="8.081791"><ele>156.5</ele><time>2026-05-04T17:26:53.276Z</time></trkpt><trkpt lat="45.1903212" lon="8.0814018"><ele>156.0</ele><time>2026-05-04T17:26:54.279Z</time></trkpt><trkpt lat="45.1902862" lon="8.0810086"><ele>156.5</ele><time>2026-05-04T17:26:55.288Z</time></trkpt><trkpt lat="45.1902553" lon="8.0806059"><ele>157.0</ele><time>2026-05-04T17:26:56.283Z</time></trkpt><trkpt lat="45.190228" lon="8.0801885"><ele>157.0</ele><time>2026-05-04T17:26:57.277Z</time></trkpt><trkpt lat="45.190206" lon="8.0797576"><ele>157.0</ele><time>2026-05-04T17:26:58.282Z</time></trkpt><trkpt lat="45.1901856" lon="8.0793149"><ele>157.0</ele><time>2026-05-04T17:26:59.282Z</time></trkpt><trkpt lat="45.1901621" lon="8.0788608"><ele>157.0</ele><time>2026-05-04T17:27:00.278Z</time></trkpt><trkpt lat="45.1901342" lon="8.0783974"><ele>156.5</ele><time>2026-05-04T17:27:01.281Z</time></trkpt><trkpt lat="45.1901033" lon="8.0779404"><ele>156.0</ele><time>2026-05-04T17:27:02.278Z</time></trkpt><trkpt lat="45.190073" lon="8.0775147"><ele>156.5</ele><time>2026-05-04T17:27:03.287Z</time></trkpt><trkpt lat="45.1900447" lon="8.0771166"><ele>157.0</ele><time>2026-05-04T17:27:04.282Z</time></trkpt><trkpt lat="45.1900179" lon="8.0767398"><ele>157.0</ele><time>2026-05-04T17:27:05.28Z</time></trkpt><trkpt lat="45.1899926" lon="8.0763832"><ele>157.0</ele><time>2026-05-04T17:27:06.282Z</time></trkpt><trkpt lat="45.1899679" lon="8.0760427"><ele>156.0</ele><time>2026-05-04T17:27:07.279Z</time></trkpt><trkpt lat="45.1899441" lon="8.0757138"><ele>155.0</ele><time>2026-05-04T17:27:08.282Z</time></trkpt><trkpt lat="45.1899224" lon="8.0753977"><ele>155.0</ele><time>2026-05-04T17:27:09.279Z</time></trkpt><trkpt lat="45.1899027" lon="8.0750905"><ele>155.0</ele><time>2026-05-04T17:27:10.28Z</time></trkpt><trkpt lat="45.189884" lon="8.0747915"><ele>155.0</ele><time>2026-05-04T17:27:11.279Z</time></trkpt><trkpt lat="45.1898645" lon="8.0745043"><ele>155.0</ele><time>2026-05-04T17:27:12.282Z</time></trkpt><trkpt lat="45.1898443" lon="8.0742353"><ele>155.0</ele><time>2026-05-04T17:27:13.281Z</time></trkpt><trkpt lat="45.1898245" lon="8.0739847"><ele>155.0</ele><time>2026-05-04T17:27:14.279Z</time></trkpt><trkpt lat="45.1898071" lon="8.0737495"><ele>155.0</ele><time>2026-05-04T17:27:15.286Z</time></trkpt><trkpt lat="45.1897934" lon="8.0735238"><ele>155.0</ele><time>2026-05-04T17:27:16.281Z</time></trkpt><trkpt lat="45.1897816" lon="8.0732999"><ele>155.0</ele><time>2026-05-04T17:27:17.281Z</time></trkpt><trkpt lat="45.1897715" lon="8.073078"><ele>154.75</ele><time>2026-05-04T17:27:18.288Z</time></trkpt><trkpt lat="45.1897637" lon="8.072876"><ele>154.5</ele><time>2026-05-04T17:27:19.284Z</time></trkpt><trkpt lat="45.1897585" lon="8.072667"><ele>154.25</ele><time>2026-05-04T17:27:20.288Z</time></trkpt><trkpt lat="45.1897555" lon="8.0724682"><ele>154.0</ele><time>2026-05-04T17:27:21.281Z</time></trkpt><trkpt lat="45.1897566" lon="8.0722692"><ele>154.5</ele><time>2026-05-04T17:27:22.287Z</time></trkpt><trkpt lat="45.1897606" lon="8.0720834"><ele>155.0</ele><time>2026-05-04T17:27:23.29Z</time></trkpt><trkpt lat="45.1897651" lon="8.0719043"><ele>155.5</ele><time>2026-05-04T17:27:24.278Z</time></trkpt><trkpt lat="45.189773" lon="8.0717399"><ele>156.0</ele><time>2026-05-04T17:27:25.297Z</time></trkpt><trkpt lat="45.1897838" lon="8.0715879"><ele>156.0</ele><time>2026-05-04T17:27:26.285Z</time></trkpt><trkpt lat="45.1897952" lon="8.0714449"><ele>156.0</ele><time>2026-05-04T17:27:27.287Z</time></trkpt><trkpt lat="45.1898079" lon="8.0713097"><ele>156.0</ele><time>2026-05-04T17:27:28.286Z</time></trkpt><trkpt lat="45.1898195" lon="8.0711814"><ele>156.0</ele><time>2026-05-04T17:27:29.286Z</time></trkpt><trkpt lat="45.1898302" lon="8.0710594"><ele>156.0</ele><time>2026-05-04T17:27:30.291Z</time></trkpt><trkpt lat="45.1898403" lon="8.0709455"><ele>156.2</ele><time>2026-05-04T17:27:31.282Z</time></trkpt><trkpt lat="45.1898519" lon="8.0708366"><ele>156.39999999999998</ele><time>2026-05-04T17:27:32.285Z</time></trkpt><trkpt lat="45.1898687" lon="8.0707278"><ele>156.6</ele><time>2026-05-04T17:27:33.283Z</time></trkpt><trkpt lat="45.1898947" lon="8.0706111"><ele>156.79999999999998</ele><time>2026-05-04T17:27:34.283Z</time></trkpt><trkpt lat="45.1899344" lon="8.0704829"><ele>157.0</ele><time>2026-05-04T17:27:35.28Z</time></trkpt><trkpt lat="45.1899904" lon="8.0703403"><ele>156.5</ele><time>2026-05-04T17:27:36.286Z</time></trkpt><trkpt lat="45.1900512" lon="8.0701859"><ele>156.0</ele><time>2026-05-04T17:27:37.288Z</time></trkpt><trkpt lat="45.1901241" lon="8.0700056"><ele>155.5</ele><time>2026-05-04T17:27:38.282Z</time></trkpt><trkpt lat="45.1902036" lon="8.0698133"><ele>155.0</ele><time>2026-05-04T17:27:39.284Z</time></trkpt><trkpt lat="45.1902875" lon="8.0696174"><ele>155.0</ele><time>2026-05-04T17:27:40.289Z</time></trkpt><trkpt lat="45.1903719" lon="8.069432"><ele>155.0</ele><time>2026-05-04T17:27:41.284Z</time></trkpt><trkpt lat="45.190446" lon="8.0692642"><ele>155.0</ele><time>2026-05-04T17:27:42.282Z</time></trkpt><trkpt lat="45.1905173" lon="8.069113"><ele>155.0</ele><time>2026-05-04T17:27:43.286Z</time></trkpt><trkpt lat="45.1905815" lon="8.0689714"><ele>155.2</ele><time>2026-05-04T17:27:44.282Z</time></trkpt><trkpt lat="45.1906435" lon="8.0688409"><ele>155.4</ele><time>2026-05-04T17:27:45.281Z</time></trkpt><trkpt lat="45.1906987" lon="8.0687277"><ele>155.6</ele><time>2026-05-04T17:27:46.287Z</time></trkpt><trkpt lat="45.1907415" lon="8.0686366"><ele>155.8</ele><time>2026-05-04T17:27:47.282Z</time></trkpt><trkpt lat="45.1907727" lon="8.0684875"><ele>156.0</ele><time>2026-05-04T17:27:49.285Z</time></trkpt><trkpt lat="45.1907234" lon="8.0683773"><ele>156.0</ele><time>2026-05-04T17:27:51.282Z</time></trkpt><trkpt lat="45.1906235" lon="8.0683073"><ele>156.0</ele><time>2026-05-04T17:27:53.281Z</time></trkpt><trkpt lat="45.1905625" lon="8.0682756"><ele>156.0</ele><time>2026-05-04T17:27:54.283Z</time></trkpt><trkpt lat="45.1904927" lon="8.0682392"><ele>156.0</ele><time>2026-05-04T17:27:55.282Z</time></trkpt><trkpt lat="45.1904184" lon="8.0681956"><ele>156.0</ele><time>2026-05-04T17:27:56.282Z</time></trkpt><trkpt lat="45.1903374" lon="8.0681481"><ele>156.0</ele><time>2026-05-04T17:27:57.282Z</time></trkpt><trkpt lat="45.1902516" lon="8.0680973"><ele>156.0</ele><time>2026-05-04T17:27:58.282Z</time></trkpt><trkpt lat="45.1901681" lon="8.0680487"><ele>156.0</ele><time>2026-05-04T17:27:59.285Z</time></trkpt><trkpt lat="45.1901027" lon="8.0680054"><ele>156.0</ele><time>2026-05-04T17:28:00.275Z</time></trkpt><trkpt lat="45.1900387" lon="8.0679744"><ele>156.0</ele><time>2026-05-04T17:28:01.283Z</time></trkpt><trkpt lat="45.1899108" lon="8.0679065"><ele>156.0</ele><time>2026-05-04T17:28:03.281Z</time></trkpt><trkpt lat="45.189835" lon="8.0678649"><ele>156.0</ele><time>2026-05-04T17:28:04.282Z</time></trkpt><trkpt lat="45.1897507" lon="8.0678216"><ele>156.16666666666666</ele><time>2026-05-04T17:28:05.28Z</time></trkpt><trkpt lat="45.1896677" lon="8.0677846"><ele>156.33333333333334</ele><time>2026-05-04T17:28:06.281Z</time></trkpt><trkpt lat="45.189592" lon="8.0677428"><ele>156.5</ele><time>2026-05-04T17:28:07.286Z</time></trkpt><trkpt lat="45.1895175" lon="8.0677057"><ele>156.66666666666669</ele><time>2026-05-04T17:28:08.279Z</time></trkpt><trkpt lat="45.1894465" lon="8.0676792"><ele>156.83333333333334</ele><time>2026-05-04T17:28:09.302Z</time></trkpt><trkpt lat="45.1893831" lon="8.0676544"><ele>157.0</ele><time>2026-05-04T17:28:10.281Z</time></trkpt><trkpt lat="45.1892853" lon="8.0676078"><ele>157.0</ele><time>2026-05-04T17:28:12.28Z</time></trkpt><trkpt lat="45.1892359" lon="8.0674911"><ele>157.0</ele><time>2026-05-04T17:28:14.283Z</time></trkpt><trkpt lat="45.1892333" lon="8.0673153"><ele>157.0</ele><time>2026-05-04T17:28:16.287Z</time></trkpt><trkpt lat="45.1892399" lon="8.0671998"><ele>157.0</ele><time>2026-05-04T17:28:17.282Z</time></trkpt><trkpt lat="45.1892528" lon="8.0670861"><ele>157.0</ele><time>2026-05-04T17:28:18.285Z</time></trkpt><trkpt lat="45.1892773" lon="8.0669694"><ele>156.0</ele><time>2026-05-04T17:28:19.281Z</time></trkpt><trkpt lat="45.1893073" lon="8.0668655"><ele>156.0</ele><time>2026-05-04T17:28:20.284Z</time></trkpt><trkpt lat="45.1893342" lon="8.0667692"><ele>156.0</ele><time>2026-05-04T17:28:21.28Z</time></trkpt><trkpt lat="45.1894049" lon="8.0666447"><ele>156.0</ele><time>2026-05-04T17:28:23.28Z</time></trkpt><trkpt lat="45.1894454" lon="8.0665486"><ele>157.0</ele><time>2026-05-04T17:28:25.285Z</time></trkpt></trkseg></trk></gpx>